<?xml version='1.0' encoding='UTF-8'?><gpx version="1.1" creator="JPX - https://github.com/jenetics/jpx" xmlns="http://www.topografix.com/GPX/1/1"><trk><trkseg><trkpt lat="45.9246705" lon="10.8942231"><ele>91.0</ele><time>2026-04-10T09:22:56.656Z</time></trkpt><trkpt lat="45.9247347" lon="10.8942477"><ele>91.0</ele><time>2026-04-10T09:22:57.656Z</time></trkpt><trkpt lat="45.9248524" lon="10.8943066"><ele>91.0</ele><time>2026-04-10T09:22:59.656Z</time></trkpt><trkpt lat="45.9249195" lon="10.8943441"><ele>91.0</ele><time>2026-04-10T09:23:00.656Z</time></trkpt><trkpt lat="45.9249871" lon="10.8943932"><ele>91.0</ele><time>2026-04-10T09:23:01.656Z</time></trkpt><trkpt lat="45.9250449" lon="10.8944486"><ele>91.0</ele><time>2026-04-10T09:23:02.656Z</time></trkpt><trkpt lat="45.9251237" lon="10.8945691"><ele>91.19999999999999</ele><time>2026-04-10T09:23:04.656Z</time></trkpt><trkpt lat="45.9251941" lon="10.894728"><ele>91.39999999999999</ele><time>2026-04-10T09:23:06.656Z</time></trkpt><trkpt lat="45.925228" lon="10.8948257"><ele>91.6</ele><time>2026-04-10T09:23:07.656Z</time></trkpt><trkpt lat="45.9252669" lon="10.8949299"><ele>91.8</ele><time>2026-04-10T09:23:08.656Z</time></trkpt><trkpt lat="45.9253096" lon="10.8950442"><ele>92.0</ele><time>2026-04-10T09:23:09.656Z</time></trkpt><trkpt lat="45.9253517" lon="10.8951603"><ele>92.83333333333334</ele><time>2026-04-10T09:23:10.656Z</time></trkpt><trkpt lat="45.9253997" lon="10.8952788"><ele>93.66666666666667</ele><time>2026-04-10T09:23:11.657Z</time></trkpt><trkpt lat="45.9254464" lon="10.8953822"><ele>94.5</ele><time>2026-04-10T09:23:12.656Z</time></trkpt><trkpt lat="45.925486" lon="10.8954807"><ele>95.33333333333334</ele><time>2026-04-10T09:23:13.657Z</time></trkpt><trkpt lat="45.9255213" lon="10.8955861"><ele>96.16666666666667</ele><time>2026-04-10T09:23:14.656Z</time></trkpt><trkpt lat="45.9255541" lon="10.8956918"><ele>97.0</ele><time>2026-04-10T09:23:15.656Z</time></trkpt><trkpt lat="45.9255845" lon="10.8957958"><ele>97.0</ele><time>2026-04-10T09:23:16.656Z</time></trkpt><trkpt lat="45.9256137" lon="10.8958829"><ele>97.0</ele><time>2026-04-10T09:23:17.656Z</time></trkpt><trkpt lat="45.9256522" lon="10.8960176"><ele>97.0</ele><time>2026-04-10T09:23:19.656Z</time></trkpt><trkpt lat="45.9256854" lon="10.8961413"><ele>97.0</ele><time>2026-04-10T09:23:21.657Z</time></trkpt><trkpt lat="45.9257352" lon="10.8962647"><ele>97.0</ele><time>2026-04-10T09:23:23.656Z</time></trkpt><trkpt lat="45.9257849" lon="10.896377"><ele>98.6</ele><time>2026-04-10T09:23:25.657Z</time></trkpt><trkpt lat="45.9257947" lon="10.8965283"><ele>100.19999999999999</ele><time>2026-04-10T09:23:27.657Z</time></trkpt><trkpt lat="45.9258004" lon="10.8966252"><ele>101.8</ele><time>2026-04-10T09:23:28.657Z</time></trkpt><trkpt lat="45.9258248" lon="10.8967676"><ele>103.4</ele><time>2026-04-10T09:23:30.657Z</time></trkpt><trkpt lat="45.9258224" lon="10.8969107"><ele>105.0</ele><time>2026-04-10T09:23:32.658Z</time></trkpt><trkpt lat="45.9258204" lon="10.8970257"><ele>106.16666666666667</ele><time>2026-04-10T09:23:34.657Z</time></trkpt><trkpt lat="45.9258752" lon="10.8971094"><ele>107.33333333333334</ele><time>2026-04-10T09:23:36.657Z</time></trkpt><trkpt lat="45.9258584" lon="10.8972006"><ele>108.5</ele><time>2026-04-10T09:23:38.657Z</time></trkpt><trkpt lat="45.9258414" lon="10.897319"><ele>109.66666666666667</ele><time>2026-04-10T09:23:40.657Z</time></trkpt><trkpt lat="45.9258328" lon="10.8974423"><ele>110.83333333333334</ele><time>2026-04-10T09:23:42.657Z</time></trkpt><trkpt lat="45.9258061" lon="10.897554"><ele>112.0</ele><time>2026-04-10T09:23:44.657Z</time></trkpt><trkpt lat="45.9258662" lon="10.8976069"><ele>114.0</ele><time>2026-04-10T09:23:52.657Z</time></trkpt><trkpt lat="45.9259906" lon="10.8976743"><ele>116.0</ele><time>2026-04-10T09:23:56.657Z</time></trkpt><trkpt lat="45.9260879" lon="10.8977332"><ele>118.0</ele><time>2026-04-10T09:23:58.657Z</time></trkpt><trkpt lat="45.9261971" lon="10.8977916"><ele>120.0</ele><time>2026-04-10T09:24:00.657Z</time></trkpt><trkpt lat="45.9262979" lon="10.8978302"><ele>120.0</ele><time>2026-04-10T09:24:02.657Z</time></trkpt><trkpt lat="45.9263977" lon="10.8978623"><ele>120.0</ele><time>2026-04-10T09:24:04.657Z</time></trkpt><trkpt lat="45.9264816" lon="10.8978952"><ele>120.0</ele><time>2026-04-10T09:24:06.657Z</time></trkpt><trkpt lat="45.926565" lon="10.8979213"><ele>120.0</ele><time>2026-04-10T09:24:09.658Z</time></trkpt><trkpt lat="45.9266328" lon="10.8979472"><ele>120.0</ele><time>2026-04-10T09:24:13.658Z</time></trkpt><trkpt lat="45.9265578" lon="10.8979544"><ele>120.0</ele><time>2026-04-10T09:24:29.659Z</time></trkpt><trkpt lat="45.9264947" lon="10.897926"><ele>120.0</ele><time>2026-04-10T09:24:41.658Z</time></trkpt><trkpt lat="45.9264133" lon="10.8978783"><ele>120.0</ele><time>2026-04-10T09:24:44.658Z</time></trkpt><trkpt lat="45.9263267" lon="10.8978357"><ele>120.0</ele><time>2026-04-10T09:24:46.658Z</time></trkpt><trkpt lat="45.9262352" lon="10.8977974"><ele>120.0</ele><time>2026-04-10T09:24:48.658Z</time></trkpt><trkpt lat="45.9261428" lon="10.8977502"><ele>120.0</ele><time>2026-04-10T09:24:50.659Z</time></trkpt><trkpt lat="45.9260625" lon="10.8977038"><ele>120.0</ele><time>2026-04-10T09:24:52.659Z</time></trkpt><trkpt lat="45.9259873" lon="10.897668"><ele>120.0</ele><time>2026-04-10T09:24:54.659Z</time></trkpt><trkpt lat="45.9259019" lon="10.897617"><ele>120.0</ele><time>2026-04-10T09:24:56.659Z</time></trkpt><trkpt lat="45.9258235" lon="10.8976158"><ele>120.0</ele><time>2026-04-10T09:24:59.659Z</time></trkpt><trkpt lat="45.9258179" lon="10.8977413"><ele>120.0</ele><time>2026-04-10T09:25:03.659Z</time></trkpt><trkpt lat="45.9258085" lon="10.8978553"><ele>120.0</ele><time>2026-04-10T09:25:05.659Z</time></trkpt><trkpt lat="45.9257477" lon="10.8979684"><ele>120.0</ele><time>2026-04-10T09:25:07.659Z</time></trkpt><trkpt lat="45.9257982" lon="10.8979143"><ele>120.0</ele><time>2026-04-10T09:25:38.66Z</time></trkpt><trkpt lat="45.925807" lon="10.8977936"><ele>120.0</ele><time>2026-04-10T09:25:40.66Z</time></trkpt><trkpt lat="45.925804" lon="10.8976973"><ele>120.0</ele><time>2026-04-10T09:25:42.66Z</time></trkpt><trkpt lat="45.925811" lon="10.8976059"><ele>120.0</ele><time>2026-04-10T09:25:45.66Z</time></trkpt><trkpt lat="45.9258912" lon="10.8976187"><ele>120.0</ele><time>2026-04-10T09:25:48.661Z</time></trkpt><trkpt lat="45.9259813" lon="10.8976508"><ele>120.0</ele><time>2026-04-10T09:25:51.66Z</time></trkpt><trkpt lat="45.9260457" lon="10.8977071"><ele>120.0</ele><time>2026-04-10T09:25:53.66Z</time></trkpt><trkpt lat="45.9261169" lon="10.8977483"><ele>120.0</ele><time>2026-04-10T09:25:55.66Z</time></trkpt><trkpt lat="45.9261924" lon="10.8977873"><ele>120.0</ele><time>2026-04-10T09:25:57.66Z</time></trkpt><trkpt lat="45.9262602" lon="10.8978238"><ele>120.0</ele><time>2026-04-10T09:25:59.661Z</time></trkpt><trkpt lat="45.9263406" lon="10.8978843"><ele>120.0</ele><time>2026-04-10T09:26:02.66Z</time></trkpt><trkpt lat="45.9264102" lon="10.8979697"><ele>120.0</ele><time>2026-04-10T09:26:05.66Z</time></trkpt><trkpt lat="45.9264648" lon="10.8980753"><ele>120.0</ele><time>2026-04-10T09:26:08.661Z</time></trkpt><trkpt lat="45.926457" lon="10.898186"><ele>120.0</ele><time>2026-04-10T09:26:10.66Z</time></trkpt><trkpt lat="45.9264418" lon="10.8982776"><ele>120.0</ele><time>2026-04-10T09:26:12.66Z</time></trkpt><trkpt lat="45.9263763" lon="10.8983333"><ele>120.0</ele><time>2026-04-10T09:26:16.661Z</time></trkpt><trkpt lat="45.9263118" lon="10.8983246"><ele>120.0</ele><time>2026-04-10T09:26:28.661Z</time></trkpt><trkpt lat="45.9262332" lon="10.8983202"><ele>120.0</ele><time>2026-04-10T09:26:31.661Z</time></trkpt><trkpt lat="45.926149" lon="10.8983257"><ele>120.0</ele><time>2026-04-10T09:26:34.661Z</time></trkpt><trkpt lat="45.9260837" lon="10.8983345"><ele>120.0</ele><time>2026-04-10T09:26:36.662Z</time></trkpt><trkpt lat="45.9260161" lon="10.8983538"><ele>120.0</ele><time>2026-04-10T09:26:38.662Z</time></trkpt><trkpt lat="45.9259412" lon="10.8983759"><ele>120.0</ele><time>2026-04-10T09:26:40.661Z</time></trkpt><trkpt lat="45.9258772" lon="10.8983875"><ele>120.0</ele><time>2026-04-10T09:26:42.661Z</time></trkpt><trkpt lat="45.9258126" lon="10.8984018"><ele>120.0</ele><time>2026-04-10T09:26:44.661Z</time></trkpt><trkpt lat="45.9257328" lon="10.8984189"><ele>122.0</ele><time>2026-04-10T09:26:46.661Z</time></trkpt><trkpt lat="45.9256406" lon="10.8984399"><ele>124.0</ele><time>2026-04-10T09:26:48.661Z</time></trkpt><trkpt lat="45.9255619" lon="10.8984704"><ele>126.0</ele><time>2026-04-10T09:26:50.661Z</time></trkpt><trkpt lat="45.9255005" lon="10.8985071"><ele>128.0</ele><time>2026-04-10T09:26:52.661Z</time></trkpt><trkpt lat="45.9254131" lon="10.8985306"><ele>130.0</ele><time>2026-04-10T09:26:55.661Z</time></trkpt><trkpt lat="45.9253127" lon="10.8985539"><ele>132.0</ele><time>2026-04-10T09:26:58.661Z</time></trkpt><trkpt lat="45.9252381" lon="10.8986019"><ele>132.0</ele><time>2026-04-10T09:27:00.663Z</time></trkpt><trkpt lat="45.9251577" lon="10.8986444"><ele>132.0</ele><time>2026-04-10T09:27:02.662Z</time></trkpt><trkpt lat="45.9250826" lon="10.8986903"><ele>132.0</ele><time>2026-04-10T09:27:04.662Z</time></trkpt><trkpt lat="45.925013" lon="10.8987616"><ele>132.0</ele><time>2026-04-10T09:27:06.662Z</time></trkpt><trkpt lat="45.9249724" lon="10.8988387"><ele>132.0</ele><time>2026-04-10T09:27:08.662Z</time></trkpt><trkpt lat="45.9249301" lon="10.8989106"><ele>132.0</ele><time>2026-04-10T09:27:10.662Z</time></trkpt><trkpt lat="45.924911" lon="10.8990132"><ele>131.16666666666666</ele><time>2026-04-10T09:27:12.662Z</time></trkpt><trkpt lat="45.9248852" lon="10.8991222"><ele>130.33333333333334</ele><time>2026-04-10T09:27:14.662Z</time></trkpt><trkpt lat="45.9248487" lon="10.8992074"><ele>129.5</ele><time>2026-04-10T09:27:16.662Z</time></trkpt><trkpt lat="45.924818" lon="10.8993172"><ele>128.66666666666669</ele><time>2026-04-10T09:27:19.662Z</time></trkpt><trkpt lat="45.924775" lon="10.8994254"><ele>127.83333333333334</ele><time>2026-04-10T09:27:22.662Z</time></trkpt><trkpt lat="45.924754" lon="10.8995433"><ele>127.0</ele><time>2026-04-10T09:27:24.662Z</time></trkpt><trkpt lat="45.9247771" lon="10.8996472"><ele>127.0</ele><time>2026-04-10T09:27:27.662Z</time></trkpt><trkpt lat="45.9248568" lon="10.899674"><ele>126.99999999999999</ele><time>2026-04-10T09:27:29.662Z</time></trkpt><trkpt lat="45.9249475" lon="10.8997214"><ele>126.99999999999999</ele><time>2026-04-10T09:27:31.662Z</time></trkpt><trkpt lat="45.9250513" lon="10.8997613"><ele>127.0</ele><time>2026-04-10T09:27:33.662Z</time></trkpt><trkpt lat="45.9251658" lon="10.8998409"><ele>127.0</ele><time>2026-04-10T09:27:35.662Z</time></trkpt><trkpt lat="45.9252131" lon="10.8999036"><ele>127.71428571428572</ele><time>2026-04-10T09:27:36.662Z</time></trkpt><trkpt lat="45.9252662" lon="10.8999671"><ele>128.42857142857142</ele><time>2026-04-10T09:27:37.662Z</time></trkpt><trkpt lat="45.925317" lon="10.9000451"><ele>129.14285714285714</ele><time>2026-04-10T09:27:38.662Z</time></trkpt><trkpt lat="45.925363" lon="10.9001212"><ele>129.85714285714286</ele><time>2026-04-10T09:27:39.662Z</time></trkpt><trkpt lat="45.9254135" lon="10.9001906"><ele>130.57142857142858</ele><time>2026-04-10T09:27:40.662Z</time></trkpt><trkpt lat="45.9254647" lon="10.9002712"><ele>131.28571428571428</ele><time>2026-04-10T09:27:41.663Z</time></trkpt><trkpt lat="45.9255194" lon="10.9003703"><ele>132.0</ele><time>2026-04-10T09:27:42.663Z</time></trkpt><trkpt lat="45.9255718" lon="10.9004787"><ele>132.0</ele><time>2026-04-10T09:27:43.663Z</time></trkpt><trkpt lat="45.9256266" lon="10.9005913"><ele>132.0</ele><time>2026-04-10T09:27:44.663Z</time></trkpt><trkpt lat="45.9256843" lon="10.9006965"><ele>132.0</ele><time>2026-04-10T09:27:45.663Z</time></trkpt><trkpt lat="45.9257532" lon="10.9007947"><ele>132.0</ele><time>2026-04-10T09:27:46.663Z</time></trkpt><trkpt lat="45.9258285" lon="10.9008872"><ele>132.0</ele><time>2026-04-10T09:27:47.663Z</time></trkpt><trkpt lat="45.9259077" lon="10.9009774"><ele>134.0</ele><time>2026-04-10T09:27:48.663Z</time></trkpt><trkpt lat="45.9259957" lon="10.9010503"><ele>136.0</ele><time>2026-04-10T09:27:49.663Z</time></trkpt><trkpt lat="45.9260838" lon="10.9011246"><ele>138.0</ele><time>2026-04-10T09:27:50.663Z</time></trkpt><trkpt lat="45.9261682" lon="10.9012019"><ele>140.0</ele><time>2026-04-10T09:27:51.663Z</time></trkpt><trkpt lat="45.926243" lon="10.9012847"><ele>142.0</ele><time>2026-04-10T09:27:52.663Z</time></trkpt><trkpt lat="45.9262982" lon="10.9013703"><ele>142.0</ele><time>2026-04-10T09:27:53.663Z</time></trkpt><trkpt lat="45.9263347" lon="10.901449"><ele>142.0</ele><time>2026-04-10T09:27:54.663Z</time></trkpt><trkpt lat="45.926359" lon="10.9016202"><ele>142.0</ele><time>2026-04-10T09:27:56.663Z</time></trkpt><trkpt lat="45.9263635" lon="10.9017147"><ele>142.0</ele><time>2026-04-10T09:27:57.663Z</time></trkpt><trkpt lat="45.9263806" lon="10.9018057"><ele>142.0</ele><time>2026-04-10T09:27:58.663Z</time></trkpt><trkpt lat="45.926415" lon="10.9018818"><ele>142.0</ele><time>2026-04-10T09:27:59.663Z</time></trkpt><trkpt lat="45.9264656" lon="10.9019422"><ele>142.0</ele><time>2026-04-10T09:28:00.664Z</time></trkpt><trkpt lat="45.9265218" lon="10.9019962"><ele>144.6</ele><time>2026-04-10T09:28:01.663Z</time></trkpt><trkpt lat="45.9266322" lon="10.9020657"><ele>147.2</ele><time>2026-04-10T09:28:03.663Z</time></trkpt><trkpt lat="45.9267499" lon="10.9020605"><ele>149.8</ele><time>2026-04-10T09:28:05.663Z</time></trkpt><trkpt lat="45.9268703" lon="10.902048"><ele>152.4</ele><time>2026-04-10T09:28:07.663Z</time></trkpt><trkpt lat="45.9269369" lon="10.9020405"><ele>155.0</ele><time>2026-04-10T09:28:08.663Z</time></trkpt><trkpt lat="45.9270137" lon="10.9020314"><ele>155.2</ele><time>2026-04-10T09:28:09.663Z</time></trkpt><trkpt lat="45.9271025" lon="10.9020345"><ele>155.4</ele><time>2026-04-10T09:28:10.663Z</time></trkpt><trkpt lat="45.9271941" lon="10.9020406"><ele>155.6</ele><time>2026-04-10T09:28:11.663Z</time></trkpt><trkpt lat="45.9272825" lon="10.90204"><ele>155.8</ele><time>2026-04-10T09:28:12.663Z</time></trkpt><trkpt lat="45.9273737" lon="10.90204"><ele>156.0</ele><time>2026-04-10T09:28:13.663Z</time></trkpt><trkpt lat="45.9274645" lon="10.9020435"><ele>156.0</ele><time>2026-04-10T09:28:14.663Z</time></trkpt><trkpt lat="45.9275455" lon="10.9020465"><ele>156.0</ele><time>2026-04-10T09:28:15.664Z</time></trkpt><trkpt lat="45.9276282" lon="10.9020493"><ele>156.0</ele><time>2026-04-10T09:28:16.663Z</time></trkpt><trkpt lat="45.927709" lon="10.9020688"><ele>156.0</ele><time>2026-04-10T09:28:17.663Z</time></trkpt><trkpt lat="45.9277926" lon="10.9020901"><ele>156.0</ele><time>2026-04-10T09:28:18.663Z</time></trkpt><trkpt lat="45.9278737" lon="10.9021155"><ele>156.0</ele><time>2026-04-10T09:28:19.663Z</time></trkpt><trkpt lat="45.9279501" lon="10.9021524"><ele>156.2857142857143</ele><time>2026-04-10T09:28:20.663Z</time></trkpt><trkpt lat="45.9280156" lon="10.9022028"><ele>156.57142857142856</ele><time>2026-04-10T09:28:21.663Z</time></trkpt><trkpt lat="45.9280714" lon="10.9022677"><ele>156.85714285714286</ele><time>2026-04-10T09:28:22.663Z</time></trkpt><trkpt lat="45.9281259" lon="10.9023421"><ele>157.14285714285717</ele><time>2026-04-10T09:28:23.663Z</time></trkpt><trkpt lat="45.92818" lon="10.9024109"><ele>157.42857142857144</ele><time>2026-04-10T09:28:24.663Z</time></trkpt><trkpt lat="45.9282482" lon="10.9024593"><ele>157.71428571428572</ele><time>2026-04-10T09:28:25.664Z</time></trkpt><trkpt lat="45.9283212" lon="10.9024982"><ele>158.0</ele><time>2026-04-10T09:28:26.664Z</time></trkpt><trkpt lat="45.9283937" lon="10.9025365"><ele>162.5</ele><time>2026-04-10T09:28:27.664Z</time></trkpt><trkpt lat="45.9284679" lon="10.9025762"><ele>167.0</ele><time>2026-04-10T09:28:28.664Z</time></trkpt><trkpt lat="45.9285459" lon="10.9026154"><ele>171.5</ele><time>2026-04-10T09:28:29.665Z</time></trkpt><trkpt lat="45.9286219" lon="10.9026555"><ele>176.0</ele><time>2026-04-10T09:28:30.664Z</time></trkpt><trkpt lat="45.9286959" lon="10.9026942"><ele>180.5</ele><time>2026-04-10T09:28:31.665Z</time></trkpt><trkpt lat="45.9287662" lon="10.9027219"><ele>185.0</ele><time>2026-04-10T09:28:32.664Z</time></trkpt><trkpt lat="45.9288266" lon="10.9027517"><ele>185.4</ele><time>2026-04-10T09:28:33.664Z</time></trkpt><trkpt lat="45.9288916" lon="10.9028149"><ele>185.8</ele><time>2026-04-10T09:28:35.664Z</time></trkpt><trkpt lat="45.9288721" lon="10.902908"><ele>186.2</ele><time>2026-04-10T09:28:38.664Z</time></trkpt><trkpt lat="45.9287854" lon="10.9028868"><ele>186.6</ele><time>2026-04-10T09:28:41.664Z</time></trkpt><trkpt lat="45.9286909" lon="10.902894"><ele>187.0</ele><time>2026-04-10T09:28:43.664Z</time></trkpt><trkpt lat="45.9285657" lon="10.9028959"><ele>187.0</ele><time>2026-04-10T09:28:45.664Z</time></trkpt><trkpt lat="45.9284477" lon="10.9028789"><ele>187.0</ele><time>2026-04-10T09:28:47.664Z</time></trkpt><trkpt lat="45.9283345" lon="10.9028535"><ele>187.0</ele><time>2026-04-10T09:28:49.664Z</time></trkpt><trkpt lat="45.9282707" lon="10.902859"><ele>187.0</ele><time>2026-04-10T09:28:50.664Z</time></trkpt><trkpt lat="45.9282047" lon="10.9028811"><ele>187.0</ele><time>2026-04-10T09:28:51.664Z</time></trkpt><trkpt lat="45.9281381" lon="10.9029096"><ele>187.0</ele><time>2026-04-10T09:28:52.664Z</time></trkpt><trkpt lat="45.9280704" lon="10.9029361"><ele>185.0</ele><time>2026-04-10T09:28:53.664Z</time></trkpt><trkpt lat="45.9280069" lon="10.9029636"><ele>183.0</ele><time>2026-04-10T09:28:54.664Z</time></trkpt><trkpt lat="45.9279065" lon="10.9030293"><ele>181.0</ele><time>2026-04-10T09:28:56.664Z</time></trkpt><trkpt lat="45.9278577" lon="10.9030911"><ele>179.0</ele><time>2026-04-10T09:28:58.664Z</time></trkpt><trkpt lat="45.9279434" lon="10.9031557"><ele>177.0</ele><time>2026-04-10T09:29:01.664Z</time></trkpt><trkpt lat="45.9280525" lon="10.9031159"><ele>177.0</ele><time>2026-04-10T09:29:03.665Z</time></trkpt><trkpt lat="45.9281707" lon="10.9031106"><ele>177.0</ele><time>2026-04-10T09:29:05.664Z</time></trkpt><trkpt lat="45.9282846" lon="10.9031386"><ele>177.0</ele><time>2026-04-10T09:29:07.664Z</time></trkpt><trkpt lat="45.9283484" lon="10.9031604"><ele>177.0</ele><time>2026-04-10T09:29:08.664Z</time></trkpt><trkpt lat="45.9284195" lon="10.9031832"><ele>177.0</ele><time>2026-04-10T09:29:09.666Z</time></trkpt><trkpt lat="45.9284977" lon="10.9032203"><ele>178.66666666666666</ele><time>2026-04-10T09:29:10.665Z</time></trkpt><trkpt lat="45.9285738" lon="10.9032639"><ele>180.33333333333334</ele><time>2026-04-10T09:29:11.665Z</time></trkpt><trkpt lat="45.9286445" lon="10.9033273"><ele>182.0</ele><time>2026-04-10T09:29:12.665Z</time></trkpt><trkpt lat="45.9287145" lon="10.9034019"><ele>183.66666666666669</ele><time>2026-04-10T09:29:13.665Z</time></trkpt><trkpt lat="45.9287936" lon="10.9034535"><ele>185.33333333333334</ele><time>2026-04-10T09:29:14.665Z</time></trkpt><trkpt lat="45.9288724" lon="10.9034691"><ele>187.0</ele><time>2026-04-10T09:29:15.665Z</time></trkpt><trkpt lat="45.9289399" lon="10.9034721"><ele>190.6</ele><time>2026-04-10T09:29:16.665Z</time></trkpt><trkpt lat="45.9290284" lon="10.9034811"><ele>194.2</ele><time>2026-04-10T09:29:18.665Z</time></trkpt><trkpt lat="45.9290198" lon="10.9036091"><ele>197.8</ele><time>2026-04-10T09:29:21.665Z</time></trkpt><trkpt lat="45.9288931" lon="10.9036115"><ele>201.4</ele><time>2026-04-10T09:29:23.665Z</time></trkpt><trkpt lat="45.9288152" lon="10.9035974"><ele>205.0</ele><time>2026-04-10T09:29:24.665Z</time></trkpt><trkpt lat="45.9287426" lon="10.9035973"><ele>205.0</ele><time>2026-04-10T09:29:25.665Z</time></trkpt><trkpt lat="45.9286771" lon="10.9036003"><ele>205.0</ele><time>2026-04-10T09:29:26.666Z</time></trkpt><trkpt lat="45.9286041" lon="10.9035951"><ele>205.0</ele><time>2026-04-10T09:29:27.665Z</time></trkpt><trkpt lat="45.9285322" lon="10.9035772"><ele>205.0</ele><time>2026-04-10T09:29:28.665Z</time></trkpt><trkpt lat="45.9284597" lon="10.9035614"><ele>205.0</ele><time>2026-04-10T09:29:29.665Z</time></trkpt><trkpt lat="45.9283889" lon="10.9035747"><ele>205.0</ele><time>2026-04-10T09:29:30.665Z</time></trkpt><trkpt lat="45.9283167" lon="10.9036095"><ele>205.0</ele><time>2026-04-10T09:29:31.665Z</time></trkpt><trkpt lat="45.9282416" lon="10.9036488"><ele>204.99999999999997</ele><time>2026-04-10T09:29:32.665Z</time></trkpt><trkpt lat="45.9281783" lon="10.9036883"><ele>205.0</ele><time>2026-04-10T09:29:33.665Z</time></trkpt><trkpt lat="45.9281172" lon="10.9037746"><ele>205.0</ele><time>2026-04-10T09:29:35.665Z</time></trkpt><trkpt lat="45.9281695" lon="10.9038564"><ele>205.0</ele><time>2026-04-10T09:29:37.665Z</time></trkpt><trkpt lat="45.9282611" lon="10.9038004"><ele>204.99999999999997</ele><time>2026-04-10T09:29:39.665Z</time></trkpt><trkpt lat="45.9283731" lon="10.9037552"><ele>205.0</ele><time>2026-04-10T09:29:41.666Z</time></trkpt><trkpt lat="45.9284897" lon="10.9038183"><ele>204.99999999999997</ele><time>2026-04-10T09:29:43.665Z</time></trkpt><trkpt lat="45.9285435" lon="10.9038818"><ele>205.0</ele><time>2026-04-10T09:29:44.665Z</time></trkpt><trkpt lat="45.9286023" lon="10.9039482"><ele>205.0</ele><time>2026-04-10T09:29:45.665Z</time></trkpt><trkpt lat="45.9286601" lon="10.9040079"><ele>205.0</ele><time>2026-04-10T09:29:46.665Z</time></trkpt><trkpt lat="45.928732" lon="10.9040799"><ele>204.99999999999997</ele><time>2026-04-10T09:29:47.665Z</time></trkpt><trkpt lat="45.9288076" lon="10.9041409"><ele>205.0</ele><time>2026-04-10T09:29:48.665Z</time></trkpt><trkpt lat="45.9288922" lon="10.9041999"><ele>205.0</ele><time>2026-04-10T09:29:49.665Z</time></trkpt><trkpt lat="45.9289801" lon="10.9042405"><ele>205.0</ele><time>2026-04-10T09:29:50.665Z</time></trkpt><trkpt lat="45.9290783" lon="10.9042865"><ele>205.0</ele><time>2026-04-10T09:29:51.665Z</time></trkpt><trkpt lat="45.9291725" lon="10.9043076"><ele>205.0</ele><time>2026-04-10T09:29:52.666Z</time></trkpt><trkpt lat="45.9292652" lon="10.9043291"><ele>205.0</ele><time>2026-04-10T09:29:53.666Z</time></trkpt><trkpt lat="45.9293519" lon="10.9043667"><ele>210.0</ele><time>2026-04-10T09:29:54.666Z</time></trkpt><trkpt lat="45.9294383" lon="10.9044164"><ele>215.0</ele><time>2026-04-10T09:29:55.666Z</time></trkpt><trkpt lat="45.9295226" lon="10.9044653"><ele>220.0</ele><time>2026-04-10T09:29:56.666Z</time></trkpt><trkpt lat="45.9296123" lon="10.9045197"><ele>225.0</ele><time>2026-04-10T09:29:57.666Z</time></trkpt><trkpt lat="45.9297074" lon="10.9045851"><ele>230.0</ele><time>2026-04-10T09:29:58.666Z</time></trkpt><trkpt lat="45.9298075" lon="10.9046609"><ele>230.0</ele><time>2026-04-10T09:29:59.666Z</time></trkpt><trkpt lat="45.9299038" lon="10.9047375"><ele>230.0</ele><time>2026-04-10T09:30:00.666Z</time></trkpt><trkpt lat="45.9300028" lon="10.904807"><ele>230.0</ele><time>2026-04-10T09:30:01.666Z</time></trkpt><trkpt lat="45.9301068" lon="10.9048756"><ele>230.0</ele><time>2026-04-10T09:30:02.666Z</time></trkpt><trkpt lat="45.9302147" lon="10.9049465"><ele>233.6</ele><time>2026-04-10T09:30:03.666Z</time></trkpt><trkpt lat="45.9303216" lon="10.9050222"><ele>237.2</ele><time>2026-04-10T09:30:04.666Z</time></trkpt><trkpt lat="45.9304283" lon="10.905086"><ele>240.8</ele><time>2026-04-10T09:30:05.666Z</time></trkpt><trkpt lat="45.9305186" lon="10.9051284"><ele>244.4</ele><time>2026-04-10T09:30:06.666Z</time></trkpt><trkpt lat="45.9305969" lon="10.905174"><ele>248.0</ele><time>2026-04-10T09:30:07.666Z</time></trkpt><trkpt lat="45.9306692" lon="10.905235"><ele>248.00000000000003</ele><time>2026-04-10T09:30:08.666Z</time></trkpt><trkpt lat="45.9307401" lon="10.9053047"><ele>248.0</ele><time>2026-04-10T09:30:09.666Z</time></trkpt><trkpt lat="45.9308101" lon="10.905376"><ele>248.0</ele><time>2026-04-10T09:30:10.666Z</time></trkpt><trkpt lat="45.9308775" lon="10.9054518"><ele>248.0</ele><time>2026-04-10T09:30:11.666Z</time></trkpt><trkpt lat="45.9309435" lon="10.9055329"><ele>248.00000000000003</ele><time>2026-04-10T09:30:12.666Z</time></trkpt><trkpt lat="45.9310144" lon="10.9056025"><ele>248.0</ele><time>2026-04-10T09:30:13.666Z</time></trkpt><trkpt lat="45.9310725" lon="10.9056687"><ele>249.00000000000003</ele><time>2026-04-10T09:30:14.666Z</time></trkpt><trkpt lat="45.9311282" lon="10.905749"><ele>250.0</ele><time>2026-04-10T09:30:15.666Z</time></trkpt><trkpt lat="45.9311816" lon="10.9058224"><ele>251.0</ele><time>2026-04-10T09:30:16.666Z</time></trkpt><trkpt lat="45.9312298" lon="10.9059087"><ele>252.0</ele><time>2026-04-10T09:30:17.667Z</time></trkpt><trkpt lat="45.9312787" lon="10.9060056"><ele>253.00000000000003</ele><time>2026-04-10T09:30:18.666Z</time></trkpt><trkpt lat="45.9313354" lon="10.9061217"><ele>254.0</ele><time>2026-04-10T09:30:19.666Z</time></trkpt><trkpt lat="45.9313914" lon="10.9062403"><ele>254.00000000000003</ele><time>2026-04-10T09:30:20.666Z</time></trkpt><trkpt lat="45.9314415" lon="10.9063518"><ele>254.0</ele><time>2026-04-10T09:30:21.666Z</time></trkpt><trkpt lat="45.9314908" lon="10.9064638"><ele>254.0</ele><time>2026-04-10T09:30:22.666Z</time></trkpt><trkpt lat="45.9315411" lon="10.906563"><ele>254.0</ele><time>2026-04-10T09:30:23.666Z</time></trkpt><trkpt lat="45.9315927" lon="10.9066529"><ele>254.00000000000003</ele><time>2026-04-10T09:30:24.666Z</time></trkpt><trkpt lat="45.9316427" lon="10.9067321"><ele>254.0</ele><time>2026-04-10T09:30:25.666Z</time></trkpt><trkpt lat="45.9316932" lon="10.9067995"><ele>255.66666666666669</ele><time>2026-04-10T09:30:26.666Z</time></trkpt><trkpt lat="45.9317967" lon="10.9069181"><ele>257.33333333333337</ele><time>2026-04-10T09:30:28.666Z</time></trkpt><trkpt lat="45.9318457" lon="10.9069865"><ele>259.0</ele><time>2026-04-10T09:30:29.666Z</time></trkpt><trkpt lat="45.9318957" lon="10.907062"><ele>260.6666666666667</ele><time>2026-04-10T09:30:30.667Z</time></trkpt><trkpt lat="45.9319463" lon="10.9071484"><ele>262.3333333333333</ele><time>2026-04-10T09:30:31.666Z</time></trkpt><trkpt lat="45.9319969" lon="10.9072275"><ele>264.0</ele><time>2026-04-10T09:30:32.666Z</time></trkpt><trkpt lat="45.9320567" lon="10.9072942"><ele>264.0</ele><time>2026-04-10T09:30:33.666Z</time></trkpt><trkpt lat="45.9321196" lon="10.9073722"><ele>264.0</ele><time>2026-04-10T09:30:34.668Z</time></trkpt><trkpt lat="45.9321811" lon="10.9074579"><ele>264.0</ele><time>2026-04-10T09:30:35.667Z</time></trkpt><trkpt lat="45.9322359" lon="10.9075371"><ele>264.0</ele><time>2026-04-10T09:30:36.667Z</time></trkpt><trkpt lat="45.9322893" lon="10.9076226"><ele>264.0</ele><time>2026-04-10T09:30:37.667Z</time></trkpt><trkpt lat="45.9323303" lon="10.9077288"><ele>264.0</ele><time>2026-04-10T09:30:38.667Z</time></trkpt><trkpt lat="45.9323733" lon="10.907835"><ele>266.3333333333333</ele><time>2026-04-10T09:30:39.667Z</time></trkpt><trkpt lat="45.9324259" lon="10.9079368"><ele>268.6666666666667</ele><time>2026-04-10T09:30:40.667Z</time></trkpt><trkpt lat="45.9324865" lon="10.9080345"><ele>271.0</ele><time>2026-04-10T09:30:41.667Z</time></trkpt><trkpt lat="45.9325483" lon="10.9081316"><ele>273.33333333333337</ele><time>2026-04-10T09:30:42.667Z</time></trkpt><trkpt lat="45.9326054" lon="10.9082223"><ele>275.6666666666667</ele><time>2026-04-10T09:30:43.667Z</time></trkpt><trkpt lat="45.9326664" lon="10.9082946"><ele>278.0</ele><time>2026-04-10T09:30:44.667Z</time></trkpt><trkpt lat="45.9327271" lon="10.908354"><ele>280.33333333333337</ele><time>2026-04-10T09:30:45.667Z</time></trkpt><trkpt lat="45.9327943" lon="10.9084124"><ele>282.6666666666667</ele><time>2026-04-10T09:30:46.667Z</time></trkpt><trkpt lat="45.9328568" lon="10.9084716"><ele>285.0</ele><time>2026-04-10T09:30:47.667Z</time></trkpt><trkpt lat="45.9329181" lon="10.9085338"><ele>287.3333333333333</ele><time>2026-04-10T09:30:48.667Z</time></trkpt><trkpt lat="45.9329737" lon="10.9086037"><ele>289.66666666666663</ele><time>2026-04-10T09:30:49.667Z</time></trkpt><trkpt lat="45.9330217" lon="10.9086735"><ele>292.0</ele><time>2026-04-10T09:30:50.668Z</time></trkpt><trkpt lat="45.9330845" lon="10.9087903"><ele>292.0</ele><time>2026-04-10T09:30:52.667Z</time></trkpt><trkpt lat="45.9331392" lon="10.9088618"><ele>292.0</ele><time>2026-04-10T09:30:56.668Z</time></trkpt><trkpt lat="45.9332058" lon="10.9089363"><ele>292.0</ele><time>2026-04-10T09:30:58.667Z</time></trkpt><trkpt lat="45.9332927" lon="10.9090565"><ele>292.0</ele><time>2026-04-10T09:31:00.667Z</time></trkpt><trkpt lat="45.9333357" lon="10.9091347"><ele>292.0</ele><time>2026-04-10T09:31:01.667Z</time></trkpt><trkpt lat="45.9334001" lon="10.9092401"><ele>292.0</ele><time>2026-04-10T09:31:03.667Z</time></trkpt><trkpt lat="45.9334019" lon="10.909331"><ele>292.0</ele><time>2026-04-10T09:31:05.667Z</time></trkpt><trkpt lat="45.9333249" lon="10.9093764"><ele>292.0</ele><time>2026-04-10T09:31:07.668Z</time></trkpt><trkpt lat="45.9332365" lon="10.9092597"><ele>292.0</ele><time>2026-04-10T09:31:09.667Z</time></trkpt><trkpt lat="45.9331849" lon="10.9091875"><ele>292.0</ele><time>2026-04-10T09:31:10.667Z</time></trkpt><trkpt lat="45.9331306" lon="10.909129"><ele>292.0</ele><time>2026-04-10T09:31:11.667Z</time></trkpt><trkpt lat="45.9330614" lon="10.9090756"><ele>292.0</ele><time>2026-04-10T09:31:12.667Z</time></trkpt><trkpt lat="45.9329782" lon="10.9090336"><ele>292.0</ele><time>2026-04-10T09:31:13.667Z</time></trkpt><trkpt lat="45.9328874" lon="10.9090025"><ele>292.0</ele><time>2026-04-10T09:31:14.667Z</time></trkpt><trkpt lat="45.9327932" lon="10.9089712"><ele>292.0</ele><time>2026-04-10T09:31:15.667Z</time></trkpt><trkpt lat="45.9326949" lon="10.9089419"><ele>292.0</ele><time>2026-04-10T09:31:16.667Z</time></trkpt><trkpt lat="45.9326093" lon="10.9089036"><ele>292.0</ele><time>2026-04-10T09:31:17.668Z</time></trkpt><trkpt lat="45.9325433" lon="10.9088475"><ele>292.0</ele><time>2026-04-10T09:31:18.668Z</time></trkpt><trkpt lat="45.9324555" lon="10.9087648"><ele>292.0</ele><time>2026-04-10T09:31:20.668Z</time></trkpt><trkpt lat="45.9323868" lon="10.9087987"><ele>292.0</ele><time>2026-04-10T09:31:23.668Z</time></trkpt><trkpt lat="45.9323901" lon="10.9089148"><ele>292.0</ele><time>2026-04-10T09:31:25.668Z</time></trkpt><trkpt lat="45.9324832" lon="10.9090049"><ele>292.0</ele><time>2026-04-10T09:31:27.669Z</time></trkpt><trkpt lat="45.9325343" lon="10.9090791"><ele>292.0</ele><time>2026-04-10T09:31:28.668Z</time></trkpt><trkpt lat="45.932572" lon="10.9091751"><ele>297.0</ele><time>2026-04-10T09:31:29.668Z</time></trkpt><trkpt lat="45.9325969" lon="10.9092963"><ele>302.0</ele><time>2026-04-10T09:31:30.668Z</time></trkpt><trkpt lat="45.9326255" lon="10.9094248"><ele>307.0</ele><time>2026-04-10T09:31:31.668Z</time></trkpt><trkpt lat="45.9326661" lon="10.9095489"><ele>312.0</ele><time>2026-04-10T09:31:32.668Z</time></trkpt><trkpt lat="45.9327353" lon="10.9096614"><ele>317.0</ele><time>2026-04-10T09:31:33.669Z</time></trkpt><trkpt lat="45.9328302" lon="10.9097535"><ele>317.0</ele><time>2026-04-10T09:31:34.668Z</time></trkpt><trkpt lat="45.9329357" lon="10.9098349"><ele>317.0</ele><time>2026-04-10T09:31:35.668Z</time></trkpt><trkpt lat="45.9330415" lon="10.909907"><ele>317.0</ele><time>2026-04-10T09:31:36.668Z</time></trkpt><trkpt lat="45.933144" lon="10.909991"><ele>317.0</ele><time>2026-04-10T09:31:37.668Z</time></trkpt><trkpt lat="45.9332436" lon="10.9100915"><ele>317.25</ele><time>2026-04-10T09:31:38.668Z</time></trkpt><trkpt lat="45.9333419" lon="10.9102002"><ele>317.5</ele><time>2026-04-10T09:31:39.668Z</time></trkpt><trkpt lat="45.9334514" lon="10.910297"><ele>317.75</ele><time>2026-04-10T09:31:40.668Z</time></trkpt><trkpt lat="45.9335604" lon="10.9103713"><ele>318.0</ele><time>2026-04-10T09:31:41.668Z</time></trkpt><trkpt lat="45.9336547" lon="10.910434"><ele>318.0</ele><time>2026-04-10T09:31:42.668Z</time></trkpt><trkpt lat="45.9337384" lon="10.9105055"><ele>318.0</ele><time>2026-04-10T09:31:43.668Z</time></trkpt><trkpt lat="45.9338156" lon="10.9105924"><ele>318.0</ele><time>2026-04-10T09:31:44.668Z</time></trkpt><trkpt lat="45.9338876" lon="10.9106941"><ele>318.0</ele><time>2026-04-10T09:31:45.668Z</time></trkpt><trkpt lat="45.93395" lon="10.9107875"><ele>318.0</ele><time>2026-04-10T09:31:46.668Z</time></trkpt><trkpt lat="45.9340169" lon="10.9108495"><ele>318.0</ele><time>2026-04-10T09:31:47.668Z</time></trkpt><trkpt lat="45.9341295" lon="10.9108995"><ele>318.0</ele><time>2026-04-10T09:31:49.668Z</time></trkpt><trkpt lat="45.9342304" lon="10.9109604"><ele>318.0</ele><time>2026-04-10T09:31:51.668Z</time></trkpt><trkpt lat="45.9343248" lon="10.9110621"><ele>318.0</ele><time>2026-04-10T09:31:53.668Z</time></trkpt><trkpt lat="45.9343983" lon="10.9112157"><ele>319.1666666666667</ele><time>2026-04-10T09:31:55.668Z</time></trkpt><trkpt lat="45.9344259" lon="10.9113046"><ele>320.3333333333333</ele><time>2026-04-10T09:31:56.668Z</time></trkpt><trkpt lat="45.9344608" lon="10.9114024"><ele>321.5</ele><time>2026-04-10T09:31:57.668Z</time></trkpt><trkpt lat="45.934505" lon="10.9115057"><ele>322.66666666666663</ele><time>2026-04-10T09:31:58.668Z</time></trkpt><trkpt lat="45.9345584" lon="10.9115951"><ele>323.8333333333333</ele><time>2026-04-10T09:31:59.669Z</time></trkpt><trkpt lat="45.9346149" lon="10.911674"><ele>325.0</ele><time>2026-04-10T09:32:00.669Z</time></trkpt><trkpt lat="45.9346883" lon="10.9117488"><ele>328.16666666666663</ele><time>2026-04-10T09:32:01.669Z</time></trkpt><trkpt lat="45.9347723" lon="10.9118109"><ele>331.3333333333333</ele><time>2026-04-10T09:32:02.669Z</time></trkpt><trkpt lat="45.9348482" lon="10.911864"><ele>334.5</ele><time>2026-04-10T09:32:03.669Z</time></trkpt><trkpt lat="45.9349149" lon="10.9119271"><ele>337.6666666666667</ele><time>2026-04-10T09:32:04.669Z</time></trkpt><trkpt lat="45.9349816" lon="10.9120173"><ele>340.83333333333337</ele><time>2026-04-10T09:32:05.67Z</time></trkpt><trkpt lat="45.9350416" lon="10.9121236"><ele>344.0</ele><time>2026-04-10T09:32:06.669Z</time></trkpt><trkpt lat="45.9351122" lon="10.9122277"><ele>344.0</ele><time>2026-04-10T09:32:07.669Z</time></trkpt><trkpt lat="45.935188" lon="10.912307"><ele>344.0</ele><time>2026-04-10T09:32:08.669Z</time></trkpt><trkpt lat="45.9352611" lon="10.9123752"><ele>344.0</ele><time>2026-04-10T09:32:09.669Z</time></trkpt><trkpt lat="45.935325" lon="10.9124411"><ele>344.0</ele><time>2026-04-10T09:32:10.67Z</time></trkpt><trkpt lat="45.935382" lon="10.9125081"><ele>344.0</ele><time>2026-04-10T09:32:11.669Z</time></trkpt><trkpt lat="45.9354347" lon="10.9125756"><ele>344.0</ele><time>2026-04-10T09:32:12.669Z</time></trkpt><trkpt lat="45.9354877" lon="10.912648"><ele>348.6</ele><time>2026-04-10T09:32:13.669Z</time></trkpt><trkpt lat="45.9355429" lon="10.9127228"><ele>353.2</ele><time>2026-04-10T09:32:14.669Z</time></trkpt><trkpt lat="45.9356004" lon="10.9128002"><ele>357.8</ele><time>2026-04-10T09:32:15.669Z</time></trkpt><trkpt lat="45.9356508" lon="10.912872"><ele>362.40000000000003</ele><time>2026-04-10T09:32:16.669Z</time></trkpt><trkpt lat="45.9357486" lon="10.9129806"><ele>367.0</ele><time>2026-04-10T09:32:18.669Z</time></trkpt><trkpt lat="45.9358687" lon="10.9130393"><ele>367.8333333333333</ele><time>2026-04-10T09:32:20.669Z</time></trkpt><trkpt lat="45.9359382" lon="10.9130664"><ele>368.66666666666663</ele><time>2026-04-10T09:32:21.669Z</time></trkpt><trkpt lat="45.9360047" lon="10.9131039"><ele>369.5</ele><time>2026-04-10T09:32:22.669Z</time></trkpt><trkpt lat="45.9360638" lon="10.9131687"><ele>370.3333333333333</ele><time>2026-04-10T09:32:23.669Z</time></trkpt><trkpt lat="45.9361142" lon="10.913233"><ele>371.1666666666667</ele><time>2026-04-10T09:32:24.669Z</time></trkpt><trkpt lat="45.9361794" lon="10.9133202"><ele>372.0</ele><time>2026-04-10T09:32:25.669Z</time></trkpt><trkpt lat="45.9362396" lon="10.913411"><ele>372.0</ele><time>2026-04-10T09:32:26.669Z</time></trkpt><trkpt lat="45.936312" lon="10.913506"><ele>372.0</ele><time>2026-04-10T09:32:27.67Z</time></trkpt><trkpt lat="45.936389" lon="10.9136052"><ele>372.0</ele><time>2026-04-10T09:32:28.669Z</time></trkpt><trkpt lat="45.9364652" lon="10.9136983"><ele>372.0</ele><time>2026-04-10T09:32:29.669Z</time></trkpt><trkpt lat="45.9365473" lon="10.9137745"><ele>372.0</ele><time>2026-04-10T09:32:30.669Z</time></trkpt><trkpt lat="45.9366384" lon="10.9138451"><ele>370.20000000000005</ele><time>2026-04-10T09:32:31.669Z</time></trkpt><trkpt lat="45.9367244" lon="10.9139155"><ele>368.4</ele><time>2026-04-10T09:32:32.669Z</time></trkpt><trkpt lat="45.9368147" lon="10.9139815"><ele>366.6</ele><time>2026-04-10T09:32:33.669Z</time></trkpt><trkpt lat="45.9369182" lon="10.9140353"><ele>364.79999999999995</ele><time>2026-04-10T09:32:34.669Z</time></trkpt><trkpt lat="45.9370265" lon="10.9140693"><ele>363.0</ele><time>2026-04-10T09:32:35.669Z</time></trkpt><trkpt lat="45.9371364" lon="10.9140937"><ele>363.0</ele><time>2026-04-10T09:32:36.669Z</time></trkpt><trkpt lat="45.9372367" lon="10.9141021"><ele>363.0</ele><time>2026-04-10T09:32:37.669Z</time></trkpt><trkpt lat="45.9373282" lon="10.9140993"><ele>363.0</ele><time>2026-04-10T09:32:38.669Z</time></trkpt><trkpt lat="45.9374177" lon="10.9140991"><ele>363.0</ele><time>2026-04-10T09:32:39.669Z</time></trkpt><trkpt lat="45.9374982" lon="10.9141126"><ele>363.0</ele><time>2026-04-10T09:32:40.669Z</time></trkpt><trkpt lat="45.9375737" lon="10.9141351"><ele>363.0</ele><time>2026-04-10T09:32:41.669Z</time></trkpt><trkpt lat="45.9376593" lon="10.9141704"><ele>363.1666666666667</ele><time>2026-04-10T09:32:42.67Z</time></trkpt><trkpt lat="45.937741" lon="10.9142148"><ele>363.3333333333333</ele><time>2026-04-10T09:32:43.67Z</time></trkpt><trkpt lat="45.9378205" lon="10.9142744"><ele>363.5</ele><time>2026-04-10T09:32:44.67Z</time></trkpt><trkpt lat="45.9378879" lon="10.9143598"><ele>363.66666666666663</ele><time>2026-04-10T09:32:45.67Z</time></trkpt><trkpt lat="45.937939" lon="10.9144496"><ele>363.8333333333333</ele><time>2026-04-10T09:32:46.67Z</time></trkpt><trkpt lat="45.9379801" lon="10.9145342"><ele>364.0</ele><time>2026-04-10T09:32:47.67Z</time></trkpt><trkpt lat="45.9380278" lon="10.9146266"><ele>364.5</ele><time>2026-04-10T09:32:48.67Z</time></trkpt><trkpt lat="45.9380813" lon="10.9147117"><ele>365.0</ele><time>2026-04-10T09:32:49.67Z</time></trkpt><trkpt lat="45.9381405" lon="10.9147909"><ele>365.5</ele><time>2026-04-10T09:32:50.67Z</time></trkpt><trkpt lat="45.9382039" lon="10.9148745"><ele>366.0</ele><time>2026-04-10T09:32:51.67Z</time></trkpt><trkpt lat="45.9382678" lon="10.9149584"><ele>366.5</ele><time>2026-04-10T09:32:52.67Z</time></trkpt><trkpt lat="45.9383246" lon="10.9150353"><ele>367.0</ele><time>2026-04-10T09:32:53.67Z</time></trkpt><trkpt lat="45.9383842" lon="10.9151181"><ele>367.5</ele><time>2026-04-10T09:32:54.67Z</time></trkpt><trkpt lat="45.9384365" lon="10.915207"><ele>368.0</ele><time>2026-04-10T09:32:55.671Z</time></trkpt><trkpt lat="45.9384707" lon="10.9152985"><ele>368.5</ele><time>2026-04-10T09:32:56.67Z</time></trkpt><trkpt lat="45.9385016" lon="10.9154022"><ele>369.0</ele><time>2026-04-10T09:32:57.67Z</time></trkpt><trkpt lat="45.9385285" lon="10.9155065"><ele>369.5</ele><time>2026-04-10T09:32:58.67Z</time></trkpt><trkpt lat="45.9385511" lon="10.9156168"><ele>370.0</ele><time>2026-04-10T09:32:59.67Z</time></trkpt><trkpt lat="45.9385652" lon="10.9157239"><ele>370.0</ele><time>2026-04-10T09:33:00.67Z</time></trkpt><trkpt lat="45.9385727" lon="10.9158219"><ele>370.0</ele><time>2026-04-10T09:33:01.67Z</time></trkpt><trkpt lat="45.9385836" lon="10.915919"><ele>370.0</ele><time>2026-04-10T09:33:02.67Z</time></trkpt><trkpt lat="45.9386016" lon="10.9160066"><ele>370.0</ele><time>2026-04-10T09:33:03.67Z</time></trkpt><trkpt lat="45.9386185" lon="10.9160961"><ele>370.0</ele><time>2026-04-10T09:33:04.67Z</time></trkpt><trkpt lat="45.9386452" lon="10.9162769"><ele>370.0</ele><time>2026-04-10T09:33:06.671Z</time></trkpt><trkpt lat="45.9386979" lon="10.9164205"><ele>370.8</ele><time>2026-04-10T09:33:08.67Z</time></trkpt><trkpt lat="45.9387589" lon="10.9165391"><ele>371.6</ele><time>2026-04-10T09:33:10.67Z</time></trkpt><trkpt lat="45.9388062" lon="10.9166823"><ele>372.4</ele><time>2026-04-10T09:33:12.67Z</time></trkpt><trkpt lat="45.9388179" lon="10.9167769"><ele>373.2</ele><time>2026-04-10T09:33:13.67Z</time></trkpt><trkpt lat="45.9387367" lon="10.916889"><ele>374.0</ele><time>2026-04-10T09:33:15.67Z</time></trkpt><trkpt lat="45.9386559" lon="10.9169191"><ele>377.83333333333337</ele><time>2026-04-10T09:33:17.67Z</time></trkpt><trkpt lat="45.9385399" lon="10.9169085"><ele>381.6666666666667</ele><time>2026-04-10T09:33:19.67Z</time></trkpt><trkpt lat="45.9384605" lon="10.9169074"><ele>385.5</ele><time>2026-04-10T09:33:20.67Z</time></trkpt><trkpt lat="45.9383858" lon="10.9169131"><ele>389.33333333333337</ele><time>2026-04-10T09:33:21.67Z</time></trkpt><trkpt lat="45.9383182" lon="10.9169178"><ele>393.1666666666667</ele><time>2026-04-10T09:33:22.67Z</time></trkpt><trkpt lat="45.9382371" lon="10.9169266"><ele>397.0</ele><time>2026-04-10T09:33:23.671Z</time></trkpt><trkpt lat="45.938145" lon="10.9169432"><ele>397.0</ele><time>2026-04-10T09:33:24.671Z</time></trkpt><trkpt lat="45.9380499" lon="10.9169451"><ele>397.0</ele><time>2026-04-10T09:33:25.671Z</time></trkpt><trkpt lat="45.9379556" lon="10.9169394"><ele>397.0</ele><time>2026-04-10T09:33:26.671Z</time></trkpt><trkpt lat="45.9378682" lon="10.9169256"><ele>397.0</ele><time>2026-04-10T09:33:27.671Z</time></trkpt><trkpt lat="45.9377799" lon="10.916884"><ele>397.0</ele><time>2026-04-10T09:33:28.671Z</time></trkpt><trkpt lat="45.9376976" lon="10.9168403"><ele>397.00000000000006</ele><time>2026-04-10T09:33:29.671Z</time></trkpt><trkpt lat="45.9376138" lon="10.9167909"><ele>397.0</ele><time>2026-04-10T09:33:30.671Z</time></trkpt><trkpt lat="45.9375312" lon="10.9167431"><ele>397.0</ele><time>2026-04-10T09:33:31.671Z</time></trkpt><trkpt lat="45.9374477" lon="10.9167119"><ele>397.0</ele><time>2026-04-10T09:33:32.671Z</time></trkpt><trkpt lat="45.9373623" lon="10.9166851"><ele>397.00000000000006</ele><time>2026-04-10T09:33:33.671Z</time></trkpt><trkpt lat="45.9372754" lon="10.9166593"><ele>397.0</ele><time>2026-04-10T09:33:34.671Z</time></trkpt><trkpt lat="45.9371967" lon="10.9166364"><ele>396.33333333333337</ele><time>2026-04-10T09:33:35.671Z</time></trkpt><trkpt lat="45.9371225" lon="10.9165968"><ele>395.6666666666667</ele><time>2026-04-10T09:33:36.671Z</time></trkpt><trkpt lat="45.9370488" lon="10.9165651"><ele>395.0</ele><time>2026-04-10T09:33:37.671Z</time></trkpt><trkpt lat="45.9369711" lon="10.9165509"><ele>394.33333333333337</ele><time>2026-04-10T09:33:38.671Z</time></trkpt><trkpt lat="45.9368865" lon="10.9165524"><ele>393.6666666666667</ele><time>2026-04-10T09:33:39.671Z</time></trkpt><trkpt lat="45.9368023" lon="10.9165638"><ele>393.0</ele><time>2026-04-10T09:33:40.671Z</time></trkpt><trkpt lat="45.9367158" lon="10.91658"><ele>395.0</ele><time>2026-04-10T09:33:41.671Z</time></trkpt><trkpt lat="45.9366301" lon="10.9165998"><ele>397.0</ele><time>2026-04-10T09:33:42.671Z</time></trkpt><trkpt lat="45.9365424" lon="10.9166265"><ele>399.0</ele><time>2026-04-10T09:33:43.671Z</time></trkpt><trkpt lat="45.9364576" lon="10.9166689"><ele>401.0</ele><time>2026-04-10T09:33:44.671Z</time></trkpt><trkpt lat="45.9363705" lon="10.9167199"><ele>403.0</ele><time>2026-04-10T09:33:45.671Z</time></trkpt><trkpt lat="45.9362863" lon="10.9167754"><ele>406.4</ele><time>2026-04-10T09:33:46.671Z</time></trkpt><trkpt lat="45.9361958" lon="10.9168358"><ele>409.79999999999995</ele><time>2026-04-10T09:33:47.671Z</time></trkpt><trkpt lat="45.9360913" lon="10.916881"><ele>413.2</ele><time>2026-04-10T09:33:48.671Z</time></trkpt><trkpt lat="45.9359887" lon="10.9169086"><ele>416.6</ele><time>2026-04-10T09:33:49.671Z</time></trkpt><trkpt lat="45.9358954" lon="10.9169093"><ele>420.0</ele><time>2026-04-10T09:33:50.671Z</time></trkpt><trkpt lat="45.9358125" lon="10.9168994"><ele>421.0</ele><time>2026-04-10T09:33:51.672Z</time></trkpt><trkpt lat="45.9357311" lon="10.9168941"><ele>422.0</ele><time>2026-04-10T09:33:52.671Z</time></trkpt><trkpt lat="45.9356584" lon="10.9169204"><ele>423.0</ele><time>2026-04-10T09:33:53.671Z</time></trkpt><trkpt lat="45.9355797" lon="10.9169671"><ele>424.0</ele><time>2026-04-10T09:33:54.672Z</time></trkpt><trkpt lat="45.9355026" lon="10.9170224"><ele>425.0</ele><time>2026-04-10T09:33:55.672Z</time></trkpt><trkpt lat="45.9354222" lon="10.9170671"><ele>426.0</ele><time>2026-04-10T09:33:56.671Z</time></trkpt><trkpt lat="45.9353286" lon="10.9170941"><ele>426.0</ele><time>2026-04-10T09:33:57.671Z</time></trkpt><trkpt lat="45.9352245" lon="10.9171022"><ele>426.0</ele><time>2026-04-10T09:33:58.671Z</time></trkpt><trkpt lat="45.9351173" lon="10.917102"><ele>426.0</ele><time>2026-04-10T09:33:59.671Z</time></trkpt><trkpt lat="45.935005" lon="10.9171015"><ele>426.0</ele><time>2026-04-10T09:34:00.671Z</time></trkpt><trkpt lat="45.93489" lon="10.9171022"><ele>426.0</ele><time>2026-04-10T09:34:01.671Z</time></trkpt><trkpt lat="45.9347728" lon="10.9171071"><ele>427.0</ele><time>2026-04-10T09:34:02.672Z</time></trkpt><trkpt lat="45.9346592" lon="10.9171233"><ele>428.0</ele><time>2026-04-10T09:34:03.671Z</time></trkpt><trkpt lat="45.9345589" lon="10.9171519"><ele>429.0</ele><time>2026-04-10T09:34:04.672Z</time></trkpt><trkpt lat="45.9344732" lon="10.9172023"><ele>430.0</ele><time>2026-04-10T09:34:05.672Z</time></trkpt><trkpt lat="45.9343953" lon="10.9172735"><ele>431.0</ele><time>2026-04-10T09:34:06.672Z</time></trkpt><trkpt lat="45.934323" lon="10.9173269"><ele>430.99999999999994</ele><time>2026-04-10T09:34:07.672Z</time></trkpt><trkpt lat="45.9342479" lon="10.9173331"><ele>431.0</ele><time>2026-04-10T09:34:08.672Z</time></trkpt><trkpt lat="45.9341709" lon="10.9172944"><ele>431.0</ele><time>2026-04-10T09:34:09.672Z</time></trkpt><trkpt lat="45.9340982" lon="10.9172483"><ele>431.0</ele><time>2026-04-10T09:34:10.672Z</time></trkpt><trkpt lat="45.9340201" lon="10.9172146"><ele>430.99999999999994</ele><time>2026-04-10T09:34:11.672Z</time></trkpt><trkpt lat="45.9339372" lon="10.9172092"><ele>431.0</ele><time>2026-04-10T09:34:12.672Z</time></trkpt><trkpt lat="45.9338429" lon="10.9172094"><ele>433.6</ele><time>2026-04-10T09:34:13.673Z</time></trkpt><trkpt lat="45.9337425" lon="10.9172123"><ele>436.20000000000005</ele><time>2026-04-10T09:34:14.672Z</time></trkpt><trkpt lat="45.9336353" lon="10.9172138"><ele>438.79999999999995</ele><time>2026-04-10T09:34:15.672Z</time></trkpt><trkpt lat="45.9335289" lon="10.9172057"><ele>441.4</ele><time>2026-04-10T09:34:16.672Z</time></trkpt><trkpt lat="45.9334224" lon="10.9171686"><ele>444.0</ele><time>2026-04-10T09:34:17.672Z</time></trkpt><trkpt lat="45.9333308" lon="10.9171167"><ele>446.0</ele><time>2026-04-10T09:34:18.672Z</time></trkpt><trkpt lat="45.9332535" lon="10.9170728"><ele>448.0</ele><time>2026-04-10T09:34:19.672Z</time></trkpt><trkpt lat="45.9331797" lon="10.9170419"><ele>450.0</ele><time>2026-04-10T09:34:20.672Z</time></trkpt><trkpt lat="45.9331043" lon="10.917035"><ele>452.0</ele><time>2026-04-10T09:34:21.672Z</time></trkpt><trkpt lat="45.9330255" lon="10.9170499"><ele>454.0</ele><time>2026-04-10T09:34:22.672Z</time></trkpt><trkpt lat="45.9329463" lon="10.9170473"><ele>456.0</ele><time>2026-04-10T09:34:23.672Z</time></trkpt><trkpt lat="45.9328653" lon="10.9170242"><ele>456.0</ele><time>2026-04-10T09:34:24.672Z</time></trkpt><trkpt lat="45.9327967" lon="10.9169739"><ele>456.0</ele><time>2026-04-10T09:34:25.672Z</time></trkpt><trkpt lat="45.9327388" lon="10.9169226"><ele>456.0</ele><time>2026-04-10T09:34:26.672Z</time></trkpt><trkpt lat="45.9326773" lon="10.9168919"><ele>456.0</ele><time>2026-04-10T09:34:27.672Z</time></trkpt><trkpt lat="45.9325982" lon="10.916895"><ele>456.0</ele><time>2026-04-10T09:34:28.672Z</time></trkpt><trkpt lat="45.9325282" lon="10.9169458"><ele>456.0</ele><time>2026-04-10T09:34:29.672Z</time></trkpt><trkpt lat="45.9324467" lon="10.9169839"><ele>458.5</ele><time>2026-04-10T09:34:30.672Z</time></trkpt><trkpt lat="45.9323548" lon="10.9169934"><ele>461.0</ele><time>2026-04-10T09:34:31.672Z</time></trkpt><trkpt lat="45.9322585" lon="10.9169803"><ele>463.5</ele><time>2026-04-10T09:34:32.672Z</time></trkpt><trkpt lat="45.9321704" lon="10.9169571"><ele>466.0</ele><time>2026-04-10T09:34:33.672Z</time></trkpt><trkpt lat="45.9320917" lon="10.9169245"><ele>468.5</ele><time>2026-04-10T09:34:34.672Z</time></trkpt><trkpt lat="45.9320143" lon="10.916905"><ele>471.0</ele><time>2026-04-10T09:34:35.673Z</time></trkpt><trkpt lat="45.9319298" lon="10.9169117"><ele>471.0</ele><time>2026-04-10T09:34:36.672Z</time></trkpt><trkpt lat="45.9318446" lon="10.9169281"><ele>471.0</ele><time>2026-04-10T09:34:37.673Z</time></trkpt><trkpt lat="45.9317624" lon="10.9169104"><ele>471.0</ele><time>2026-04-10T09:34:38.672Z</time></trkpt><trkpt lat="45.9316912" lon="10.916848"><ele>471.0</ele><time>2026-04-10T09:34:39.672Z</time></trkpt><trkpt lat="45.9316237" lon="10.9167873"><ele>471.0</ele><time>2026-04-10T09:34:40.672Z</time></trkpt><trkpt lat="45.9315483" lon="10.9167774"><ele>471.0</ele><time>2026-04-10T09:34:41.672Z</time></trkpt><trkpt lat="45.9314667" lon="10.9168069"><ele>473.20000000000005</ele><time>2026-04-10T09:34:42.672Z</time></trkpt><trkpt lat="45.9313842" lon="10.9168545"><ele>475.40000000000003</ele><time>2026-04-10T09:34:43.672Z</time></trkpt><trkpt lat="45.9313027" lon="10.9169207"><ele>477.6</ele><time>2026-04-10T09:34:44.672Z</time></trkpt><trkpt lat="45.9312258" lon="10.9170019"><ele>479.8</ele><time>2026-04-10T09:34:45.672Z</time></trkpt><trkpt lat="45.9311525" lon="10.9170797"><ele>482.0</ele><time>2026-04-10T09:34:46.672Z</time></trkpt><trkpt lat="45.9310722" lon="10.91713"><ele>482.0</ele><time>2026-04-10T09:34:47.673Z</time></trkpt><trkpt lat="45.9309788" lon="10.9171498"><ele>482.00000000000006</ele><time>2026-04-10T09:34:48.673Z</time></trkpt><trkpt lat="45.9308747" lon="10.9171416"><ele>482.00000000000006</ele><time>2026-04-10T09:34:49.673Z</time></trkpt><trkpt lat="45.9307723" lon="10.9171218"><ele>482.0</ele><time>2026-04-10T09:34:50.673Z</time></trkpt><trkpt lat="45.9306731" lon="10.9170973"><ele>482.0</ele><time>2026-04-10T09:34:51.673Z</time></trkpt><trkpt lat="45.9305816" lon="10.917055"><ele>484.6</ele><time>2026-04-10T09:34:52.673Z</time></trkpt><trkpt lat="45.9305085" lon="10.9170123"><ele>487.20000000000005</ele><time>2026-04-10T09:34:53.673Z</time></trkpt><trkpt lat="45.9304293" lon="10.916949"><ele>489.8</ele><time>2026-04-10T09:34:55.674Z</time></trkpt><trkpt lat="45.9303509" lon="10.9169719"><ele>492.4</ele><time>2026-04-10T09:34:58.673Z</time></trkpt><trkpt lat="45.9303915" lon="10.917089"><ele>495.0</ele><time>2026-04-10T09:35:00.673Z</time></trkpt><trkpt lat="45.9305157" lon="10.9171665"><ele>495.0</ele><time>2026-04-10T09:35:02.674Z</time></trkpt><trkpt lat="45.9305802" lon="10.9172271"><ele>495.0</ele><time>2026-04-10T09:35:03.673Z</time></trkpt><trkpt lat="45.9306402" lon="10.9172954"><ele>495.0</ele><time>2026-04-10T09:35:04.673Z</time></trkpt><trkpt lat="45.9307027" lon="10.9173687"><ele>495.0</ele><time>2026-04-10T09:35:05.673Z</time></trkpt><trkpt lat="45.9307732" lon="10.9174479"><ele>495.0</ele><time>2026-04-10T09:35:06.673Z</time></trkpt><trkpt lat="45.9308528" lon="10.917514"><ele>495.0</ele><time>2026-04-10T09:35:07.673Z</time></trkpt><trkpt lat="45.93093" lon="10.9175872"><ele>496.6</ele><time>2026-04-10T09:35:08.673Z</time></trkpt><trkpt lat="45.9310064" lon="10.9176728"><ele>498.2</ele><time>2026-04-10T09:35:09.673Z</time></trkpt><trkpt lat="45.9310802" lon="10.9177629"><ele>499.79999999999995</ele><time>2026-04-10T09:35:10.673Z</time></trkpt><trkpt lat="45.9311641" lon="10.9178551"><ele>501.4</ele><time>2026-04-10T09:35:11.673Z</time></trkpt><trkpt lat="45.9312477" lon="10.9179455"><ele>503.0</ele><time>2026-04-10T09:35:12.673Z</time></trkpt><trkpt lat="45.9313203" lon="10.9180439"><ele>503.0</ele><time>2026-04-10T09:35:13.673Z</time></trkpt><trkpt lat="45.9313906" lon="10.9181549"><ele>502.99999999999994</ele><time>2026-04-10T09:35:14.673Z</time></trkpt><trkpt lat="45.9314601" lon="10.9182677"><ele>502.99999999999994</ele><time>2026-04-10T09:35:15.673Z</time></trkpt><trkpt lat="45.9315378" lon="10.9183764"><ele>503.0</ele><time>2026-04-10T09:35:16.673Z</time></trkpt><trkpt lat="45.931627" lon="10.9184763"><ele>503.0</ele><time>2026-04-10T09:35:17.673Z</time></trkpt><trkpt lat="45.9317236" lon="10.9185644"><ele>507.5</ele><time>2026-04-10T09:35:18.673Z</time></trkpt><trkpt lat="45.9318257" lon="10.9186493"><ele>512.0</ele><time>2026-04-10T09:35:19.673Z</time></trkpt><trkpt lat="45.9319284" lon="10.9187427"><ele>516.5</ele><time>2026-04-10T09:35:20.673Z</time></trkpt><trkpt lat="45.9320314" lon="10.9188411"><ele>521.0</ele><time>2026-04-10T09:35:21.673Z</time></trkpt><trkpt lat="45.9321336" lon="10.9189435"><ele>521.0</ele><time>2026-04-10T09:35:22.673Z</time></trkpt><trkpt lat="45.9322431" lon="10.9190364"><ele>521.0</ele><time>2026-04-10T09:35:23.673Z</time></trkpt><trkpt lat="45.9323546" lon="10.9191133"><ele>521.0</ele><time>2026-04-10T09:35:24.673Z</time></trkpt><trkpt lat="45.9324721" lon="10.9192006"><ele>521.0</ele><time>2026-04-10T09:35:25.673Z</time></trkpt><trkpt lat="45.9325872" lon="10.9192837"><ele>522.6</ele><time>2026-04-10T09:35:26.673Z</time></trkpt><trkpt lat="45.9327013" lon="10.919354"><ele>524.2</ele><time>2026-04-10T09:35:27.673Z</time></trkpt><trkpt lat="45.9328025" lon="10.9194166"><ele>525.8</ele><time>2026-04-10T09:35:28.674Z</time></trkpt><trkpt lat="45.9328837" lon="10.9194805"><ele>527.4</ele><time>2026-04-10T09:35:29.674Z</time></trkpt><trkpt lat="45.9329468" lon="10.9195589"><ele>529.0</ele><time>2026-04-10T09:35:30.674Z</time></trkpt><trkpt lat="45.9330043" lon="10.9196567"><ele>529.0</ele><time>2026-04-10T09:35:31.674Z</time></trkpt><trkpt lat="45.9330639" lon="10.9197532"><ele>529.0</ele><time>2026-04-10T09:35:32.674Z</time></trkpt><trkpt lat="45.9331334" lon="10.9198401"><ele>529.0</ele><time>2026-04-10T09:35:33.674Z</time></trkpt><trkpt lat="45.9332088" lon="10.9199254"><ele>529.0</ele><time>2026-04-10T09:35:34.674Z</time></trkpt><trkpt lat="45.9332862" lon="10.9200273"><ele>529.0</ele><time>2026-04-10T09:35:35.674Z</time></trkpt><trkpt lat="45.9333659" lon="10.920131"><ele>529.6</ele><time>2026-04-10T09:35:36.674Z</time></trkpt><trkpt lat="45.9334467" lon="10.920239"><ele>530.2</ele><time>2026-04-10T09:35:37.674Z</time></trkpt><trkpt lat="45.9335283" lon="10.9203621"><ele>530.8000000000001</ele><time>2026-04-10T09:35:38.674Z</time></trkpt><trkpt lat="45.9335996" lon="10.9204837"><ele>531.4</ele><time>2026-04-10T09:35:39.674Z</time></trkpt><trkpt lat="45.933671" lon="10.9206007"><ele>532.0</ele><time>2026-04-10T09:35:40.675Z</time></trkpt><trkpt lat="45.9337546" lon="10.9206829"><ele>532.0</ele><time>2026-04-10T09:35:41.674Z</time></trkpt><trkpt lat="45.9338569" lon="10.92075"><ele>532.0</ele><time>2026-04-10T09:35:42.674Z</time></trkpt><trkpt lat="45.9339304" lon="10.9208031"><ele>532.0</ele><time>2026-04-10T09:35:43.674Z</time></trkpt><trkpt lat="45.9339749" lon="10.9208672"><ele>532.0</ele><time>2026-04-10T09:35:44.674Z</time></trkpt><trkpt lat="45.9340006" lon="10.9209987"><ele>532.0</ele><time>2026-04-10T09:35:46.674Z</time></trkpt><trkpt lat="45.9340189" lon="10.9210955"><ele>532.0</ele><time>2026-04-10T09:35:47.674Z</time></trkpt><trkpt lat="45.9340386" lon="10.9211984"><ele>533.1428571428571</ele><time>2026-04-10T09:35:48.674Z</time></trkpt><trkpt lat="45.9340574" lon="10.921293"><ele>534.2857142857142</ele><time>2026-04-10T09:35:49.674Z</time></trkpt><trkpt lat="45.9340816" lon="10.921389"><ele>535.4285714285714</ele><time>2026-04-10T09:35:50.674Z</time></trkpt><trkpt lat="45.93412" lon="10.9214624"><ele>536.5714285714286</ele><time>2026-04-10T09:35:51.674Z</time></trkpt><trkpt lat="45.9341756" lon="10.9215197"><ele>537.7142857142857</ele><time>2026-04-10T09:35:52.674Z</time></trkpt><trkpt lat="45.9342441" lon="10.9215986"><ele>538.8571428571429</ele><time>2026-04-10T09:35:53.675Z</time></trkpt><trkpt lat="45.9343121" lon="10.9216824"><ele>540.0</ele><time>2026-04-10T09:35:54.674Z</time></trkpt><trkpt lat="45.9344004" lon="10.9217214"><ele>544.8333333333334</ele><time>2026-04-10T09:35:56.674Z</time></trkpt><trkpt lat="45.9344618" lon="10.921764"><ele>549.6666666666666</ele><time>2026-04-10T09:35:57.674Z</time></trkpt><trkpt lat="45.9345439" lon="10.9218363"><ele>554.5</ele><time>2026-04-10T09:35:58.674Z</time></trkpt><trkpt lat="45.9346125" lon="10.9219053"><ele>559.3333333333333</ele><time>2026-04-10T09:35:59.674Z</time></trkpt><trkpt lat="45.9346763" lon="10.9219778"><ele>564.1666666666666</ele><time>2026-04-10T09:36:00.675Z</time></trkpt><trkpt lat="45.9347316" lon="10.9220368"><ele>569.0</ele><time>2026-04-10T09:36:01.674Z</time></trkpt><trkpt lat="45.9347835" lon="10.9220893"><ele>569.0</ele><time>2026-04-10T09:36:02.674Z</time></trkpt><trkpt lat="45.9348797" lon="10.9221886"><ele>569.0</ele><time>2026-04-10T09:36:04.674Z</time></trkpt><trkpt lat="45.9349821" lon="10.9222887"><ele>569.0</ele><time>2026-04-10T09:36:06.674Z</time></trkpt><trkpt lat="45.9350364" lon="10.9223446"><ele>569.0</ele><time>2026-04-10T09:36:07.675Z</time></trkpt><trkpt lat="45.9350944" lon="10.9224035"><ele>569.0</ele><time>2026-04-10T09:36:08.674Z</time></trkpt><trkpt lat="45.9351572" lon="10.9224639"><ele>570.3333333333333</ele><time>2026-04-10T09:36:09.676Z</time></trkpt><trkpt lat="45.9352184" lon="10.9225261"><ele>571.6666666666666</ele><time>2026-04-10T09:36:10.675Z</time></trkpt><trkpt lat="45.9352783" lon="10.9225868"><ele>573.0</ele><time>2026-04-10T09:36:11.675Z</time></trkpt><trkpt lat="45.9353452" lon="10.9226531"><ele>574.3333333333334</ele><time>2026-04-10T09:36:12.675Z</time></trkpt><trkpt lat="45.9354097" lon="10.9227328"><ele>575.6666666666667</ele><time>2026-04-10T09:36:13.675Z</time></trkpt><trkpt lat="45.9354726" lon="10.9228163"><ele>577.0</ele><time>2026-04-10T09:36:14.675Z</time></trkpt><trkpt lat="45.9355325" lon="10.9228915"><ele>577.0</ele><time>2026-04-10T09:36:15.675Z</time></trkpt><trkpt lat="45.9356063" lon="10.9229523"><ele>577.0</ele><time>2026-04-10T09:36:16.675Z</time></trkpt><trkpt lat="45.9356879" lon="10.9230067"><ele>577.0</ele><time>2026-04-10T09:36:17.675Z</time></trkpt><trkpt lat="45.9357581" lon="10.9230717"><ele>577.0</ele><time>2026-04-10T09:36:18.675Z</time></trkpt><trkpt lat="45.9358317" lon="10.9231447"><ele>577.0</ele><time>2026-04-10T09:36:19.675Z</time></trkpt><trkpt lat="45.9358956" lon="10.9232142"><ele>577.0</ele><time>2026-04-10T09:36:20.675Z</time></trkpt><trkpt lat="45.9359705" lon="10.9233495"><ele>578.8000000000001</ele><time>2026-04-10T09:36:22.675Z</time></trkpt><trkpt lat="45.9360022" lon="10.9235001"><ele>580.6</ele><time>2026-04-10T09:36:24.675Z</time></trkpt><trkpt lat="45.9360752" lon="10.9236277"><ele>582.4000000000001</ele><time>2026-04-10T09:36:26.675Z</time></trkpt><trkpt lat="45.9361348" lon="10.9236841"><ele>584.2</ele><time>2026-04-10T09:36:27.676Z</time></trkpt><trkpt lat="45.9362028" lon="10.9237598"><ele>586.0</ele><time>2026-04-10T09:36:28.675Z</time></trkpt><trkpt lat="45.9362678" lon="10.9238384"><ele>586.0</ele><time>2026-04-10T09:36:29.675Z</time></trkpt><trkpt lat="45.936338" lon="10.9239093"><ele>586.0</ele><time>2026-04-10T09:36:30.675Z</time></trkpt><trkpt lat="45.9364157" lon="10.9239737"><ele>586.0</ele><time>2026-04-10T09:36:31.675Z</time></trkpt><trkpt lat="45.9365033" lon="10.9240363"><ele>586.0</ele><time>2026-04-10T09:36:32.676Z</time></trkpt><trkpt lat="45.9365893" lon="10.9240786"><ele>586.0</ele><time>2026-04-10T09:36:33.676Z</time></trkpt><trkpt lat="45.9366802" lon="10.9240956"><ele>586.5</ele><time>2026-04-10T09:36:34.675Z</time></trkpt><trkpt lat="45.9367723" lon="10.9240956"><ele>587.0</ele><time>2026-04-10T09:36:35.675Z</time></trkpt><trkpt lat="45.9368485" lon="10.9241046"><ele>587.5</ele><time>2026-04-10T09:36:36.675Z</time></trkpt><trkpt lat="45.9369185" lon="10.9241413"><ele>588.0</ele><time>2026-04-10T09:36:37.675Z</time></trkpt><trkpt lat="45.9369913" lon="10.9241908"><ele>588.5</ele><time>2026-04-10T09:36:38.675Z</time></trkpt><trkpt lat="45.9370662" lon="10.9242464"><ele>589.0</ele><time>2026-04-10T09:36:39.675Z</time></trkpt><trkpt lat="45.9371391" lon="10.9243041"><ele>589.0</ele><time>2026-04-10T09:36:40.675Z</time></trkpt><trkpt lat="45.9372106" lon="10.9243739"><ele>589.0</ele><time>2026-04-10T09:36:41.675Z</time></trkpt><trkpt lat="45.9372857" lon="10.924463"><ele>589.0</ele><time>2026-04-10T09:36:42.675Z</time></trkpt><trkpt lat="45.9373618" lon="10.9245671"><ele>589.0</ele><time>2026-04-10T09:36:43.675Z</time></trkpt><trkpt lat="45.9374367" lon="10.9246864"><ele>589.0</ele><time>2026-04-10T09:36:44.675Z</time></trkpt><trkpt lat="45.9375127" lon="10.924811"><ele>588.6</ele><time>2026-04-10T09:36:45.675Z</time></trkpt><trkpt lat="45.937591" lon="10.9249264"><ele>588.2</ele><time>2026-04-10T09:36:46.675Z</time></trkpt><trkpt lat="45.9376713" lon="10.925035"><ele>587.8000000000001</ele><time>2026-04-10T09:36:47.675Z</time></trkpt><trkpt lat="45.9377449" lon="10.9251507"><ele>587.4</ele><time>2026-04-10T09:36:48.675Z</time></trkpt><trkpt lat="45.9378162" lon="10.9252762"><ele>587.0</ele><time>2026-04-10T09:36:49.675Z</time></trkpt><trkpt lat="45.9378871" lon="10.9254059"><ele>587.0</ele><time>2026-04-10T09:36:50.676Z</time></trkpt><trkpt lat="45.9379598" lon="10.9255245"><ele>587.0</ele><time>2026-04-10T09:36:51.676Z</time></trkpt><trkpt lat="45.938036" lon="10.925647"><ele>587.0</ele><time>2026-04-10T09:36:52.676Z</time></trkpt><trkpt lat="45.9381067" lon="10.9257819"><ele>587.0</ele><time>2026-04-10T09:36:53.676Z</time></trkpt><trkpt lat="45.938165" lon="10.9259233"><ele>591.6</ele><time>2026-04-10T09:36:54.676Z</time></trkpt><trkpt lat="45.9382104" lon="10.926061"><ele>596.2</ele><time>2026-04-10T09:36:55.676Z</time></trkpt><trkpt lat="45.9382647" lon="10.9261983"><ele>600.8</ele><time>2026-04-10T09:36:56.676Z</time></trkpt><trkpt lat="45.9383295" lon="10.9263321"><ele>605.4</ele><time>2026-04-10T09:36:57.676Z</time></trkpt><trkpt lat="45.9383924" lon="10.9264683"><ele>610.0</ele><time>2026-04-10T09:36:58.676Z</time></trkpt><trkpt lat="45.9384545" lon="10.9265935"><ele>610.6666666666667</ele><time>2026-04-10T09:36:59.676Z</time></trkpt><trkpt lat="45.9385096" lon="10.9267209"><ele>611.3333333333334</ele><time>2026-04-10T09:37:00.676Z</time></trkpt><trkpt lat="45.9385512" lon="10.9268308"><ele>612.0</ele><time>2026-04-10T09:37:01.676Z</time></trkpt><trkpt lat="45.9385846" lon="10.9269212"><ele>612.6666666666666</ele><time>2026-04-10T09:37:02.676Z</time></trkpt><trkpt lat="45.9386162" lon="10.9270008"><ele>613.3333333333333</ele><time>2026-04-10T09:37:03.676Z</time></trkpt><trkpt lat="45.9387095" lon="10.927079"><ele>614.0</ele><time>2026-04-10T09:37:05.677Z</time></trkpt><trkpt lat="45.9387739" lon="10.9270828"><ele>616.6666666666666</ele><time>2026-04-10T09:37:06.676Z</time></trkpt><trkpt lat="45.9388926" lon="10.9270331"><ele>619.3333333333333</ele><time>2026-04-10T09:37:08.676Z</time></trkpt><trkpt lat="45.9389599" lon="10.926989"><ele>622.0</ele><time>2026-04-10T09:37:09.676Z</time></trkpt><trkpt lat="45.9390271" lon="10.9269535"><ele>624.6666666666666</ele><time>2026-04-10T09:37:10.676Z</time></trkpt><trkpt lat="45.9390887" lon="10.9269276"><ele>627.3333333333334</ele><time>2026-04-10T09:37:11.676Z</time></trkpt><trkpt lat="45.939146" lon="10.9268889"><ele>630.0</ele><time>2026-04-10T09:37:12.676Z</time></trkpt><trkpt lat="45.9391933" lon="10.9268133"><ele>630.8333333333334</ele><time>2026-04-10T09:37:13.676Z</time></trkpt><trkpt lat="45.9392222" lon="10.9267246"><ele>631.6666666666666</ele><time>2026-04-10T09:37:14.676Z</time></trkpt><trkpt lat="45.9392455" lon="10.9266333"><ele>632.5</ele><time>2026-04-10T09:37:15.676Z</time></trkpt><trkpt lat="45.9392781" lon="10.9265437"><ele>633.3333333333333</ele><time>2026-04-10T09:37:16.676Z</time></trkpt><trkpt lat="45.9393282" lon="10.9264847"><ele>634.1666666666666</ele><time>2026-04-10T09:37:17.676Z</time></trkpt><trkpt lat="45.9394304" lon="10.9264492"><ele>635.0</ele><time>2026-04-10T09:37:19.676Z</time></trkpt><trkpt lat="45.9395511" lon="10.9264097"><ele>634.9999999999999</ele><time>2026-04-10T09:37:21.676Z</time></trkpt><trkpt lat="45.9396191" lon="10.926408"><ele>635.0</ele><time>2026-04-10T09:37:22.676Z</time></trkpt><trkpt lat="45.9396923" lon="10.9264252"><ele>635.0</ele><time>2026-04-10T09:37:23.676Z</time></trkpt><trkpt lat="45.9397654" lon="10.9264486"><ele>635.0</ele><time>2026-04-10T09:37:24.676Z</time></trkpt><trkpt lat="45.939834" lon="10.9264679"><ele>635.0</ele><time>2026-04-10T09:37:25.676Z</time></trkpt><trkpt lat="45.9399111" lon="10.9264938"><ele>634.9999999999999</ele><time>2026-04-10T09:37:26.676Z</time></trkpt><trkpt lat="45.9399888" lon="10.926514"><ele>635.0</ele><time>2026-04-10T09:37:27.676Z</time></trkpt><trkpt lat="45.9400721" lon="10.9265344"><ele>635.8571428571428</ele><time>2026-04-10T09:37:28.676Z</time></trkpt><trkpt lat="45.9401306" lon="10.9265869"><ele>636.7142857142857</ele><time>2026-04-10T09:37:29.676Z</time></trkpt><trkpt lat="45.9401715" lon="10.9266622"><ele>637.5714285714286</ele><time>2026-04-10T09:37:30.677Z</time></trkpt><trkpt lat="45.9402253" lon="10.9267297"><ele>638.4285714285713</ele><time>2026-04-10T09:37:31.677Z</time></trkpt><trkpt lat="45.9402803" lon="10.9267945"><ele>639.2857142857142</ele><time>2026-04-10T09:37:32.678Z</time></trkpt><trkpt lat="45.9403344" lon="10.9268645"><ele>640.1428571428571</ele><time>2026-04-10T09:37:33.677Z</time></trkpt><trkpt lat="45.9403952" lon="10.9269273"><ele>641.0</ele><time>2026-04-10T09:37:34.677Z</time></trkpt><trkpt lat="45.9404605" lon="10.926983"><ele>641.0</ele><time>2026-04-10T09:37:35.677Z</time></trkpt><trkpt lat="45.9405301" lon="10.9270271"><ele>641.0</ele><time>2026-04-10T09:37:36.677Z</time></trkpt><trkpt lat="45.9405964" lon="10.9270646"><ele>641.0</ele><time>2026-04-10T09:37:37.678Z</time></trkpt><trkpt lat="45.940664" lon="10.9271013"><ele>641.0</ele><time>2026-04-10T09:37:38.677Z</time></trkpt><trkpt lat="45.9407429" lon="10.92712"><ele>641.0</ele><time>2026-04-10T09:37:39.677Z</time></trkpt><trkpt lat="45.940837" lon="10.9271168"><ele>641.0</ele><time>2026-04-10T09:37:40.677Z</time></trkpt><trkpt lat="45.9409338" lon="10.9271197"><ele>643.8</ele><time>2026-04-10T09:37:41.677Z</time></trkpt><trkpt lat="45.9410254" lon="10.9271449"><ele>646.5999999999999</ele><time>2026-04-10T09:37:42.677Z</time></trkpt><trkpt lat="45.9411167" lon="10.9271891"><ele>649.4</ele><time>2026-04-10T09:37:43.677Z</time></trkpt><trkpt lat="45.941209" lon="10.9272438"><ele>652.2</ele><time>2026-04-10T09:37:44.677Z</time></trkpt><trkpt lat="45.9412938" lon="10.9272953"><ele>655.0</ele><time>2026-04-10T09:37:45.678Z</time></trkpt><trkpt lat="45.9413749" lon="10.9273187"><ele>655.0</ele><time>2026-04-10T09:37:46.677Z</time></trkpt><trkpt lat="45.9414438" lon="10.9273254"><ele>655.0</ele><time>2026-04-10T09:37:47.677Z</time></trkpt><trkpt lat="45.9415462" lon="10.9273889"><ele>655.0</ele><time>2026-04-10T09:37:49.677Z</time></trkpt><trkpt lat="45.9416081" lon="10.9274085"><ele>655.0</ele><time>2026-04-10T09:37:50.678Z</time></trkpt><trkpt lat="45.9417259" lon="10.9274581"><ele>655.0</ele><time>2026-04-10T09:37:52.677Z</time></trkpt><trkpt lat="45.9417934" lon="10.9274835"><ele>655.0</ele><time>2026-04-10T09:37:53.678Z</time></trkpt><trkpt lat="45.9418911" lon="10.9275578"><ele>655.3333333333334</ele><time>2026-04-10T09:37:55.678Z</time></trkpt><trkpt lat="45.94199" lon="10.9276531"><ele>655.6666666666667</ele><time>2026-04-10T09:37:57.677Z</time></trkpt><trkpt lat="45.942058" lon="10.92768"><ele>656.0</ele><time>2026-04-10T09:37:58.677Z</time></trkpt><trkpt lat="45.9421177" lon="10.9277206"><ele>656.3333333333334</ele><time>2026-04-10T09:37:59.677Z</time></trkpt><trkpt lat="45.942207" lon="10.9277819"><ele>656.6666666666666</ele><time>2026-04-10T09:38:01.677Z</time></trkpt><trkpt lat="45.9422622" lon="10.9278395"><ele>657.0</ele><time>2026-04-10T09:38:02.677Z</time></trkpt><trkpt lat="45.9423127" lon="10.9279048"><ele>657.0</ele><time>2026-04-10T09:38:03.678Z</time></trkpt><trkpt lat="45.9423608" lon="10.9279655"><ele>657.0</ele><time>2026-04-10T09:38:04.677Z</time></trkpt><trkpt lat="45.9424195" lon="10.9280151"><ele>657.0</ele><time>2026-04-10T09:38:05.677Z</time></trkpt><trkpt lat="45.9424831" lon="10.9280518"><ele>657.0</ele><time>2026-04-10T09:38:06.677Z</time></trkpt><trkpt lat="45.9425596" lon="10.9280812"><ele>657.0</ele><time>2026-04-10T09:38:07.677Z</time></trkpt><trkpt lat="45.9426362" lon="10.9281081"><ele>657.0</ele><time>2026-04-10T09:38:08.677Z</time></trkpt><trkpt lat="45.9427156" lon="10.9281378"><ele>657.0</ele><time>2026-04-10T09:38:09.677Z</time></trkpt><trkpt lat="45.9427867" lon="10.9281573"><ele>659.8333333333334</ele><time>2026-04-10T09:38:10.677Z</time></trkpt><trkpt lat="45.9428559" lon="10.928174"><ele>662.6666666666666</ele><time>2026-04-10T09:38:11.678Z</time></trkpt><trkpt lat="45.9429204" lon="10.9281873"><ele>665.5</ele><time>2026-04-10T09:38:12.678Z</time></trkpt><trkpt lat="45.9429917" lon="10.9282008"><ele>668.3333333333333</ele><time>2026-04-10T09:38:13.678Z</time></trkpt><trkpt lat="45.9430624" lon="10.9282192"><ele>671.1666666666666</ele><time>2026-04-10T09:38:14.678Z</time></trkpt><trkpt lat="45.9431302" lon="10.9282392"><ele>674.0</ele><time>2026-04-10T09:38:15.678Z</time></trkpt><trkpt lat="45.9432522" lon="10.9282649"><ele>674.0</ele><time>2026-04-10T09:38:17.678Z</time></trkpt><trkpt lat="45.9433633" lon="10.9283147"><ele>674.0</ele><time>2026-04-10T09:38:19.678Z</time></trkpt><trkpt lat="45.9434737" lon="10.9283768"><ele>674.0</ele><time>2026-04-10T09:38:21.679Z</time></trkpt><trkpt lat="45.9435489" lon="10.9284122"><ele>674.0</ele><time>2026-04-10T09:38:22.678Z</time></trkpt><trkpt lat="45.9436201" lon="10.9284526"><ele>674.0</ele><time>2026-04-10T09:38:23.678Z</time></trkpt><trkpt lat="45.9436956" lon="10.9284843"><ele>673.8333333333333</ele><time>2026-04-10T09:38:24.678Z</time></trkpt><trkpt lat="45.9437671" lon="10.928509"><ele>673.6666666666666</ele><time>2026-04-10T09:38:25.679Z</time></trkpt><trkpt lat="45.9438295" lon="10.9285391"><ele>673.5</ele><time>2026-04-10T09:38:26.678Z</time></trkpt><trkpt lat="45.9438909" lon="10.9285731"><ele>673.3333333333334</ele><time>2026-04-10T09:38:27.678Z</time></trkpt><trkpt lat="45.9440029" lon="10.9286451"><ele>673.1666666666667</ele><time>2026-04-10T09:38:29.678Z</time></trkpt><trkpt lat="45.9441045" lon="10.9287063"><ele>673.0</ele><time>2026-04-10T09:38:31.678Z</time></trkpt><trkpt lat="45.9442098" lon="10.9287682"><ele>678.0</ele><time>2026-04-10T09:38:33.678Z</time></trkpt><trkpt lat="45.9442759" lon="10.9288036"><ele>683.0</ele><time>2026-04-10T09:38:34.678Z</time></trkpt><trkpt lat="45.9443596" lon="10.9289222"><ele>688.0</ele><time>2026-04-10T09:38:36.678Z</time></trkpt><trkpt lat="45.9443962" lon="10.9289968"><ele>693.0</ele><time>2026-04-10T09:38:37.678Z</time></trkpt><trkpt lat="45.9444422" lon="10.9290589"><ele>698.0</ele><time>2026-04-10T09:38:38.678Z</time></trkpt><trkpt lat="45.9445259" lon="10.9291434"><ele>703.0</ele><time>2026-04-10T09:38:40.678Z</time></trkpt><trkpt lat="45.9446027" lon="10.9291107"><ele>703.0</ele><time>2026-04-10T09:38:42.678Z</time></trkpt><trkpt lat="45.9445954" lon="10.9289871"><ele>703.0</ele><time>2026-04-10T09:38:44.678Z</time></trkpt><trkpt lat="45.9445433" lon="10.9288446"><ele>703.0</ele><time>2026-04-10T09:38:46.679Z</time></trkpt><trkpt lat="45.9445122" lon="10.9287631"><ele>703.0</ele><time>2026-04-10T09:38:47.678Z</time></trkpt><trkpt lat="45.9444775" lon="10.928676"><ele>703.0</ele><time>2026-04-10T09:38:48.678Z</time></trkpt><trkpt lat="45.9444416" lon="10.9285988"><ele>703.0</ele><time>2026-04-10T09:38:49.678Z</time></trkpt><trkpt lat="45.9443557" lon="10.9284724"><ele>703.0</ele><time>2026-04-10T09:38:51.678Z</time></trkpt><trkpt lat="45.944291" lon="10.9283608"><ele>703.0</ele><time>2026-04-10T09:38:53.679Z</time></trkpt><trkpt lat="45.9442925" lon="10.9282686"><ele>703.0</ele><time>2026-04-10T09:38:55.679Z</time></trkpt><trkpt lat="45.9443607" lon="10.9282352"><ele>703.0</ele><time>2026-04-10T09:38:57.679Z</time></trkpt><trkpt lat="45.9444655" lon="10.9282802"><ele>703.0</ele><time>2026-04-10T09:38:59.679Z</time></trkpt><trkpt lat="45.944534" lon="10.9283809"><ele>703.0</ele><time>2026-04-10T09:39:01.679Z</time></trkpt><trkpt lat="45.9446411" lon="10.9284551"><ele>703.0</ele><time>2026-04-10T09:39:03.68Z</time></trkpt><trkpt lat="45.944706" lon="10.9284738"><ele>703.0</ele><time>2026-04-10T09:39:04.679Z</time></trkpt><trkpt lat="45.9447698" lon="10.928484"><ele>703.0</ele><time>2026-04-10T09:39:05.679Z</time></trkpt><trkpt lat="45.9448342" lon="10.9285039"><ele>703.0</ele><time>2026-04-10T09:39:06.679Z</time></trkpt><trkpt lat="45.9449354" lon="10.9285869"><ele>703.0</ele><time>2026-04-10T09:39:08.679Z</time></trkpt><trkpt lat="45.9450072" lon="10.9287168"><ele>703.0</ele><time>2026-04-10T09:39:10.679Z</time></trkpt><trkpt lat="45.9450311" lon="10.9288763"><ele>707.8333333333334</ele><time>2026-04-10T09:39:12.679Z</time></trkpt><trkpt lat="45.9450591" lon="10.9290317"><ele>712.6666666666667</ele><time>2026-04-10T09:39:14.679Z</time></trkpt><trkpt lat="45.9451146" lon="10.9291015"><ele>717.5</ele><time>2026-04-10T09:39:16.679Z</time></trkpt><trkpt lat="45.9451868" lon="10.929079"><ele>722.3333333333334</ele><time>2026-04-10T09:39:22.679Z</time></trkpt><trkpt lat="45.9452627" lon="10.9290088"><ele>727.1666666666666</ele><time>2026-04-10T09:39:24.679Z</time></trkpt><trkpt lat="45.9453078" lon="10.9289293"><ele>732.0</ele><time>2026-04-10T09:39:25.68Z</time></trkpt><trkpt lat="45.9453592" lon="10.9288724"><ele>732.0</ele><time>2026-04-10T09:39:26.679Z</time></trkpt><trkpt lat="45.9454591" lon="10.9288066"><ele>732.0</ele><time>2026-04-10T09:39:28.679Z</time></trkpt><trkpt lat="45.945527" lon="10.9287901"><ele>732.0</ele><time>2026-04-10T09:39:29.679Z</time></trkpt><trkpt lat="45.9456039" lon="10.9287795"><ele>732.0</ele><time>2026-04-10T09:39:30.679Z</time></trkpt><trkpt lat="45.9456896" lon="10.9287585"><ele>732.0</ele><time>2026-04-10T09:39:31.679Z</time></trkpt><trkpt lat="45.9457805" lon="10.9287235"><ele>732.0</ele><time>2026-04-10T09:39:32.679Z</time></trkpt><trkpt lat="45.9458713" lon="10.9286903"><ele>735.1428571428571</ele><time>2026-04-10T09:39:33.679Z</time></trkpt><trkpt lat="45.9459545" lon="10.9286578"><ele>738.2857142857143</ele><time>2026-04-10T09:39:34.68Z</time></trkpt><trkpt lat="45.9460283" lon="10.9286172"><ele>741.4285714285713</ele><time>2026-04-10T09:39:35.68Z</time></trkpt><trkpt lat="45.946098" lon="10.9285846"><ele>744.5714285714286</ele><time>2026-04-10T09:39:36.68Z</time></trkpt><trkpt lat="45.9461657" lon="10.928576"><ele>747.7142857142857</ele><time>2026-04-10T09:39:37.68Z</time></trkpt><trkpt lat="45.9462347" lon="10.9285768"><ele>750.8571428571428</ele><time>2026-04-10T09:39:38.68Z</time></trkpt><trkpt lat="45.9463034" lon="10.9285757"><ele>754.0</ele><time>2026-04-10T09:39:39.68Z</time></trkpt><trkpt lat="45.9463768" lon="10.9285688"><ele>753.9999999999999</ele><time>2026-04-10T09:39:40.68Z</time></trkpt><trkpt lat="45.9464475" lon="10.9285743"><ele>754.0</ele><time>2026-04-10T09:39:41.68Z</time></trkpt><trkpt lat="45.9465112" lon="10.9285946"><ele>754.0</ele><time>2026-04-10T09:39:42.68Z</time></trkpt><trkpt lat="45.9465727" lon="10.9286235"><ele>754.0</ele><time>2026-04-10T09:39:43.68Z</time></trkpt><trkpt lat="45.9466415" lon="10.928652"><ele>754.0</ele><time>2026-04-10T09:39:44.68Z</time></trkpt><trkpt lat="45.9467135" lon="10.9286804"><ele>753.9999999999999</ele><time>2026-04-10T09:39:45.68Z</time></trkpt><trkpt lat="45.9467839" lon="10.9287072"><ele>754.0</ele><time>2026-04-10T09:39:46.68Z</time></trkpt><trkpt lat="45.946851" lon="10.9287473"><ele>754.7142857142857</ele><time>2026-04-10T09:39:47.681Z</time></trkpt><trkpt lat="45.9469135" lon="10.928791"><ele>755.4285714285714</ele><time>2026-04-10T09:39:48.68Z</time></trkpt><trkpt lat="45.9469735" lon="10.9288388"><ele>756.1428571428571</ele><time>2026-04-10T09:39:49.68Z</time></trkpt><trkpt lat="45.9470347" lon="10.9289005"><ele>756.8571428571429</ele><time>2026-04-10T09:39:50.68Z</time></trkpt><trkpt lat="45.947095" lon="10.9289714"><ele>757.5714285714286</ele><time>2026-04-10T09:39:51.68Z</time></trkpt><trkpt lat="45.9471508" lon="10.9290473"><ele>758.2857142857142</ele><time>2026-04-10T09:39:52.68Z</time></trkpt><trkpt lat="45.9472022" lon="10.9291271"><ele>759.0</ele><time>2026-04-10T09:39:53.68Z</time></trkpt><trkpt lat="45.9472468" lon="10.9292136"><ele>759.7142857142857</ele><time>2026-04-10T09:39:54.68Z</time></trkpt><trkpt lat="45.9472892" lon="10.9292979"><ele>760.4285714285713</ele><time>2026-04-10T09:39:55.68Z</time></trkpt><trkpt lat="45.9473353" lon="10.9293784"><ele>761.1428571428571</ele><time>2026-04-10T09:39:56.68Z</time></trkpt><trkpt lat="45.9473881" lon="10.9294558"><ele>761.8571428571429</ele><time>2026-04-10T09:39:57.68Z</time></trkpt><trkpt lat="45.9474395" lon="10.929534"><ele>762.5714285714286</ele><time>2026-04-10T09:39:58.68Z</time></trkpt><trkpt lat="45.9474921" lon="10.9296055"><ele>763.2857142857143</ele><time>2026-04-10T09:39:59.68Z</time></trkpt><trkpt lat="45.9475493" lon="10.9296713"><ele>764.0</ele><time>2026-04-10T09:40:00.68Z</time></trkpt><trkpt lat="45.9476064" lon="10.9297427"><ele>762.0</ele><time>2026-04-10T09:40:01.68Z</time></trkpt><trkpt lat="45.9476605" lon="10.9298202"><ele>760.0</ele><time>2026-04-10T09:40:02.68Z</time></trkpt><trkpt lat="45.9477157" lon="10.9299092"><ele>758.0</ele><time>2026-04-10T09:40:03.681Z</time></trkpt><trkpt lat="45.9477674" lon="10.9300052"><ele>756.0</ele><time>2026-04-10T09:40:04.68Z</time></trkpt><trkpt lat="45.9478168" lon="10.9300968"><ele>754.0</ele><time>2026-04-10T09:40:05.68Z</time></trkpt><trkpt lat="45.9478722" lon="10.9301835"><ele>752.0</ele><time>2026-04-10T09:40:06.681Z</time></trkpt><trkpt lat="45.9479378" lon="10.9302668"><ele>752.0</ele><time>2026-04-10T09:40:07.68Z</time></trkpt><trkpt lat="45.9480054" lon="10.9303564"><ele>752.0</ele><time>2026-04-10T09:40:08.68Z</time></trkpt><trkpt lat="45.948072" lon="10.9304488"><ele>752.0</ele><time>2026-04-10T09:40:09.681Z</time></trkpt><trkpt lat="45.9481341" lon="10.9305523"><ele>752.0</ele><time>2026-04-10T09:40:10.68Z</time></trkpt><trkpt lat="45.9481953" lon="10.9306651"><ele>752.0</ele><time>2026-04-10T09:40:11.681Z</time></trkpt><trkpt lat="45.9482563" lon="10.9307833"><ele>752.0</ele><time>2026-04-10T09:40:12.68Z</time></trkpt><trkpt lat="45.9483081" lon="10.9308889"><ele>752.0</ele><time>2026-04-10T09:40:13.68Z</time></trkpt><trkpt lat="45.9483544" lon="10.9309902"><ele>752.0</ele><time>2026-04-10T09:40:14.681Z</time></trkpt><trkpt lat="45.9484085" lon="10.9311032"><ele>752.0</ele><time>2026-04-10T09:40:15.681Z</time></trkpt><trkpt lat="45.9484585" lon="10.9312108"><ele>752.0</ele><time>2026-04-10T09:40:16.681Z</time></trkpt><trkpt lat="45.9484968" lon="10.9313133"><ele>752.0</ele><time>2026-04-10T09:40:17.681Z</time></trkpt><trkpt lat="45.9485261" lon="10.9314226"><ele>751.1428571428571</ele><time>2026-04-10T09:40:18.681Z</time></trkpt><trkpt lat="45.9485524" lon="10.9315298"><ele>750.2857142857142</ele><time>2026-04-10T09:40:19.681Z</time></trkpt><trkpt lat="45.9485806" lon="10.9316261"><ele>749.4285714285714</ele><time>2026-04-10T09:40:20.681Z</time></trkpt><trkpt lat="45.9486105" lon="10.9317199"><ele>748.5714285714286</ele><time>2026-04-10T09:40:21.681Z</time></trkpt><trkpt lat="45.9486584" lon="10.9317817"><ele>747.7142857142858</ele><time>2026-04-10T09:40:22.681Z</time></trkpt><trkpt lat="45.9487172" lon="10.9318242"><ele>746.8571428571429</ele><time>2026-04-10T09:40:23.681Z</time></trkpt><trkpt lat="45.9487787" lon="10.9318877"><ele>746.0</ele><time>2026-04-10T09:40:24.681Z</time></trkpt><trkpt lat="45.948837" lon="10.9319697"><ele>748.0</ele><time>2026-04-10T09:40:25.681Z</time></trkpt><trkpt lat="45.9488985" lon="10.9320546"><ele>750.0</ele><time>2026-04-10T09:40:26.681Z</time></trkpt><trkpt lat="45.9489627" lon="10.9321255"><ele>752.0</ele><time>2026-04-10T09:40:27.681Z</time></trkpt><trkpt lat="45.9490244" lon="10.9321865"><ele>754.0</ele><time>2026-04-10T09:40:28.681Z</time></trkpt><trkpt lat="45.9490929" lon="10.9322167"><ele>756.0</ele><time>2026-04-10T09:40:30.681Z</time></trkpt><trkpt lat="45.9491633" lon="10.9321233"><ele>758.0</ele><time>2026-04-10T09:40:33.681Z</time></trkpt><trkpt lat="45.9492083" lon="10.932044"><ele>755.5</ele><time>2026-04-10T09:40:35.681Z</time></trkpt><trkpt lat="45.9492546" lon="10.9319733"><ele>753.0</ele><time>2026-04-10T09:40:37.681Z</time></trkpt><trkpt lat="45.949302" lon="10.9319132"><ele>750.5</ele><time>2026-04-10T09:40:39.681Z</time></trkpt><trkpt lat="45.9493907" lon="10.9319435"><ele>748.0</ele><time>2026-04-10T09:40:42.681Z</time></trkpt><trkpt lat="45.9494547" lon="10.9320203"><ele>745.5</ele><time>2026-04-10T09:40:45.681Z</time></trkpt><trkpt lat="45.9495268" lon="10.9320873"><ele>743.0</ele><time>2026-04-10T09:40:47.681Z</time></trkpt><trkpt lat="45.9496006" lon="10.9321542"><ele>743.0</ele><time>2026-04-10T09:40:49.681Z</time></trkpt><trkpt lat="45.9496563" lon="10.9322064"><ele>743.0</ele><time>2026-04-10T09:40:51.681Z</time></trkpt><trkpt lat="45.9497183" lon="10.9322717"><ele>743.0</ele><time>2026-04-10T09:40:53.681Z</time></trkpt><trkpt lat="45.9497642" lon="10.9323385"><ele>743.0</ele><time>2026-04-10T09:40:54.681Z</time></trkpt><trkpt lat="45.9498412" lon="10.9324275"><ele>743.0</ele><time>2026-04-10T09:40:56.682Z</time></trkpt><trkpt lat="45.9499033" lon="10.9325389"><ele>743.0</ele><time>2026-04-10T09:40:58.682Z</time></trkpt><trkpt lat="45.9499421" lon="10.9326347"><ele>742.8333333333333</ele><time>2026-04-10T09:41:00.682Z</time></trkpt><trkpt lat="45.9500018" lon="10.9327243"><ele>742.6666666666666</ele><time>2026-04-10T09:41:02.682Z</time></trkpt><trkpt lat="45.9500572" lon="10.9328154"><ele>742.5</ele><time>2026-04-10T09:41:04.682Z</time></trkpt><trkpt lat="45.9501103" lon="10.932922"><ele>742.3333333333334</ele><time>2026-04-10T09:41:06.682Z</time></trkpt><trkpt lat="45.9501695" lon="10.9330293"><ele>742.1666666666667</ele><time>2026-04-10T09:41:08.682Z</time></trkpt><trkpt lat="45.9502278" lon="10.9331132"><ele>742.0</ele><time>2026-04-10T09:41:10.682Z</time></trkpt><trkpt lat="45.9502865" lon="10.9331636"><ele>742.0</ele><time>2026-04-10T09:41:12.682Z</time></trkpt><trkpt lat="45.9503582" lon="10.9331432"><ele>742.0</ele><time>2026-04-10T09:41:14.682Z</time></trkpt><trkpt lat="45.9504323" lon="10.9331108"><ele>742.0</ele><time>2026-04-10T09:41:16.682Z</time></trkpt><trkpt lat="45.9505093" lon="10.9330509"><ele>742.0</ele><time>2026-04-10T09:41:18.682Z</time></trkpt><trkpt lat="45.9505699" lon="10.9329591"><ele>742.0</ele><time>2026-04-10T09:41:20.682Z</time></trkpt><trkpt lat="45.9506299" lon="10.9328843"><ele>742.0</ele><time>2026-04-10T09:41:22.682Z</time></trkpt><trkpt lat="45.9507153" lon="10.9328626"><ele>742.0</ele><time>2026-04-10T09:41:24.682Z</time></trkpt><trkpt lat="45.9508193" lon="10.9328899"><ele>742.0</ele><time>2026-04-10T09:41:26.682Z</time></trkpt><trkpt lat="45.9509182" lon="10.9329447"><ele>742.0</ele><time>2026-04-10T09:41:28.682Z</time></trkpt><trkpt lat="45.951005" lon="10.9329852"><ele>742.0</ele><time>2026-04-10T09:41:30.682Z</time></trkpt><trkpt lat="45.9511111" lon="10.9330362"><ele>742.0</ele><time>2026-04-10T09:41:32.682Z</time></trkpt><trkpt lat="45.9511868" lon="10.9330908"><ele>738.2</ele><time>2026-04-10T09:41:34.682Z</time></trkpt><trkpt lat="45.9512839" lon="10.9331526"><ele>734.4000000000001</ele><time>2026-04-10T09:41:36.682Z</time></trkpt><trkpt lat="45.9513823" lon="10.9331858"><ele>730.5999999999999</ele><time>2026-04-10T09:41:38.683Z</time></trkpt><trkpt lat="45.9514888" lon="10.9332313"><ele>726.8</ele><time>2026-04-10T09:41:40.683Z</time></trkpt><trkpt lat="45.9516023" lon="10.9332545"><ele>723.0</ele><time>2026-04-10T09:41:42.683Z</time></trkpt><trkpt lat="45.9517137" lon="10.9332978"><ele>719.2</ele><time>2026-04-10T09:41:44.683Z</time></trkpt><trkpt lat="45.9518286" lon="10.9333325"><ele>715.4</ele><time>2026-04-10T09:41:46.683Z</time></trkpt><trkpt lat="45.9519423" lon="10.9333578"><ele>711.6</ele><time>2026-04-10T09:41:48.683Z</time></trkpt><trkpt lat="45.9520661" lon="10.9333847"><ele>707.8000000000001</ele><time>2026-04-10T09:41:50.683Z</time></trkpt><trkpt lat="45.9521292" lon="10.9333849"><ele>704.0</ele><time>2026-04-10T09:41:51.683Z</time></trkpt><trkpt lat="45.9522271" lon="10.9333864"><ele>703.8000000000001</ele><time>2026-04-10T09:41:53.683Z</time></trkpt><trkpt lat="45.9523225" lon="10.9333947"><ele>703.6</ele><time>2026-04-10T09:41:55.683Z</time></trkpt><trkpt lat="45.9524153" lon="10.9334114"><ele>703.4</ele><time>2026-04-10T09:41:57.683Z</time></trkpt><trkpt lat="45.9525077" lon="10.9334354"><ele>703.2</ele><time>2026-04-10T09:41:59.683Z</time></trkpt><trkpt lat="45.9525903" lon="10.9335068"><ele>703.0</ele><time>2026-04-10T09:42:01.683Z</time></trkpt><trkpt lat="45.9526724" lon="10.9335994"><ele>703.0</ele><time>2026-04-10T09:42:03.683Z</time></trkpt><trkpt lat="45.9527425" lon="10.933743"><ele>703.0</ele><time>2026-04-10T09:42:05.683Z</time></trkpt><trkpt lat="45.9528606" lon="10.9338064"><ele>703.0</ele><time>2026-04-10T09:42:07.683Z</time></trkpt><trkpt lat="45.9529734" lon="10.9338495"><ele>703.0</ele><time>2026-04-10T09:42:09.683Z</time></trkpt><trkpt lat="45.9530697" lon="10.9339359"><ele>703.0</ele><time>2026-04-10T09:42:11.683Z</time></trkpt><trkpt lat="45.953133" lon="10.9340105"><ele>703.0</ele><time>2026-04-10T09:42:12.683Z</time></trkpt><trkpt lat="45.9531862" lon="10.934066"><ele>703.0</ele><time>2026-04-10T09:42:13.683Z</time></trkpt><trkpt lat="45.9532543" lon="10.9341645"><ele>703.0</ele><time>2026-04-10T09:42:15.683Z</time></trkpt><trkpt lat="45.9532941" lon="10.9342849"><ele>703.0</ele><time>2026-04-10T09:42:17.683Z</time></trkpt><trkpt lat="45.9533355" lon="10.934409"><ele>703.0</ele><time>2026-04-10T09:42:19.684Z</time></trkpt><trkpt lat="45.9533552" lon="10.9345109"><ele>701.8</ele><time>2026-04-10T09:42:21.684Z</time></trkpt><trkpt lat="45.9533818" lon="10.9346578"><ele>700.5999999999999</ele><time>2026-04-10T09:42:23.684Z</time></trkpt><trkpt lat="45.9534225" lon="10.9347558"><ele>699.4000000000001</ele><time>2026-04-10T09:42:25.684Z</time></trkpt><trkpt lat="45.9534883" lon="10.9348275"><ele>698.2</ele><time>2026-04-10T09:42:27.684Z</time></trkpt><trkpt lat="45.9535629" lon="10.9349105"><ele>697.0</ele><time>2026-04-10T09:42:29.684Z</time></trkpt><trkpt lat="45.953687" lon="10.934954"><ele>697.0</ele><time>2026-04-10T09:42:31.684Z</time></trkpt><trkpt lat="45.9537504" lon="10.9349655"><ele>697.0</ele><time>2026-04-10T09:45:40.689Z</time></trkpt><trkpt lat="45.9537222" lon="10.9348679"><ele>697.0</ele><time>2026-04-10T09:47:10.721Z</time></trkpt><trkpt lat="45.9536162" lon="10.9347721"><ele>697.0</ele><time>2026-04-10T09:47:14.69Z</time></trkpt><trkpt lat="45.9535259" lon="10.9346787"><ele>697.0</ele><time>2026-04-10T09:47:22.692Z</time></trkpt><trkpt lat="45.9534921" lon="10.9345925"><ele>697.0</ele><time>2026-04-10T09:47:23.691Z</time></trkpt><trkpt lat="45.9534767" lon="10.9344972"><ele>697.0</ele><time>2026-04-10T09:47:24.691Z</time></trkpt><trkpt lat="45.9534694" lon="10.9344027"><ele>697.0</ele><time>2026-04-10T09:47:25.691Z</time></trkpt><trkpt lat="45.953454" lon="10.9342447"><ele>697.0</ele><time>2026-04-10T09:47:27.692Z</time></trkpt><trkpt lat="45.9534117" lon="10.9341399"><ele>697.0</ele><time>2026-04-10T09:47:29.691Z</time></trkpt><trkpt lat="45.9533331" lon="10.9340276"><ele>697.0</ele><time>2026-04-10T09:47:31.691Z</time></trkpt><trkpt lat="45.9532703" lon="10.9338982"><ele>698.0</ele><time>2026-04-10T09:47:33.691Z</time></trkpt><trkpt lat="45.9532463" lon="10.9337272"><ele>699.0</ele><time>2026-04-10T09:47:35.691Z</time></trkpt><trkpt lat="45.9532378" lon="10.9335969"><ele>700.0</ele><time>2026-04-10T09:47:37.691Z</time></trkpt><trkpt lat="45.9532128" lon="10.9335042"><ele>701.0</ele><time>2026-04-10T09:47:39.691Z</time></trkpt><trkpt lat="45.953165" lon="10.9333982"><ele>702.0</ele><time>2026-04-10T09:47:41.691Z</time></trkpt><trkpt lat="45.9531147" lon="10.9333184"><ele>703.0</ele><time>2026-04-10T09:47:43.691Z</time></trkpt><trkpt lat="45.9530506" lon="10.9332105"><ele>698.5</ele><time>2026-04-10T09:47:45.692Z</time></trkpt><trkpt lat="45.9530113" lon="10.9331077"><ele>694.0</ele><time>2026-04-10T09:47:47.691Z</time></trkpt><trkpt lat="45.9529635" lon="10.933006"><ele>689.5</ele><time>2026-04-10T09:47:49.691Z</time></trkpt><trkpt lat="45.9529207" lon="10.9328968"><ele>685.0</ele><time>2026-04-10T09:47:51.691Z</time></trkpt><trkpt lat="45.9528684" lon="10.9328023"><ele>680.5</ele><time>2026-04-10T09:47:53.691Z</time></trkpt><trkpt lat="45.9528235" lon="10.9327188"><ele>676.0</ele><time>2026-04-10T09:47:55.691Z</time></trkpt><trkpt lat="45.9527741" lon="10.9326098"><ele>677.8</ele><time>2026-04-10T09:47:57.691Z</time></trkpt><trkpt lat="45.9527228" lon="10.9324984"><ele>679.5999999999999</ele><time>2026-04-10T09:47:59.691Z</time></trkpt><trkpt lat="45.9526823" lon="10.9323875"><ele>681.4</ele><time>2026-04-10T09:48:01.691Z</time></trkpt><trkpt lat="45.9526379" lon="10.9322813"><ele>683.2</ele><time>2026-04-10T09:48:03.692Z</time></trkpt><trkpt lat="45.9525764" lon="10.9321731"><ele>685.0</ele><time>2026-04-10T09:48:05.693Z</time></trkpt><trkpt lat="45.9525167" lon="10.9320482"><ele>685.0</ele><time>2026-04-10T09:48:07.693Z</time></trkpt><trkpt lat="45.9524511" lon="10.9319629"><ele>685.0</ele><time>2026-04-10T09:48:09.692Z</time></trkpt><trkpt lat="45.9523916" lon="10.931917"><ele>685.0</ele><time>2026-04-10T09:48:11.692Z</time></trkpt><trkpt lat="45.9523461" lon="10.9318148"><ele>685.0</ele><time>2026-04-10T09:48:14.692Z</time></trkpt><trkpt lat="45.9524328" lon="10.9317875"><ele>685.0</ele><time>2026-04-10T09:48:18.693Z</time></trkpt><trkpt lat="45.9525056" lon="10.9318374"><ele>685.0</ele><time>2026-04-10T09:48:20.692Z</time></trkpt><trkpt lat="45.9525914" lon="10.9319033"><ele>679.3333333333334</ele><time>2026-04-10T09:48:22.692Z</time></trkpt><trkpt lat="45.9526742" lon="10.9319638"><ele>673.6666666666667</ele><time>2026-04-10T09:48:24.692Z</time></trkpt><trkpt lat="45.9527638" lon="10.9320241"><ele>668.0</ele><time>2026-04-10T09:48:26.692Z</time></trkpt><trkpt lat="45.9528461" lon="10.9320786"><ele>662.3333333333334</ele><time>2026-04-10T09:48:28.692Z</time></trkpt><trkpt lat="45.9529203" lon="10.9321355"><ele>656.6666666666666</ele><time>2026-04-10T09:48:30.692Z</time></trkpt><trkpt lat="45.9529766" lon="10.9321908"><ele>651.0</ele><time>2026-04-10T09:48:32.692Z</time></trkpt><trkpt lat="45.9529941" lon="10.9320962"><ele>651.0</ele><time>2026-04-10T09:48:36.692Z</time></trkpt><trkpt lat="45.9529371" lon="10.9320218"><ele>651.0</ele><time>2026-04-10T09:48:38.692Z</time></trkpt><trkpt lat="45.9528696" lon="10.9319364"><ele>651.0</ele><time>2026-04-10T09:48:40.692Z</time></trkpt><trkpt lat="45.9527939" lon="10.9318203"><ele>651.0</ele><time>2026-04-10T09:48:42.692Z</time></trkpt><trkpt lat="45.9527291" lon="10.9317203"><ele>651.0</ele><time>2026-04-10T09:48:44.693Z</time></trkpt><trkpt lat="45.9526558" lon="10.9316059"><ele>652.8333333333334</ele><time>2026-04-10T09:48:46.693Z</time></trkpt><trkpt lat="45.9525746" lon="10.9314855"><ele>654.6666666666666</ele><time>2026-04-10T09:48:48.693Z</time></trkpt><trkpt lat="45.9524918" lon="10.9314084"><ele>656.5</ele><time>2026-04-10T09:48:50.693Z</time></trkpt><trkpt lat="45.95245" lon="10.9313312"><ele>658.3333333333333</ele><time>2026-04-10T09:48:52.693Z</time></trkpt><trkpt lat="45.9525051" lon="10.93123"><ele>660.1666666666666</ele><time>2026-04-10T09:48:55.693Z</time></trkpt><trkpt lat="45.9525657" lon="10.9312661"><ele>662.0</ele><time>2026-04-10T09:48:57.693Z</time></trkpt><trkpt lat="45.9526235" lon="10.9313305"><ele>654.6</ele><time>2026-04-10T09:48:59.693Z</time></trkpt><trkpt lat="45.9526844" lon="10.9313933"><ele>647.2</ele><time>2026-04-10T09:49:01.693Z</time></trkpt><trkpt lat="45.9527739" lon="10.9314499"><ele>639.8</ele><time>2026-04-10T09:49:03.693Z</time></trkpt><trkpt lat="45.9528706" lon="10.9315106"><ele>632.4</ele><time>2026-04-10T09:49:05.693Z</time></trkpt><trkpt lat="45.952964" lon="10.9315923"><ele>625.0</ele><time>2026-04-10T09:49:07.693Z</time></trkpt><trkpt lat="45.9530166" lon="10.9316565"><ele>625.0</ele><time>2026-04-10T09:49:08.693Z</time></trkpt><trkpt lat="45.9530638" lon="10.931722"><ele>625.0</ele><time>2026-04-10T09:49:09.693Z</time></trkpt><trkpt lat="45.953136" lon="10.9318474"><ele>625.0</ele><time>2026-04-10T09:49:11.693Z</time></trkpt><trkpt lat="45.9532219" lon="10.9319596"><ele>625.0</ele><time>2026-04-10T09:49:13.694Z</time></trkpt><trkpt lat="45.9533133" lon="10.9320072"><ele>625.0</ele><time>2026-04-10T09:49:15.694Z</time></trkpt><trkpt lat="45.9534148" lon="10.9320307"><ele>623.8</ele><time>2026-04-10T09:49:17.693Z</time></trkpt><trkpt lat="45.9535024" lon="10.9320313"><ele>622.6</ele><time>2026-04-10T09:49:19.693Z</time></trkpt><trkpt lat="45.9536017" lon="10.9320395"><ele>621.4</ele><time>2026-04-10T09:49:21.693Z</time></trkpt><trkpt lat="45.9536955" lon="10.932063"><ele>620.2</ele><time>2026-04-10T09:49:23.693Z</time></trkpt><trkpt lat="45.9537921" lon="10.9321207"><ele>619.0</ele><time>2026-04-10T09:49:25.693Z</time></trkpt><trkpt lat="45.953875" lon="10.9322069"><ele>619.0</ele><time>2026-04-10T09:49:27.694Z</time></trkpt><trkpt lat="45.9539569" lon="10.9322982"><ele>619.0</ele><time>2026-04-10T09:49:29.694Z</time></trkpt><trkpt lat="45.9540312" lon="10.93236"><ele>619.0</ele><time>2026-04-10T09:49:31.694Z</time></trkpt><trkpt lat="45.9541021" lon="10.9324253"><ele>619.0</ele><time>2026-04-10T09:49:33.694Z</time></trkpt><trkpt lat="45.954176" lon="10.9325131"><ele>619.0</ele><time>2026-04-10T09:49:35.694Z</time></trkpt><trkpt lat="45.9542489" lon="10.9325288"><ele>619.0</ele><time>2026-04-10T09:49:38.694Z</time></trkpt><trkpt lat="45.9542118" lon="10.9323945"><ele>619.0</ele><time>2026-04-10T09:49:41.694Z</time></trkpt><trkpt lat="45.9541342" lon="10.9322974"><ele>619.0</ele><time>2026-04-10T09:49:43.694Z</time></trkpt><trkpt lat="45.9540776" lon="10.9321926"><ele>619.0</ele><time>2026-04-10T09:49:45.694Z</time></trkpt><trkpt lat="45.9540299" lon="10.932063"><ele>619.0</ele><time>2026-04-10T09:49:47.694Z</time></trkpt><trkpt lat="45.9539867" lon="10.9319512"><ele>619.0</ele><time>2026-04-10T09:49:49.694Z</time></trkpt><trkpt lat="45.9539342" lon="10.9318314"><ele>613.8</ele><time>2026-04-10T09:49:51.695Z</time></trkpt><trkpt lat="45.9538644" lon="10.9317044"><ele>608.5999999999999</ele><time>2026-04-10T09:49:53.694Z</time></trkpt><trkpt lat="45.9538241" lon="10.9316278"><ele>603.4</ele><time>2026-04-10T09:49:54.695Z</time></trkpt><trkpt lat="45.9537853" lon="10.9315552"><ele>598.1999999999999</ele><time>2026-04-10T09:49:55.694Z</time></trkpt><trkpt lat="45.9537183" lon="10.9314238"><ele>593.0</ele><time>2026-04-10T09:49:57.694Z</time></trkpt><trkpt lat="45.953653" lon="10.9313166"><ele>593.0</ele><time>2026-04-10T09:49:59.694Z</time></trkpt><trkpt lat="45.9536035" lon="10.9312491"><ele>593.0</ele><time>2026-04-10T09:50:01.694Z</time></trkpt><trkpt lat="45.9535296" lon="10.9311312"><ele>593.0</ele><time>2026-04-10T09:50:03.694Z</time></trkpt><trkpt lat="45.9534779" lon="10.9309915"><ele>593.0</ele><time>2026-04-10T09:50:05.694Z</time></trkpt><trkpt lat="45.9534086" lon="10.930876"><ele>593.0</ele><time>2026-04-10T09:50:07.694Z</time></trkpt><trkpt lat="45.953356" lon="10.9307676"><ele>593.0</ele><time>2026-04-10T09:50:09.694Z</time></trkpt><trkpt lat="45.953385" lon="10.9306811"><ele>593.0</ele><time>2026-04-10T09:50:11.694Z</time></trkpt><trkpt lat="45.9534559" lon="10.9307155"><ele>593.0</ele><time>2026-04-10T09:50:13.695Z</time></trkpt><trkpt lat="45.9535184" lon="10.9308176"><ele>593.0</ele><time>2026-04-10T09:50:15.695Z</time></trkpt><trkpt lat="45.953587" lon="10.9309045"><ele>593.0</ele><time>2026-04-10T09:50:17.695Z</time></trkpt><trkpt lat="45.9536763" lon="10.9309611"><ele>593.0</ele><time>2026-04-10T09:50:19.695Z</time></trkpt><trkpt lat="45.9537701" lon="10.9310039"><ele>593.0</ele><time>2026-04-10T09:50:21.695Z</time></trkpt><trkpt lat="45.9538597" lon="10.931047"><ele>593.0</ele><time>2026-04-10T09:50:23.696Z</time></trkpt><trkpt lat="45.9539606" lon="10.9310731"><ele>593.0</ele><time>2026-04-10T09:50:25.696Z</time></trkpt><trkpt lat="45.9540656" lon="10.9310959"><ele>593.0</ele><time>2026-04-10T09:50:27.695Z</time></trkpt><trkpt lat="45.9541716" lon="10.9311434"><ele>593.0</ele><time>2026-04-10T09:50:29.695Z</time></trkpt><trkpt lat="45.9542606" lon="10.9312168"><ele>590.6</ele><time>2026-04-10T09:50:31.695Z</time></trkpt><trkpt lat="45.9543172" lon="10.931336"><ele>588.1999999999999</ele><time>2026-04-10T09:50:33.695Z</time></trkpt><trkpt lat="45.9543717" lon="10.9314718"><ele>585.8</ele><time>2026-04-10T09:50:35.695Z</time></trkpt><trkpt lat="45.9544338" lon="10.9315851"><ele>583.4</ele><time>2026-04-10T09:50:37.695Z</time></trkpt><trkpt lat="45.95452" lon="10.9316888"><ele>581.0</ele><time>2026-04-10T09:50:39.695Z</time></trkpt><trkpt lat="45.9546314" lon="10.9317805"><ele>581.0</ele><time>2026-04-10T09:50:41.695Z</time></trkpt><trkpt lat="45.9547323" lon="10.931874"><ele>581.0</ele><time>2026-04-10T09:50:43.695Z</time></trkpt><trkpt lat="45.9548253" lon="10.931961"><ele>581.0</ele><time>2026-04-10T09:50:45.695Z</time></trkpt><trkpt lat="45.9549168" lon="10.9320427"><ele>581.0</ele><time>2026-04-10T09:50:47.695Z</time></trkpt><trkpt lat="45.9550207" lon="10.9321275"><ele>575.0</ele><time>2026-04-10T09:50:49.695Z</time></trkpt><trkpt lat="45.9550785" lon="10.932183"><ele>569.0</ele><time>2026-04-10T09:50:50.695Z</time></trkpt><trkpt lat="45.9551343" lon="10.9322327"><ele>563.0</ele><time>2026-04-10T09:50:51.695Z</time></trkpt><trkpt lat="45.9552495" lon="10.9323085"><ele>557.0</ele><time>2026-04-10T09:50:53.695Z</time></trkpt><trkpt lat="45.9553103" lon="10.9323425"><ele>551.0</ele><time>2026-04-10T09:50:54.696Z</time></trkpt><trkpt lat="45.9554092" lon="10.9324257"><ele>545.0</ele><time>2026-04-10T09:50:56.696Z</time></trkpt><trkpt lat="45.9555089" lon="10.9325056"><ele>551.8</ele><time>2026-04-10T09:50:58.696Z</time></trkpt><trkpt lat="45.9556033" lon="10.9326031"><ele>558.6</ele><time>2026-04-10T09:51:00.696Z</time></trkpt><trkpt lat="45.9556934" lon="10.9326946"><ele>565.4</ele><time>2026-04-10T09:51:02.696Z</time></trkpt><trkpt lat="45.9557582" lon="10.9327855"><ele>572.2</ele><time>2026-04-10T09:51:04.696Z</time></trkpt><trkpt lat="45.9558161" lon="10.9328237"><ele>579.0</ele><time>2026-04-10T09:51:06.696Z</time></trkpt><trkpt lat="45.9558366" lon="10.9327222"><ele>579.0</ele><time>2026-04-10T09:51:09.696Z</time></trkpt><trkpt lat="45.9557776" lon="10.9326393"><ele>579.0</ele><time>2026-04-10T09:51:11.696Z</time></trkpt><trkpt lat="45.955707" lon="10.9325181"><ele>579.0</ele><time>2026-04-10T09:51:13.697Z</time></trkpt><trkpt lat="45.9556255" lon="10.932385"><ele>579.0</ele><time>2026-04-10T09:51:15.696Z</time></trkpt><trkpt lat="45.9555594" lon="10.9322797"><ele>579.0</ele><time>2026-04-10T09:51:17.696Z</time></trkpt><trkpt lat="45.9554987" lon="10.9321666"><ele>572.2</ele><time>2026-04-10T09:51:19.696Z</time></trkpt><trkpt lat="45.9554375" lon="10.932066"><ele>565.4</ele><time>2026-04-10T09:51:21.697Z</time></trkpt><trkpt lat="45.955378" lon="10.9319763"><ele>558.6</ele><time>2026-04-10T09:51:23.696Z</time></trkpt><trkpt lat="45.9553234" lon="10.9318424"><ele>551.8</ele><time>2026-04-10T09:51:25.696Z</time></trkpt><trkpt lat="45.9553136" lon="10.9316929"><ele>545.0</ele><time>2026-04-10T09:51:27.696Z</time></trkpt><trkpt lat="45.9553249" lon="10.9315578"><ele>541.0</ele><time>2026-04-10T09:51:29.696Z</time></trkpt><trkpt lat="45.9553167" lon="10.9314424"><ele>537.0</ele><time>2026-04-10T09:51:31.696Z</time></trkpt><trkpt lat="45.9552834" lon="10.9313201"><ele>533.0</ele><time>2026-04-10T09:51:33.697Z</time></trkpt><trkpt lat="45.9552599" lon="10.9311767"><ele>529.0</ele><time>2026-04-10T09:51:35.696Z</time></trkpt><trkpt lat="45.9552262" lon="10.9310267"><ele>525.0</ele><time>2026-04-10T09:51:37.697Z</time></trkpt><trkpt lat="45.9552131" lon="10.930895"><ele>523.0</ele><time>2026-04-10T09:51:39.697Z</time></trkpt><trkpt lat="45.955207" lon="10.9307834"><ele>521.0</ele><time>2026-04-10T09:51:41.697Z</time></trkpt><trkpt lat="45.9551952" lon="10.9306452"><ele>519.0</ele><time>2026-04-10T09:51:43.697Z</time></trkpt><trkpt lat="45.9551832" lon="10.9304917"><ele>517.0</ele><time>2026-04-10T09:51:45.697Z</time></trkpt><trkpt lat="45.9551847" lon="10.9303206"><ele>515.0</ele><time>2026-04-10T09:51:47.696Z</time></trkpt><trkpt lat="45.9551922" lon="10.9301736"><ele>515.0</ele><time>2026-04-10T09:51:49.697Z</time></trkpt><trkpt lat="45.9551984" lon="10.9300645"><ele>515.0</ele><time>2026-04-10T09:51:51.697Z</time></trkpt><trkpt lat="45.9552392" lon="10.9299888"><ele>515.0</ele><time>2026-04-10T09:51:53.696Z</time></trkpt><trkpt lat="45.9553199" lon="10.9299609"><ele>515.0</ele><time>2026-04-10T09:51:55.696Z</time></trkpt><trkpt lat="45.9554132" lon="10.9299651"><ele>515.0</ele><time>2026-04-10T09:51:57.697Z</time></trkpt><trkpt lat="45.9555226" lon="10.9299428"><ele>515.0</ele><time>2026-04-10T09:51:59.697Z</time></trkpt><trkpt lat="45.9555861" lon="10.9299545"><ele>515.0</ele><time>2026-04-10T09:52:00.697Z</time></trkpt><trkpt lat="45.9556569" lon="10.9299754"><ele>515.0</ele><time>2026-04-10T09:52:01.697Z</time></trkpt><trkpt lat="45.9557302" lon="10.9300195"><ele>515.0</ele><time>2026-04-10T09:52:02.697Z</time></trkpt><trkpt lat="45.9557957" lon="10.930103"><ele>515.0</ele><time>2026-04-10T09:52:03.697Z</time></trkpt><trkpt lat="45.9558514" lon="10.9302051"><ele>515.0</ele><time>2026-04-10T09:52:04.697Z</time></trkpt><trkpt lat="45.9558987" lon="10.9302958"><ele>515.0</ele><time>2026-04-10T09:52:05.697Z</time></trkpt><trkpt lat="45.9559468" lon="10.9303745"><ele>513.6666666666666</ele><time>2026-04-10T09:52:06.698Z</time></trkpt><trkpt lat="45.9560007" lon="10.9304408"><ele>512.3333333333333</ele><time>2026-04-10T09:52:07.697Z</time></trkpt><trkpt lat="45.9560524" lon="10.9305199"><ele>511.0</ele><time>2026-04-10T09:52:08.697Z</time></trkpt><trkpt lat="45.9560865" lon="10.9306236"><ele>509.66666666666663</ele><time>2026-04-10T09:52:09.697Z</time></trkpt><trkpt lat="45.9560945" lon="10.9307554"><ele>508.3333333333333</ele><time>2026-04-10T09:52:10.698Z</time></trkpt><trkpt lat="45.9560869" lon="10.9308917"><ele>507.0</ele><time>2026-04-10T09:52:11.697Z</time></trkpt><trkpt lat="45.956082" lon="10.9310058"><ele>507.0</ele><time>2026-04-10T09:52:12.697Z</time></trkpt><trkpt lat="45.9560769" lon="10.9311096"><ele>507.00000000000006</ele><time>2026-04-10T09:52:13.697Z</time></trkpt><trkpt lat="45.9560775" lon="10.9312059"><ele>507.00000000000006</ele><time>2026-04-10T09:52:14.698Z</time></trkpt><trkpt lat="45.9561006" lon="10.9313782"><ele>507.0</ele><time>2026-04-10T09:52:16.697Z</time></trkpt><trkpt lat="45.9561741" lon="10.9314745"><ele>507.0</ele><time>2026-04-10T09:52:18.697Z</time></trkpt><trkpt lat="45.9562804" lon="10.9315375"><ele>507.0</ele><time>2026-04-10T09:52:20.697Z</time></trkpt><trkpt lat="45.9563427" lon="10.9315803"><ele>507.0</ele><time>2026-04-10T09:52:21.697Z</time></trkpt><trkpt lat="45.9564156" lon="10.9316295"><ele>507.0</ele><time>2026-04-10T09:52:22.697Z</time></trkpt><trkpt lat="45.9564928" lon="10.9316877"><ele>507.0</ele><time>2026-04-10T09:52:23.697Z</time></trkpt><trkpt lat="45.9565754" lon="10.9317478"><ele>507.0</ele><time>2026-04-10T09:52:24.697Z</time></trkpt><trkpt lat="45.9566643" lon="10.9318072"><ele>507.0</ele><time>2026-04-10T09:52:25.697Z</time></trkpt><trkpt lat="45.9567495" lon="10.9318723"><ele>503.6</ele><time>2026-04-10T09:52:26.697Z</time></trkpt><trkpt lat="45.9568309" lon="10.9319424"><ele>500.20000000000005</ele><time>2026-04-10T09:52:27.697Z</time></trkpt><trkpt lat="45.9569196" lon="10.9319909"><ele>496.8</ele><time>2026-04-10T09:52:28.697Z</time></trkpt><trkpt lat="45.9570163" lon="10.9320058"><ele>493.4</ele><time>2026-04-10T09:52:29.697Z</time></trkpt><trkpt lat="45.9571072" lon="10.9319907"><ele>490.0</ele><time>2026-04-10T09:52:30.698Z</time></trkpt><trkpt lat="45.9571907" lon="10.9319578"><ele>490.00000000000006</ele><time>2026-04-10T09:52:31.697Z</time></trkpt><trkpt lat="45.9572629" lon="10.9319355"><ele>490.0</ele><time>2026-04-10T09:52:32.697Z</time></trkpt><trkpt lat="45.9573346" lon="10.9319233"><ele>490.0</ele><time>2026-04-10T09:52:33.697Z</time></trkpt><trkpt lat="45.9574025" lon="10.931928"><ele>490.0</ele><time>2026-04-10T09:52:34.697Z</time></trkpt><trkpt lat="45.9574744" lon="10.9319518"><ele>490.00000000000006</ele><time>2026-04-10T09:52:35.697Z</time></trkpt><trkpt lat="45.9575332" lon="10.9320017"><ele>490.0</ele><time>2026-04-10T09:52:36.697Z</time></trkpt><trkpt lat="45.9576132" lon="10.9321273"><ele>490.0</ele><time>2026-04-10T09:52:38.698Z</time></trkpt><trkpt lat="45.9576085" lon="10.9322591"><ele>490.0</ele><time>2026-04-10T09:52:40.698Z</time></trkpt><trkpt lat="45.9575426" lon="10.9323762"><ele>490.0</ele><time>2026-04-10T09:52:42.698Z</time></trkpt><trkpt lat="45.95753" lon="10.9325106"><ele>490.0</ele><time>2026-04-10T09:52:44.698Z</time></trkpt><trkpt lat="45.9576053" lon="10.9326238"><ele>490.0</ele><time>2026-04-10T09:52:46.699Z</time></trkpt><trkpt lat="45.9577026" lon="10.9326712"><ele>491.33333333333337</ele><time>2026-04-10T09:52:48.698Z</time></trkpt><trkpt lat="45.9578222" lon="10.9326751"><ele>492.6666666666667</ele><time>2026-04-10T09:52:50.699Z</time></trkpt><trkpt lat="45.9578897" lon="10.9326684"><ele>494.0</ele><time>2026-04-10T09:52:51.698Z</time></trkpt><trkpt lat="45.9579706" lon="10.9326648"><ele>495.33333333333337</ele><time>2026-04-10T09:52:52.698Z</time></trkpt><trkpt lat="45.958048" lon="10.9326599"><ele>496.6666666666667</ele><time>2026-04-10T09:52:53.698Z</time></trkpt><trkpt lat="45.9581279" lon="10.9326435"><ele>498.0</ele><time>2026-04-10T09:52:54.698Z</time></trkpt><trkpt lat="45.9582044" lon="10.932614"><ele>498.0</ele><time>2026-04-10T09:52:55.698Z</time></trkpt><trkpt lat="45.9582777" lon="10.9325632"><ele>498.0</ele><time>2026-04-10T09:52:56.698Z</time></trkpt><trkpt lat="45.9583385" lon="10.9324972"><ele>498.0</ele><time>2026-04-10T09:52:57.698Z</time></trkpt><trkpt lat="45.9583901" lon="10.9324304"><ele>498.0</ele><time>2026-04-10T09:52:58.698Z</time></trkpt><trkpt lat="45.9584255" lon="10.9323124"><ele>498.0</ele><time>2026-04-10T09:53:00.698Z</time></trkpt><trkpt lat="45.9583593" lon="10.9322598"><ele>498.0</ele><time>2026-04-10T09:53:02.698Z</time></trkpt><trkpt lat="45.9582816" lon="10.9323182"><ele>494.0</ele><time>2026-04-10T09:53:04.698Z</time></trkpt><trkpt lat="45.9581766" lon="10.9323513"><ele>489.99999999999994</ele><time>2026-04-10T09:53:06.699Z</time></trkpt><trkpt lat="45.9580827" lon="10.9322876"><ele>485.99999999999994</ele><time>2026-04-10T09:53:08.698Z</time></trkpt><trkpt lat="45.9580624" lon="10.9321654"><ele>482.0</ele><time>2026-04-10T09:53:10.698Z</time></trkpt><trkpt lat="45.9581363" lon="10.9320758"><ele>478.0</ele><time>2026-04-10T09:53:12.698Z</time></trkpt><trkpt lat="45.9582532" lon="10.9320379"><ele>475.79999999999995</ele><time>2026-04-10T09:53:14.698Z</time></trkpt><trkpt lat="45.9583689" lon="10.9319781"><ele>473.59999999999997</ele><time>2026-04-10T09:53:16.698Z</time></trkpt><trkpt lat="45.9584681" lon="10.931951"><ele>471.40000000000003</ele><time>2026-04-10T09:53:18.698Z</time></trkpt><trkpt lat="45.9585495" lon="10.9319464"><ele>469.20000000000005</ele><time>2026-04-10T09:53:20.7Z</time></trkpt><trkpt lat="45.9586466" lon="10.9319541"><ele>467.0</ele><time>2026-04-10T09:53:22.699Z</time></trkpt><trkpt lat="45.9587676" lon="10.9320027"><ele>467.0</ele><time>2026-04-10T09:53:24.699Z</time></trkpt><trkpt lat="45.9588519" lon="10.9320385"><ele>467.00000000000006</ele><time>2026-04-10T09:53:25.699Z</time></trkpt><trkpt lat="45.9589424" lon="10.9320827"><ele>467.00000000000006</ele><time>2026-04-10T09:53:26.699Z</time></trkpt><trkpt lat="45.9590412" lon="10.9321402"><ele>467.0</ele><time>2026-04-10T09:53:27.699Z</time></trkpt><trkpt lat="45.9591518" lon="10.9322042"><ele>467.0</ele><time>2026-04-10T09:53:28.699Z</time></trkpt><trkpt lat="45.9592691" lon="10.9322716"><ele>465.25</ele><time>2026-04-10T09:53:29.699Z</time></trkpt><trkpt lat="45.9593835" lon="10.9323372"><ele>463.5</ele><time>2026-04-10T09:53:30.699Z</time></trkpt><trkpt lat="45.9595038" lon="10.9324029"><ele>461.75</ele><time>2026-04-10T09:53:31.699Z</time></trkpt><trkpt lat="45.959639" lon="10.9324837"><ele>460.0</ele><time>2026-04-10T09:53:32.699Z</time></trkpt><trkpt lat="45.9597819" lon="10.9325494"><ele>459.75</ele><time>2026-04-10T09:53:33.699Z</time></trkpt><trkpt lat="45.9599251" lon="10.9326064"><ele>459.5</ele><time>2026-04-10T09:53:34.699Z</time></trkpt><trkpt lat="45.9600483" lon="10.9326662"><ele>459.25</ele><time>2026-04-10T09:53:35.699Z</time></trkpt><trkpt lat="45.9601627" lon="10.9327229"><ele>459.0</ele><time>2026-04-10T09:53:36.7Z</time></trkpt><trkpt lat="45.9602667" lon="10.9327689"><ele>459.0</ele><time>2026-04-10T09:53:37.7Z</time></trkpt><trkpt lat="45.9603678" lon="10.9328137"><ele>459.0</ele><time>2026-04-10T09:53:38.699Z</time></trkpt><trkpt lat="45.9604586" lon="10.9328631"><ele>459.0</ele><time>2026-04-10T09:53:39.7Z</time></trkpt><trkpt lat="45.9605368" lon="10.9329195"><ele>459.0</ele><time>2026-04-10T09:53:40.699Z</time></trkpt><trkpt lat="45.9605993" lon="10.9329812"><ele>459.0</ele><time>2026-04-10T09:53:41.699Z</time></trkpt><trkpt lat="45.9606619" lon="10.9330423"><ele>459.0</ele><time>2026-04-10T09:53:42.699Z</time></trkpt><trkpt lat="45.9607622" lon="10.9331092"><ele>457.5</ele><time>2026-04-10T09:53:44.699Z</time></trkpt><trkpt lat="45.9608762" lon="10.9331548"><ele>456.0</ele><time>2026-04-10T09:53:46.699Z</time></trkpt><trkpt lat="45.9609442" lon="10.9331768"><ele>454.5</ele><time>2026-04-10T09:53:47.7Z</time></trkpt><trkpt lat="45.96102" lon="10.9332126"><ele>453.0</ele><time>2026-04-10T09:53:48.699Z</time></trkpt><trkpt lat="45.9610951" lon="10.9332509"><ele>451.5</ele><time>2026-04-10T09:53:49.699Z</time></trkpt><trkpt lat="45.961167" lon="10.9332781"><ele>450.0</ele><time>2026-04-10T09:53:50.699Z</time></trkpt><trkpt lat="45.9612747" lon="10.9332653"><ele>450.0</ele><time>2026-04-10T09:53:52.699Z</time></trkpt><trkpt lat="45.9614057" lon="10.9332104"><ele>450.0</ele><time>2026-04-10T09:53:54.699Z</time></trkpt><trkpt lat="45.9614835" lon="10.9332031"><ele>450.0</ele><time>2026-04-10T09:53:55.699Z</time></trkpt><trkpt lat="45.9615705" lon="10.9332177"><ele>450.0</ele><time>2026-04-10T09:53:56.699Z</time></trkpt><trkpt lat="45.9616586" lon="10.9332525"><ele>450.0</ele><time>2026-04-10T09:53:57.699Z</time></trkpt><trkpt lat="45.9617565" lon="10.9333095"><ele>447.25</ele><time>2026-04-10T09:53:58.699Z</time></trkpt><trkpt lat="45.9618733" lon="10.93338"><ele>444.5</ele><time>2026-04-10T09:53:59.699Z</time></trkpt><trkpt lat="45.9619909" lon="10.9334392"><ele>441.75</ele><time>2026-04-10T09:54:00.699Z</time></trkpt><trkpt lat="45.9621071" lon="10.933488"><ele>439.0</ele><time>2026-04-10T09:54:01.7Z</time></trkpt><trkpt lat="45.9622206" lon="10.9335346"><ele>439.0</ele><time>2026-04-10T09:54:02.7Z</time></trkpt><trkpt lat="45.9623266" lon="10.9335859"><ele>439.0</ele><time>2026-04-10T09:54:03.701Z</time></trkpt><trkpt lat="45.9624246" lon="10.9336301"><ele>439.0</ele><time>2026-04-10T09:54:04.7Z</time></trkpt><trkpt lat="45.9625119" lon="10.9336834"><ele>439.0</ele><time>2026-04-10T09:54:05.7Z</time></trkpt><trkpt lat="45.9625904" lon="10.9337463"><ele>439.0</ele><time>2026-04-10T09:54:06.7Z</time></trkpt><trkpt lat="45.9626618" lon="10.9338129"><ele>439.1666666666667</ele><time>2026-04-10T09:54:07.7Z</time></trkpt><trkpt lat="45.9627269" lon="10.9338873"><ele>439.33333333333337</ele><time>2026-04-10T09:54:08.701Z</time></trkpt><trkpt lat="45.9627811" lon="10.9339764"><ele>439.5</ele><time>2026-04-10T09:54:09.7Z</time></trkpt><trkpt lat="45.9628346" lon="10.9340682"><ele>439.66666666666663</ele><time>2026-04-10T09:54:10.7Z</time></trkpt><trkpt lat="45.9628901" lon="10.9341591"><ele>439.8333333333333</ele><time>2026-04-10T09:54:11.7Z</time></trkpt><trkpt lat="45.9629673" lon="10.93425"><ele>440.0</ele><time>2026-04-10T09:54:12.7Z</time></trkpt><trkpt lat="45.9630537" lon="10.9343333"><ele>440.0</ele><time>2026-04-10T09:54:13.7Z</time></trkpt><trkpt lat="45.9631434" lon="10.934411"><ele>440.0</ele><time>2026-04-10T09:54:14.7Z</time></trkpt><trkpt lat="45.9632251" lon="10.934496"><ele>440.0</ele><time>2026-04-10T09:54:15.7Z</time></trkpt><trkpt lat="45.9633051" lon="10.9346005"><ele>440.0</ele><time>2026-04-10T09:54:16.701Z</time></trkpt><trkpt lat="45.9633755" lon="10.9347283"><ele>440.0</ele><time>2026-04-10T09:54:17.7Z</time></trkpt><trkpt lat="45.9634388" lon="10.9348429"><ele>440.8</ele><time>2026-04-10T09:54:18.7Z</time></trkpt><trkpt lat="45.963522" lon="10.9349273"><ele>441.6</ele><time>2026-04-10T09:54:19.7Z</time></trkpt><trkpt lat="45.9636263" lon="10.9349739"><ele>442.4</ele><time>2026-04-10T09:54:20.7Z</time></trkpt><trkpt lat="45.9637344" lon="10.9350157"><ele>443.2</ele><time>2026-04-10T09:54:21.7Z</time></trkpt><trkpt lat="45.9638365" lon="10.9350631"><ele>444.0</ele><time>2026-04-10T09:54:22.7Z</time></trkpt><trkpt lat="45.9639338" lon="10.9351117"><ele>444.0</ele><time>2026-04-10T09:54:23.7Z</time></trkpt><trkpt lat="45.9640106" lon="10.9351708"><ele>444.0</ele><time>2026-04-10T09:54:24.7Z</time></trkpt><trkpt lat="45.9640759" lon="10.9352227"><ele>444.0</ele><time>2026-04-10T09:54:25.7Z</time></trkpt><trkpt lat="45.9641344" lon="10.9352706"><ele>444.0</ele><time>2026-04-10T09:54:26.7Z</time></trkpt><trkpt lat="45.9642018" lon="10.9353497"><ele>444.0</ele><time>2026-04-10T09:54:28.701Z</time></trkpt><trkpt lat="45.9642504" lon="10.9354408"><ele>444.0</ele><time>2026-04-10T09:54:31.7Z</time></trkpt><trkpt lat="45.9642019" lon="10.93535"><ele>444.0</ele><time>2026-04-10T09:54:51.702Z</time></trkpt><trkpt lat="45.9640919" lon="10.9352357"><ele>444.0</ele><time>2026-04-10T09:54:53.701Z</time></trkpt><trkpt lat="45.9640065" lon="10.9351799"><ele>444.0</ele><time>2026-04-10T09:54:54.701Z</time></trkpt><trkpt lat="45.9639055" lon="10.9351279"><ele>444.0</ele><time>2026-04-10T09:54:55.701Z</time></trkpt><trkpt lat="45.9638017" lon="10.9350645"><ele>438.25</ele><time>2026-04-10T09:54:56.701Z</time></trkpt><trkpt lat="45.9636866" lon="10.9350163"><ele>432.5</ele><time>2026-04-10T09:54:57.701Z</time></trkpt><trkpt lat="45.9635667" lon="10.9349617"><ele>426.75</ele><time>2026-04-10T09:54:58.701Z</time></trkpt><trkpt lat="45.9634627" lon="10.9348988"><ele>421.0</ele><time>2026-04-10T09:54:59.701Z</time></trkpt><trkpt lat="45.9633754" lon="10.934791"><ele>425.75</ele><time>2026-04-10T09:55:00.701Z</time></trkpt><trkpt lat="45.9632984" lon="10.9346631"><ele>430.5</ele><time>2026-04-10T09:55:01.701Z</time></trkpt><trkpt lat="45.9632243" lon="10.9345418"><ele>435.25</ele><time>2026-04-10T09:55:02.702Z</time></trkpt><trkpt lat="45.963138" lon="10.9344342"><ele>440.0</ele><time>2026-04-10T09:55:03.701Z</time></trkpt><trkpt lat="45.9630366" lon="10.9343288"><ele>440.0</ele><time>2026-04-10T09:55:04.701Z</time></trkpt><trkpt lat="45.9629458" lon="10.934222"><ele>440.0</ele><time>2026-04-10T09:55:05.702Z</time></trkpt><trkpt lat="45.9628549" lon="10.9340992"><ele>440.0</ele><time>2026-04-10T09:55:06.701Z</time></trkpt><trkpt lat="45.9627741" lon="10.9339734"><ele>440.0</ele><time>2026-04-10T09:55:07.701Z</time></trkpt><trkpt lat="45.9626978" lon="10.9338645"><ele>439.75</ele><time>2026-04-10T09:55:08.701Z</time></trkpt><trkpt lat="45.9626112" lon="10.9337738"><ele>439.5</ele><time>2026-04-10T09:55:09.702Z</time></trkpt><trkpt lat="45.962512" lon="10.933692"><ele>439.25</ele><time>2026-04-10T09:55:10.701Z</time></trkpt><trkpt lat="45.9624038" lon="10.933621"><ele>439.0</ele><time>2026-04-10T09:55:11.701Z</time></trkpt><trkpt lat="45.9622869" lon="10.9335595"><ele>439.0</ele><time>2026-04-10T09:55:12.701Z</time></trkpt><trkpt lat="45.9621582" lon="10.9335105"><ele>439.0</ele><time>2026-04-10T09:55:13.701Z</time></trkpt><trkpt lat="45.962029" lon="10.9334512"><ele>439.0</ele><time>2026-04-10T09:55:14.701Z</time></trkpt><trkpt lat="45.9619044" lon="10.9333907"><ele>439.0</ele><time>2026-04-10T09:55:15.701Z</time></trkpt><trkpt lat="45.9617817" lon="10.9333224"><ele>441.2</ele><time>2026-04-10T09:55:16.701Z</time></trkpt><trkpt lat="45.9616622" lon="10.9332563"><ele>443.4</ele><time>2026-04-10T09:55:17.701Z</time></trkpt><trkpt lat="45.9615482" lon="10.9332027"><ele>445.6</ele><time>2026-04-10T09:55:18.701Z</time></trkpt><trkpt lat="45.9614484" lon="10.9331816"><ele>447.8</ele><time>2026-04-10T09:55:19.701Z</time></trkpt><trkpt lat="45.9613765" lon="10.9332019"><ele>450.0</ele><time>2026-04-10T09:55:20.701Z</time></trkpt><trkpt lat="45.9613201" lon="10.9332477"><ele>450.0</ele><time>2026-04-10T09:55:21.701Z</time></trkpt><trkpt lat="45.9612473" lon="10.9332934"><ele>450.0</ele><time>2026-04-10T09:55:23.701Z</time></trkpt><trkpt lat="45.9611754" lon="10.9332853"><ele>450.0</ele><time>2026-04-10T09:55:27.702Z</time></trkpt><trkpt lat="45.9611098" lon="10.9332606"><ele>450.0</ele><time>2026-04-10T09:55:29.702Z</time></trkpt><trkpt lat="45.9610121" lon="10.9332118"><ele>450.0</ele><time>2026-04-10T09:55:31.702Z</time></trkpt><trkpt lat="45.9609156" lon="10.9331781"><ele>450.0</ele><time>2026-04-10T09:55:33.702Z</time></trkpt><trkpt lat="45.9608326" lon="10.9331465"><ele>451.28571428571433</ele><time>2026-04-10T09:55:35.702Z</time></trkpt><trkpt lat="45.9607709" lon="10.9331192"><ele>452.57142857142856</ele><time>2026-04-10T09:55:37.702Z</time></trkpt><trkpt lat="45.960691" lon="10.9331011"><ele>453.8571428571429</ele><time>2026-04-10T09:55:40.702Z</time></trkpt><trkpt lat="45.960677" lon="10.9331963"><ele>455.14285714285717</ele><time>2026-04-10T09:55:44.703Z</time></trkpt><trkpt lat="45.9607044" lon="10.9332783"><ele>456.42857142857144</ele><time>2026-04-10T09:55:46.702Z</time></trkpt><trkpt lat="45.9607063" lon="10.9334054"><ele>457.7142857142857</ele><time>2026-04-10T09:55:50.702Z</time></trkpt><trkpt lat="45.9607365" lon="10.9335165"><ele>459.0</ele><time>2026-04-10T09:55:53.702Z</time></trkpt><trkpt lat="45.9607404" lon="10.9336288"><ele>459.8333333333333</ele><time>2026-04-10T09:55:56.703Z</time></trkpt><trkpt lat="45.9607806" lon="10.9337229"><ele>460.66666666666663</ele><time>2026-04-10T09:55:59.703Z</time></trkpt><trkpt lat="45.960826" lon="10.9338075"><ele>461.5</ele><time>2026-04-10T09:56:01.702Z</time></trkpt><trkpt lat="45.960887" lon="10.9339168"><ele>462.3333333333333</ele><time>2026-04-10T09:56:03.702Z</time></trkpt><trkpt lat="45.960928" lon="10.9340472"><ele>463.16666666666663</ele><time>2026-04-10T09:56:05.703Z</time></trkpt><trkpt lat="45.9609639" lon="10.9341655"><ele>464.0</ele><time>2026-04-10T09:56:07.703Z</time></trkpt><trkpt lat="45.9609804" lon="10.9342682"><ele>462.3333333333333</ele><time>2026-04-10T09:56:09.703Z</time></trkpt><trkpt lat="45.9610045" lon="10.9343761"><ele>460.66666666666663</ele><time>2026-04-10T09:56:11.703Z</time></trkpt><trkpt lat="45.9610331" lon="10.9344814"><ele>459.0</ele><time>2026-04-10T09:56:13.703Z</time></trkpt><trkpt lat="45.9610686" lon="10.9345735"><ele>457.33333333333337</ele><time>2026-04-10T09:56:15.703Z</time></trkpt><trkpt lat="45.9611069" lon="10.9346618"><ele>455.6666666666667</ele><time>2026-04-10T09:56:17.703Z</time></trkpt><trkpt lat="45.9611548" lon="10.9347458"><ele>454.0</ele><time>2026-04-10T09:56:19.703Z</time></trkpt><trkpt lat="45.961206" lon="10.9348472"><ele>454.00000000000006</ele><time>2026-04-10T09:56:21.701Z</time></trkpt><trkpt lat="45.9612478" lon="10.934943"><ele>454.0</ele><time>2026-04-10T09:56:23.703Z</time></trkpt><trkpt lat="45.9613014" lon="10.9350315"><ele>454.0</ele><time>2026-04-10T09:56:25.703Z</time></trkpt><trkpt lat="45.9613621" lon="10.9351159"><ele>454.0</ele><time>2026-04-10T09:56:27.703Z</time></trkpt><trkpt lat="45.9614195" lon="10.9351991"><ele>454.00000000000006</ele><time>2026-04-10T09:56:29.703Z</time></trkpt><trkpt lat="45.9614712" lon="10.9352708"><ele>454.0</ele><time>2026-04-10T09:56:31.81Z</time></trkpt><trkpt lat="45.9615397" lon="10.9353357"><ele>454.1666666666667</ele><time>2026-04-10T09:56:33.837Z</time></trkpt><trkpt lat="45.9615907" lon="10.9354126"><ele>454.33333333333337</ele><time>2026-04-10T09:56:35.744Z</time></trkpt><trkpt lat="45.9616336" lon="10.9354962"><ele>454.5</ele><time>2026-04-10T09:56:37.771Z</time></trkpt><trkpt lat="45.9616675" lon="10.9355856"><ele>454.66666666666663</ele><time>2026-04-10T09:56:39.71Z</time></trkpt><trkpt lat="45.9617073" lon="10.9356876"><ele>454.8333333333333</ele><time>2026-04-10T09:56:41.823Z</time></trkpt><trkpt lat="45.9617545" lon="10.9357751"><ele>455.0</ele><time>2026-04-10T09:56:43.704Z</time></trkpt><trkpt lat="45.9618092" lon="10.9358593"><ele>457.99999999999994</ele><time>2026-04-10T09:56:45.703Z</time></trkpt><trkpt lat="45.9618693" lon="10.9359243"><ele>461.0</ele><time>2026-04-10T09:56:47.703Z</time></trkpt><trkpt lat="45.9619361" lon="10.9359897"><ele>464.0</ele><time>2026-04-10T09:56:49.703Z</time></trkpt><trkpt lat="45.9619984" lon="10.9360679"><ele>467.0</ele><time>2026-04-10T09:56:51.703Z</time></trkpt><trkpt lat="45.9620513" lon="10.9361419"><ele>469.99999999999994</ele><time>2026-04-10T09:56:53.704Z</time></trkpt><trkpt lat="45.962101" lon="10.9362104"><ele>473.0</ele><time>2026-04-10T09:56:55.704Z</time></trkpt><trkpt lat="45.9621536" lon="10.9362758"><ele>472.99999999999994</ele><time>2026-04-10T09:56:57.704Z</time></trkpt><trkpt lat="45.9622142" lon="10.9363403"><ele>473.0</ele><time>2026-04-10T09:56:59.824Z</time></trkpt><trkpt lat="45.9622669" lon="10.9364066"><ele>473.0</ele><time>2026-04-10T09:57:01.73Z</time></trkpt><trkpt lat="45.9623227" lon="10.9364928"><ele>473.0</ele><time>2026-04-10T09:57:03.756Z</time></trkpt><trkpt lat="45.9623527" lon="10.9366075"><ele>472.99999999999994</ele><time>2026-04-10T09:57:05.704Z</time></trkpt><trkpt lat="45.9623891" lon="10.9367175"><ele>473.0</ele><time>2026-04-10T09:57:07.704Z</time></trkpt><trkpt lat="45.9624314" lon="10.9368056"><ele>473.4</ele><time>2026-04-10T09:57:09.704Z</time></trkpt><trkpt lat="45.9625064" lon="10.9368683"><ele>473.79999999999995</ele><time>2026-04-10T09:57:11.705Z</time></trkpt><trkpt lat="45.9625977" lon="10.9369162"><ele>474.2</ele><time>2026-04-10T09:57:13.704Z</time></trkpt><trkpt lat="45.9626801" lon="10.9370087"><ele>474.6</ele><time>2026-04-10T09:57:15.704Z</time></trkpt><trkpt lat="45.9627404" lon="10.9371259"><ele>475.0</ele><time>2026-04-10T09:57:17.704Z</time></trkpt><trkpt lat="45.9628033" lon="10.937258"><ele>475.0</ele><time>2026-04-10T09:57:19.704Z</time></trkpt><trkpt lat="45.9628786" lon="10.9373996"><ele>475.0</ele><time>2026-04-10T09:57:21.705Z</time></trkpt><trkpt lat="45.9629595" lon="10.9375134"><ele>475.0</ele><time>2026-04-10T09:57:23.704Z</time></trkpt><trkpt lat="45.9630457" lon="10.9376139"><ele>475.0</ele><time>2026-04-10T09:57:25.704Z</time></trkpt><trkpt lat="45.9631488" lon="10.9376976"><ele>478.2</ele><time>2026-04-10T09:57:27.704Z</time></trkpt><trkpt lat="45.9632274" lon="10.9378222"><ele>481.4</ele><time>2026-04-10T09:57:29.704Z</time></trkpt><trkpt lat="45.9632804" lon="10.9379726"><ele>484.6</ele><time>2026-04-10T09:57:31.704Z</time></trkpt><trkpt lat="45.9633364" lon="10.9381282"><ele>487.8</ele><time>2026-04-10T09:57:33.704Z</time></trkpt><trkpt lat="45.9633742" lon="10.9382011"><ele>491.0</ele><time>2026-04-10T09:57:34.704Z</time></trkpt><trkpt lat="45.963465" lon="10.9383174"><ele>490.99999999999994</ele><time>2026-04-10T09:57:36.705Z</time></trkpt><trkpt lat="45.9635231" lon="10.9383603"><ele>491.0</ele><time>2026-04-10T09:57:37.705Z</time></trkpt><trkpt lat="45.9636533" lon="10.9383921"><ele>491.0</ele><time>2026-04-10T09:57:39.705Z</time></trkpt><trkpt lat="45.963738" lon="10.9384061"><ele>491.0</ele><time>2026-04-10T09:57:40.705Z</time></trkpt><trkpt lat="45.9638248" lon="10.9384408"><ele>490.99999999999994</ele><time>2026-04-10T09:57:41.705Z</time></trkpt><trkpt lat="45.9638842" lon="10.9384871"><ele>491.0</ele><time>2026-04-10T09:57:42.705Z</time></trkpt><trkpt lat="45.9639501" lon="10.938606"><ele>490.57142857142856</ele><time>2026-04-10T09:57:44.705Z</time></trkpt><trkpt lat="45.9640017" lon="10.938674"><ele>490.1428571428571</ele><time>2026-04-10T09:57:45.705Z</time></trkpt><trkpt lat="45.9640653" lon="10.9387483"><ele>489.71428571428567</ele><time>2026-04-10T09:57:46.705Z</time></trkpt><trkpt lat="45.9641398" lon="10.9387982"><ele>489.2857142857142</ele><time>2026-04-10T09:57:47.705Z</time></trkpt><trkpt lat="45.9642011" lon="10.9388448"><ele>488.85714285714283</ele><time>2026-04-10T09:57:48.705Z</time></trkpt><trkpt lat="45.9642506" lon="10.9389041"><ele>488.42857142857133</ele><time>2026-04-10T09:57:49.705Z</time></trkpt><trkpt lat="45.9642999" lon="10.9389678"><ele>487.99999999999994</ele><time>2026-04-10T09:57:50.705Z</time></trkpt><trkpt lat="45.9643868" lon="10.9390859"><ele>488.0</ele><time>2026-04-10T09:57:52.705Z</time></trkpt><trkpt lat="45.9644639" lon="10.9392102"><ele>488.0</ele><time>2026-04-10T09:57:54.705Z</time></trkpt><trkpt lat="45.9645164" lon="10.9393496"><ele>488.0</ele><time>2026-04-10T09:57:56.705Z</time></trkpt><trkpt lat="45.9645248" lon="10.9395177"><ele>488.0</ele><time>2026-04-10T09:57:58.705Z</time></trkpt><trkpt lat="45.9644996" lon="10.9396691"><ele>486.16666666666663</ele><time>2026-04-10T09:58:00.705Z</time></trkpt><trkpt lat="45.9644446" lon="10.9397754"><ele>484.3333333333333</ele><time>2026-04-10T09:58:03.705Z</time></trkpt><trkpt lat="45.9644275" lon="10.9398635"><ele>482.5</ele><time>2026-04-10T09:58:04.705Z</time></trkpt><trkpt lat="45.9644159" lon="10.9399759"><ele>480.66666666666663</ele><time>2026-04-10T09:58:05.705Z</time></trkpt><trkpt lat="45.9644189" lon="10.9400811"><ele>478.8333333333333</ele><time>2026-04-10T09:58:06.705Z</time></trkpt><trkpt lat="45.9644327" lon="10.9401854"><ele>477.0</ele><time>2026-04-10T09:58:07.705Z</time></trkpt><trkpt lat="45.9644436" lon="10.9402862"><ele>475.5</ele><time>2026-04-10T09:58:08.705Z</time></trkpt><trkpt lat="45.9644416" lon="10.9404034"><ele>474.0</ele><time>2026-04-10T09:58:09.705Z</time></trkpt><trkpt lat="45.9644299" lon="10.9405262"><ele>472.5</ele><time>2026-04-10T09:58:10.705Z</time></trkpt><trkpt lat="45.9644191" lon="10.9406341"><ele>471.0</ele><time>2026-04-10T09:58:11.705Z</time></trkpt><trkpt lat="45.9644095" lon="10.9407392"><ele>469.5</ele><time>2026-04-10T09:58:12.705Z</time></trkpt><trkpt lat="45.9644024" lon="10.9408386"><ele>468.0</ele><time>2026-04-10T09:58:13.705Z</time></trkpt><trkpt lat="45.9643731" lon="10.9409988"><ele>465.0</ele><time>2026-04-10T09:58:15.705Z</time></trkpt><trkpt lat="45.9643374" lon="10.9410842"><ele>461.99999999999994</ele><time>2026-04-10T09:58:17.705Z</time></trkpt><trkpt lat="45.9642763" lon="10.941205"><ele>458.99999999999994</ele><time>2026-04-10T09:58:20.706Z</time></trkpt><trkpt lat="45.9642176" lon="10.9413391"><ele>456.0</ele><time>2026-04-10T09:58:22.706Z</time></trkpt><trkpt lat="45.9641751" lon="10.9415018"><ele>453.0</ele><time>2026-04-10T09:58:24.706Z</time></trkpt><trkpt lat="45.9641685" lon="10.941666"><ele>460.79999999999995</ele><time>2026-04-10T09:58:26.706Z</time></trkpt><trkpt lat="45.9641416" lon="10.9418235"><ele>468.59999999999997</ele><time>2026-04-10T09:58:28.706Z</time></trkpt><trkpt lat="45.9640943" lon="10.9419502"><ele>476.40000000000003</ele><time>2026-04-10T09:58:30.706Z</time></trkpt><trkpt lat="45.9640104" lon="10.9420831"><ele>484.20000000000005</ele><time>2026-04-10T09:58:32.706Z</time></trkpt><trkpt lat="45.9639696" lon="10.9421551"><ele>492.0</ele><time>2026-04-10T09:58:33.706Z</time></trkpt><trkpt lat="45.9639106" lon="10.9422899"><ele>492.0</ele><time>2026-04-10T09:58:35.706Z</time></trkpt><trkpt lat="45.963869" lon="10.9424043"><ele>492.00000000000006</ele><time>2026-04-10T09:58:37.707Z</time></trkpt><trkpt lat="45.9638158" lon="10.9425347"><ele>492.00000000000006</ele><time>2026-04-10T09:58:39.706Z</time></trkpt><trkpt lat="45.9637445" lon="10.942635"><ele>492.0</ele><time>2026-04-10T09:58:41.706Z</time></trkpt><trkpt lat="45.9636951" lon="10.9427672"><ele>492.0</ele><time>2026-04-10T09:58:43.706Z</time></trkpt><trkpt lat="45.9636672" lon="10.9429084"><ele>492.5</ele><time>2026-04-10T09:58:45.706Z</time></trkpt><trkpt lat="45.9636644" lon="10.9430035"><ele>493.0</ele><time>2026-04-10T09:58:46.706Z</time></trkpt><trkpt lat="45.9636728" lon="10.9430994"><ele>493.5</ele><time>2026-04-10T09:58:47.706Z</time></trkpt><trkpt lat="45.9636832" lon="10.9432084"><ele>494.0</ele><time>2026-04-10T09:58:48.706Z</time></trkpt><trkpt lat="45.9636904" lon="10.9433176"><ele>494.5</ele><time>2026-04-10T09:58:49.706Z</time></trkpt><trkpt lat="45.963695" lon="10.9434302"><ele>495.0</ele><time>2026-04-10T09:58:50.707Z</time></trkpt><trkpt lat="45.9636906" lon="10.9435555"><ele>495.99999999999994</ele><time>2026-04-10T09:58:51.706Z</time></trkpt><trkpt lat="45.9636808" lon="10.9436757"><ele>497.0</ele><time>2026-04-10T09:58:52.706Z</time></trkpt><trkpt lat="45.9636745" lon="10.9437937"><ele>497.99999999999994</ele><time>2026-04-10T09:58:53.706Z</time></trkpt><trkpt lat="45.9636723" lon="10.9438994"><ele>498.99999999999994</ele><time>2026-04-10T09:58:54.707Z</time></trkpt><trkpt lat="45.9636814" lon="10.9439992"><ele>500.0</ele><time>2026-04-10T09:58:55.706Z</time></trkpt><trkpt lat="45.9637036" lon="10.9440892"><ele>500.99999999999994</ele><time>2026-04-10T09:58:56.706Z</time></trkpt><trkpt lat="45.9637205" lon="10.9441858"><ele>501.99999999999994</ele><time>2026-04-10T09:58:57.706Z</time></trkpt><trkpt lat="45.963801" lon="10.944285"><ele>503.0</ele><time>2026-04-10T09:58:59.706Z</time></trkpt><trkpt lat="45.9638916" lon="10.9443201"><ele>504.00000000000006</ele><time>2026-04-10T09:59:01.706Z</time></trkpt><trkpt lat="45.9640025" lon="10.9444063"><ele>505.00000000000006</ele><time>2026-04-10T09:59:03.707Z</time></trkpt><trkpt lat="45.9640358" lon="10.9445335"><ele>506.0</ele><time>2026-04-10T09:59:05.707Z</time></trkpt><trkpt lat="45.9639855" lon="10.9446991"><ele>507.0</ele><time>2026-04-10T09:59:07.707Z</time></trkpt><trkpt lat="45.963947" lon="10.9447816"><ele>507.0</ele><time>2026-04-10T09:59:08.707Z</time></trkpt><trkpt lat="45.9639089" lon="10.9448712"><ele>507.0</ele><time>2026-04-10T09:59:09.707Z</time></trkpt><trkpt lat="45.9638725" lon="10.9449815"><ele>507.0</ele><time>2026-04-10T09:59:10.707Z</time></trkpt><trkpt lat="45.9638519" lon="10.9450805"><ele>507.0</ele><time>2026-04-10T09:59:11.707Z</time></trkpt><trkpt lat="45.9638755" lon="10.9452286"><ele>507.0</ele><time>2026-04-10T09:59:13.707Z</time></trkpt><trkpt lat="45.9639227" lon="10.945293"><ele>507.0</ele><time>2026-04-10T09:59:14.707Z</time></trkpt><trkpt lat="45.9639696" lon="10.9453563"><ele>507.40000000000003</ele><time>2026-04-10T09:59:15.707Z</time></trkpt><trkpt lat="45.9640372" lon="10.9454911"><ele>507.80000000000007</ele><time>2026-04-10T09:59:17.707Z</time></trkpt><trkpt lat="45.9640731" lon="10.9456131"><ele>508.2</ele><time>2026-04-10T09:59:19.707Z</time></trkpt><trkpt lat="45.9640573" lon="10.9457437"><ele>508.6</ele><time>2026-04-10T09:59:21.708Z</time></trkpt><trkpt lat="45.9639993" lon="10.9458952"><ele>509.0</ele><time>2026-04-10T09:59:23.707Z</time></trkpt><trkpt lat="45.9639578" lon="10.9460064"><ele>508.99999999999994</ele><time>2026-04-10T09:59:24.707Z</time></trkpt><trkpt lat="45.9639372" lon="10.9461199"><ele>509.0</ele><time>2026-04-10T09:59:25.707Z</time></trkpt><trkpt lat="45.9639329" lon="10.9462473"><ele>509.0</ele><time>2026-04-10T09:59:26.707Z</time></trkpt><trkpt lat="45.9639312" lon="10.9463637"><ele>509.0</ele><time>2026-04-10T09:59:27.707Z</time></trkpt><trkpt lat="45.9639303" lon="10.9464757"><ele>508.99999999999994</ele><time>2026-04-10T09:59:28.708Z</time></trkpt><trkpt lat="45.9639223" lon="10.9465875"><ele>509.0</ele><time>2026-04-10T09:59:29.707Z</time></trkpt><trkpt lat="45.9639085" lon="10.9466777"><ele>506.79999999999995</ele><time>2026-04-10T09:59:30.708Z</time></trkpt><trkpt lat="45.963867" lon="10.9467992"><ele>504.59999999999997</ele><time>2026-04-10T09:59:32.707Z</time></trkpt><trkpt lat="45.9638155" lon="10.946925"><ele>502.4</ele><time>2026-04-10T09:59:34.707Z</time></trkpt><trkpt lat="45.9637486" lon="10.9470857"><ele>500.2</ele><time>2026-04-10T09:59:36.708Z</time></trkpt><trkpt lat="45.9637013" lon="10.9471757"><ele>498.0</ele><time>2026-04-10T09:59:37.707Z</time></trkpt><trkpt lat="45.9636419" lon="10.9472703"><ele>498.0</ele><time>2026-04-10T09:59:38.707Z</time></trkpt><trkpt lat="45.9635796" lon="10.9473688"><ele>498.0</ele><time>2026-04-10T09:59:39.707Z</time></trkpt><trkpt lat="45.9635198" lon="10.9474551"><ele>498.0</ele><time>2026-04-10T09:59:40.707Z</time></trkpt><trkpt lat="45.963482" lon="10.947545"><ele>498.0</ele><time>2026-04-10T09:59:41.707Z</time></trkpt><trkpt lat="45.9634548" lon="10.9476437"><ele>498.0</ele><time>2026-04-10T09:59:42.707Z</time></trkpt><trkpt lat="45.9634298" lon="10.947742"><ele>498.0</ele><time>2026-04-10T09:59:43.707Z</time></trkpt><trkpt lat="45.9633945" lon="10.9478329"><ele>502.1428571428571</ele><time>2026-04-10T09:59:44.707Z</time></trkpt><trkpt lat="45.9633538" lon="10.9479133"><ele>506.2857142857142</ele><time>2026-04-10T09:59:45.707Z</time></trkpt><trkpt lat="45.9633087" lon="10.9479846"><ele>510.42857142857144</ele><time>2026-04-10T09:59:46.707Z</time></trkpt><trkpt lat="45.9632573" lon="10.9480589"><ele>514.5714285714286</ele><time>2026-04-10T09:59:47.708Z</time></trkpt><trkpt lat="45.9632133" lon="10.9481267"><ele>518.7142857142858</ele><time>2026-04-10T09:59:48.708Z</time></trkpt><trkpt lat="45.9631897" lon="10.9482135"><ele>522.8571428571429</ele><time>2026-04-10T09:59:49.708Z</time></trkpt><trkpt lat="45.9631812" lon="10.9483233"><ele>527.0</ele><time>2026-04-10T09:59:50.708Z</time></trkpt><trkpt lat="45.9631776" lon="10.9484362"><ele>527.0</ele><time>2026-04-10T09:59:51.708Z</time></trkpt><trkpt lat="45.9631732" lon="10.9485362"><ele>527.0</ele><time>2026-04-10T09:59:52.708Z</time></trkpt><trkpt lat="45.9631547" lon="10.9486778"><ele>527.0</ele><time>2026-04-10T09:59:54.708Z</time></trkpt><trkpt lat="45.9631071" lon="10.9488114"><ele>527.0</ele><time>2026-04-10T09:59:56.709Z</time></trkpt><trkpt lat="45.9630732" lon="10.9488896"><ele>527.0</ele><time>2026-04-10T09:59:57.708Z</time></trkpt><trkpt lat="45.9630436" lon="10.9489776"><ele>527.0</ele><time>2026-04-10T09:59:58.708Z</time></trkpt><trkpt lat="45.9630238" lon="10.9490718"><ele>527.0</ele><time>2026-04-10T09:59:59.708Z</time></trkpt><trkpt lat="45.9630073" lon="10.9491672"><ele>527.0</ele><time>2026-04-10T10:00:00.708Z</time></trkpt><trkpt lat="45.9629935" lon="10.9492719"><ele>527.0</ele><time>2026-04-10T10:00:01.708Z</time></trkpt><trkpt lat="45.9629848" lon="10.9493697"><ele>527.0</ele><time>2026-04-10T10:00:02.708Z</time></trkpt><trkpt lat="45.9629738" lon="10.94955"><ele>527.0</ele><time>2026-04-10T10:00:04.708Z</time></trkpt><trkpt lat="45.9629782" lon="10.9496476"><ele>527.0</ele><time>2026-04-10T10:00:05.708Z</time></trkpt><trkpt lat="45.9629908" lon="10.94976"><ele>527.3333333333333</ele><time>2026-04-10T10:00:06.708Z</time></trkpt><trkpt lat="45.96301" lon="10.9498796"><ele>527.6666666666666</ele><time>2026-04-10T10:00:07.708Z</time></trkpt><trkpt lat="45.963034" lon="10.9499977"><ele>528.0</ele><time>2026-04-10T10:00:08.709Z</time></trkpt><trkpt lat="45.9630599" lon="10.9501084"><ele>528.3333333333334</ele><time>2026-04-10T10:00:09.709Z</time></trkpt><trkpt lat="45.9630798" lon="10.9502041"><ele>528.6666666666667</ele><time>2026-04-10T10:00:10.708Z</time></trkpt><trkpt lat="45.9630946" lon="10.9503788"><ele>529.0</ele><time>2026-04-10T10:00:12.708Z</time></trkpt><trkpt lat="45.9631323" lon="10.9505448"><ele>529.1666666666667</ele><time>2026-04-10T10:00:14.708Z</time></trkpt><trkpt lat="45.9631293" lon="10.9506904"><ele>529.3333333333334</ele><time>2026-04-10T10:00:16.708Z</time></trkpt><trkpt lat="45.9630627" lon="10.9508147"><ele>529.5</ele><time>2026-04-10T10:00:18.708Z</time></trkpt><trkpt lat="45.9630186" lon="10.9508863"><ele>529.6666666666666</ele><time>2026-04-10T10:00:20.708Z</time></trkpt><trkpt lat="45.962982" lon="10.9509739"><ele>529.8333333333333</ele><time>2026-04-10T10:00:22.709Z</time></trkpt><trkpt lat="45.9629119" lon="10.9510711"><ele>530.0</ele><time>2026-04-10T10:00:24.709Z</time></trkpt><trkpt lat="45.9628047" lon="10.9511471"><ele>527.4</ele><time>2026-04-10T10:00:26.708Z</time></trkpt><trkpt lat="45.9626847" lon="10.9511498"><ele>524.8</ele><time>2026-04-10T10:00:28.708Z</time></trkpt><trkpt lat="45.9625605" lon="10.9511209"><ele>522.2</ele><time>2026-04-10T10:00:30.709Z</time></trkpt><trkpt lat="45.9624379" lon="10.9511004"><ele>519.6</ele><time>2026-04-10T10:00:32.709Z</time></trkpt><trkpt lat="45.9623736" lon="10.9511067"><ele>517.0</ele><time>2026-04-10T10:00:33.71Z</time></trkpt><trkpt lat="45.9623088" lon="10.9511208"><ele>517.0</ele><time>2026-04-10T10:00:34.709Z</time></trkpt><trkpt lat="45.9621749" lon="10.9511213"><ele>517.0</ele><time>2026-04-10T10:00:36.709Z</time></trkpt><trkpt lat="45.9620875" lon="10.9511231"><ele>517.0</ele><time>2026-04-10T10:00:37.709Z</time></trkpt><trkpt lat="45.9620074" lon="10.9511296"><ele>517.0</ele><time>2026-04-10T10:00:38.709Z</time></trkpt><trkpt lat="45.9619338" lon="10.9511342"><ele>517.0</ele><time>2026-04-10T10:00:39.709Z</time></trkpt><trkpt lat="45.9618574" lon="10.9511577"><ele>517.0</ele><time>2026-04-10T10:00:40.709Z</time></trkpt><trkpt lat="45.9617843" lon="10.951177"><ele>517.0</ele><time>2026-04-10T10:00:41.709Z</time></trkpt><trkpt lat="45.9617104" lon="10.9511919"><ele>517.0</ele><time>2026-04-10T10:00:42.71Z</time></trkpt><trkpt lat="45.9616408" lon="10.9512011"><ele>517.0</ele><time>2026-04-10T10:00:43.709Z</time></trkpt><trkpt lat="45.961575" lon="10.9512155"><ele>517.0</ele><time>2026-04-10T10:00:44.709Z</time></trkpt><trkpt lat="45.9615121" lon="10.9512361"><ele>517.0</ele><time>2026-04-10T10:00:45.709Z</time></trkpt><trkpt lat="45.961397" lon="10.9512716"><ele>516.8000000000001</ele><time>2026-04-10T10:00:47.709Z</time></trkpt><trkpt lat="45.961314" lon="10.9513535"><ele>516.6</ele><time>2026-04-10T10:00:49.709Z</time></trkpt><trkpt lat="45.9612442" lon="10.9514496"><ele>516.4000000000001</ele><time>2026-04-10T10:00:51.71Z</time></trkpt><trkpt lat="45.9611755" lon="10.9515644"><ele>516.2</ele><time>2026-04-10T10:00:53.709Z</time></trkpt><trkpt lat="45.9611098" lon="10.9517024"><ele>516.0</ele><time>2026-04-10T10:00:55.709Z</time></trkpt><trkpt lat="45.9610437" lon="10.9518423"><ele>515.4</ele><time>2026-04-10T10:00:57.709Z</time></trkpt><trkpt lat="45.961018" lon="10.9519926"><ele>514.8</ele><time>2026-04-10T10:00:59.709Z</time></trkpt><trkpt lat="45.9610403" lon="10.9521525"><ele>514.1999999999999</ele><time>2026-04-10T10:01:01.709Z</time></trkpt><trkpt lat="45.9610588" lon="10.9522414"><ele>513.6</ele><time>2026-04-10T10:01:02.709Z</time></trkpt><trkpt lat="45.9611576" lon="10.9523367"><ele>513.0</ele><time>2026-04-10T10:01:04.709Z</time></trkpt><trkpt lat="45.9612195" lon="10.9523595"><ele>513.0</ele><time>2026-04-10T10:01:05.709Z</time></trkpt><trkpt lat="45.9613302" lon="10.952414"><ele>513.0</ele><time>2026-04-10T10:01:07.709Z</time></trkpt><trkpt lat="45.9614298" lon="10.9524781"><ele>513.0</ele><time>2026-04-10T10:01:09.709Z</time></trkpt><trkpt lat="45.9615218" lon="10.9525679"><ele>513.0</ele><time>2026-04-10T10:01:11.709Z</time></trkpt><trkpt lat="45.9616004" lon="10.9526726"><ele>513.0</ele><time>2026-04-10T10:01:13.711Z</time></trkpt><trkpt lat="45.9616619" lon="10.9527904"><ele>508.79999999999995</ele><time>2026-04-10T10:01:15.71Z</time></trkpt><trkpt lat="45.9617392" lon="10.9529279"><ele>504.59999999999997</ele><time>2026-04-10T10:01:17.71Z</time></trkpt><trkpt lat="45.9617902" lon="10.9530111"><ele>500.40000000000003</ele><time>2026-04-10T10:01:18.71Z</time></trkpt><trkpt lat="45.9618482" lon="10.9530991"><ele>496.20000000000005</ele><time>2026-04-10T10:01:19.71Z</time></trkpt><trkpt lat="45.9619291" lon="10.9531888"><ele>492.0</ele><time>2026-04-10T10:01:20.71Z</time></trkpt><trkpt lat="45.9620149" lon="10.9532555"><ele>492.0</ele><time>2026-04-10T10:01:21.71Z</time></trkpt><trkpt lat="45.9620898" lon="10.9533138"><ele>492.0</ele><time>2026-04-10T10:01:22.71Z</time></trkpt><trkpt lat="45.9621485" lon="10.9533918"><ele>492.0</ele><time>2026-04-10T10:01:23.71Z</time></trkpt><trkpt lat="45.9621881" lon="10.9534815"><ele>492.0</ele><time>2026-04-10T10:01:24.71Z</time></trkpt><trkpt lat="45.962212" lon="10.9535772"><ele>492.0</ele><time>2026-04-10T10:01:25.71Z</time></trkpt><trkpt lat="45.962213" lon="10.9536763"><ele>492.0</ele><time>2026-04-10T10:01:26.711Z</time></trkpt><trkpt lat="45.9621911" lon="10.9537764"><ele>491.40000000000003</ele><time>2026-04-10T10:01:27.71Z</time></trkpt><trkpt lat="45.9621613" lon="10.9538691"><ele>490.80000000000007</ele><time>2026-04-10T10:01:28.71Z</time></trkpt><trkpt lat="45.9621342" lon="10.9540696"><ele>490.2</ele><time>2026-04-10T10:01:30.71Z</time></trkpt><trkpt lat="45.9621596" lon="10.9541922"><ele>489.6</ele><time>2026-04-10T10:01:31.71Z</time></trkpt><trkpt lat="45.962203" lon="10.9542957"><ele>489.0</ele><time>2026-04-10T10:01:32.71Z</time></trkpt><trkpt lat="45.9622368" lon="10.9544004"><ele>488.8571428571429</ele><time>2026-04-10T10:01:33.71Z</time></trkpt><trkpt lat="45.9622516" lon="10.9545033"><ele>488.7142857142858</ele><time>2026-04-10T10:01:34.71Z</time></trkpt><trkpt lat="45.9622582" lon="10.9546055"><ele>488.57142857142856</ele><time>2026-04-10T10:01:35.711Z</time></trkpt><trkpt lat="45.9622491" lon="10.9547054"><ele>488.42857142857144</ele><time>2026-04-10T10:01:36.711Z</time></trkpt><trkpt lat="45.9622481" lon="10.9548084"><ele>488.2857142857143</ele><time>2026-04-10T10:01:37.711Z</time></trkpt><trkpt lat="45.9622532" lon="10.9549111"><ele>488.1428571428571</ele><time>2026-04-10T10:01:38.711Z</time></trkpt><trkpt lat="45.9622601" lon="10.9550128"><ele>487.99999999999994</ele><time>2026-04-10T10:01:39.71Z</time></trkpt><trkpt lat="45.9622676" lon="10.955115"><ele>488.42857142857133</ele><time>2026-04-10T10:01:40.71Z</time></trkpt><trkpt lat="45.9622864" lon="10.9552171"><ele>488.85714285714283</ele><time>2026-04-10T10:01:41.71Z</time></trkpt><trkpt lat="45.9623208" lon="10.9553065"><ele>489.2857142857142</ele><time>2026-04-10T10:01:42.711Z</time></trkpt><trkpt lat="45.962361" lon="10.9553926"><ele>489.71428571428567</ele><time>2026-04-10T10:01:43.71Z</time></trkpt><trkpt lat="45.9623933" lon="10.955488"><ele>490.1428571428571</ele><time>2026-04-10T10:01:44.71Z</time></trkpt><trkpt lat="45.9624216" lon="10.9555824"><ele>490.57142857142856</ele><time>2026-04-10T10:01:45.71Z</time></trkpt><trkpt lat="45.9624335" lon="10.9556812"><ele>491.0</ele><time>2026-04-10T10:01:46.71Z</time></trkpt><trkpt lat="45.9624312" lon="10.9557776"><ele>493.0</ele><time>2026-04-10T10:01:47.71Z</time></trkpt><trkpt lat="45.9624199" lon="10.9558754"><ele>495.0</ele><time>2026-04-10T10:01:48.71Z</time></trkpt><trkpt lat="45.9624032" lon="10.9559639"><ele>497.0</ele><time>2026-04-10T10:01:49.71Z</time></trkpt><trkpt lat="45.9624134" lon="10.9561359"><ele>499.0</ele><time>2026-04-10T10:01:51.71Z</time></trkpt><trkpt lat="45.9624734" lon="10.9562794"><ele>501.0</ele><time>2026-04-10T10:01:53.71Z</time></trkpt><trkpt lat="45.9625373" lon="10.9563889"><ele>501.8</ele><time>2026-04-10T10:01:55.71Z</time></trkpt><trkpt lat="45.9626377" lon="10.9564393"><ele>502.6</ele><time>2026-04-10T10:01:57.711Z</time></trkpt><trkpt lat="45.9627142" lon="10.9564234"><ele>503.4</ele><time>2026-04-10T10:01:58.711Z</time></trkpt><trkpt lat="45.9628071" lon="10.9563981"><ele>504.2</ele><time>2026-04-10T10:01:59.711Z</time></trkpt><trkpt lat="45.9628982" lon="10.9563838"><ele>505.0</ele><time>2026-04-10T10:02:00.711Z</time></trkpt><trkpt lat="45.9629954" lon="10.9563635"><ele>505.0</ele><time>2026-04-10T10:02:01.711Z</time></trkpt><trkpt lat="45.9630943" lon="10.9563233"><ele>505.0</ele><time>2026-04-10T10:02:02.711Z</time></trkpt><trkpt lat="45.9631729" lon="10.9562766"><ele>505.0</ele><time>2026-04-10T10:02:03.711Z</time></trkpt><trkpt lat="45.9632342" lon="10.956255"><ele>505.0</ele><time>2026-04-10T10:02:04.711Z</time></trkpt><trkpt lat="45.9633531" lon="10.956276"><ele>505.0</ele><time>2026-04-10T10:02:06.711Z</time></trkpt><trkpt lat="45.9634362" lon="10.9564106"><ele>504.83333333333337</ele><time>2026-04-10T10:02:08.711Z</time></trkpt><trkpt lat="45.9634494" lon="10.9565151"><ele>504.6666666666667</ele><time>2026-04-10T10:02:09.712Z</time></trkpt><trkpt lat="45.9634594" lon="10.9566313"><ele>504.5</ele><time>2026-04-10T10:02:10.711Z</time></trkpt><trkpt lat="45.963455" lon="10.956755"><ele>504.33333333333337</ele><time>2026-04-10T10:02:11.711Z</time></trkpt><trkpt lat="45.9634406" lon="10.9568867"><ele>504.1666666666667</ele><time>2026-04-10T10:02:12.711Z</time></trkpt><trkpt lat="45.9634314" lon="10.9570168"><ele>504.0</ele><time>2026-04-10T10:02:13.711Z</time></trkpt><trkpt lat="45.9634171" lon="10.9571518"><ele>506.2</ele><time>2026-04-10T10:02:14.711Z</time></trkpt><trkpt lat="45.963398" lon="10.9572966"><ele>508.4</ele><time>2026-04-10T10:02:15.711Z</time></trkpt><trkpt lat="45.9633851" lon="10.9574557"><ele>510.6</ele><time>2026-04-10T10:02:16.712Z</time></trkpt><trkpt lat="45.9633863" lon="10.9576252"><ele>512.8</ele><time>2026-04-10T10:02:17.711Z</time></trkpt><trkpt lat="45.9634025" lon="10.9577905"><ele>515.0</ele><time>2026-04-10T10:02:18.711Z</time></trkpt><trkpt lat="45.9634271" lon="10.9579623"><ele>517.0</ele><time>2026-04-10T10:02:19.711Z</time></trkpt><trkpt lat="45.9634546" lon="10.9581317"><ele>519.0</ele><time>2026-04-10T10:02:20.711Z</time></trkpt><trkpt lat="45.9634869" lon="10.9583042"><ele>521.0</ele><time>2026-04-10T10:02:21.711Z</time></trkpt><trkpt lat="45.9635219" lon="10.9584793"><ele>523.0</ele><time>2026-04-10T10:02:22.711Z</time></trkpt><trkpt lat="45.9635504" lon="10.95866"><ele>524.75</ele><time>2026-04-10T10:02:23.712Z</time></trkpt><trkpt lat="45.9635762" lon="10.9588368"><ele>526.5</ele><time>2026-04-10T10:02:24.711Z</time></trkpt><trkpt lat="45.9636091" lon="10.9590138"><ele>528.25</ele><time>2026-04-10T10:02:25.711Z</time></trkpt><trkpt lat="45.963641" lon="10.9591838"><ele>530.0</ele><time>2026-04-10T10:02:26.711Z</time></trkpt><trkpt lat="45.9636562" lon="10.9593331"><ele>530.1666666666666</ele><time>2026-04-10T10:02:27.711Z</time></trkpt><trkpt lat="45.9636606" lon="10.9594726"><ele>530.3333333333333</ele><time>2026-04-10T10:02:28.711Z</time></trkpt><trkpt lat="45.9636556" lon="10.959608"><ele>530.5</ele><time>2026-04-10T10:02:29.711Z</time></trkpt><trkpt lat="45.9636428" lon="10.9597363"><ele>530.6666666666666</ele><time>2026-04-10T10:02:30.711Z</time></trkpt><trkpt lat="45.9636353" lon="10.9598589"><ele>530.8333333333334</ele><time>2026-04-10T10:02:31.711Z</time></trkpt><trkpt lat="45.9636242" lon="10.9599711"><ele>531.0</ele><time>2026-04-10T10:02:32.712Z</time></trkpt><trkpt lat="45.9636066" lon="10.9600811"><ele>532.0</ele><time>2026-04-10T10:02:33.711Z</time></trkpt><trkpt lat="45.9635924" lon="10.9601768"><ele>533.0</ele><time>2026-04-10T10:02:34.711Z</time></trkpt><trkpt lat="45.9635874" lon="10.960269"><ele>534.0</ele><time>2026-04-10T10:02:35.711Z</time></trkpt><trkpt lat="45.9635859" lon="10.9604447"><ele>535.0</ele><time>2026-04-10T10:02:37.711Z</time></trkpt><trkpt lat="45.9636274" lon="10.9606164"><ele>536.0</ele><time>2026-04-10T10:02:39.712Z</time></trkpt><trkpt lat="45.9636757" lon="10.96069"><ele>536.0</ele><time>2026-04-10T10:02:40.712Z</time></trkpt><trkpt lat="45.9637201" lon="10.9607744"><ele>536.0</ele><time>2026-04-10T10:02:41.712Z</time></trkpt><trkpt lat="45.9637656" lon="10.9608691"><ele>536.0</ele><time>2026-04-10T10:02:42.712Z</time></trkpt><trkpt lat="45.9638037" lon="10.9609615"><ele>536.0</ele><time>2026-04-10T10:02:43.712Z</time></trkpt><trkpt lat="45.9638332" lon="10.9610417"><ele>536.0</ele><time>2026-04-10T10:02:44.712Z</time></trkpt><trkpt lat="45.9638973" lon="10.9611331"><ele>536.0</ele><time>2026-04-10T10:02:46.713Z</time></trkpt><trkpt lat="45.9640127" lon="10.9610858"><ele>535.6666666666666</ele><time>2026-04-10T10:02:48.712Z</time></trkpt><trkpt lat="45.9641223" lon="10.9609982"><ele>535.3333333333333</ele><time>2026-04-10T10:02:50.712Z</time></trkpt><trkpt lat="45.9641842" lon="10.9609416"><ele>535.0</ele><time>2026-04-10T10:02:51.712Z</time></trkpt><trkpt lat="45.964243" lon="10.9608835"><ele>534.6666666666666</ele><time>2026-04-10T10:02:52.712Z</time></trkpt><trkpt lat="45.9643042" lon="10.9608149"><ele>534.3333333333334</ele><time>2026-04-10T10:02:53.712Z</time></trkpt><trkpt lat="45.9643665" lon="10.9607503"><ele>534.0</ele><time>2026-04-10T10:02:54.713Z</time></trkpt><trkpt lat="45.9644275" lon="10.960688"><ele>534.6666666666666</ele><time>2026-04-10T10:02:55.712Z</time></trkpt><trkpt lat="45.9644816" lon="10.9606317"><ele>535.3333333333334</ele><time>2026-04-10T10:02:56.712Z</time></trkpt><trkpt lat="45.9645342" lon="10.9605785"><ele>536.0</ele><time>2026-04-10T10:02:57.713Z</time></trkpt><trkpt lat="45.9646405" lon="10.9605083"><ele>536.6666666666667</ele><time>2026-04-10T10:02:59.712Z</time></trkpt><trkpt lat="45.9647008" lon="10.9605362"><ele>537.3333333333334</ele><time>2026-04-10T10:03:00.712Z</time></trkpt><trkpt lat="45.9647627" lon="10.9605841"><ele>538.0</ele><time>2026-04-10T10:03:01.712Z</time></trkpt><trkpt lat="45.9648226" lon="10.9606523"><ele>538.0</ele><time>2026-04-10T10:03:02.712Z</time></trkpt><trkpt lat="45.964873" lon="10.9607344"><ele>538.0</ele><time>2026-04-10T10:03:03.712Z</time></trkpt><trkpt lat="45.9648994" lon="10.9608361"><ele>538.0</ele><time>2026-04-10T10:03:04.712Z</time></trkpt><trkpt lat="45.9649099" lon="10.9609404"><ele>538.0</ele><time>2026-04-10T10:03:05.712Z</time></trkpt><trkpt lat="45.9649206" lon="10.9610652"><ele>538.0</ele><time>2026-04-10T10:03:06.713Z</time></trkpt><trkpt lat="45.9649339" lon="10.9611998"><ele>538.0</ele><time>2026-04-10T10:03:07.712Z</time></trkpt><trkpt lat="45.9649542" lon="10.9613237"><ele>537.5</ele><time>2026-04-10T10:03:08.712Z</time></trkpt><trkpt lat="45.9649559" lon="10.9614517"><ele>537.0</ele><time>2026-04-10T10:03:09.712Z</time></trkpt><trkpt lat="45.9649482" lon="10.9615779"><ele>536.5</ele><time>2026-04-10T10:03:10.712Z</time></trkpt><trkpt lat="45.9649406" lon="10.9617048"><ele>536.0</ele><time>2026-04-10T10:03:11.712Z</time></trkpt><trkpt lat="45.9649422" lon="10.9618362"><ele>535.5</ele><time>2026-04-10T10:03:12.712Z</time></trkpt><trkpt lat="45.9649612" lon="10.9619596"><ele>535.0</ele><time>2026-04-10T10:03:13.712Z</time></trkpt><trkpt lat="45.9649968" lon="10.9620809"><ele>534.4</ele><time>2026-04-10T10:03:14.713Z</time></trkpt><trkpt lat="45.9650421" lon="10.9621927"><ele>533.8</ele><time>2026-04-10T10:03:15.712Z</time></trkpt><trkpt lat="45.9650942" lon="10.9623032"><ele>533.2</ele><time>2026-04-10T10:03:16.712Z</time></trkpt><trkpt lat="45.9651427" lon="10.9624313"><ele>532.6</ele><time>2026-04-10T10:03:17.712Z</time></trkpt><trkpt lat="45.965179" lon="10.962581"><ele>532.0</ele><time>2026-04-10T10:03:18.713Z</time></trkpt><trkpt lat="45.965208" lon="10.9627452"><ele>532.0</ele><time>2026-04-10T10:03:19.712Z</time></trkpt><trkpt lat="45.9652254" lon="10.9629106"><ele>532.0</ele><time>2026-04-10T10:03:20.713Z</time></trkpt><trkpt lat="45.9652363" lon="10.9630655"><ele>532.0</ele><time>2026-04-10T10:03:21.713Z</time></trkpt><trkpt lat="45.9652452" lon="10.9632092"><ele>532.0</ele><time>2026-04-10T10:03:22.713Z</time></trkpt><trkpt lat="45.9652626" lon="10.9633393"><ele>532.0</ele><time>2026-04-10T10:03:23.713Z</time></trkpt><trkpt lat="45.9652963" lon="10.9634497"><ele>531.8333333333334</ele><time>2026-04-10T10:03:24.713Z</time></trkpt><trkpt lat="45.9653438" lon="10.9635367"><ele>531.6666666666667</ele><time>2026-04-10T10:03:25.713Z</time></trkpt><trkpt lat="45.9653838" lon="10.9636152"><ele>531.5</ele><time>2026-04-10T10:03:26.714Z</time></trkpt><trkpt lat="45.9653931" lon="10.9637935"><ele>531.3333333333334</ele><time>2026-04-10T10:03:28.713Z</time></trkpt><trkpt lat="45.9653705" lon="10.9638885"><ele>531.1666666666666</ele><time>2026-04-10T10:03:29.713Z</time></trkpt><trkpt lat="45.9653799" lon="10.9640469"><ele>531.0</ele><time>2026-04-10T10:03:31.713Z</time></trkpt><trkpt lat="45.9654852" lon="10.9640951"><ele>531.0</ele><time>2026-04-10T10:03:33.713Z</time></trkpt><trkpt lat="45.9655942" lon="10.9640409"><ele>531.0</ele><time>2026-04-10T10:03:35.713Z</time></trkpt><trkpt lat="45.9657039" lon="10.9639686"><ele>531.0</ele><time>2026-04-10T10:03:37.713Z</time></trkpt><trkpt lat="45.9657646" lon="10.9639416"><ele>531.0</ele><time>2026-04-10T10:03:38.713Z</time></trkpt><trkpt lat="45.9658761" lon="10.9639432"><ele>531.0</ele><time>2026-04-10T10:03:40.713Z</time></trkpt><trkpt lat="45.9659562" lon="10.9640547"><ele>532.6</ele><time>2026-04-10T10:03:42.713Z</time></trkpt><trkpt lat="45.9659866" lon="10.9642402"><ele>534.2</ele><time>2026-04-10T10:03:44.713Z</time></trkpt><trkpt lat="45.9660158" lon="10.9643516"><ele>535.8</ele><time>2026-04-10T10:03:45.713Z</time></trkpt><trkpt lat="45.9660518" lon="10.9644693"><ele>537.4</ele><time>2026-04-10T10:03:46.713Z</time></trkpt><trkpt lat="45.9660912" lon="10.9646003"><ele>539.0</ele><time>2026-04-10T10:03:47.713Z</time></trkpt><trkpt lat="45.9661468" lon="10.9647351"><ele>539.0</ele><time>2026-04-10T10:03:48.713Z</time></trkpt><trkpt lat="45.9662168" lon="10.9648675"><ele>539.0</ele><time>2026-04-10T10:03:49.713Z</time></trkpt><trkpt lat="45.9663034" lon="10.9649933"><ele>539.0</ele><time>2026-04-10T10:03:50.714Z</time></trkpt><trkpt lat="45.9664001" lon="10.9651134"><ele>539.0</ele><time>2026-04-10T10:03:51.714Z</time></trkpt><trkpt lat="45.9665099" lon="10.9652243"><ele>539.5</ele><time>2026-04-10T10:03:52.714Z</time></trkpt><trkpt lat="45.9666309" lon="10.9653331"><ele>540.0</ele><time>2026-04-10T10:03:53.713Z</time></trkpt><trkpt lat="45.9667585" lon="10.9654455"><ele>540.5</ele><time>2026-04-10T10:03:54.713Z</time></trkpt><trkpt lat="45.9668867" lon="10.9655575"><ele>541.0</ele><time>2026-04-10T10:03:55.713Z</time></trkpt><trkpt lat="45.967015" lon="10.965674"><ele>543.6666666666667</ele><time>2026-04-10T10:03:56.713Z</time></trkpt><trkpt lat="45.967142" lon="10.9657868"><ele>546.3333333333334</ele><time>2026-04-10T10:03:57.713Z</time></trkpt><trkpt lat="45.9672717" lon="10.9659066"><ele>549.0</ele><time>2026-04-10T10:03:58.713Z</time></trkpt><trkpt lat="45.9674011" lon="10.9660258"><ele>553.6666666666666</ele><time>2026-04-10T10:03:59.713Z</time></trkpt><trkpt lat="45.9675311" lon="10.96615"><ele>558.3333333333333</ele><time>2026-04-10T10:04:00.713Z</time></trkpt><trkpt lat="45.967661" lon="10.9662704"><ele>563.0</ele><time>2026-04-10T10:04:01.713Z</time></trkpt><trkpt lat="45.9677962" lon="10.9663855"><ele>563.0</ele><time>2026-04-10T10:04:02.713Z</time></trkpt><trkpt lat="45.9679278" lon="10.9665078"><ele>563.0</ele><time>2026-04-10T10:04:03.714Z</time></trkpt><trkpt lat="45.9680571" lon="10.9666352"><ele>563.0</ele><time>2026-04-10T10:04:04.714Z</time></trkpt><trkpt lat="45.9681883" lon="10.9667601"><ele>564.0</ele><time>2026-04-10T10:04:05.714Z</time></trkpt><trkpt lat="45.968317" lon="10.9668992"><ele>565.0</ele><time>2026-04-10T10:04:06.714Z</time></trkpt><trkpt lat="45.9684244" lon="10.9670477"><ele>566.0</ele><time>2026-04-10T10:04:07.714Z</time></trkpt><trkpt lat="45.9685149" lon="10.967197"><ele>567.0</ele><time>2026-04-10T10:04:08.714Z</time></trkpt><trkpt lat="45.968595" lon="10.967328"><ele>567.0</ele><time>2026-04-10T10:04:09.714Z</time></trkpt><trkpt lat="45.968665" lon="10.9674491"><ele>567.0</ele><time>2026-04-10T10:04:10.714Z</time></trkpt><trkpt lat="45.9687319" lon="10.9675536"><ele>567.0</ele><time>2026-04-10T10:04:11.714Z</time></trkpt><trkpt lat="45.9687845" lon="10.9676371"><ele>567.0</ele><time>2026-04-10T10:04:12.714Z</time></trkpt><trkpt lat="45.9687976" lon="10.9677536"><ele>567.0</ele><time>2026-04-10T10:04:14.714Z</time></trkpt><trkpt lat="45.968728" lon="10.9678048"><ele>567.0</ele><time>2026-04-10T10:04:16.714Z</time></trkpt><trkpt lat="45.968661" lon="10.9677772"><ele>565.6666666666666</ele><time>2026-04-10T10:04:18.714Z</time></trkpt><trkpt lat="45.9685754" lon="10.9677247"><ele>564.3333333333334</ele><time>2026-04-10T10:04:20.714Z</time></trkpt><trkpt lat="45.9684658" lon="10.9676698"><ele>563.0</ele><time>2026-04-10T10:04:22.714Z</time></trkpt><trkpt lat="45.9684013" lon="10.9676972"><ele>561.6666666666667</ele><time>2026-04-10T10:04:23.714Z</time></trkpt><trkpt lat="45.9683466" lon="10.9677671"><ele>560.3333333333334</ele><time>2026-04-10T10:04:24.714Z</time></trkpt><trkpt lat="45.968289" lon="10.9678453"><ele>559.0</ele><time>2026-04-10T10:04:25.714Z</time></trkpt><trkpt lat="45.9682422" lon="10.9679164"><ele>559.0</ele><time>2026-04-10T10:04:26.714Z</time></trkpt><trkpt lat="45.968199" lon="10.9680775"><ele>559.0</ele><time>2026-04-10T10:04:28.714Z</time></trkpt><trkpt lat="45.9682096" lon="10.9682567"><ele>559.0</ele><time>2026-04-10T10:04:30.714Z</time></trkpt><trkpt lat="45.9682063" lon="10.9683489"><ele>559.0</ele><time>2026-04-10T10:04:31.714Z</time></trkpt><trkpt lat="45.968184" lon="10.968437"><ele>559.0</ele><time>2026-04-10T10:04:32.714Z</time></trkpt><trkpt lat="45.968104" lon="10.9685741"><ele>559.0</ele><time>2026-04-10T10:04:34.714Z</time></trkpt><trkpt lat="45.9680529" lon="10.9686647"><ele>559.0</ele><time>2026-04-10T10:04:36.715Z</time></trkpt><trkpt lat="45.9681212" lon="10.9686402"><ele>559.0</ele><time>2026-04-10T10:04:39.714Z</time></trkpt><trkpt lat="45.9681582" lon="10.9685516"><ele>559.0</ele><time>2026-04-10T10:04:41.714Z</time></trkpt><trkpt lat="45.9681789" lon="10.9684422"><ele>559.0</ele><time>2026-04-10T10:04:43.714Z</time></trkpt><trkpt lat="45.9682004" lon="10.968321"><ele>559.0</ele><time>2026-04-10T10:04:45.715Z</time></trkpt><trkpt lat="45.9681889" lon="10.9682076"><ele>559.0</ele><time>2026-04-10T10:04:47.715Z</time></trkpt><trkpt lat="45.9682667" lon="10.9681746"><ele>559.0</ele><time>2026-04-10T10:04:53.715Z</time></trkpt><trkpt lat="45.9683364" lon="10.9682426"><ele>559.0</ele><time>2026-04-10T10:04:56.715Z</time></trkpt><trkpt lat="45.9684005" lon="10.968338"><ele>559.0</ele><time>2026-04-10T10:04:59.715Z</time></trkpt><trkpt lat="45.9684473" lon="10.9684028"><ele>559.0</ele><time>2026-04-10T10:05:01.715Z</time></trkpt><trkpt lat="45.9684988" lon="10.9684624"><ele>559.0</ele><time>2026-04-10T10:05:03.715Z</time></trkpt><trkpt lat="45.9685512" lon="10.9685401"><ele>559.0</ele><time>2026-04-10T10:05:06.716Z</time></trkpt><trkpt lat="45.9686237" lon="10.9685972"><ele>559.0</ele><time>2026-04-10T10:05:10.715Z</time></trkpt><trkpt lat="45.9686877" lon="10.9686866"><ele>559.0</ele><time>2026-04-10T10:05:12.715Z</time></trkpt><trkpt lat="45.9687537" lon="10.9687722"><ele>559.0</ele><time>2026-04-10T10:05:14.715Z</time></trkpt><trkpt lat="45.9688169" lon="10.9688628"><ele>559.0</ele><time>2026-04-10T10:05:16.715Z</time></trkpt><trkpt lat="45.9688832" lon="10.9689551"><ele>559.0</ele><time>2026-04-10T10:05:18.715Z</time></trkpt><trkpt lat="45.9689509" lon="10.9690519"><ele>559.0</ele><time>2026-04-10T10:05:20.715Z</time></trkpt><trkpt lat="45.969013" lon="10.9691436"><ele>559.0</ele><time>2026-04-10T10:05:22.715Z</time></trkpt><trkpt lat="45.9690752" lon="10.9692354"><ele>559.0</ele><time>2026-04-10T10:05:24.715Z</time></trkpt><trkpt lat="45.9691438" lon="10.9693427"><ele>559.0</ele><time>2026-04-10T10:05:26.715Z</time></trkpt><trkpt lat="45.9692093" lon="10.9694578"><ele>559.0</ele><time>2026-04-10T10:05:28.715Z</time></trkpt><trkpt lat="45.9692701" lon="10.9695807"><ele>559.0</ele><time>2026-04-10T10:05:30.716Z</time></trkpt><trkpt lat="45.9693239" lon="10.9696981"><ele>559.0</ele><time>2026-04-10T10:05:32.716Z</time></trkpt><trkpt lat="45.9693855" lon="10.9698344"><ele>559.0</ele><time>2026-04-10T10:05:34.716Z</time></trkpt><trkpt lat="45.9694524" lon="10.9699529"><ele>559.0</ele><time>2026-04-10T10:05:36.716Z</time></trkpt><trkpt lat="45.9695261" lon="10.9700697"><ele>559.0</ele><time>2026-04-10T10:05:38.716Z</time></trkpt><trkpt lat="45.969578" lon="10.9701638"><ele>559.5</ele><time>2026-04-10T10:05:40.716Z</time></trkpt><trkpt lat="45.9696517" lon="10.9702655"><ele>560.0</ele><time>2026-04-10T10:05:42.716Z</time></trkpt><trkpt lat="45.9697249" lon="10.9703904"><ele>560.5</ele><time>2026-04-10T10:05:44.716Z</time></trkpt><trkpt lat="45.9697914" lon="10.9705351"><ele>561.0</ele><time>2026-04-10T10:05:46.716Z</time></trkpt><trkpt lat="45.9698551" lon="10.9706762"><ele>561.0</ele><time>2026-04-10T10:05:48.716Z</time></trkpt><trkpt lat="45.9699224" lon="10.9708221"><ele>561.0</ele><time>2026-04-10T10:05:50.716Z</time></trkpt><trkpt lat="45.969958" lon="10.9709032"><ele>561.0</ele><time>2026-04-10T10:05:51.716Z</time></trkpt><trkpt lat="45.9699927" lon="10.9709807"><ele>561.0</ele><time>2026-04-10T10:05:52.716Z</time></trkpt><trkpt lat="45.9700272" lon="10.9710576"><ele>561.0</ele><time>2026-04-10T10:05:53.716Z</time></trkpt><trkpt lat="45.970104" lon="10.9712038"><ele>561.0</ele><time>2026-04-10T10:05:55.716Z</time></trkpt><trkpt lat="45.9701447" lon="10.9712813"><ele>561.7142857142857</ele><time>2026-04-10T10:05:56.716Z</time></trkpt><trkpt lat="45.9701827" lon="10.9713558"><ele>562.4285714285713</ele><time>2026-04-10T10:05:57.716Z</time></trkpt><trkpt lat="45.9702198" lon="10.9714309"><ele>563.1428571428571</ele><time>2026-04-10T10:05:58.716Z</time></trkpt><trkpt lat="45.9702602" lon="10.971505"><ele>563.8571428571429</ele><time>2026-04-10T10:05:59.717Z</time></trkpt><trkpt lat="45.970339" lon="10.9716423"><ele>564.5714285714287</ele><time>2026-04-10T10:06:01.716Z</time></trkpt><trkpt lat="45.9703834" lon="10.9717082"><ele>565.2857142857143</ele><time>2026-04-10T10:06:02.716Z</time></trkpt><trkpt lat="45.9704283" lon="10.9717725"><ele>566.0</ele><time>2026-04-10T10:06:03.716Z</time></trkpt><trkpt lat="45.9705139" lon="10.9719035"><ele>566.1666666666666</ele><time>2026-04-10T10:06:05.716Z</time></trkpt><trkpt lat="45.9705578" lon="10.9719707"><ele>566.3333333333333</ele><time>2026-04-10T10:06:06.716Z</time></trkpt><trkpt lat="45.9706012" lon="10.9720407"><ele>566.5</ele><time>2026-04-10T10:06:07.716Z</time></trkpt><trkpt lat="45.9706777" lon="10.9721661"><ele>566.6666666666666</ele><time>2026-04-10T10:06:09.716Z</time></trkpt><trkpt lat="45.9707379" lon="10.9722599"><ele>566.8333333333334</ele><time>2026-04-10T10:06:11.717Z</time></trkpt><trkpt lat="45.970785" lon="10.9723381"><ele>567.0</ele><time>2026-04-10T10:06:13.717Z</time></trkpt><trkpt lat="45.970831" lon="10.9724085"><ele>568.0</ele><time>2026-04-10T10:06:15.717Z</time></trkpt><trkpt lat="45.9708769" lon="10.9724745"><ele>569.0</ele><time>2026-04-10T10:06:17.717Z</time></trkpt><trkpt lat="45.9709383" lon="10.9725761"><ele>570.0</ele><time>2026-04-10T10:06:19.717Z</time></trkpt><trkpt lat="45.9710113" lon="10.9726905"><ele>571.0</ele><time>2026-04-10T10:06:21.717Z</time></trkpt><trkpt lat="45.9710775" lon="10.9727867"><ele>572.0</ele><time>2026-04-10T10:06:23.717Z</time></trkpt><trkpt lat="45.9711404" lon="10.972898"><ele>572.0</ele><time>2026-04-10T10:06:25.717Z</time></trkpt><trkpt lat="45.9712027" lon="10.9729815"><ele>572.0</ele><time>2026-04-10T10:06:27.717Z</time></trkpt><trkpt lat="45.9712428" lon="10.9730576"><ele>572.0</ele><time>2026-04-10T10:06:41.718Z</time></trkpt><trkpt lat="45.9712734" lon="10.9729757"><ele>572.0</ele><time>2026-04-10T10:06:44.717Z</time></trkpt><trkpt lat="45.9712947" lon="10.972867"><ele>572.0</ele><time>2026-04-10T10:06:46.717Z</time></trkpt><trkpt lat="45.9713303" lon="10.9727428"><ele>572.0</ele><time>2026-04-10T10:06:48.717Z</time></trkpt><trkpt lat="45.971375" lon="10.9726164"><ele>572.0</ele><time>2026-04-10T10:06:50.717Z</time></trkpt><trkpt lat="45.9714199" lon="10.9725183"><ele>572.0</ele><time>2026-04-10T10:06:52.718Z</time></trkpt><trkpt lat="45.9715027" lon="10.9725226"><ele>572.0</ele><time>2026-04-10T10:07:00.718Z</time></trkpt><trkpt lat="45.9715637" lon="10.9725824"><ele>572.0</ele><time>2026-04-10T10:07:02.718Z</time></trkpt><trkpt lat="45.9716403" lon="10.9727251"><ele>572.0</ele><time>2026-04-10T10:07:04.718Z</time></trkpt><trkpt lat="45.9716822" lon="10.9728049"><ele>572.0</ele><time>2026-04-10T10:07:05.719Z</time></trkpt><trkpt lat="45.9717331" lon="10.9728893"><ele>572.3333333333333</ele><time>2026-04-10T10:07:06.718Z</time></trkpt><trkpt lat="45.971787" lon="10.972983"><ele>572.6666666666666</ele><time>2026-04-10T10:07:07.718Z</time></trkpt><trkpt lat="45.9718411" lon="10.9730759"><ele>573.0</ele><time>2026-04-10T10:07:08.718Z</time></trkpt><trkpt lat="45.9718976" lon="10.9731704"><ele>573.3333333333334</ele><time>2026-04-10T10:07:09.718Z</time></trkpt><trkpt lat="45.9719531" lon="10.9732683"><ele>573.6666666666667</ele><time>2026-04-10T10:07:10.718Z</time></trkpt><trkpt lat="45.9720142" lon="10.9733689"><ele>574.0</ele><time>2026-04-10T10:07:11.718Z</time></trkpt><trkpt lat="45.9720752" lon="10.97347"><ele>574.0</ele><time>2026-04-10T10:07:12.718Z</time></trkpt><trkpt lat="45.972138" lon="10.973571"><ele>574.0</ele><time>2026-04-10T10:07:13.718Z</time></trkpt><trkpt lat="45.972203" lon="10.973669"><ele>574.0</ele><time>2026-04-10T10:07:14.718Z</time></trkpt><trkpt lat="45.9722729" lon="10.9737678"><ele>574.0</ele><time>2026-04-10T10:07:15.718Z</time></trkpt><trkpt lat="45.9723494" lon="10.9738619"><ele>574.0</ele><time>2026-04-10T10:07:16.718Z</time></trkpt><trkpt lat="45.972426" lon="10.9739507"><ele>574.0</ele><time>2026-04-10T10:07:17.718Z</time></trkpt><trkpt lat="45.9725104" lon="10.974031"><ele>574.0</ele><time>2026-04-10T10:07:18.719Z</time></trkpt><trkpt lat="45.9726044" lon="10.9741093"><ele>574.0</ele><time>2026-04-10T10:07:19.718Z</time></trkpt><trkpt lat="45.9727051" lon="10.9741828"><ele>574.0</ele><time>2026-04-10T10:07:20.718Z</time></trkpt><trkpt lat="45.9728126" lon="10.9742543"><ele>574.0</ele><time>2026-04-10T10:07:21.718Z</time></trkpt><trkpt lat="45.9729269" lon="10.974319"><ele>574.75</ele><time>2026-04-10T10:07:22.718Z</time></trkpt><trkpt lat="45.9730464" lon="10.9743762"><ele>575.5</ele><time>2026-04-10T10:07:23.718Z</time></trkpt><trkpt lat="45.97317" lon="10.9744228"><ele>576.25</ele><time>2026-04-10T10:07:24.718Z</time></trkpt><trkpt lat="45.9733009" lon="10.9744606"><ele>577.0</ele><time>2026-04-10T10:07:25.718Z</time></trkpt><trkpt lat="45.9734377" lon="10.9745039"><ele>577.75</ele><time>2026-04-10T10:07:26.718Z</time></trkpt><trkpt lat="45.9735788" lon="10.9745588"><ele>578.5</ele><time>2026-04-10T10:07:27.718Z</time></trkpt><trkpt lat="45.9737187" lon="10.9746084"><ele>579.25</ele><time>2026-04-10T10:07:28.718Z</time></trkpt><trkpt lat="45.9738615" lon="10.9746548"><ele>580.0</ele><time>2026-04-10T10:07:29.718Z</time></trkpt><trkpt lat="45.9740036" lon="10.974696"><ele>580.0</ele><time>2026-04-10T10:07:30.719Z</time></trkpt><trkpt lat="45.9741354" lon="10.9747368"><ele>580.0</ele><time>2026-04-10T10:07:31.718Z</time></trkpt><trkpt lat="45.9742582" lon="10.9747745"><ele>580.0</ele><time>2026-04-10T10:07:32.718Z</time></trkpt><trkpt lat="45.9743675" lon="10.9748087"><ele>580.0</ele><time>2026-04-10T10:07:33.718Z</time></trkpt><trkpt lat="45.9744648" lon="10.9748442"><ele>580.6666666666667</ele><time>2026-04-10T10:07:34.718Z</time></trkpt><trkpt lat="45.9745429" lon="10.9748671"><ele>581.3333333333334</ele><time>2026-04-10T10:07:35.718Z</time></trkpt><trkpt lat="45.9746112" lon="10.9748602"><ele>582.0</ele><time>2026-04-10T10:07:36.72Z</time></trkpt><trkpt lat="45.9746984" lon="10.9747195"><ele>582.6666666666666</ele><time>2026-04-10T10:07:38.719Z</time></trkpt><trkpt lat="45.9747366" lon="10.974623"><ele>583.3333333333333</ele><time>2026-04-10T10:07:39.719Z</time></trkpt><trkpt lat="45.9747878" lon="10.9745329"><ele>584.0</ele><time>2026-04-10T10:07:40.719Z</time></trkpt><trkpt lat="45.9748436" lon="10.9744529"><ele>584.0</ele><time>2026-04-10T10:07:41.719Z</time></trkpt><trkpt lat="45.9749074" lon="10.9744"><ele>584.0</ele><time>2026-04-10T10:07:42.719Z</time></trkpt><trkpt lat="45.9749622" lon="10.9743395"><ele>584.0</ele><time>2026-04-10T10:07:43.719Z</time></trkpt><trkpt lat="45.9750062" lon="10.974214"><ele>584.0</ele><time>2026-04-10T10:07:45.719Z</time></trkpt><trkpt lat="45.9749389" lon="10.9741154"><ele>584.0</ele><time>2026-04-10T10:07:47.719Z</time></trkpt><trkpt lat="45.9748308" lon="10.9740237"><ele>584.6666666666666</ele><time>2026-04-10T10:07:49.72Z</time></trkpt><trkpt lat="45.9747136" lon="10.9739459"><ele>585.3333333333333</ele><time>2026-04-10T10:07:51.719Z</time></trkpt><trkpt lat="45.9746502" lon="10.973923"><ele>586.0</ele><time>2026-04-10T10:07:52.719Z</time></trkpt><trkpt lat="45.9745811" lon="10.9739145"><ele>586.6666666666666</ele><time>2026-04-10T10:07:53.719Z</time></trkpt><trkpt lat="45.9745136" lon="10.9739104"><ele>587.3333333333334</ele><time>2026-04-10T10:07:54.719Z</time></trkpt><trkpt lat="45.9744432" lon="10.9738976"><ele>588.0</ele><time>2026-04-10T10:07:55.719Z</time></trkpt><trkpt lat="45.9743771" lon="10.9738678"><ele>588.0</ele><time>2026-04-10T10:07:56.719Z</time></trkpt><trkpt lat="45.9743165" lon="10.9738177"><ele>588.0</ele><time>2026-04-10T10:07:57.719Z</time></trkpt><trkpt lat="45.9742587" lon="10.9737472"><ele>588.0</ele><time>2026-04-10T10:07:58.719Z</time></trkpt><trkpt lat="45.9741864" lon="10.9736701"><ele>588.0</ele><time>2026-04-10T10:07:59.719Z</time></trkpt><trkpt lat="45.9741022" lon="10.9735941"><ele>588.0</ele><time>2026-04-10T10:08:00.719Z</time></trkpt><trkpt lat="45.9740137" lon="10.9735133"><ele>588.0</ele><time>2026-04-10T10:08:01.72Z</time></trkpt><trkpt lat="45.9739219" lon="10.9734149"><ele>590.0</ele><time>2026-04-10T10:08:02.719Z</time></trkpt><trkpt lat="45.9738292" lon="10.9733044"><ele>592.0</ele><time>2026-04-10T10:08:03.719Z</time></trkpt><trkpt lat="45.9737345" lon="10.9731922"><ele>594.0</ele><time>2026-04-10T10:08:04.719Z</time></trkpt><trkpt lat="45.9736327" lon="10.9730815"><ele>596.0</ele><time>2026-04-10T10:08:05.719Z</time></trkpt><trkpt lat="45.9735285" lon="10.9729646"><ele>596.0</ele><time>2026-04-10T10:08:06.719Z</time></trkpt><trkpt lat="45.9734195" lon="10.9728478"><ele>596.0</ele><time>2026-04-10T10:08:07.719Z</time></trkpt><trkpt lat="45.9733039" lon="10.9727323"><ele>596.0</ele><time>2026-04-10T10:08:08.719Z</time></trkpt><trkpt lat="45.9731864" lon="10.9726174"><ele>596.0</ele><time>2026-04-10T10:08:09.719Z</time></trkpt><trkpt lat="45.9730709" lon="10.972499"><ele>597.25</ele><time>2026-04-10T10:08:10.719Z</time></trkpt><trkpt lat="45.9729515" lon="10.9723785"><ele>598.5</ele><time>2026-04-10T10:08:11.719Z</time></trkpt><trkpt lat="45.9728339" lon="10.9722639"><ele>599.75</ele><time>2026-04-10T10:08:12.719Z</time></trkpt><trkpt lat="45.9727228" lon="10.9721513"><ele>601.0</ele><time>2026-04-10T10:08:13.719Z</time></trkpt><trkpt lat="45.9726225" lon="10.9720343"><ele>601.0</ele><time>2026-04-10T10:08:14.719Z</time></trkpt><trkpt lat="45.9725376" lon="10.9719035"><ele>601.0</ele><time>2026-04-10T10:08:15.719Z</time></trkpt><trkpt lat="45.972459" lon="10.9717677"><ele>601.0</ele><time>2026-04-10T10:08:16.719Z</time></trkpt><trkpt lat="45.9723831" lon="10.9716306"><ele>601.0</ele><time>2026-04-10T10:08:17.719Z</time></trkpt><trkpt lat="45.9723104" lon="10.971492"><ele>601.25</ele><time>2026-04-10T10:08:18.72Z</time></trkpt><trkpt lat="45.9722341" lon="10.9713539"><ele>601.5</ele><time>2026-04-10T10:08:19.72Z</time></trkpt><trkpt lat="45.9721592" lon="10.9712115"><ele>601.75</ele><time>2026-04-10T10:08:20.72Z</time></trkpt><trkpt lat="45.9720934" lon="10.971077"><ele>602.0</ele><time>2026-04-10T10:08:21.72Z</time></trkpt><trkpt lat="45.9720308" lon="10.9709531"><ele>604.4285714285714</ele><time>2026-04-10T10:08:22.72Z</time></trkpt><trkpt lat="45.971989" lon="10.9708497"><ele>606.8571428571429</ele><time>2026-04-10T10:08:23.72Z</time></trkpt><trkpt lat="45.9719674" lon="10.9707417"><ele>609.2857142857142</ele><time>2026-04-10T10:08:24.72Z</time></trkpt><trkpt lat="45.9719791" lon="10.9706422"><ele>611.7142857142858</ele><time>2026-04-10T10:08:25.72Z</time></trkpt><trkpt lat="45.9720016" lon="10.9705518"><ele>614.1428571428571</ele><time>2026-04-10T10:08:26.72Z</time></trkpt><trkpt lat="45.9720221" lon="10.9704551"><ele>616.5714285714286</ele><time>2026-04-10T10:08:27.72Z</time></trkpt><trkpt lat="45.972043" lon="10.9703623"><ele>619.0</ele><time>2026-04-10T10:08:28.72Z</time></trkpt><trkpt lat="45.9720641" lon="10.9702744"><ele>619.0</ele><time>2026-04-10T10:08:29.72Z</time></trkpt><trkpt lat="45.9720887" lon="10.9701888"><ele>619.0</ele><time>2026-04-10T10:08:30.72Z</time></trkpt><trkpt lat="45.9721302" lon="10.9701056"><ele>619.0</ele><time>2026-04-10T10:08:31.72Z</time></trkpt><trkpt lat="45.97219" lon="10.9700328"><ele>619.0</ele><time>2026-04-10T10:08:32.721Z</time></trkpt><trkpt lat="45.9722496" lon="10.9699672"><ele>619.0</ele><time>2026-04-10T10:08:33.721Z</time></trkpt><trkpt lat="45.9722825" lon="10.9698881"><ele>619.0</ele><time>2026-04-10T10:08:34.72Z</time></trkpt><trkpt lat="45.9722858" lon="10.9697911"><ele>619.0</ele><time>2026-04-10T10:08:35.72Z</time></trkpt><trkpt lat="45.972257" lon="10.9696846"><ele>619.8</ele><time>2026-04-10T10:08:36.72Z</time></trkpt><trkpt lat="45.9722006" lon="10.9695848"><ele>620.5999999999999</ele><time>2026-04-10T10:08:37.72Z</time></trkpt><trkpt lat="45.9721321" lon="10.9694859"><ele>621.4</ele><time>2026-04-10T10:08:38.721Z</time></trkpt><trkpt lat="45.9720679" lon="10.9693813"><ele>622.1999999999999</ele><time>2026-04-10T10:08:39.721Z</time></trkpt><trkpt lat="45.9720009" lon="10.9692555"><ele>623.0</ele><time>2026-04-10T10:08:40.72Z</time></trkpt><trkpt lat="45.9719331" lon="10.9691273"><ele>624.4</ele><time>2026-04-10T10:08:41.721Z</time></trkpt><trkpt lat="45.9718652" lon="10.9689975"><ele>625.8</ele><time>2026-04-10T10:08:42.72Z</time></trkpt><trkpt lat="45.9717955" lon="10.9688731"><ele>627.2</ele><time>2026-04-10T10:08:43.72Z</time></trkpt><trkpt lat="45.9717293" lon="10.9687581"><ele>628.6</ele><time>2026-04-10T10:08:44.72Z</time></trkpt><trkpt lat="45.9716645" lon="10.9686507"><ele>630.0</ele><time>2026-04-10T10:08:45.72Z</time></trkpt><trkpt lat="45.9715987" lon="10.9685593"><ele>631.3333333333334</ele><time>2026-04-10T10:08:46.72Z</time></trkpt><trkpt lat="45.9715477" lon="10.9684978"><ele>632.6666666666666</ele><time>2026-04-10T10:08:47.72Z</time></trkpt><trkpt lat="45.9715011" lon="10.9683792"><ele>634.0</ele><time>2026-04-10T10:08:49.721Z</time></trkpt><trkpt lat="45.971538" lon="10.9682515"><ele>635.3333333333333</ele><time>2026-04-10T10:08:51.72Z</time></trkpt><trkpt lat="45.9716244" lon="10.9681496"><ele>636.6666666666666</ele><time>2026-04-10T10:08:53.72Z</time></trkpt><trkpt lat="45.9716872" lon="10.9681291"><ele>638.0</ele><time>2026-04-10T10:08:54.72Z</time></trkpt><trkpt lat="45.9717555" lon="10.9681282"><ele>638.0</ele><time>2026-04-10T10:08:55.72Z</time></trkpt><trkpt lat="45.9718195" lon="10.9681221"><ele>638.0</ele><time>2026-04-10T10:08:56.72Z</time></trkpt><trkpt lat="45.9718838" lon="10.9681091"><ele>638.0</ele><time>2026-04-10T10:08:57.72Z</time></trkpt><trkpt lat="45.9719723" lon="10.9679989"><ele>638.0</ele><time>2026-04-10T10:08:59.72Z</time></trkpt><trkpt lat="45.971987" lon="10.9678993"><ele>638.0</ele><time>2026-04-10T10:09:00.72Z</time></trkpt><trkpt lat="45.9719757" lon="10.96779"><ele>638.0</ele><time>2026-04-10T10:09:01.72Z</time></trkpt><trkpt lat="45.9719416" lon="10.9676813"><ele>638.0</ele><time>2026-04-10T10:09:02.721Z</time></trkpt><trkpt lat="45.9719024" lon="10.9675694"><ele>638.0</ele><time>2026-04-10T10:09:03.721Z</time></trkpt><trkpt lat="45.9718675" lon="10.9674445"><ele>638.0</ele><time>2026-04-10T10:09:04.721Z</time></trkpt><trkpt lat="45.971833" lon="10.9673008"><ele>638.0</ele><time>2026-04-10T10:09:05.721Z</time></trkpt><trkpt lat="45.971792" lon="10.967149"><ele>638.0</ele><time>2026-04-10T10:09:06.721Z</time></trkpt><trkpt lat="45.9717515" lon="10.967001"><ele>637.75</ele><time>2026-04-10T10:09:07.722Z</time></trkpt><trkpt lat="45.9717055" lon="10.9668596"><ele>637.5</ele><time>2026-04-10T10:09:08.721Z</time></trkpt><trkpt lat="45.9716589" lon="10.9667123"><ele>637.25</ele><time>2026-04-10T10:09:09.721Z</time></trkpt><trkpt lat="45.971614" lon="10.9665435"><ele>637.0</ele><time>2026-04-10T10:09:10.722Z</time></trkpt><trkpt lat="45.9715656" lon="10.9663604"><ele>637.0</ele><time>2026-04-10T10:09:11.721Z</time></trkpt><trkpt lat="45.9715123" lon="10.9661721"><ele>637.0</ele><time>2026-04-10T10:09:12.721Z</time></trkpt><trkpt lat="45.9714638" lon="10.9659909"><ele>637.0</ele><time>2026-04-10T10:09:13.721Z</time></trkpt><trkpt lat="45.971403" lon="10.9658204"><ele>637.0</ele><time>2026-04-10T10:09:14.722Z</time></trkpt><trkpt lat="45.9713265" lon="10.9656501"><ele>640.75</ele><time>2026-04-10T10:09:15.721Z</time></trkpt><trkpt lat="45.9712432" lon="10.9654932"><ele>644.5</ele><time>2026-04-10T10:09:16.721Z</time></trkpt><trkpt lat="45.9711691" lon="10.9653538"><ele>648.25</ele><time>2026-04-10T10:09:17.721Z</time></trkpt><trkpt lat="45.971093" lon="10.9652372"><ele>652.0</ele><time>2026-04-10T10:09:18.722Z</time></trkpt><trkpt lat="45.9710092" lon="10.9651242"><ele>650.75</ele><time>2026-04-10T10:09:19.721Z</time></trkpt><trkpt lat="45.9709138" lon="10.9650249"><ele>649.5</ele><time>2026-04-10T10:09:20.722Z</time></trkpt><trkpt lat="45.9708105" lon="10.9649527"><ele>648.25</ele><time>2026-04-10T10:09:21.721Z</time></trkpt><trkpt lat="45.9707008" lon="10.9648916"><ele>647.0</ele><time>2026-04-10T10:09:22.721Z</time></trkpt><trkpt lat="45.9705997" lon="10.9648591"><ele>647.0</ele><time>2026-04-10T10:09:23.721Z</time></trkpt><trkpt lat="45.9705107" lon="10.9648563"><ele>647.0</ele><time>2026-04-10T10:09:24.721Z</time></trkpt><trkpt lat="45.970433" lon="10.9648826"><ele>647.0</ele><time>2026-04-10T10:09:25.721Z</time></trkpt><trkpt lat="45.9703245" lon="10.9649078"><ele>647.0</ele><time>2026-04-10T10:09:27.721Z</time></trkpt><trkpt lat="45.9702155" lon="10.9648894"><ele>647.0</ele><time>2026-04-10T10:09:29.721Z</time></trkpt><trkpt lat="45.9701322" lon="10.9648382"><ele>647.0</ele><time>2026-04-10T10:09:31.721Z</time></trkpt><trkpt lat="45.9700453" lon="10.9647788"><ele>647.0</ele><time>2026-04-10T10:09:37.721Z</time></trkpt><trkpt lat="45.969948" lon="10.9647006"><ele>647.0</ele><time>2026-04-10T10:09:39.721Z</time></trkpt><trkpt lat="45.9698561" lon="10.9646045"><ele>647.0</ele><time>2026-04-10T10:09:41.721Z</time></trkpt><trkpt lat="45.9698016" lon="10.9645431"><ele>647.0</ele><time>2026-04-10T10:09:42.721Z</time></trkpt><trkpt lat="45.9697422" lon="10.9644757"><ele>647.8333333333333</ele><time>2026-04-10T10:09:43.722Z</time></trkpt><trkpt lat="45.969678" lon="10.9643962"><ele>648.6666666666666</ele><time>2026-04-10T10:09:44.722Z</time></trkpt><trkpt lat="45.9696135" lon="10.9643092"><ele>649.5</ele><time>2026-04-10T10:09:45.722Z</time></trkpt><trkpt lat="45.9695629" lon="10.9642152"><ele>650.3333333333334</ele><time>2026-04-10T10:09:46.722Z</time></trkpt><trkpt lat="45.9695189" lon="10.9641274"><ele>651.1666666666667</ele><time>2026-04-10T10:09:47.722Z</time></trkpt><trkpt lat="45.9694471" lon="10.9640256"><ele>652.0</ele><time>2026-04-10T10:09:48.722Z</time></trkpt><trkpt lat="45.9693599" lon="10.96391"><ele>652.0</ele><time>2026-04-10T10:09:49.722Z</time></trkpt><trkpt lat="45.9692616" lon="10.9637901"><ele>652.0</ele><time>2026-04-10T10:09:50.722Z</time></trkpt><trkpt lat="45.9691663" lon="10.9636727"><ele>652.0</ele><time>2026-04-10T10:09:51.722Z</time></trkpt><trkpt lat="45.969068" lon="10.9635519"><ele>652.0</ele><time>2026-04-10T10:09:52.722Z</time></trkpt><trkpt lat="45.9689636" lon="10.9634287"><ele>653.5</ele><time>2026-04-10T10:09:53.722Z</time></trkpt><trkpt lat="45.9688662" lon="10.963304"><ele>655.0</ele><time>2026-04-10T10:09:54.722Z</time></trkpt><trkpt lat="45.9687854" lon="10.9631681"><ele>656.5</ele><time>2026-04-10T10:09:55.723Z</time></trkpt><trkpt lat="45.9687184" lon="10.9630381"><ele>658.0</ele><time>2026-04-10T10:09:56.722Z</time></trkpt><trkpt lat="45.9686645" lon="10.9629238"><ele>658.0</ele><time>2026-04-10T10:09:57.723Z</time></trkpt><trkpt lat="45.9686192" lon="10.962809"><ele>658.0</ele><time>2026-04-10T10:09:58.722Z</time></trkpt><trkpt lat="45.9685822" lon="10.9626935"><ele>658.0</ele><time>2026-04-10T10:09:59.722Z</time></trkpt><trkpt lat="45.9685589" lon="10.9625897"><ele>658.0</ele><time>2026-04-10T10:10:00.722Z</time></trkpt><trkpt lat="45.9685667" lon="10.9624399"><ele>658.0</ele><time>2026-04-10T10:10:02.722Z</time></trkpt><trkpt lat="45.9686687" lon="10.9624181"><ele>659.5</ele><time>2026-04-10T10:10:04.722Z</time></trkpt><trkpt lat="45.9687491" lon="10.9624134"><ele>661.0</ele><time>2026-04-10T10:10:05.722Z</time></trkpt><trkpt lat="45.9688359" lon="10.962387"><ele>662.5</ele><time>2026-04-10T10:10:06.722Z</time></trkpt><trkpt lat="45.9689167" lon="10.9623376"><ele>664.0</ele><time>2026-04-10T10:10:07.722Z</time></trkpt><trkpt lat="45.9689985" lon="10.9622763"><ele>665.5</ele><time>2026-04-10T10:10:08.722Z</time></trkpt><trkpt lat="45.9690664" lon="10.9621969"><ele>667.0</ele><time>2026-04-10T10:10:09.722Z</time></trkpt><trkpt lat="45.9691001" lon="10.9620848"><ele>667.0</ele><time>2026-04-10T10:10:10.722Z</time></trkpt><trkpt lat="45.9691061" lon="10.9619619"><ele>667.0</ele><time>2026-04-10T10:10:11.722Z</time></trkpt><trkpt lat="45.9690985" lon="10.9618459"><ele>667.0</ele><time>2026-04-10T10:10:12.722Z</time></trkpt><trkpt lat="45.9690983" lon="10.9617426"><ele>667.0</ele><time>2026-04-10T10:10:13.723Z</time></trkpt><trkpt lat="45.9691207" lon="10.9616434"><ele>667.0</ele><time>2026-04-10T10:10:15.722Z</time></trkpt><trkpt lat="45.9691749" lon="10.9617737"><ele>667.0</ele><time>2026-04-10T10:10:18.723Z</time></trkpt><trkpt lat="45.9691955" lon="10.961866"><ele>668.1666666666667</ele><time>2026-04-10T10:10:19.722Z</time></trkpt><trkpt lat="45.9692162" lon="10.9619574"><ele>669.3333333333334</ele><time>2026-04-10T10:10:20.722Z</time></trkpt><trkpt lat="45.9692469" lon="10.962062"><ele>670.5</ele><time>2026-04-10T10:10:21.722Z</time></trkpt><trkpt lat="45.9692822" lon="10.9621758"><ele>671.6666666666666</ele><time>2026-04-10T10:10:22.722Z</time></trkpt><trkpt lat="45.9693166" lon="10.9622752"><ele>672.8333333333333</ele><time>2026-04-10T10:10:23.722Z</time></trkpt><trkpt lat="45.9693564" lon="10.9624415"><ele>674.0</ele><time>2026-04-10T10:10:25.723Z</time></trkpt><trkpt lat="45.9694207" lon="10.9625719"><ele>674.0</ele><time>2026-04-10T10:10:27.723Z</time></trkpt><trkpt lat="45.9694871" lon="10.9626151"><ele>674.0</ele><time>2026-04-10T10:10:28.723Z</time></trkpt><trkpt lat="45.9695665" lon="10.9626615"><ele>674.0</ele><time>2026-04-10T10:10:29.723Z</time></trkpt><trkpt lat="45.9696488" lon="10.9627249"><ele>674.0</ele><time>2026-04-10T10:10:30.723Z</time></trkpt><trkpt lat="45.9697291" lon="10.9628099"><ele>674.0</ele><time>2026-04-10T10:10:31.723Z</time></trkpt><trkpt lat="45.9698072" lon="10.962902"><ele>674.0</ele><time>2026-04-10T10:10:32.723Z</time></trkpt><trkpt lat="45.9698872" lon="10.9629957"><ele>674.0</ele><time>2026-04-10T10:10:33.723Z</time></trkpt><trkpt lat="45.9699707" lon="10.9630709"><ele>674.0</ele><time>2026-04-10T10:10:34.723Z</time></trkpt><trkpt lat="45.9700374" lon="10.9631331"><ele>674.0</ele><time>2026-04-10T10:10:35.723Z</time></trkpt><trkpt lat="45.9700974" lon="10.9631616"><ele>674.0</ele><time>2026-04-10T10:10:36.723Z</time></trkpt><trkpt lat="45.9701705" lon="10.9631789"><ele>674.0</ele><time>2026-04-10T10:10:37.724Z</time></trkpt><trkpt lat="45.9702543" lon="10.9631786"><ele>677.2</ele><time>2026-04-10T10:10:38.723Z</time></trkpt><trkpt lat="45.9703395" lon="10.9631786"><ele>680.4000000000001</ele><time>2026-04-10T10:10:39.723Z</time></trkpt><trkpt lat="45.9704318" lon="10.9631842"><ele>683.6</ele><time>2026-04-10T10:10:40.723Z</time></trkpt><trkpt lat="45.9705281" lon="10.9632084"><ele>686.8</ele><time>2026-04-10T10:10:41.723Z</time></trkpt><trkpt lat="45.9706258" lon="10.963253"><ele>690.0</ele><time>2026-04-10T10:10:42.723Z</time></trkpt><trkpt lat="45.9707255" lon="10.9633145"><ele>689.4</ele><time>2026-04-10T10:10:43.723Z</time></trkpt><trkpt lat="45.9708137" lon="10.9633869"><ele>688.8</ele><time>2026-04-10T10:10:44.723Z</time></trkpt><trkpt lat="45.9709013" lon="10.9634558"><ele>688.2</ele><time>2026-04-10T10:10:45.723Z</time></trkpt><trkpt lat="45.9709897" lon="10.9635277"><ele>687.6</ele><time>2026-04-10T10:10:46.723Z</time></trkpt><trkpt lat="45.9710685" lon="10.9635903"><ele>687.0</ele><time>2026-04-10T10:10:47.724Z</time></trkpt><trkpt lat="45.9711307" lon="10.9636326"><ele>687.0</ele><time>2026-04-10T10:10:48.723Z</time></trkpt><trkpt lat="45.971244" lon="10.9636357"><ele>687.0</ele><time>2026-04-10T10:10:50.723Z</time></trkpt><trkpt lat="45.9713099" lon="10.9636045"><ele>687.0</ele><time>2026-04-10T10:10:51.724Z</time></trkpt><trkpt lat="45.9713836" lon="10.9635748"><ele>687.0</ele><time>2026-04-10T10:10:52.724Z</time></trkpt><trkpt lat="45.9714531" lon="10.9635477"><ele>687.0</ele><time>2026-04-10T10:10:53.723Z</time></trkpt><trkpt lat="45.971527" lon="10.9635238"><ele>687.0</ele><time>2026-04-10T10:10:54.723Z</time></trkpt><trkpt lat="45.9715996" lon="10.9634847"><ele>687.0</ele><time>2026-04-10T10:10:55.723Z</time></trkpt><trkpt lat="45.9716641" lon="10.963405"><ele>687.0</ele><time>2026-04-10T10:10:56.723Z</time></trkpt><trkpt lat="45.9717081" lon="10.9633113"><ele>687.0</ele><time>2026-04-10T10:10:57.723Z</time></trkpt><trkpt lat="45.9717352" lon="10.9632107"><ele>687.0</ele><time>2026-04-10T10:10:58.723Z</time></trkpt><trkpt lat="45.9717391" lon="10.9631039"><ele>687.0</ele><time>2026-04-10T10:10:59.723Z</time></trkpt><trkpt lat="45.9717228" lon="10.9629875"><ele>687.0</ele><time>2026-04-10T10:11:00.723Z</time></trkpt><trkpt lat="45.9717104" lon="10.9628798"><ele>691.8</ele><time>2026-04-10T10:11:01.723Z</time></trkpt><trkpt lat="45.9717339" lon="10.9627094"><ele>696.6</ele><time>2026-04-10T10:11:03.723Z</time></trkpt><trkpt lat="45.9717575" lon="10.9625595"><ele>701.4</ele><time>2026-04-10T10:11:05.723Z</time></trkpt><trkpt lat="45.9717746" lon="10.9624283"><ele>706.1999999999999</ele><time>2026-04-10T10:11:07.723Z</time></trkpt><trkpt lat="45.9717885" lon="10.9623323"><ele>711.0</ele><time>2026-04-10T10:11:14.724Z</time></trkpt><trkpt lat="45.9718066" lon="10.9622292"><ele>713.8</ele><time>2026-04-10T10:11:16.724Z</time></trkpt><trkpt lat="45.9718409" lon="10.9620842"><ele>716.5999999999999</ele><time>2026-04-10T10:11:18.724Z</time></trkpt><trkpt lat="45.9718879" lon="10.9619183"><ele>719.4</ele><time>2026-04-10T10:11:20.724Z</time></trkpt><trkpt lat="45.9719017" lon="10.961809"><ele>722.2</ele><time>2026-04-10T10:11:21.724Z</time></trkpt><trkpt lat="45.9719096" lon="10.9617046"><ele>725.0</ele><time>2026-04-10T10:11:22.724Z</time></trkpt><trkpt lat="45.9719139" lon="10.961597"><ele>726.1666666666666</ele><time>2026-04-10T10:11:23.724Z</time></trkpt><trkpt lat="45.9719219" lon="10.9614841"><ele>727.3333333333333</ele><time>2026-04-10T10:11:24.724Z</time></trkpt><trkpt lat="45.971932" lon="10.9613578"><ele>728.5</ele><time>2026-04-10T10:11:25.724Z</time></trkpt><trkpt lat="45.9719435" lon="10.9612268"><ele>729.6666666666666</ele><time>2026-04-10T10:11:26.724Z</time></trkpt><trkpt lat="45.9719533" lon="10.9611043"><ele>730.8333333333334</ele><time>2026-04-10T10:11:27.724Z</time></trkpt><trkpt lat="45.9719653" lon="10.961"><ele>732.0</ele><time>2026-04-10T10:11:28.724Z</time></trkpt><trkpt lat="45.9719818" lon="10.9609045"><ele>732.0</ele><time>2026-04-10T10:11:29.725Z</time></trkpt><trkpt lat="45.9720009" lon="10.9608109"><ele>732.0</ele><time>2026-04-10T10:11:30.724Z</time></trkpt><trkpt lat="45.9720281" lon="10.9607063"><ele>732.0</ele><time>2026-04-10T10:11:31.724Z</time></trkpt><trkpt lat="45.972047" lon="10.9606155"><ele>732.0</ele><time>2026-04-10T10:11:32.725Z</time></trkpt><trkpt lat="45.9720859" lon="10.9605292"><ele>732.0</ele><time>2026-04-10T10:11:33.724Z</time></trkpt><trkpt lat="45.9721188" lon="10.9604372"><ele>732.0</ele><time>2026-04-10T10:11:34.724Z</time></trkpt><trkpt lat="45.9721353" lon="10.9603328"><ele>732.0</ele><time>2026-04-10T10:11:35.725Z</time></trkpt><trkpt lat="45.9721449" lon="10.9602299"><ele>732.0</ele><time>2026-04-10T10:11:36.724Z</time></trkpt><trkpt lat="45.9721513" lon="10.9601328"><ele>732.0</ele><time>2026-04-10T10:11:37.724Z</time></trkpt><trkpt lat="45.9721553" lon="10.9600363"><ele>732.0</ele><time>2026-04-10T10:11:38.724Z</time></trkpt><trkpt lat="45.9721659" lon="10.9599421"><ele>732.0</ele><time>2026-04-10T10:11:39.724Z</time></trkpt><trkpt lat="45.9721787" lon="10.9598512"><ele>732.0</ele><time>2026-04-10T10:11:40.724Z</time></trkpt><trkpt lat="45.9722033" lon="10.959762"><ele>732.0</ele><time>2026-04-10T10:11:41.724Z</time></trkpt><trkpt lat="45.9722441" lon="10.9596774"><ele>732.0</ele><time>2026-04-10T10:11:42.724Z</time></trkpt><trkpt lat="45.972291" lon="10.9596004"><ele>730.7142857142858</ele><time>2026-04-10T10:11:43.724Z</time></trkpt><trkpt lat="45.9723365" lon="10.9595306"><ele>729.4285714285714</ele><time>2026-04-10T10:11:44.724Z</time></trkpt><trkpt lat="45.9723796" lon="10.9594604"><ele>728.1428571428571</ele><time>2026-04-10T10:11:45.724Z</time></trkpt><trkpt lat="45.9724228" lon="10.9593897"><ele>726.8571428571429</ele><time>2026-04-10T10:11:46.724Z</time></trkpt><trkpt lat="45.9724606" lon="10.9593119"><ele>725.5714285714286</ele><time>2026-04-10T10:11:47.724Z</time></trkpt><trkpt lat="45.9725258" lon="10.9591827"><ele>724.2857142857143</ele><time>2026-04-10T10:11:49.724Z</time></trkpt><trkpt lat="45.9725674" lon="10.9591064"><ele>723.0</ele><time>2026-04-10T10:11:50.724Z</time></trkpt><trkpt lat="45.9726431" lon="10.9589665"><ele>725.2</ele><time>2026-04-10T10:11:52.725Z</time></trkpt><trkpt lat="45.9727132" lon="10.9588161"><ele>727.4</ele><time>2026-04-10T10:11:54.726Z</time></trkpt><trkpt lat="45.972761" lon="10.9586633"><ele>729.6</ele><time>2026-04-10T10:11:56.725Z</time></trkpt><trkpt lat="45.9728036" lon="10.9585096"><ele>731.8000000000001</ele><time>2026-04-10T10:11:58.725Z</time></trkpt><trkpt lat="45.9728274" lon="10.9584205"><ele>734.0</ele><time>2026-04-10T10:11:59.725Z</time></trkpt><trkpt lat="45.9728536" lon="10.9583298"><ele>734.0</ele><time>2026-04-10T10:12:00.725Z</time></trkpt><trkpt lat="45.9728804" lon="10.9582363"><ele>734.0</ele><time>2026-04-10T10:12:01.726Z</time></trkpt><trkpt lat="45.9728986" lon="10.9581368"><ele>734.0</ele><time>2026-04-10T10:12:02.725Z</time></trkpt><trkpt lat="45.9729327" lon="10.9580504"><ele>734.0</ele><time>2026-04-10T10:12:03.725Z</time></trkpt><trkpt lat="45.9729623" lon="10.9579593"><ele>734.0</ele><time>2026-04-10T10:12:04.725Z</time></trkpt><trkpt lat="45.972997" lon="10.9578749"><ele>734.0</ele><time>2026-04-10T10:12:05.725Z</time></trkpt><trkpt lat="45.9730319" lon="10.9577982"><ele>734.0</ele><time>2026-04-10T10:12:06.725Z</time></trkpt><trkpt lat="45.9730945" lon="10.9576509"><ele>732.5</ele><time>2026-04-10T10:12:08.725Z</time></trkpt><trkpt lat="45.97317" lon="10.9575016"><ele>731.0</ele><time>2026-04-10T10:12:10.726Z</time></trkpt><trkpt lat="45.9732177" lon="10.9574241"><ele>729.5</ele><time>2026-04-10T10:12:11.726Z</time></trkpt><trkpt lat="45.9732675" lon="10.9573491"><ele>728.0</ele><time>2026-04-10T10:12:12.725Z</time></trkpt><trkpt lat="45.9733207" lon="10.9572637"><ele>726.5</ele><time>2026-04-10T10:12:13.725Z</time></trkpt><trkpt lat="45.9733713" lon="10.9571837"><ele>725.0</ele><time>2026-04-10T10:12:14.725Z</time></trkpt><trkpt lat="45.9734173" lon="10.9571042"><ele>728.8333333333333</ele><time>2026-04-10T10:12:15.725Z</time></trkpt><trkpt lat="45.9734655" lon="10.9570291"><ele>732.6666666666666</ele><time>2026-04-10T10:12:16.725Z</time></trkpt><trkpt lat="45.9735435" lon="10.9569118"><ele>736.5</ele><time>2026-04-10T10:12:18.725Z</time></trkpt><trkpt lat="45.9736034" lon="10.9567813"><ele>740.3333333333334</ele><time>2026-04-10T10:12:20.726Z</time></trkpt><trkpt lat="45.9736149" lon="10.9566911"><ele>744.1666666666667</ele><time>2026-04-10T10:12:21.725Z</time></trkpt><trkpt lat="45.9736225" lon="10.9565999"><ele>748.0</ele><time>2026-04-10T10:12:22.725Z</time></trkpt><trkpt lat="45.9736308" lon="10.9565101"><ele>748.0</ele><time>2026-04-10T10:12:23.725Z</time></trkpt><trkpt lat="45.9736494" lon="10.9564192"><ele>748.0</ele><time>2026-04-10T10:12:24.725Z</time></trkpt><trkpt lat="45.9736998" lon="10.9562565"><ele>748.0</ele><time>2026-04-10T10:12:26.725Z</time></trkpt><trkpt lat="45.9737327" lon="10.9561737"><ele>748.0</ele><time>2026-04-10T10:12:27.725Z</time></trkpt><trkpt lat="45.9737794" lon="10.9560243"><ele>748.0</ele><time>2026-04-10T10:12:29.725Z</time></trkpt><trkpt lat="45.973818" lon="10.9559488"><ele>748.0</ele><time>2026-04-10T10:12:31.725Z</time></trkpt><trkpt lat="45.9738775" lon="10.955848"><ele>746.5999999999999</ele><time>2026-04-10T10:12:34.726Z</time></trkpt><trkpt lat="45.9739404" lon="10.955789"><ele>745.1999999999999</ele><time>2026-04-10T10:12:36.726Z</time></trkpt><trkpt lat="45.9740172" lon="10.9557201"><ele>743.8</ele><time>2026-04-10T10:12:38.726Z</time></trkpt><trkpt lat="45.9740507" lon="10.9555483"><ele>742.4</ele><time>2026-04-10T10:12:40.726Z</time></trkpt><trkpt lat="45.9740263" lon="10.9553738"><ele>741.0</ele><time>2026-04-10T10:12:42.726Z</time></trkpt><trkpt lat="45.9739872" lon="10.9552764"><ele>741.0</ele><time>2026-04-10T10:12:43.726Z</time></trkpt><trkpt lat="45.9739471" lon="10.9551963"><ele>741.0</ele><time>2026-04-10T10:12:44.727Z</time></trkpt><trkpt lat="45.9738626" lon="10.9550676"><ele>741.0</ele><time>2026-04-10T10:12:46.726Z</time></trkpt><trkpt lat="45.9738129" lon="10.9549311"><ele>741.0</ele><time>2026-04-10T10:12:48.726Z</time></trkpt><trkpt lat="45.9738379" lon="10.9548287"><ele>741.0</ele><time>2026-04-10T10:12:50.726Z</time></trkpt><trkpt lat="45.9738917" lon="10.9547566"><ele>741.0</ele><time>2026-04-10T10:12:53.726Z</time></trkpt><trkpt lat="45.9739863" lon="10.9547186"><ele>737.8</ele><time>2026-04-10T10:13:01.726Z</time></trkpt><trkpt lat="45.9740854" lon="10.9546828"><ele>734.5999999999999</ele><time>2026-04-10T10:13:03.726Z</time></trkpt><trkpt lat="45.9741907" lon="10.9546507"><ele>731.4</ele><time>2026-04-10T10:13:05.727Z</time></trkpt><trkpt lat="45.9742881" lon="10.954623"><ele>728.2</ele><time>2026-04-10T10:13:07.726Z</time></trkpt><trkpt lat="45.9743843" lon="10.954609"><ele>725.0</ele><time>2026-04-10T10:13:09.726Z</time></trkpt><trkpt lat="45.9744744" lon="10.9546066"><ele>724.1666666666666</ele><time>2026-04-10T10:13:11.726Z</time></trkpt><trkpt lat="45.9745543" lon="10.9545797"><ele>723.3333333333333</ele><time>2026-04-10T10:13:13.726Z</time></trkpt><trkpt lat="45.9746167" lon="10.9545581"><ele>722.5</ele><time>2026-04-10T10:13:15.727Z</time></trkpt><trkpt lat="45.9747145" lon="10.9545436"><ele>721.6666666666666</ele><time>2026-04-10T10:13:18.727Z</time></trkpt><trkpt lat="45.9747992" lon="10.9545272"><ele>720.8333333333334</ele><time>2026-04-10T10:13:20.728Z</time></trkpt><trkpt lat="45.974873" lon="10.9545253"><ele>720.0</ele><time>2026-04-10T10:13:22.727Z</time></trkpt><trkpt lat="45.9749395" lon="10.9545612"><ele>720.0</ele><time>2026-04-10T10:13:24.727Z</time></trkpt><trkpt lat="45.9750116" lon="10.9546242"><ele>720.0</ele><time>2026-04-10T10:13:26.727Z</time></trkpt><trkpt lat="45.975088" lon="10.9546902"><ele>720.0</ele><time>2026-04-10T10:13:28.727Z</time></trkpt><trkpt lat="45.9751506" lon="10.9547246"><ele>720.0</ele><time>2026-04-10T10:13:30.727Z</time></trkpt><trkpt lat="45.9752355" lon="10.9547829"><ele>720.0</ele><time>2026-04-10T10:13:33.819Z</time></trkpt><trkpt lat="45.9753039" lon="10.9548038"><ele>720.0</ele><time>2026-04-10T10:13:35.755Z</time></trkpt><trkpt lat="45.9753756" lon="10.9548189"><ele>717.8333333333334</ele><time>2026-04-10T10:13:37.781Z</time></trkpt><trkpt lat="45.9754397" lon="10.9548316"><ele>715.6666666666666</ele><time>2026-04-10T10:13:39.807Z</time></trkpt><trkpt lat="45.9754991" lon="10.9548643"><ele>713.5</ele><time>2026-04-10T10:13:41.697Z</time></trkpt><trkpt lat="45.9755626" lon="10.9549079"><ele>711.3333333333333</ele><time>2026-04-10T10:13:43.741Z</time></trkpt><trkpt lat="45.9756356" lon="10.9549552"><ele>709.1666666666666</ele><time>2026-04-10T10:13:45.719Z</time></trkpt><trkpt lat="45.9757058" lon="10.9549865"><ele>707.0</ele><time>2026-04-10T10:13:47.793Z</time></trkpt><trkpt lat="45.9758089" lon="10.9550383"><ele>709.4000000000001</ele><time>2026-04-10T10:13:49.727Z</time></trkpt><trkpt lat="45.9758903" lon="10.9550733"><ele>711.8000000000001</ele><time>2026-04-10T10:13:51.727Z</time></trkpt><trkpt lat="45.9759918" lon="10.9550759"><ele>714.2</ele><time>2026-04-10T10:13:53.727Z</time></trkpt><trkpt lat="45.9761101" lon="10.955063"><ele>716.6</ele><time>2026-04-10T10:13:55.727Z</time></trkpt><trkpt lat="45.9762271" lon="10.9550435"><ele>719.0</ele><time>2026-04-10T10:13:57.727Z</time></trkpt><trkpt lat="45.9763409" lon="10.9550384"><ele>719.0</ele><time>2026-04-10T10:13:59.728Z</time></trkpt><trkpt lat="45.9764077" lon="10.9550311"><ele>719.0</ele><time>2026-04-10T10:14:00.728Z</time></trkpt><trkpt lat="45.9764873" lon="10.9550513"><ele>719.0</ele><time>2026-04-10T10:14:01.728Z</time></trkpt><trkpt lat="45.9765733" lon="10.955084"><ele>719.0</ele><time>2026-04-10T10:14:02.728Z</time></trkpt><trkpt lat="45.9766584" lon="10.9551186"><ele>719.0</ele><time>2026-04-10T10:14:03.728Z</time></trkpt><trkpt lat="45.9767518" lon="10.9551653"><ele>719.0</ele><time>2026-04-10T10:14:04.728Z</time></trkpt><trkpt lat="45.9768392" lon="10.9552102"><ele>714.5</ele><time>2026-04-10T10:14:05.728Z</time></trkpt><trkpt lat="45.976918" lon="10.9552483"><ele>710.0</ele><time>2026-04-10T10:14:06.728Z</time></trkpt><trkpt lat="45.9769883" lon="10.9552803"><ele>705.5</ele><time>2026-04-10T10:14:07.729Z</time></trkpt><trkpt lat="45.9770511" lon="10.9553111"><ele>701.0</ele><time>2026-04-10T10:14:08.728Z</time></trkpt><trkpt lat="45.9771602" lon="10.9553983"><ele>696.5</ele><time>2026-04-10T10:14:10.728Z</time></trkpt><trkpt lat="45.9772206" lon="10.9554501"><ele>692.0</ele><time>2026-04-10T10:14:11.728Z</time></trkpt><trkpt lat="45.9772841" lon="10.9554941"><ele>692.0</ele><time>2026-04-10T10:14:12.728Z</time></trkpt><trkpt lat="45.9773984" lon="10.9555608"><ele>692.0</ele><time>2026-04-10T10:14:14.728Z</time></trkpt><trkpt lat="45.9774568" lon="10.955597"><ele>692.0</ele><time>2026-04-10T10:14:15.728Z</time></trkpt><trkpt lat="45.9775253" lon="10.9556361"><ele>692.0</ele><time>2026-04-10T10:14:16.729Z</time></trkpt><trkpt lat="45.9776092" lon="10.9556675"><ele>692.0</ele><time>2026-04-10T10:14:17.728Z</time></trkpt><trkpt lat="45.977698" lon="10.9556874"><ele>692.0</ele><time>2026-04-10T10:14:18.728Z</time></trkpt><trkpt lat="45.9777782" lon="10.9557079"><ele>692.8333333333333</ele><time>2026-04-10T10:14:19.728Z</time></trkpt><trkpt lat="45.9778452" lon="10.9557377"><ele>693.6666666666666</ele><time>2026-04-10T10:14:20.728Z</time></trkpt><trkpt lat="45.9779022" lon="10.9557779"><ele>694.5</ele><time>2026-04-10T10:14:21.729Z</time></trkpt><trkpt lat="45.9779907" lon="10.955838"><ele>695.3333333333334</ele><time>2026-04-10T10:14:23.728Z</time></trkpt><trkpt lat="45.9780549" lon="10.9558809"><ele>696.1666666666667</ele><time>2026-04-10T10:14:25.728Z</time></trkpt><trkpt lat="45.9780968" lon="10.9559716"><ele>697.0</ele><time>2026-04-10T10:14:30.728Z</time></trkpt><trkpt lat="45.978179" lon="10.9560443"><ele>697.0</ele><time>2026-04-10T10:14:32.728Z</time></trkpt><trkpt lat="45.9782396" lon="10.9560828"><ele>697.0</ele><time>2026-04-10T10:14:33.728Z</time></trkpt><trkpt lat="45.9783071" lon="10.9561112"><ele>697.0</ele><time>2026-04-10T10:14:34.728Z</time></trkpt><trkpt lat="45.9783847" lon="10.956131"><ele>697.0</ele><time>2026-04-10T10:14:35.729Z</time></trkpt><trkpt lat="45.9784639" lon="10.9561404"><ele>697.0</ele><time>2026-04-10T10:14:36.728Z</time></trkpt><trkpt lat="45.9785464" lon="10.9561459"><ele>697.0</ele><time>2026-04-10T10:14:37.728Z</time></trkpt><trkpt lat="45.9786305" lon="10.9561544"><ele>694.6666666666667</ele><time>2026-04-10T10:14:38.728Z</time></trkpt><trkpt lat="45.9787153" lon="10.9561631"><ele>692.3333333333334</ele><time>2026-04-10T10:14:39.728Z</time></trkpt><trkpt lat="45.978805" lon="10.9561698"><ele>690.0</ele><time>2026-04-10T10:14:40.729Z</time></trkpt><trkpt lat="45.9788954" lon="10.9561713"><ele>687.6666666666666</ele><time>2026-04-10T10:14:41.729Z</time></trkpt><trkpt lat="45.9789809" lon="10.9561653"><ele>685.3333333333333</ele><time>2026-04-10T10:14:42.729Z</time></trkpt><trkpt lat="45.9790629" lon="10.956159"><ele>683.0</ele><time>2026-04-10T10:14:43.729Z</time></trkpt><trkpt lat="45.9791412" lon="10.9561419"><ele>681.5</ele><time>2026-04-10T10:14:44.729Z</time></trkpt><trkpt lat="45.9792266" lon="10.9561308"><ele>680.0</ele><time>2026-04-10T10:14:45.729Z</time></trkpt><trkpt lat="45.9793085" lon="10.9561345"><ele>678.5</ele><time>2026-04-10T10:14:46.73Z</time></trkpt><trkpt lat="45.9793849" lon="10.9561397"><ele>677.0</ele><time>2026-04-10T10:14:47.729Z</time></trkpt><trkpt lat="45.9794607" lon="10.9561513"><ele>675.5</ele><time>2026-04-10T10:14:48.729Z</time></trkpt><trkpt lat="45.9795228" lon="10.9561743"><ele>674.0</ele><time>2026-04-10T10:14:49.729Z</time></trkpt><trkpt lat="45.9795874" lon="10.9562249"><ele>674.0</ele><time>2026-04-10T10:14:50.73Z</time></trkpt><trkpt lat="45.9796628" lon="10.9562775"><ele>674.0</ele><time>2026-04-10T10:14:51.729Z</time></trkpt><trkpt lat="45.9797457" lon="10.9563237"><ele>674.0</ele><time>2026-04-10T10:14:52.729Z</time></trkpt><trkpt lat="45.9798284" lon="10.9563433"><ele>674.0</ele><time>2026-04-10T10:14:53.729Z</time></trkpt><trkpt lat="45.9799094" lon="10.9563373"><ele>674.0</ele><time>2026-04-10T10:14:54.729Z</time></trkpt><trkpt lat="45.9799887" lon="10.956323"><ele>674.0</ele><time>2026-04-10T10:14:55.729Z</time></trkpt><trkpt lat="45.9800658" lon="10.9562816"><ele>673.3333333333333</ele><time>2026-04-10T10:14:56.729Z</time></trkpt><trkpt lat="45.9801408" lon="10.9562146"><ele>672.6666666666666</ele><time>2026-04-10T10:14:57.729Z</time></trkpt><trkpt lat="45.9802091" lon="10.9561395"><ele>672.0</ele><time>2026-04-10T10:14:58.729Z</time></trkpt><trkpt lat="45.9802724" lon="10.9560737"><ele>671.3333333333334</ele><time>2026-04-10T10:14:59.729Z</time></trkpt><trkpt lat="45.9803331" lon="10.9560236"><ele>670.6666666666667</ele><time>2026-04-10T10:15:00.729Z</time></trkpt><trkpt lat="45.9804011" lon="10.9559957"><ele>670.0</ele><time>2026-04-10T10:15:01.729Z</time></trkpt><trkpt lat="45.9804721" lon="10.9559772"><ele>670.0</ele><time>2026-04-10T10:15:02.729Z</time></trkpt><trkpt lat="45.9805462" lon="10.9559668"><ele>670.0</ele><time>2026-04-10T10:15:03.729Z</time></trkpt><trkpt lat="45.9806148" lon="10.9559546"><ele>670.0</ele><time>2026-04-10T10:15:04.73Z</time></trkpt><trkpt lat="45.9807358" lon="10.955944"><ele>670.0</ele><time>2026-04-10T10:15:06.729Z</time></trkpt><trkpt lat="45.9808556" lon="10.9559154"><ele>670.0</ele><time>2026-04-10T10:15:08.729Z</time></trkpt><trkpt lat="45.9809667" lon="10.9558714"><ele>667.5</ele><time>2026-04-10T10:15:10.729Z</time></trkpt><trkpt lat="45.9810809" lon="10.9558886"><ele>665.0</ele><time>2026-04-10T10:15:12.729Z</time></trkpt><trkpt lat="45.9811997" lon="10.9559389"><ele>662.5</ele><time>2026-04-10T10:15:14.729Z</time></trkpt><trkpt lat="45.9813161" lon="10.9559857"><ele>660.0</ele><time>2026-04-10T10:15:16.729Z</time></trkpt><trkpt lat="45.9814141" lon="10.9560749"><ele>660.0</ele><time>2026-04-10T10:15:18.729Z</time></trkpt><trkpt lat="45.9814918" lon="10.9561746"><ele>660.0</ele><time>2026-04-10T10:15:20.729Z</time></trkpt><trkpt lat="45.9815446" lon="10.9562263"><ele>660.0</ele><time>2026-04-10T10:15:21.729Z</time></trkpt><trkpt lat="45.9816003" lon="10.9562732"><ele>660.0</ele><time>2026-04-10T10:15:22.731Z</time></trkpt><trkpt lat="45.9816592" lon="10.9563204"><ele>660.0</ele><time>2026-04-10T10:15:23.731Z</time></trkpt><trkpt lat="45.9817273" lon="10.9563619"><ele>660.0</ele><time>2026-04-10T10:15:24.73Z</time></trkpt><trkpt lat="45.981793" lon="10.9564162"><ele>658.8333333333334</ele><time>2026-04-10T10:15:25.73Z</time></trkpt><trkpt lat="45.9818527" lon="10.9564817"><ele>657.6666666666666</ele><time>2026-04-10T10:15:26.73Z</time></trkpt><trkpt lat="45.9819092" lon="10.95656"><ele>656.5</ele><time>2026-04-10T10:15:27.73Z</time></trkpt><trkpt lat="45.98197" lon="10.9566374"><ele>655.3333333333333</ele><time>2026-04-10T10:15:28.73Z</time></trkpt><trkpt lat="45.9820273" lon="10.9566963"><ele>654.1666666666666</ele><time>2026-04-10T10:15:29.73Z</time></trkpt><trkpt lat="45.982083" lon="10.9567447"><ele>653.0</ele><time>2026-04-10T10:15:30.73Z</time></trkpt><trkpt lat="45.9821797" lon="10.9568351"><ele>653.0</ele><time>2026-04-10T10:15:32.731Z</time></trkpt><trkpt lat="45.9822765" lon="10.9569399"><ele>653.0</ele><time>2026-04-10T10:15:34.731Z</time></trkpt><trkpt lat="45.9823314" lon="10.9569905"><ele>653.0</ele><time>2026-04-10T10:15:35.73Z</time></trkpt><trkpt lat="45.9823877" lon="10.9570395"><ele>653.0</ele><time>2026-04-10T10:15:36.73Z</time></trkpt><trkpt lat="45.9824941" lon="10.9570988"><ele>653.0</ele><time>2026-04-10T10:15:38.73Z</time></trkpt><trkpt lat="45.9825832" lon="10.9570876"><ele>650.0</ele><time>2026-04-10T10:15:40.73Z</time></trkpt><trkpt lat="45.9826366" lon="10.9569789"><ele>647.0</ele><time>2026-04-10T10:15:43.73Z</time></trkpt><trkpt lat="45.9826693" lon="10.956886"><ele>644.0</ele><time>2026-04-10T10:15:45.73Z</time></trkpt><trkpt lat="45.9827401" lon="10.9568728"><ele>641.0</ele><time>2026-04-10T10:15:48.73Z</time></trkpt><trkpt lat="45.9827992" lon="10.9569731"><ele>638.0</ele><time>2026-04-10T10:15:51.73Z</time></trkpt><trkpt lat="45.982833" lon="10.9570512"><ele>635.0</ele><time>2026-04-10T10:15:53.731Z</time></trkpt><trkpt lat="45.9828778" lon="10.9571343"><ele>635.0</ele><time>2026-04-10T10:15:55.73Z</time></trkpt><trkpt lat="45.9829303" lon="10.9572278"><ele>635.0</ele><time>2026-04-10T10:15:57.73Z</time></trkpt><trkpt lat="45.9829882" lon="10.9573011"><ele>635.0</ele><time>2026-04-10T10:15:59.73Z</time></trkpt><trkpt lat="45.9830694" lon="10.9573254"><ele>635.0</ele><time>2026-04-10T10:16:01.73Z</time></trkpt><trkpt lat="45.9831545" lon="10.9573201"><ele>635.0</ele><time>2026-04-10T10:16:03.73Z</time></trkpt><trkpt lat="45.98325" lon="10.9573167"><ele>635.0</ele><time>2026-04-10T10:16:05.731Z</time></trkpt><trkpt lat="45.9833384" lon="10.9573115"><ele>632.9999999999999</ele><time>2026-04-10T10:16:07.731Z</time></trkpt><trkpt lat="45.9834041" lon="10.9573035"><ele>631.0</ele><time>2026-04-10T10:16:09.731Z</time></trkpt><trkpt lat="45.983481" lon="10.9573029"><ele>629.0</ele><time>2026-04-10T10:16:12.731Z</time></trkpt><trkpt lat="45.983568" lon="10.9573566"><ele>627.0</ele><time>2026-04-10T10:16:15.731Z</time></trkpt><trkpt lat="45.983631" lon="10.9573798"><ele>625.0</ele><time>2026-04-10T10:16:17.731Z</time></trkpt><trkpt lat="45.9837044" lon="10.9573887"><ele>622.9999999999999</ele><time>2026-04-10T10:16:19.731Z</time></trkpt><trkpt lat="45.9837732" lon="10.9573699"><ele>621.0</ele><time>2026-04-10T10:16:21.731Z</time></trkpt><trkpt lat="45.9838552" lon="10.9573567"><ele>621.0</ele><time>2026-04-10T10:16:25.732Z</time></trkpt><trkpt lat="45.9839226" lon="10.9573718"><ele>621.0</ele><time>2026-04-10T10:16:27.731Z</time></trkpt><trkpt lat="45.9840048" lon="10.9573846"><ele>621.0</ele><time>2026-04-10T10:16:29.731Z</time></trkpt><trkpt lat="45.9841212" lon="10.9574059"><ele>621.0</ele><time>2026-04-10T10:16:31.731Z</time></trkpt><trkpt lat="45.9841843" lon="10.9574111"><ele>621.0</ele><time>2026-04-10T10:16:32.732Z</time></trkpt><trkpt lat="45.9842851" lon="10.9574324"><ele>621.0</ele><time>2026-04-10T10:16:34.731Z</time></trkpt><trkpt lat="45.9843984" lon="10.9574742"><ele>620.4</ele><time>2026-04-10T10:16:36.731Z</time></trkpt><trkpt lat="45.9844905" lon="10.9574982"><ele>619.8</ele><time>2026-04-10T10:16:38.731Z</time></trkpt><trkpt lat="45.9846066" lon="10.9575197"><ele>619.1999999999999</ele><time>2026-04-10T10:16:40.731Z</time></trkpt><trkpt lat="45.9846706" lon="10.9575324"><ele>618.6</ele><time>2026-04-10T10:16:41.731Z</time></trkpt><trkpt lat="45.9847764" lon="10.9575831"><ele>618.0</ele><time>2026-04-10T10:16:43.731Z</time></trkpt><trkpt lat="45.9848721" lon="10.9576272"><ele>618.0</ele><time>2026-04-10T10:16:45.731Z</time></trkpt><trkpt lat="45.984983" lon="10.9576409"><ele>618.0</ele><time>2026-04-10T10:16:47.732Z</time></trkpt><trkpt lat="45.9851029" lon="10.9576814"><ele>618.0</ele><time>2026-04-10T10:16:49.733Z</time></trkpt><trkpt lat="45.9852168" lon="10.9576927"><ele>618.0</ele><time>2026-04-10T10:16:51.732Z</time></trkpt><trkpt lat="45.9853286" lon="10.9577235"><ele>616.8333333333334</ele><time>2026-04-10T10:16:53.732Z</time></trkpt><trkpt lat="45.9854368" lon="10.957767"><ele>615.6666666666666</ele><time>2026-04-10T10:16:55.732Z</time></trkpt><trkpt lat="45.9855408" lon="10.9578196"><ele>614.5</ele><time>2026-04-10T10:16:57.732Z</time></trkpt><trkpt lat="45.9856018" lon="10.9578498"><ele>613.3333333333333</ele><time>2026-04-10T10:16:58.732Z</time></trkpt><trkpt lat="45.9856671" lon="10.95788"><ele>612.1666666666666</ele><time>2026-04-10T10:16:59.732Z</time></trkpt><trkpt lat="45.9857279" lon="10.9579076"><ele>611.0</ele><time>2026-04-10T10:17:00.732Z</time></trkpt><trkpt lat="45.9857887" lon="10.9579322"><ele>608.1666666666666</ele><time>2026-04-10T10:17:01.732Z</time></trkpt><trkpt lat="45.9858504" lon="10.9579575"><ele>605.3333333333333</ele><time>2026-04-10T10:17:02.733Z</time></trkpt><trkpt lat="45.9859121" lon="10.957978"><ele>602.5</ele><time>2026-04-10T10:17:03.732Z</time></trkpt><trkpt lat="45.9860123" lon="10.9580264"><ele>599.6666666666666</ele><time>2026-04-10T10:17:05.732Z</time></trkpt><trkpt lat="45.9860991" lon="10.958066"><ele>596.8333333333334</ele><time>2026-04-10T10:17:07.732Z</time></trkpt><trkpt lat="45.9861929" lon="10.9581042"><ele>594.0</ele><time>2026-04-10T10:17:09.732Z</time></trkpt><trkpt lat="45.9862721" lon="10.958131"><ele>594.0</ele><time>2026-04-10T10:17:11.732Z</time></trkpt><trkpt lat="45.9863603" lon="10.9581642"><ele>594.0</ele><time>2026-04-10T10:17:13.732Z</time></trkpt><trkpt lat="45.9864566" lon="10.9582026"><ele>594.0</ele><time>2026-04-10T10:17:15.732Z</time></trkpt><trkpt lat="45.9865622" lon="10.9582068"><ele>594.0</ele><time>2026-04-10T10:17:17.732Z</time></trkpt><trkpt lat="45.9866535" lon="10.9582058"><ele>594.0</ele><time>2026-04-10T10:17:19.732Z</time></trkpt><trkpt lat="45.9867447" lon="10.9581768"><ele>591.8</ele><time>2026-04-10T10:17:21.732Z</time></trkpt><trkpt lat="45.9868439" lon="10.9581705"><ele>589.5999999999999</ele><time>2026-04-10T10:17:23.732Z</time></trkpt><trkpt lat="45.986946" lon="10.958204"><ele>587.4</ele><time>2026-04-10T10:17:25.732Z</time></trkpt><trkpt lat="45.9870627" lon="10.9582641"><ele>585.1999999999999</ele><time>2026-04-10T10:17:27.733Z</time></trkpt><trkpt lat="45.987124" lon="10.9582936"><ele>583.0</ele><time>2026-04-10T10:17:28.733Z</time></trkpt><trkpt lat="45.9871833" lon="10.9583275"><ele>585.8333333333334</ele><time>2026-04-10T10:17:29.734Z</time></trkpt><trkpt lat="45.9872477" lon="10.9583784"><ele>588.6666666666667</ele><time>2026-04-10T10:17:30.733Z</time></trkpt><trkpt lat="45.9873242" lon="10.9584222"><ele>591.5</ele><time>2026-04-10T10:17:31.733Z</time></trkpt><trkpt lat="45.9874239" lon="10.9584585"><ele>594.3333333333334</ele><time>2026-04-10T10:17:32.733Z</time></trkpt><trkpt lat="45.9875278" lon="10.9584883"><ele>597.1666666666666</ele><time>2026-04-10T10:17:33.733Z</time></trkpt><trkpt lat="45.9875958" lon="10.9585507"><ele>600.0</ele><time>2026-04-10T10:17:34.733Z</time></trkpt><trkpt lat="45.9876554" lon="10.9586126"><ele>600.0</ele><time>2026-04-10T10:17:35.733Z</time></trkpt><trkpt lat="45.9877116" lon="10.9586739"><ele>600.0</ele><time>2026-04-10T10:17:36.733Z</time></trkpt><trkpt lat="45.9877659" lon="10.9587231"><ele>600.0</ele><time>2026-04-10T10:17:37.733Z</time></trkpt><trkpt lat="45.9878305" lon="10.9587512"><ele>600.0</ele><time>2026-04-10T10:17:38.733Z</time></trkpt><trkpt lat="45.9879511" lon="10.9587968"><ele>600.0</ele><time>2026-04-10T10:17:40.733Z</time></trkpt><trkpt lat="45.9880043" lon="10.958846"><ele>600.0</ele><time>2026-04-10T10:17:41.733Z</time></trkpt><trkpt lat="45.9880966" lon="10.9589575"><ele>600.0</ele><time>2026-04-10T10:17:43.733Z</time></trkpt><trkpt lat="45.9881465" lon="10.9590324"><ele>600.0</ele><time>2026-04-10T10:17:44.733Z</time></trkpt><trkpt lat="45.9882007" lon="10.9591078"><ele>600.0</ele><time>2026-04-10T10:17:45.733Z</time></trkpt><trkpt lat="45.9882606" lon="10.9591666"><ele>600.0</ele><time>2026-04-10T10:17:46.733Z</time></trkpt><trkpt lat="45.9883269" lon="10.9592172"><ele>600.0</ele><time>2026-04-10T10:17:47.733Z</time></trkpt><trkpt lat="45.9883977" lon="10.9592635"><ele>600.0</ele><time>2026-04-10T10:17:48.733Z</time></trkpt><trkpt lat="45.9884753" lon="10.959309"><ele>602.3333333333334</ele><time>2026-04-10T10:17:49.734Z</time></trkpt><trkpt lat="45.9885568" lon="10.9593542"><ele>604.6666666666666</ele><time>2026-04-10T10:17:50.733Z</time></trkpt><trkpt lat="45.9886415" lon="10.9593935"><ele>607.0</ele><time>2026-04-10T10:17:51.733Z</time></trkpt><trkpt lat="45.9887169" lon="10.9594336"><ele>609.3333333333333</ele><time>2026-04-10T10:17:52.733Z</time></trkpt><trkpt lat="45.9887869" lon="10.9594728"><ele>611.6666666666666</ele><time>2026-04-10T10:17:53.733Z</time></trkpt><trkpt lat="45.9888508" lon="10.9594997"><ele>614.0</ele><time>2026-04-10T10:17:54.733Z</time></trkpt><trkpt lat="45.9889114" lon="10.9595246"><ele>613.9999999999999</ele><time>2026-04-10T10:17:55.733Z</time></trkpt><trkpt lat="45.9889763" lon="10.95954"><ele>614.0</ele><time>2026-04-10T10:17:56.733Z</time></trkpt><trkpt lat="45.989045" lon="10.9595456"><ele>614.0</ele><time>2026-04-10T10:17:57.733Z</time></trkpt><trkpt lat="45.9891152" lon="10.9595658"><ele>614.0</ele><time>2026-04-10T10:17:58.733Z</time></trkpt><trkpt lat="45.9891857" lon="10.9595961"><ele>614.0</ele><time>2026-04-10T10:17:59.733Z</time></trkpt><trkpt lat="45.9892652" lon="10.9596245"><ele>613.9999999999999</ele><time>2026-04-10T10:18:00.733Z</time></trkpt><trkpt lat="45.9893466" lon="10.9596532"><ele>614.0</ele><time>2026-04-10T10:18:01.733Z</time></trkpt><trkpt lat="45.9894236" lon="10.9596816"><ele>610.1666666666666</ele><time>2026-04-10T10:18:02.733Z</time></trkpt><trkpt lat="45.9894944" lon="10.959712"><ele>606.3333333333333</ele><time>2026-04-10T10:18:03.733Z</time></trkpt><trkpt lat="45.9895608" lon="10.959731"><ele>602.5</ele><time>2026-04-10T10:18:04.733Z</time></trkpt><trkpt lat="45.9896245" lon="10.9597492"><ele>598.6666666666666</ele><time>2026-04-10T10:18:05.733Z</time></trkpt><trkpt lat="45.9897278" lon="10.9597959"><ele>594.8333333333334</ele><time>2026-04-10T10:18:07.733Z</time></trkpt><trkpt lat="45.9898241" lon="10.9598448"><ele>591.0</ele><time>2026-04-10T10:18:09.734Z</time></trkpt><trkpt lat="45.9899119" lon="10.9598875"><ele>591.0</ele><time>2026-04-10T10:18:11.734Z</time></trkpt><trkpt lat="45.9899923" lon="10.9599401"><ele>591.0</ele><time>2026-04-10T10:18:13.735Z</time></trkpt><trkpt lat="45.9900677" lon="10.960035"><ele>591.0</ele><time>2026-04-10T10:18:15.734Z</time></trkpt><trkpt lat="45.9901416" lon="10.9601506"><ele>591.0</ele><time>2026-04-10T10:18:17.734Z</time></trkpt><trkpt lat="45.9902223" lon="10.9602331"><ele>591.0</ele><time>2026-04-10T10:18:19.734Z</time></trkpt><trkpt lat="45.9903219" lon="10.9603001"><ele>593.0</ele><time>2026-04-10T10:18:21.734Z</time></trkpt><trkpt lat="45.9904281" lon="10.9603788"><ele>595.0</ele><time>2026-04-10T10:18:23.734Z</time></trkpt><trkpt lat="45.9905259" lon="10.9604311"><ele>597.0</ele><time>2026-04-10T10:18:25.734Z</time></trkpt><trkpt lat="45.9906285" lon="10.9604589"><ele>599.0</ele><time>2026-04-10T10:18:27.735Z</time></trkpt><trkpt lat="45.9907544" lon="10.9605011"><ele>599.0</ele><time>2026-04-10T10:18:29.735Z</time></trkpt><trkpt lat="45.9908164" lon="10.9605227"><ele>599.0</ele><time>2026-04-10T10:18:30.734Z</time></trkpt><trkpt lat="45.990919" lon="10.9605486"><ele>599.0</ele><time>2026-04-10T10:18:32.734Z</time></trkpt><trkpt lat="45.9909964" lon="10.9605781"><ele>599.0</ele><time>2026-04-10T10:18:35.734Z</time></trkpt><trkpt lat="45.9910616" lon="10.9605904"><ele>599.0</ele><time>2026-04-10T10:18:37.734Z</time></trkpt><trkpt lat="45.9911287" lon="10.9605948"><ele>599.0</ele><time>2026-04-10T10:18:39.734Z</time></trkpt><trkpt lat="45.9912077" lon="10.9605699"><ele>595.6666666666666</ele><time>2026-04-10T10:18:42.734Z</time></trkpt><trkpt lat="45.9912903" lon="10.9605392"><ele>592.3333333333333</ele><time>2026-04-10T10:18:45.734Z</time></trkpt><trkpt lat="45.991369" lon="10.9605378"><ele>589.0</ele><time>2026-04-10T10:18:47.734Z</time></trkpt><trkpt lat="45.9914558" lon="10.9605459"><ele>585.6666666666666</ele><time>2026-04-10T10:18:50.734Z</time></trkpt><trkpt lat="45.9915265" lon="10.9605555"><ele>582.3333333333334</ele><time>2026-04-10T10:18:52.735Z</time></trkpt><trkpt lat="45.9916016" lon="10.9605506"><ele>579.0</ele><time>2026-04-10T10:18:54.735Z</time></trkpt><trkpt lat="45.9916836" lon="10.9605684"><ele>575.5</ele><time>2026-04-10T10:18:56.735Z</time></trkpt><trkpt lat="45.9918035" lon="10.9606212"><ele>572.0</ele><time>2026-04-10T10:18:58.735Z</time></trkpt><trkpt lat="45.9918626" lon="10.9606549"><ele>568.5</ele><time>2026-04-10T10:18:59.735Z</time></trkpt><trkpt lat="45.9919206" lon="10.9606933"><ele>565.0</ele><time>2026-04-10T10:19:00.736Z</time></trkpt><trkpt lat="45.9919818" lon="10.9607393"><ele>561.5</ele><time>2026-04-10T10:19:01.735Z</time></trkpt><trkpt lat="45.9920519" lon="10.9607815"><ele>558.0</ele><time>2026-04-10T10:19:02.735Z</time></trkpt><trkpt lat="45.9921311" lon="10.9608266"><ele>562.1666666666666</ele><time>2026-04-10T10:19:03.735Z</time></trkpt><trkpt lat="45.9922071" lon="10.9608725"><ele>566.3333333333334</ele><time>2026-04-10T10:19:04.735Z</time></trkpt><trkpt lat="45.992286" lon="10.9609237"><ele>570.5</ele><time>2026-04-10T10:19:05.735Z</time></trkpt><trkpt lat="45.9923591" lon="10.9609908"><ele>574.6666666666667</ele><time>2026-04-10T10:19:06.735Z</time></trkpt><trkpt lat="45.9924182" lon="10.961057"><ele>578.8333333333334</ele><time>2026-04-10T10:19:07.735Z</time></trkpt><trkpt lat="45.9924862" lon="10.9611041"><ele>583.0</ele><time>2026-04-10T10:19:08.735Z</time></trkpt><trkpt lat="45.9925644" lon="10.9611353"><ele>583.0</ele><time>2026-04-10T10:19:09.735Z</time></trkpt><trkpt lat="45.9926376" lon="10.9611616"><ele>583.0</ele><time>2026-04-10T10:19:10.736Z</time></trkpt><trkpt lat="45.9927097" lon="10.9611907"><ele>583.0</ele><time>2026-04-10T10:19:11.735Z</time></trkpt><trkpt lat="45.9927897" lon="10.9612163"><ele>583.0</ele><time>2026-04-10T10:19:12.735Z</time></trkpt><trkpt lat="45.9928723" lon="10.9612314"><ele>583.0</ele><time>2026-04-10T10:19:13.735Z</time></trkpt><trkpt lat="45.9929615" lon="10.9612501"><ele>583.0</ele><time>2026-04-10T10:19:14.735Z</time></trkpt><trkpt lat="45.9930371" lon="10.9612758"><ele>583.0</ele><time>2026-04-10T10:19:15.735Z</time></trkpt><trkpt lat="45.9931088" lon="10.9613112"><ele>583.0</ele><time>2026-04-10T10:19:16.735Z</time></trkpt><trkpt lat="45.993184" lon="10.9613554"><ele>583.0</ele><time>2026-04-10T10:19:17.735Z</time></trkpt><trkpt lat="45.9932928" lon="10.9614174"><ele>583.0</ele><time>2026-04-10T10:19:19.735Z</time></trkpt><trkpt lat="45.9933799" lon="10.9614951"><ele>583.0</ele><time>2026-04-10T10:19:21.735Z</time></trkpt><trkpt lat="45.9934858" lon="10.961601"><ele>585.8333333333334</ele><time>2026-04-10T10:19:23.735Z</time></trkpt><trkpt lat="45.9935424" lon="10.9616433"><ele>588.6666666666667</ele><time>2026-04-10T10:19:24.735Z</time></trkpt><trkpt lat="45.9936386" lon="10.9617566"><ele>591.5</ele><time>2026-04-10T10:19:26.735Z</time></trkpt><trkpt lat="45.9936978" lon="10.961804"><ele>594.3333333333334</ele><time>2026-04-10T10:19:27.735Z</time></trkpt><trkpt lat="45.993756" lon="10.9618398"><ele>597.1666666666666</ele><time>2026-04-10T10:19:28.735Z</time></trkpt><trkpt lat="45.9938229" lon="10.9618592"><ele>600.0</ele><time>2026-04-10T10:19:29.735Z</time></trkpt><trkpt lat="45.9938933" lon="10.9618803"><ele>600.0</ele><time>2026-04-10T10:19:30.735Z</time></trkpt><trkpt lat="45.9939666" lon="10.9619122"><ele>600.0</ele><time>2026-04-10T10:19:31.735Z</time></trkpt><trkpt lat="45.9940405" lon="10.9619577"><ele>600.0</ele><time>2026-04-10T10:19:32.735Z</time></trkpt><trkpt lat="45.994125" lon="10.9620114"><ele>600.0</ele><time>2026-04-10T10:19:33.736Z</time></trkpt><trkpt lat="45.9941977" lon="10.9620714"><ele>600.0</ele><time>2026-04-10T10:19:34.736Z</time></trkpt><trkpt lat="45.9942658" lon="10.9621454"><ele>600.0</ele><time>2026-04-10T10:19:35.736Z</time></trkpt><trkpt lat="45.9943408" lon="10.962197"><ele>597.1666666666666</ele><time>2026-04-10T10:19:36.736Z</time></trkpt><trkpt lat="45.9944193" lon="10.9622248"><ele>594.3333333333334</ele><time>2026-04-10T10:19:37.737Z</time></trkpt><trkpt lat="45.9944927" lon="10.9622391"><ele>591.5</ele><time>2026-04-10T10:19:38.736Z</time></trkpt><trkpt lat="45.9945872" lon="10.9622416"><ele>588.6666666666667</ele><time>2026-04-10T10:19:39.736Z</time></trkpt><trkpt lat="45.994682" lon="10.9622396"><ele>585.8333333333334</ele><time>2026-04-10T10:19:40.736Z</time></trkpt><trkpt lat="45.9947636" lon="10.9622452"><ele>583.0</ele><time>2026-04-10T10:19:41.737Z</time></trkpt><trkpt lat="45.9948279" lon="10.9622618"><ele>583.0000000000001</ele><time>2026-04-10T10:19:42.736Z</time></trkpt><trkpt lat="45.9948967" lon="10.9622947"><ele>583.0</ele><time>2026-04-10T10:19:43.736Z</time></trkpt><trkpt lat="45.9949643" lon="10.9623421"><ele>583.0</ele><time>2026-04-10T10:19:44.736Z</time></trkpt><trkpt lat="45.9950321" lon="10.9624027"><ele>583.0</ele><time>2026-04-10T10:19:45.736Z</time></trkpt><trkpt lat="45.9950959" lon="10.9624621"><ele>583.0</ele><time>2026-04-10T10:19:46.736Z</time></trkpt><trkpt lat="45.9951525" lon="10.9625265"><ele>583.0000000000001</ele><time>2026-04-10T10:19:47.736Z</time></trkpt><trkpt lat="45.9952125" lon="10.9625885"><ele>583.0</ele><time>2026-04-10T10:19:48.737Z</time></trkpt><trkpt lat="45.9952759" lon="10.9626372"><ele>586.8</ele><time>2026-04-10T10:19:49.736Z</time></trkpt><trkpt lat="45.9953535" lon="10.9626741"><ele>590.5999999999999</ele><time>2026-04-10T10:19:50.736Z</time></trkpt><trkpt lat="45.9954398" lon="10.9627114"><ele>594.4000000000001</ele><time>2026-04-10T10:19:51.736Z</time></trkpt><trkpt lat="45.9955374" lon="10.9627594"><ele>598.2</ele><time>2026-04-10T10:19:52.736Z</time></trkpt><trkpt lat="45.9956351" lon="10.9628284"><ele>602.0</ele><time>2026-04-10T10:19:53.736Z</time></trkpt><trkpt lat="45.9957057" lon="10.9628663"><ele>602.0</ele><time>2026-04-10T10:19:54.736Z</time></trkpt><trkpt lat="45.9957735" lon="10.9628829"><ele>602.0</ele><time>2026-04-10T10:19:55.737Z</time></trkpt><trkpt lat="45.9958504" lon="10.9628965"><ele>602.0</ele><time>2026-04-10T10:19:56.736Z</time></trkpt><trkpt lat="45.9959196" lon="10.9628948"><ele>602.0</ele><time>2026-04-10T10:19:57.736Z</time></trkpt><trkpt lat="45.9959929" lon="10.9628987"><ele>602.0</ele><time>2026-04-10T10:19:58.736Z</time></trkpt><trkpt lat="45.9960729" lon="10.9628973"><ele>602.0</ele><time>2026-04-10T10:19:59.736Z</time></trkpt><trkpt lat="45.996138" lon="10.9628802"><ele>602.0</ele><time>2026-04-10T10:20:00.736Z</time></trkpt><trkpt lat="45.9962139" lon="10.9628632"><ele>601.0</ele><time>2026-04-10T10:20:01.736Z</time></trkpt><trkpt lat="45.9962838" lon="10.9628577"><ele>600.0</ele><time>2026-04-10T10:20:02.736Z</time></trkpt><trkpt lat="45.9963626" lon="10.9628554"><ele>599.0</ele><time>2026-04-10T10:20:03.736Z</time></trkpt><trkpt lat="45.9964381" lon="10.9628554"><ele>598.0</ele><time>2026-04-10T10:20:04.736Z</time></trkpt><trkpt lat="45.9965057" lon="10.9628569"><ele>597.0</ele><time>2026-04-10T10:20:05.737Z</time></trkpt><trkpt lat="45.9965691" lon="10.9628699"><ele>596.0</ele><time>2026-04-10T10:20:06.736Z</time></trkpt><trkpt lat="45.9966559" lon="10.9629273"><ele>595.8</ele><time>2026-04-10T10:20:08.736Z</time></trkpt><trkpt lat="45.9967351" lon="10.9629753"><ele>595.6</ele><time>2026-04-10T10:20:10.737Z</time></trkpt><trkpt lat="45.9968538" lon="10.9629927"><ele>595.4</ele><time>2026-04-10T10:20:12.737Z</time></trkpt><trkpt lat="45.9969167" lon="10.9630044"><ele>595.2</ele><time>2026-04-10T10:20:13.736Z</time></trkpt><trkpt lat="45.9970303" lon="10.963059"><ele>595.0</ele><time>2026-04-10T10:20:15.737Z</time></trkpt><trkpt lat="45.9971332" lon="10.9630906"><ele>595.0</ele><time>2026-04-10T10:20:17.737Z</time></trkpt><trkpt lat="45.997212" lon="10.9631249"><ele>595.0</ele><time>2026-04-10T10:20:19.737Z</time></trkpt><trkpt lat="45.9972659" lon="10.9632435"><ele>595.0</ele><time>2026-04-10T10:20:21.737Z</time></trkpt><trkpt lat="45.9973106" lon="10.9633672"><ele>595.0</ele><time>2026-04-10T10:20:23.737Z</time></trkpt><trkpt lat="45.9973653" lon="10.9635098"><ele>595.0</ele><time>2026-04-10T10:20:25.737Z</time></trkpt><trkpt lat="45.9974123" lon="10.9635832"><ele>595.8571428571429</ele><time>2026-04-10T10:20:26.737Z</time></trkpt><trkpt lat="45.9974683" lon="10.9636668"><ele>596.7142857142858</ele><time>2026-04-10T10:20:27.737Z</time></trkpt><trkpt lat="45.9975227" lon="10.9637491"><ele>597.5714285714286</ele><time>2026-04-10T10:20:28.737Z</time></trkpt><trkpt lat="45.9975648" lon="10.9638334"><ele>598.4285714285714</ele><time>2026-04-10T10:20:29.737Z</time></trkpt><trkpt lat="45.9976053" lon="10.9639155"><ele>599.2857142857143</ele><time>2026-04-10T10:20:30.738Z</time></trkpt><trkpt lat="45.9976429" lon="10.9639945"><ele>600.1428571428571</ele><time>2026-04-10T10:20:31.737Z</time></trkpt><trkpt lat="45.9976808" lon="10.9640752"><ele>601.0</ele><time>2026-04-10T10:20:32.737Z</time></trkpt><trkpt lat="45.997718" lon="10.9641605"><ele>601.5</ele><time>2026-04-10T10:20:33.737Z</time></trkpt><trkpt lat="45.9977606" lon="10.9642394"><ele>602.0</ele><time>2026-04-10T10:20:34.737Z</time></trkpt><trkpt lat="45.9978079" lon="10.964315"><ele>602.5</ele><time>2026-04-10T10:20:35.737Z</time></trkpt><trkpt lat="45.9978582" lon="10.9643888"><ele>603.0</ele><time>2026-04-10T10:20:36.737Z</time></trkpt><trkpt lat="45.9979065" lon="10.9644604"><ele>603.5</ele><time>2026-04-10T10:20:37.737Z</time></trkpt><trkpt lat="45.9979654" lon="10.9645678"><ele>604.0</ele><time>2026-04-10T10:20:39.738Z</time></trkpt><trkpt lat="45.9979955" lon="10.9646676"><ele>604.0</ele><time>2026-04-10T10:20:42.737Z</time></trkpt><trkpt lat="45.998036" lon="10.9647519"><ele>604.0</ele><time>2026-04-10T10:23:13.741Z</time></trkpt><trkpt lat="45.9980706" lon="10.964891"><ele>604.0</ele><time>2026-04-10T10:23:15.741Z</time></trkpt><trkpt lat="45.9980814" lon="10.9650428"><ele>604.0</ele><time>2026-04-10T10:23:17.742Z</time></trkpt><trkpt lat="45.9980829" lon="10.9652046"><ele>604.0</ele><time>2026-04-10T10:23:19.741Z</time></trkpt><trkpt lat="45.9980852" lon="10.9653002"><ele>603.5</ele><time>2026-04-10T10:23:20.741Z</time></trkpt><trkpt lat="45.9980879" lon="10.9653968"><ele>603.0</ele><time>2026-04-10T10:23:21.741Z</time></trkpt><trkpt lat="45.9980946" lon="10.9654871"><ele>602.5</ele><time>2026-04-10T10:23:22.741Z</time></trkpt><trkpt lat="45.9981291" lon="10.9656376"><ele>602.0</ele><time>2026-04-10T10:23:24.741Z</time></trkpt><trkpt lat="45.9981994" lon="10.9657728"><ele>601.5</ele><time>2026-04-10T10:23:26.741Z</time></trkpt><trkpt lat="45.9982536" lon="10.9658416"><ele>601.0</ele><time>2026-04-10T10:23:27.741Z</time></trkpt><trkpt lat="45.9983231" lon="10.9659177"><ele>602.0</ele><time>2026-04-10T10:23:28.741Z</time></trkpt><trkpt lat="45.9984013" lon="10.966001"><ele>603.0</ele><time>2026-04-10T10:23:29.741Z</time></trkpt><trkpt lat="45.9984744" lon="10.9660821"><ele>604.0</ele><time>2026-04-10T10:23:30.741Z</time></trkpt><trkpt lat="45.9985394" lon="10.9661601"><ele>605.0</ele><time>2026-04-10T10:23:31.741Z</time></trkpt><trkpt lat="45.9985984" lon="10.9662449"><ele>606.0</ele><time>2026-04-10T10:23:32.741Z</time></trkpt><trkpt lat="45.9986489" lon="10.9663424"><ele>607.0</ele><time>2026-04-10T10:23:33.741Z</time></trkpt><trkpt lat="45.9986902" lon="10.9664512"><ele>607.0</ele><time>2026-04-10T10:23:34.741Z</time></trkpt><trkpt lat="45.9987249" lon="10.9665676"><ele>607.0</ele><time>2026-04-10T10:23:35.741Z</time></trkpt><trkpt lat="45.9987619" lon="10.9666891"><ele>607.0</ele><time>2026-04-10T10:23:36.741Z</time></trkpt><trkpt lat="45.9988074" lon="10.9668065"><ele>607.0</ele><time>2026-04-10T10:23:37.741Z</time></trkpt><trkpt lat="45.9988608" lon="10.9669265"><ele>607.0</ele><time>2026-04-10T10:23:38.741Z</time></trkpt><trkpt lat="45.9989133" lon="10.9670419"><ele>604.6</ele><time>2026-04-10T10:23:39.741Z</time></trkpt><trkpt lat="45.9989632" lon="10.9671526"><ele>602.2</ele><time>2026-04-10T10:23:40.741Z</time></trkpt><trkpt lat="45.9990183" lon="10.9672526"><ele>599.8</ele><time>2026-04-10T10:23:41.741Z</time></trkpt><trkpt lat="45.999066" lon="10.9673735"><ele>597.4</ele><time>2026-04-10T10:23:42.741Z</time></trkpt><trkpt lat="45.999113" lon="10.9675146"><ele>595.0</ele><time>2026-04-10T10:23:43.741Z</time></trkpt><trkpt lat="45.9991651" lon="10.967658"><ele>591.8</ele><time>2026-04-10T10:23:44.741Z</time></trkpt><trkpt lat="45.9992141" lon="10.9677923"><ele>588.6</ele><time>2026-04-10T10:23:45.742Z</time></trkpt><trkpt lat="45.9992591" lon="10.9679173"><ele>585.4</ele><time>2026-04-10T10:23:46.742Z</time></trkpt><trkpt lat="45.9993009" lon="10.9680463"><ele>582.2</ele><time>2026-04-10T10:23:47.742Z</time></trkpt><trkpt lat="45.9993361" lon="10.9681818"><ele>579.0</ele><time>2026-04-10T10:23:48.742Z</time></trkpt><trkpt lat="45.9993599" lon="10.9683222"><ele>578.6666666666666</ele><time>2026-04-10T10:23:49.742Z</time></trkpt><trkpt lat="45.9993765" lon="10.9684613"><ele>578.3333333333334</ele><time>2026-04-10T10:23:50.742Z</time></trkpt><trkpt lat="45.9993926" lon="10.9685934"><ele>578.0</ele><time>2026-04-10T10:23:51.742Z</time></trkpt><trkpt lat="45.9994075" lon="10.9687209"><ele>577.6666666666667</ele><time>2026-04-10T10:23:52.742Z</time></trkpt><trkpt lat="45.9994197" lon="10.968847"><ele>577.3333333333334</ele><time>2026-04-10T10:23:53.742Z</time></trkpt><trkpt lat="45.9994276" lon="10.9689593"><ele>577.0</ele><time>2026-04-10T10:23:54.742Z</time></trkpt><trkpt lat="45.9994242" lon="10.9690595"><ele>577.0</ele><time>2026-04-10T10:23:55.743Z</time></trkpt><trkpt lat="45.9993959" lon="10.9691921"><ele>577.0</ele><time>2026-04-10T10:23:57.742Z</time></trkpt><trkpt lat="45.9994136" lon="10.9692828"><ele>577.0</ele><time>2026-04-10T10:23:59.742Z</time></trkpt><trkpt lat="45.9995212" lon="10.9693146"><ele>577.0</ele><time>2026-04-10T10:24:01.742Z</time></trkpt><trkpt lat="45.9996011" lon="10.9692921"><ele>577.0</ele><time>2026-04-10T10:24:02.742Z</time></trkpt><trkpt lat="45.9996888" lon="10.9692692"><ele>577.0</ele><time>2026-04-10T10:24:03.742Z</time></trkpt><trkpt lat="45.9997832" lon="10.9692455"><ele>577.0</ele><time>2026-04-10T10:24:04.742Z</time></trkpt><trkpt lat="45.9998863" lon="10.9692121"><ele>577.0</ele><time>2026-04-10T10:24:05.742Z</time></trkpt><trkpt lat="45.9999958" lon="10.969171"><ele>577.0</ele><time>2026-04-10T10:24:06.742Z</time></trkpt><trkpt lat="46.0001095" lon="10.9691147"><ele>577.0</ele><time>2026-04-10T10:24:07.742Z</time></trkpt><trkpt lat="46.000227" lon="10.9690529"><ele>577.0</ele><time>2026-04-10T10:24:08.742Z</time></trkpt><trkpt lat="46.0003545" lon="10.9689952"><ele>577.0</ele><time>2026-04-10T10:24:09.742Z</time></trkpt><trkpt lat="46.0004809" lon="10.9689368"><ele>577.0</ele><time>2026-04-10T10:24:10.742Z</time></trkpt><trkpt lat="46.0006188" lon="10.968878"><ele>577.0</ele><time>2026-04-10T10:24:11.742Z</time></trkpt><trkpt lat="46.0007562" lon="10.9688082"><ele>576.5</ele><time>2026-04-10T10:24:12.742Z</time></trkpt><trkpt lat="46.0008875" lon="10.968748"><ele>576.0</ele><time>2026-04-10T10:24:13.742Z</time></trkpt><trkpt lat="46.0010103" lon="10.9686947"><ele>575.5</ele><time>2026-04-10T10:24:14.742Z</time></trkpt><trkpt lat="46.0011318" lon="10.9686355"><ele>575.0</ele><time>2026-04-10T10:24:15.742Z</time></trkpt><trkpt lat="46.0012517" lon="10.9685768"><ele>575.0</ele><time>2026-04-10T10:24:16.742Z</time></trkpt><trkpt lat="46.0013655" lon="10.9685086"><ele>575.0</ele><time>2026-04-10T10:24:17.742Z</time></trkpt><trkpt lat="46.0014607" lon="10.9684131"><ele>575.0</ele><time>2026-04-10T10:24:18.742Z</time></trkpt><trkpt lat="46.0015499" lon="10.9682907"><ele>575.0</ele><time>2026-04-10T10:24:19.742Z</time></trkpt><trkpt lat="46.0016311" lon="10.9681584"><ele>573.75</ele><time>2026-04-10T10:24:20.742Z</time></trkpt><trkpt lat="46.0017162" lon="10.9680184"><ele>572.5</ele><time>2026-04-10T10:24:21.742Z</time></trkpt><trkpt lat="46.0018062" lon="10.9678807"><ele>571.25</ele><time>2026-04-10T10:24:22.742Z</time></trkpt><trkpt lat="46.0019007" lon="10.967759"><ele>570.0</ele><time>2026-04-10T10:24:23.742Z</time></trkpt><trkpt lat="46.002009" lon="10.967648"><ele>570.0</ele><time>2026-04-10T10:24:24.742Z</time></trkpt><trkpt lat="46.0021288" lon="10.967552"><ele>570.0</ele><time>2026-04-10T10:24:25.742Z</time></trkpt><trkpt lat="46.0022528" lon="10.9674702"><ele>570.0</ele><time>2026-04-10T10:24:26.742Z</time></trkpt><trkpt lat="46.002376" lon="10.9674204"><ele>570.0</ele><time>2026-04-10T10:24:27.743Z</time></trkpt><trkpt lat="46.0025081" lon="10.9673781"><ele>571.0</ele><time>2026-04-10T10:24:28.743Z</time></trkpt><trkpt lat="46.0026423" lon="10.9673469"><ele>572.0</ele><time>2026-04-10T10:24:29.743Z</time></trkpt><trkpt lat="46.0027796" lon="10.9673376"><ele>573.0</ele><time>2026-04-10T10:24:30.743Z</time></trkpt><trkpt lat="46.0029116" lon="10.9673601"><ele>574.0</ele><time>2026-04-10T10:24:31.744Z</time></trkpt><trkpt lat="46.0030398" lon="10.9674193"><ele>574.0</ele><time>2026-04-10T10:24:32.744Z</time></trkpt><trkpt lat="46.0031637" lon="10.9674871"><ele>574.0</ele><time>2026-04-10T10:24:33.743Z</time></trkpt><trkpt lat="46.0032781" lon="10.9675237"><ele>574.0</ele><time>2026-04-10T10:24:34.743Z</time></trkpt><trkpt lat="46.0033912" lon="10.9675323"><ele>574.0</ele><time>2026-04-10T10:24:35.743Z</time></trkpt><trkpt lat="46.0034992" lon="10.9675356"><ele>574.5</ele><time>2026-04-10T10:24:36.743Z</time></trkpt><trkpt lat="46.0035881" lon="10.967527"><ele>575.0</ele><time>2026-04-10T10:24:37.743Z</time></trkpt><trkpt lat="46.0036681" lon="10.9675077"><ele>575.5</ele><time>2026-04-10T10:24:38.743Z</time></trkpt><trkpt lat="46.0037419" lon="10.9674741"><ele>576.0</ele><time>2026-04-10T10:24:39.743Z</time></trkpt><trkpt lat="46.003819" lon="10.9674344"><ele>576.5</ele><time>2026-04-10T10:24:40.743Z</time></trkpt><trkpt lat="46.0039039" lon="10.9673973"><ele>577.0</ele><time>2026-04-10T10:24:41.743Z</time></trkpt><trkpt lat="46.0039992" lon="10.9673592"><ele>577.0</ele><time>2026-04-10T10:24:42.743Z</time></trkpt><trkpt lat="46.0041001" lon="10.967317"><ele>577.0</ele><time>2026-04-10T10:24:43.744Z</time></trkpt><trkpt lat="46.0042078" lon="10.9672885"><ele>577.0</ele><time>2026-04-10T10:24:44.743Z</time></trkpt><trkpt lat="46.0043257" lon="10.9672595"><ele>577.0</ele><time>2026-04-10T10:24:45.743Z</time></trkpt><trkpt lat="46.0044481" lon="10.9672228"><ele>576.75</ele><time>2026-04-10T10:24:46.743Z</time></trkpt><trkpt lat="46.0045778" lon="10.9671743"><ele>576.5</ele><time>2026-04-10T10:24:47.744Z</time></trkpt><trkpt lat="46.0047009" lon="10.9671291"><ele>576.25</ele><time>2026-04-10T10:24:48.743Z</time></trkpt><trkpt lat="46.0048153" lon="10.9670845"><ele>576.0</ele><time>2026-04-10T10:24:49.743Z</time></trkpt><trkpt lat="46.0049186" lon="10.9670306"><ele>575.2</ele><time>2026-04-10T10:24:50.743Z</time></trkpt><trkpt lat="46.0050122" lon="10.9669793"><ele>574.4000000000001</ele><time>2026-04-10T10:24:51.743Z</time></trkpt><trkpt lat="46.0050963" lon="10.9669166"><ele>573.6</ele><time>2026-04-10T10:24:52.743Z</time></trkpt><trkpt lat="46.0051585" lon="10.9668237"><ele>572.8000000000001</ele><time>2026-04-10T10:24:53.743Z</time></trkpt><trkpt lat="46.0051982" lon="10.9667095"><ele>572.0</ele><time>2026-04-10T10:24:54.743Z</time></trkpt><trkpt lat="46.0052242" lon="10.9665807"><ele>572.0</ele><time>2026-04-10T10:24:55.743Z</time></trkpt><trkpt lat="46.005228" lon="10.9664445"><ele>572.0</ele><time>2026-04-10T10:24:56.743Z</time></trkpt><trkpt lat="46.0052196" lon="10.9662938"><ele>572.0</ele><time>2026-04-10T10:24:57.743Z</time></trkpt><trkpt lat="46.005215" lon="10.9661463"><ele>572.0</ele><time>2026-04-10T10:24:58.743Z</time></trkpt><trkpt lat="46.005186" lon="10.9660082"><ele>572.0</ele><time>2026-04-10T10:24:59.743Z</time></trkpt><trkpt lat="46.0051366" lon="10.9658679"><ele>570.6</ele><time>2026-04-10T10:25:00.743Z</time></trkpt><trkpt lat="46.0050777" lon="10.9657415"><ele>569.2</ele><time>2026-04-10T10:25:01.744Z</time></trkpt><trkpt lat="46.005021" lon="10.9656192"><ele>567.8</ele><time>2026-04-10T10:25:02.744Z</time></trkpt><trkpt lat="46.0049575" lon="10.9655191"><ele>566.4</ele><time>2026-04-10T10:25:03.743Z</time></trkpt><trkpt lat="46.0048873" lon="10.9654372"><ele>565.0</ele><time>2026-04-10T10:25:04.743Z</time></trkpt><trkpt lat="46.0048122" lon="10.9653858"><ele>565.0</ele><time>2026-04-10T10:25:05.743Z</time></trkpt><trkpt lat="46.0047236" lon="10.9653681"><ele>565.0</ele><time>2026-04-10T10:25:06.743Z</time></trkpt><trkpt lat="46.0046271" lon="10.9653715"><ele>565.0</ele><time>2026-04-10T10:25:07.744Z</time></trkpt><trkpt lat="46.0045339" lon="10.965387"><ele>565.0</ele><time>2026-04-10T10:25:08.744Z</time></trkpt><trkpt lat="46.0044426" lon="10.9654245"><ele>565.0</ele><time>2026-04-10T10:25:09.744Z</time></trkpt><trkpt lat="46.0043669" lon="10.9654696"><ele>565.0</ele><time>2026-04-10T10:25:10.744Z</time></trkpt><trkpt lat="46.0042991" lon="10.9655086"><ele>565.0</ele><time>2026-04-10T10:25:11.744Z</time></trkpt><trkpt lat="46.0041984" lon="10.9655564"><ele>565.0</ele><time>2026-04-10T10:25:13.744Z</time></trkpt><trkpt lat="46.0041102" lon="10.9656113"><ele>565.0</ele><time>2026-04-10T10:25:15.744Z</time></trkpt><trkpt lat="46.0039939" lon="10.965596"><ele>565.0</ele><time>2026-04-10T10:25:17.744Z</time></trkpt><trkpt lat="46.0039331" lon="10.9655573"><ele>565.5</ele><time>2026-04-10T10:25:18.744Z</time></trkpt><trkpt lat="46.0038731" lon="10.9654966"><ele>566.0</ele><time>2026-04-10T10:25:19.744Z</time></trkpt><trkpt lat="46.0038102" lon="10.9654289"><ele>566.5</ele><time>2026-04-10T10:25:20.744Z</time></trkpt><trkpt lat="46.0037368" lon="10.9653638"><ele>567.0</ele><time>2026-04-10T10:25:21.744Z</time></trkpt><trkpt lat="46.0036578" lon="10.9653"><ele>567.5</ele><time>2026-04-10T10:25:22.744Z</time></trkpt><trkpt lat="46.0035752" lon="10.9652336"><ele>568.0</ele><time>2026-04-10T10:25:23.744Z</time></trkpt><trkpt lat="46.0034896" lon="10.9651654"><ele>568.0</ele><time>2026-04-10T10:25:24.745Z</time></trkpt><trkpt lat="46.0034035" lon="10.9651014"><ele>568.0</ele><time>2026-04-10T10:25:25.744Z</time></trkpt><trkpt lat="46.0033129" lon="10.965036"><ele>568.0</ele><time>2026-04-10T10:25:26.744Z</time></trkpt><trkpt lat="46.0032185" lon="10.9649696"><ele>568.0</ele><time>2026-04-10T10:25:27.744Z</time></trkpt><trkpt lat="46.0031166" lon="10.9649015"><ele>568.0</ele><time>2026-04-10T10:25:28.744Z</time></trkpt><trkpt lat="46.0030168" lon="10.96482"><ele>567.5</ele><time>2026-04-10T10:25:29.744Z</time></trkpt><trkpt lat="46.0029252" lon="10.9647208"><ele>567.0</ele><time>2026-04-10T10:25:30.744Z</time></trkpt><trkpt lat="46.0028337" lon="10.9646151"><ele>566.5</ele><time>2026-04-10T10:25:31.744Z</time></trkpt><trkpt lat="46.0027426" lon="10.9645079"><ele>566.0</ele><time>2026-04-10T10:25:32.744Z</time></trkpt><trkpt lat="46.002656" lon="10.9644046"><ele>566.0</ele><time>2026-04-10T10:25:33.744Z</time></trkpt><trkpt lat="46.0025719" lon="10.9643222"><ele>566.0</ele><time>2026-04-10T10:25:34.744Z</time></trkpt><trkpt lat="46.0024878" lon="10.9642496"><ele>566.0</ele><time>2026-04-10T10:25:35.744Z</time></trkpt><trkpt lat="46.0023965" lon="10.9641814"><ele>566.0</ele><time>2026-04-10T10:25:36.744Z</time></trkpt><trkpt lat="46.0023133" lon="10.9641139"><ele>566.0</ele><time>2026-04-10T10:25:37.744Z</time></trkpt><trkpt lat="46.0022263" lon="10.9640517"><ele>563.1666666666666</ele><time>2026-04-10T10:25:38.745Z</time></trkpt><trkpt lat="46.0021374" lon="10.9640198"><ele>560.3333333333333</ele><time>2026-04-10T10:25:39.744Z</time></trkpt><trkpt lat="46.002045" lon="10.9640126"><ele>557.5</ele><time>2026-04-10T10:25:40.744Z</time></trkpt><trkpt lat="46.0019524" lon="10.964012"><ele>554.6666666666666</ele><time>2026-04-10T10:25:41.744Z</time></trkpt><trkpt lat="46.0018668" lon="10.9640268"><ele>551.8333333333334</ele><time>2026-04-10T10:25:42.744Z</time></trkpt><trkpt lat="46.0017915" lon="10.9640416"><ele>549.0</ele><time>2026-04-10T10:25:43.744Z</time></trkpt><trkpt lat="46.0016942" lon="10.9640435"><ele>549.0</ele><time>2026-04-10T10:25:45.745Z</time></trkpt><trkpt lat="46.0016715" lon="10.963949"><ele>549.0</ele><time>2026-04-10T10:25:47.745Z</time></trkpt><trkpt lat="46.0017544" lon="10.9638645"><ele>549.0</ele><time>2026-04-10T10:25:49.745Z</time></trkpt><trkpt lat="46.0018174" lon="10.9638402"><ele>549.0</ele><time>2026-04-10T10:25:50.745Z</time></trkpt><trkpt lat="46.0018973" lon="10.9638271"><ele>549.0</ele><time>2026-04-10T10:25:51.745Z</time></trkpt><trkpt lat="46.001983" lon="10.9637973"><ele>549.0</ele><time>2026-04-10T10:25:52.745Z</time></trkpt><trkpt lat="46.0020822" lon="10.9637912"><ele>549.0</ele><time>2026-04-10T10:25:53.745Z</time></trkpt><trkpt lat="46.0021836" lon="10.9638192"><ele>549.0</ele><time>2026-04-10T10:25:54.745Z</time></trkpt><trkpt lat="46.0022906" lon="10.9638566"><ele>549.0</ele><time>2026-04-10T10:25:55.746Z</time></trkpt><trkpt lat="46.0024048" lon="10.9638898"><ele>549.0</ele><time>2026-04-10T10:25:56.745Z</time></trkpt><trkpt lat="46.002526" lon="10.9639168"><ele>547.0</ele><time>2026-04-10T10:25:57.745Z</time></trkpt><trkpt lat="46.0026408" lon="10.9639521"><ele>545.0</ele><time>2026-04-10T10:25:58.745Z</time></trkpt><trkpt lat="46.0027465" lon="10.9640085"><ele>543.0</ele><time>2026-04-10T10:25:59.745Z</time></trkpt><trkpt lat="46.0028523" lon="10.9640499"><ele>541.0</ele><time>2026-04-10T10:26:00.745Z</time></trkpt><trkpt lat="46.0029588" lon="10.9640924"><ele>541.0</ele><time>2026-04-10T10:26:01.745Z</time></trkpt><trkpt lat="46.0030666" lon="10.9641252"><ele>541.0</ele><time>2026-04-10T10:26:02.745Z</time></trkpt><trkpt lat="46.0031678" lon="10.9641501"><ele>541.0</ele><time>2026-04-10T10:26:03.745Z</time></trkpt><trkpt lat="46.0032722" lon="10.9641573"><ele>541.0</ele><time>2026-04-10T10:26:04.746Z</time></trkpt><trkpt lat="46.0033654" lon="10.9641469"><ele>541.0</ele><time>2026-04-10T10:26:05.745Z</time></trkpt><trkpt lat="46.0034579" lon="10.9641553"><ele>542.6</ele><time>2026-04-10T10:26:06.745Z</time></trkpt><trkpt lat="46.0035513" lon="10.9641864"><ele>544.2</ele><time>2026-04-10T10:26:07.745Z</time></trkpt><trkpt lat="46.0036389" lon="10.9642218"><ele>545.8</ele><time>2026-04-10T10:26:08.745Z</time></trkpt><trkpt lat="46.0037269" lon="10.9642769"><ele>547.4</ele><time>2026-04-10T10:26:09.745Z</time></trkpt><trkpt lat="46.0038059" lon="10.9643347"><ele>549.0</ele><time>2026-04-10T10:26:10.745Z</time></trkpt><trkpt lat="46.0039152" lon="10.9643597"><ele>549.0</ele><time>2026-04-10T10:26:11.745Z</time></trkpt><trkpt lat="46.0040204" lon="10.9643675"><ele>549.0</ele><time>2026-04-10T10:26:12.745Z</time></trkpt><trkpt lat="46.0041059" lon="10.9643842"><ele>549.0</ele><time>2026-04-10T10:26:13.745Z</time></trkpt><trkpt lat="46.0041831" lon="10.9644045"><ele>549.0</ele><time>2026-04-10T10:26:14.745Z</time></trkpt><trkpt lat="46.0042525" lon="10.9644187"><ele>549.0</ele><time>2026-04-10T10:26:15.745Z</time></trkpt><trkpt lat="46.004339" lon="10.9643354"><ele>549.0</ele><time>2026-04-10T10:26:17.745Z</time></trkpt><trkpt lat="46.0042866" lon="10.9641687"><ele>544.8</ele><time>2026-04-10T10:26:19.745Z</time></trkpt><trkpt lat="46.0042214" lon="10.964091"><ele>540.5999999999999</ele><time>2026-04-10T10:26:20.745Z</time></trkpt><trkpt lat="46.0041317" lon="10.9640187"><ele>536.4</ele><time>2026-04-10T10:26:21.745Z</time></trkpt><trkpt lat="46.0040397" lon="10.9639371"><ele>532.1999999999999</ele><time>2026-04-10T10:26:22.745Z</time></trkpt><trkpt lat="46.0039525" lon="10.9638355"><ele>528.0</ele><time>2026-04-10T10:26:23.745Z</time></trkpt><trkpt lat="46.0038616" lon="10.9637132"><ele>528.0</ele><time>2026-04-10T10:26:24.745Z</time></trkpt><trkpt lat="46.0037687" lon="10.9636121"><ele>528.0</ele><time>2026-04-10T10:26:25.745Z</time></trkpt><trkpt lat="46.0036707" lon="10.9635335"><ele>528.0</ele><time>2026-04-10T10:26:26.745Z</time></trkpt><trkpt lat="46.0035742" lon="10.9634731"><ele>528.0</ele><time>2026-04-10T10:26:27.745Z</time></trkpt><trkpt lat="46.0034726" lon="10.9634095"><ele>528.0</ele><time>2026-04-10T10:26:28.745Z</time></trkpt><trkpt lat="46.0033834" lon="10.9633557"><ele>525.6666666666666</ele><time>2026-04-10T10:26:29.746Z</time></trkpt><trkpt lat="46.0033232" lon="10.9633217"><ele>523.3333333333334</ele><time>2026-04-10T10:26:30.746Z</time></trkpt><trkpt lat="46.0032618" lon="10.9632692"><ele>521.0</ele><time>2026-04-10T10:26:32.746Z</time></trkpt><trkpt lat="46.0033055" lon="10.963202"><ele>518.6666666666667</ele><time>2026-04-10T10:26:35.746Z</time></trkpt><trkpt lat="46.0033891" lon="10.9632273"><ele>516.3333333333334</ele><time>2026-04-10T10:26:49.746Z</time></trkpt><trkpt lat="46.0035293" lon="10.9632677"><ele>514.0</ele><time>2026-04-10T10:26:51.746Z</time></trkpt><trkpt lat="46.0036117" lon="10.9633052"><ele>512.6</ele><time>2026-04-10T10:26:52.747Z</time></trkpt><trkpt lat="46.0037034" lon="10.9633397"><ele>511.2</ele><time>2026-04-10T10:26:53.746Z</time></trkpt><trkpt lat="46.0037985" lon="10.9633681"><ele>509.80000000000007</ele><time>2026-04-10T10:26:54.746Z</time></trkpt><trkpt lat="46.0038974" lon="10.9633879"><ele>508.40000000000003</ele><time>2026-04-10T10:26:55.746Z</time></trkpt><trkpt lat="46.003986" lon="10.9633838"><ele>507.0</ele><time>2026-04-10T10:26:56.746Z</time></trkpt><trkpt lat="46.0040771" lon="10.9633884"><ele>509.40000000000003</ele><time>2026-04-10T10:26:57.746Z</time></trkpt><trkpt lat="46.0041731" lon="10.9633979"><ele>511.80000000000007</ele><time>2026-04-10T10:26:58.746Z</time></trkpt><trkpt lat="46.0042647" lon="10.9634221"><ele>514.2</ele><time>2026-04-10T10:26:59.746Z</time></trkpt><trkpt lat="46.0043482" lon="10.9634523"><ele>516.6</ele><time>2026-04-10T10:27:00.746Z</time></trkpt><trkpt lat="46.0044335" lon="10.9634934"><ele>519.0</ele><time>2026-04-10T10:27:01.746Z</time></trkpt><trkpt lat="46.0045237" lon="10.9635466"><ele>519.0</ele><time>2026-04-10T10:27:02.746Z</time></trkpt><trkpt lat="46.0046196" lon="10.9636034"><ele>519.0</ele><time>2026-04-10T10:27:03.746Z</time></trkpt><trkpt lat="46.0047141" lon="10.9636554"><ele>519.0</ele><time>2026-04-10T10:27:04.746Z</time></trkpt><trkpt lat="46.0048067" lon="10.9636994"><ele>519.0</ele><time>2026-04-10T10:27:05.746Z</time></trkpt><trkpt lat="46.004904" lon="10.9637347"><ele>519.0</ele><time>2026-04-10T10:27:06.746Z</time></trkpt><trkpt lat="46.0050064" lon="10.9637418"><ele>517.8</ele><time>2026-04-10T10:27:07.746Z</time></trkpt><trkpt lat="46.0051097" lon="10.9637303"><ele>516.5999999999999</ele><time>2026-04-10T10:27:08.747Z</time></trkpt><trkpt lat="46.0052056" lon="10.9637205"><ele>515.4</ele><time>2026-04-10T10:27:09.747Z</time></trkpt><trkpt lat="46.005305" lon="10.9637055"><ele>514.1999999999999</ele><time>2026-04-10T10:27:10.747Z</time></trkpt><trkpt lat="46.0053878" lon="10.96368"><ele>513.0</ele><time>2026-04-10T10:27:11.747Z</time></trkpt><trkpt lat="46.0054701" lon="10.9636723"><ele>513.0</ele><time>2026-04-10T10:27:12.747Z</time></trkpt><trkpt lat="46.0055462" lon="10.963682"><ele>513.0</ele><time>2026-04-10T10:27:13.747Z</time></trkpt><trkpt lat="46.0056241" lon="10.9637001"><ele>513.0</ele><time>2026-04-10T10:27:14.747Z</time></trkpt><trkpt lat="46.0057072" lon="10.9637209"><ele>513.0</ele><time>2026-04-10T10:27:15.747Z</time></trkpt><trkpt lat="46.0058016" lon="10.9637343"><ele>513.0</ele><time>2026-04-10T10:27:16.747Z</time></trkpt><trkpt lat="46.0059032" lon="10.9637413"><ele>513.0</ele><time>2026-04-10T10:27:17.747Z</time></trkpt><trkpt lat="46.005999" lon="10.9637266"><ele>511.59999999999997</ele><time>2026-04-10T10:27:18.747Z</time></trkpt><trkpt lat="46.0060855" lon="10.9637238"><ele>510.19999999999993</ele><time>2026-04-10T10:27:19.747Z</time></trkpt><trkpt lat="46.0061782" lon="10.9637231"><ele>508.8</ele><time>2026-04-10T10:27:20.747Z</time></trkpt><trkpt lat="46.0062725" lon="10.9637158"><ele>507.4</ele><time>2026-04-10T10:27:21.747Z</time></trkpt><trkpt lat="46.0063615" lon="10.9636643"><ele>506.0</ele><time>2026-04-10T10:27:22.747Z</time></trkpt><trkpt lat="46.0064492" lon="10.9635999"><ele>506.0</ele><time>2026-04-10T10:27:23.747Z</time></trkpt><trkpt lat="46.0065283" lon="10.9635299"><ele>506.0</ele><time>2026-04-10T10:27:24.747Z</time></trkpt><trkpt lat="46.0066013" lon="10.9634604"><ele>506.0</ele><time>2026-04-10T10:27:25.747Z</time></trkpt><trkpt lat="46.006686" lon="10.963403"><ele>506.0</ele><time>2026-04-10T10:27:26.748Z</time></trkpt><trkpt lat="46.0067836" lon="10.9633656"><ele>506.0</ele><time>2026-04-10T10:27:27.747Z</time></trkpt><trkpt lat="46.0068915" lon="10.9633412"><ele>500.0</ele><time>2026-04-10T10:27:28.747Z</time></trkpt><trkpt lat="46.0070002" lon="10.9633106"><ele>494.0</ele><time>2026-04-10T10:27:29.748Z</time></trkpt><trkpt lat="46.0070941" lon="10.9632617"><ele>488.0</ele><time>2026-04-10T10:27:30.747Z</time></trkpt><trkpt lat="46.0071727" lon="10.9632069"><ele>482.0</ele><time>2026-04-10T10:27:31.747Z</time></trkpt><trkpt lat="46.0072392" lon="10.9631594"><ele>476.0</ele><time>2026-04-10T10:27:32.747Z</time></trkpt><trkpt lat="46.0073475" lon="10.9631321"><ele>476.0</ele><time>2026-04-10T10:27:34.747Z</time></trkpt><trkpt lat="46.0074313" lon="10.9632232"><ele>476.0</ele><time>2026-04-10T10:27:36.747Z</time></trkpt><trkpt lat="46.0074499" lon="10.9634108"><ele>476.0</ele><time>2026-04-10T10:27:38.747Z</time></trkpt><trkpt lat="46.0074512" lon="10.9635293"><ele>476.0</ele><time>2026-04-10T10:27:39.747Z</time></trkpt><trkpt lat="46.0074592" lon="10.9636445"><ele>476.0</ele><time>2026-04-10T10:27:40.747Z</time></trkpt><trkpt lat="46.0074737" lon="10.9637566"><ele>476.16666666666663</ele><time>2026-04-10T10:27:41.747Z</time></trkpt><trkpt lat="46.0074871" lon="10.9638752"><ele>476.3333333333333</ele><time>2026-04-10T10:27:42.748Z</time></trkpt><trkpt lat="46.0074906" lon="10.9640013"><ele>476.5</ele><time>2026-04-10T10:27:43.747Z</time></trkpt><trkpt lat="46.0075006" lon="10.9641203"><ele>476.66666666666663</ele><time>2026-04-10T10:27:44.747Z</time></trkpt><trkpt lat="46.0075268" lon="10.9642213"><ele>476.8333333333333</ele><time>2026-04-10T10:27:45.747Z</time></trkpt><trkpt lat="46.0075744" lon="10.9642876"><ele>477.0</ele><time>2026-04-10T10:27:46.747Z</time></trkpt><trkpt lat="46.007632" lon="10.9643323"><ele>477.0</ele><time>2026-04-10T10:27:47.747Z</time></trkpt><trkpt lat="46.0076939" lon="10.9643649"><ele>476.99999999999994</ele><time>2026-04-10T10:27:48.747Z</time></trkpt><trkpt lat="46.0077571" lon="10.9643787"><ele>477.0</ele><time>2026-04-10T10:27:49.748Z</time></trkpt><trkpt lat="46.0078255" lon="10.9643814"><ele>477.0</ele><time>2026-04-10T10:27:50.748Z</time></trkpt><trkpt lat="46.0078929" lon="10.9643576"><ele>476.99999999999994</ele><time>2026-04-10T10:27:51.748Z</time></trkpt><trkpt lat="46.0079464" lon="10.9643081"><ele>477.0</ele><time>2026-04-10T10:27:52.748Z</time></trkpt><trkpt lat="46.0079777" lon="10.9642212"><ele>477.0</ele><time>2026-04-10T10:27:53.748Z</time></trkpt><trkpt lat="46.0079857" lon="10.9641004"><ele>477.0</ele><time>2026-04-10T10:27:54.748Z</time></trkpt><trkpt lat="46.0079692" lon="10.9639525"><ele>477.00000000000006</ele><time>2026-04-10T10:27:55.749Z</time></trkpt><trkpt lat="46.0079511" lon="10.9637842"><ele>477.00000000000006</ele><time>2026-04-10T10:27:56.748Z</time></trkpt><trkpt lat="46.0079444" lon="10.9636241"><ele>477.0</ele><time>2026-04-10T10:27:57.748Z</time></trkpt><trkpt lat="46.0079276" lon="10.9634787"><ele>477.0</ele><time>2026-04-10T10:27:58.749Z</time></trkpt><trkpt lat="46.007906" lon="10.9633342"><ele>475.6</ele><time>2026-04-10T10:27:59.748Z</time></trkpt><trkpt lat="46.0078983" lon="10.9631849"><ele>474.20000000000005</ele><time>2026-04-10T10:28:00.749Z</time></trkpt><trkpt lat="46.0078946" lon="10.9630445"><ele>472.8</ele><time>2026-04-10T10:28:01.748Z</time></trkpt><trkpt lat="46.0078863" lon="10.9629111"><ele>471.4</ele><time>2026-04-10T10:28:02.748Z</time></trkpt><trkpt lat="46.0078651" lon="10.9627966"><ele>470.0</ele><time>2026-04-10T10:28:03.748Z</time></trkpt><trkpt lat="46.0078154" lon="10.9627093"><ele>469.99999999999994</ele><time>2026-04-10T10:28:04.748Z</time></trkpt><trkpt lat="46.0077443" lon="10.9626594"><ele>470.0</ele><time>2026-04-10T10:28:05.748Z</time></trkpt><trkpt lat="46.007667" lon="10.9626247"><ele>470.0</ele><time>2026-04-10T10:28:06.749Z</time></trkpt><trkpt lat="46.0075909" lon="10.9626113"><ele>470.0</ele><time>2026-04-10T10:28:07.748Z</time></trkpt><trkpt lat="46.0075225" lon="10.9626114"><ele>469.99999999999994</ele><time>2026-04-10T10:28:08.748Z</time></trkpt><trkpt lat="46.0074122" lon="10.962606"><ele>470.0</ele><time>2026-04-10T10:28:10.748Z</time></trkpt><trkpt lat="46.0073676" lon="10.9625005"><ele>465.8</ele><time>2026-04-10T10:28:12.748Z</time></trkpt><trkpt lat="46.007458" lon="10.962445"><ele>461.6</ele><time>2026-04-10T10:28:29.749Z</time></trkpt><trkpt lat="46.0075845" lon="10.962442"><ele>457.4</ele><time>2026-04-10T10:28:31.749Z</time></trkpt><trkpt lat="46.0076706" lon="10.9624396"><ele>453.2</ele><time>2026-04-10T10:28:32.749Z</time></trkpt><trkpt lat="46.0077733" lon="10.9624334"><ele>449.0</ele><time>2026-04-10T10:28:33.749Z</time></trkpt><trkpt lat="46.0078908" lon="10.9624448"><ele>449.0</ele><time>2026-04-10T10:28:34.749Z</time></trkpt><trkpt lat="46.0080052" lon="10.9624681"><ele>449.0</ele><time>2026-04-10T10:28:35.749Z</time></trkpt><trkpt lat="46.0081134" lon="10.9624752"><ele>449.0</ele><time>2026-04-10T10:28:36.749Z</time></trkpt><trkpt lat="46.0082211" lon="10.9624859"><ele>449.0</ele><time>2026-04-10T10:28:37.749Z</time></trkpt><trkpt lat="46.0083409" lon="10.9624644"><ele>447.4</ele><time>2026-04-10T10:28:38.749Z</time></trkpt><trkpt lat="46.0084586" lon="10.9624721"><ele>445.79999999999995</ele><time>2026-04-10T10:28:39.749Z</time></trkpt><trkpt lat="46.0085715" lon="10.9624781"><ele>444.20000000000005</ele><time>2026-04-10T10:28:40.75Z</time></trkpt><trkpt lat="46.0086822" lon="10.9624681"><ele>442.6</ele><time>2026-04-10T10:28:41.749Z</time></trkpt><trkpt lat="46.0087888" lon="10.9624646"><ele>441.0</ele><time>2026-04-10T10:28:42.749Z</time></trkpt><trkpt lat="46.0088912" lon="10.962467"><ele>441.0</ele><time>2026-04-10T10:28:43.749Z</time></trkpt><trkpt lat="46.0089919" lon="10.9624727"><ele>441.0</ele><time>2026-04-10T10:28:44.749Z</time></trkpt><trkpt lat="46.0090977" lon="10.9624921"><ele>441.0</ele><time>2026-04-10T10:28:45.749Z</time></trkpt><trkpt lat="46.0092099" lon="10.9625246"><ele>441.0</ele><time>2026-04-10T10:28:46.749Z</time></trkpt><trkpt lat="46.0093262" lon="10.9625581"><ele>441.0</ele><time>2026-04-10T10:28:47.75Z</time></trkpt><trkpt lat="46.009441" lon="10.9625855"><ele>444.0</ele><time>2026-04-10T10:28:48.749Z</time></trkpt><trkpt lat="46.0095541" lon="10.9626099"><ele>447.0</ele><time>2026-04-10T10:28:49.749Z</time></trkpt><trkpt lat="46.0096735" lon="10.9626131"><ele>450.0</ele><time>2026-04-10T10:28:50.749Z</time></trkpt><trkpt lat="46.0098009" lon="10.9625978"><ele>453.0</ele><time>2026-04-10T10:28:51.749Z</time></trkpt><trkpt lat="46.0099333" lon="10.9625678"><ele>447.25</ele><time>2026-04-10T10:28:52.75Z</time></trkpt><trkpt lat="46.0100604" lon="10.962527"><ele>441.5</ele><time>2026-04-10T10:28:53.749Z</time></trkpt><trkpt lat="46.0101806" lon="10.9624932"><ele>435.75</ele><time>2026-04-10T10:28:54.749Z</time></trkpt><trkpt lat="46.0103036" lon="10.9624581"><ele>430.0</ele><time>2026-04-10T10:28:55.749Z</time></trkpt><trkpt lat="46.0104213" lon="10.9624325"><ele>430.0</ele><time>2026-04-10T10:28:56.749Z</time></trkpt><trkpt lat="46.0105347" lon="10.9624137"><ele>430.0</ele><time>2026-04-10T10:28:57.749Z</time></trkpt><trkpt lat="46.010648" lon="10.9623997"><ele>430.0</ele><time>2026-04-10T10:28:58.75Z</time></trkpt><trkpt lat="46.0107628" lon="10.9623937"><ele>430.0</ele><time>2026-04-10T10:28:59.749Z</time></trkpt><trkpt lat="46.0108849" lon="10.9623888"><ele>430.0</ele><time>2026-04-10T10:29:00.749Z</time></trkpt><trkpt lat="46.0110125" lon="10.9623766"><ele>430.0</ele><time>2026-04-10T10:29:01.749Z</time></trkpt><trkpt lat="46.0111373" lon="10.9623586"><ele>430.0</ele><time>2026-04-10T10:29:02.749Z</time></trkpt><trkpt lat="46.0112544" lon="10.9623419"><ele>430.0</ele><time>2026-04-10T10:29:03.749Z</time></trkpt><trkpt lat="46.011367" lon="10.9623167"><ele>430.0</ele><time>2026-04-10T10:29:04.749Z</time></trkpt><trkpt lat="46.01147" lon="10.9622866"><ele>430.0</ele><time>2026-04-10T10:29:05.749Z</time></trkpt><trkpt lat="46.0115617" lon="10.9622607"><ele>430.0</ele><time>2026-04-10T10:29:06.749Z</time></trkpt><trkpt lat="46.0116502" lon="10.9622413"><ele>430.0</ele><time>2026-04-10T10:29:07.749Z</time></trkpt><trkpt lat="46.0117353" lon="10.9622281"><ele>430.0</ele><time>2026-04-10T10:29:08.749Z</time></trkpt><trkpt lat="46.0118208" lon="10.9622207"><ele>429.6</ele><time>2026-04-10T10:29:09.749Z</time></trkpt><trkpt lat="46.0119037" lon="10.9622219"><ele>429.2</ele><time>2026-04-10T10:29:10.75Z</time></trkpt><trkpt lat="46.0119904" lon="10.9622249"><ele>428.79999999999995</ele><time>2026-04-10T10:29:11.75Z</time></trkpt><trkpt lat="46.0120794" lon="10.962226"><ele>428.4</ele><time>2026-04-10T10:29:12.75Z</time></trkpt><trkpt lat="46.0121744" lon="10.9622464"><ele>428.0</ele><time>2026-04-10T10:29:13.75Z</time></trkpt><trkpt lat="46.0122731" lon="10.9622834"><ele>428.0</ele><time>2026-04-10T10:29:14.75Z</time></trkpt><trkpt lat="46.012377" lon="10.9623251"><ele>427.99999999999994</ele><time>2026-04-10T10:29:15.75Z</time></trkpt><trkpt lat="46.0124825" lon="10.9623659"><ele>427.99999999999994</ele><time>2026-04-10T10:29:16.75Z</time></trkpt><trkpt lat="46.0125868" lon="10.9623974"><ele>428.0</ele><time>2026-04-10T10:29:17.75Z</time></trkpt><trkpt lat="46.0126921" lon="10.9624194"><ele>428.0</ele><time>2026-04-10T10:29:18.75Z</time></trkpt><trkpt lat="46.012799" lon="10.9624439"><ele>425.2</ele><time>2026-04-10T10:29:19.75Z</time></trkpt><trkpt lat="46.0129053" lon="10.9624615"><ele>422.4</ele><time>2026-04-10T10:29:20.75Z</time></trkpt><trkpt lat="46.0130102" lon="10.9624708"><ele>419.59999999999997</ele><time>2026-04-10T10:29:21.75Z</time></trkpt><trkpt lat="46.0131048" lon="10.962456"><ele>416.79999999999995</ele><time>2026-04-10T10:29:22.75Z</time></trkpt><trkpt lat="46.0131889" lon="10.9624508"><ele>414.0</ele><time>2026-04-10T10:29:23.75Z</time></trkpt><trkpt lat="46.0132732" lon="10.9624711"><ele>415.6</ele><time>2026-04-10T10:29:24.751Z</time></trkpt><trkpt lat="46.01336" lon="10.9624993"><ele>417.2</ele><time>2026-04-10T10:29:25.75Z</time></trkpt><trkpt lat="46.0134442" lon="10.9625323"><ele>418.8</ele><time>2026-04-10T10:29:26.75Z</time></trkpt><trkpt lat="46.0135248" lon="10.9625684"><ele>420.40000000000003</ele><time>2026-04-10T10:29:27.751Z</time></trkpt><trkpt lat="46.0136147" lon="10.9626111"><ele>422.0</ele><time>2026-04-10T10:29:28.75Z</time></trkpt><trkpt lat="46.0137077" lon="10.9626534"><ele>422.0</ele><time>2026-04-10T10:29:29.75Z</time></trkpt><trkpt lat="46.0138029" lon="10.9626744"><ele>422.0</ele><time>2026-04-10T10:29:30.75Z</time></trkpt><trkpt lat="46.013898" lon="10.9626851"><ele>422.0</ele><time>2026-04-10T10:29:31.75Z</time></trkpt><trkpt lat="46.0139973" lon="10.9626896"><ele>422.0</ele><time>2026-04-10T10:29:32.751Z</time></trkpt><trkpt lat="46.0140911" lon="10.9626961"><ele>422.0</ele><time>2026-04-10T10:29:33.75Z</time></trkpt><trkpt lat="46.0141757" lon="10.9627067"><ele>419.99999999999994</ele><time>2026-04-10T10:29:34.75Z</time></trkpt><trkpt lat="46.0142692" lon="10.9627112"><ele>418.0</ele><time>2026-04-10T10:29:35.75Z</time></trkpt><trkpt lat="46.0143593" lon="10.9627102"><ele>416.0</ele><time>2026-04-10T10:29:36.75Z</time></trkpt><trkpt lat="46.0144324" lon="10.9627137"><ele>414.0</ele><time>2026-04-10T10:29:37.75Z</time></trkpt><trkpt lat="46.0144985" lon="10.9627395"><ele>411.99999999999994</ele><time>2026-04-10T10:29:38.75Z</time></trkpt><trkpt lat="46.0145675" lon="10.9627875"><ele>410.0</ele><time>2026-04-10T10:29:39.75Z</time></trkpt><trkpt lat="46.0146462" lon="10.9628394"><ele>409.99999999999994</ele><time>2026-04-10T10:29:40.75Z</time></trkpt><trkpt lat="46.0147437" lon="10.9628555"><ele>410.0</ele><time>2026-04-10T10:29:41.75Z</time></trkpt><trkpt lat="46.0148373" lon="10.9628548"><ele>410.0</ele><time>2026-04-10T10:29:42.75Z</time></trkpt><trkpt lat="46.0149269" lon="10.9628434"><ele>410.0</ele><time>2026-04-10T10:29:43.75Z</time></trkpt><trkpt lat="46.0150054" lon="10.9628026"><ele>409.99999999999994</ele><time>2026-04-10T10:29:44.75Z</time></trkpt><trkpt lat="46.0150743" lon="10.9627411"><ele>410.0</ele><time>2026-04-10T10:29:45.75Z</time></trkpt><trkpt lat="46.015142" lon="10.9626728"><ele>408.49999999999994</ele><time>2026-04-10T10:29:46.75Z</time></trkpt><trkpt lat="46.0152156" lon="10.962608"><ele>407.0</ele><time>2026-04-10T10:29:47.75Z</time></trkpt><trkpt lat="46.0152908" lon="10.9625584"><ele>405.5</ele><time>2026-04-10T10:29:48.75Z</time></trkpt><trkpt lat="46.0153626" lon="10.9625379"><ele>404.0</ele><time>2026-04-10T10:29:49.75Z</time></trkpt><trkpt lat="46.0154386" lon="10.962546"><ele>402.49999999999994</ele><time>2026-04-10T10:29:50.751Z</time></trkpt><trkpt lat="46.0155215" lon="10.9625824"><ele>401.0</ele><time>2026-04-10T10:29:51.751Z</time></trkpt><trkpt lat="46.0156057" lon="10.9626026"><ele>401.0</ele><time>2026-04-10T10:29:52.751Z</time></trkpt><trkpt lat="46.0157069" lon="10.9626527"><ele>401.0</ele><time>2026-04-10T10:29:53.751Z</time></trkpt><trkpt lat="46.0158119" lon="10.9627251"><ele>401.0</ele><time>2026-04-10T10:29:54.751Z</time></trkpt><trkpt lat="46.0159221" lon="10.9627924"><ele>401.0</ele><time>2026-04-10T10:29:55.752Z</time></trkpt><trkpt lat="46.0160251" lon="10.9628586"><ele>399.0</ele><time>2026-04-10T10:29:56.751Z</time></trkpt><trkpt lat="46.0161226" lon="10.962915"><ele>397.0</ele><time>2026-04-10T10:29:57.751Z</time></trkpt><trkpt lat="46.0162228" lon="10.9629363"><ele>395.0</ele><time>2026-04-10T10:29:58.752Z</time></trkpt><trkpt lat="46.016323" lon="10.9629656"><ele>393.0</ele><time>2026-04-10T10:29:59.751Z</time></trkpt><trkpt lat="46.0164235" lon="10.962994"><ele>391.0</ele><time>2026-04-10T10:30:00.751Z</time></trkpt><trkpt lat="46.0165223" lon="10.9630406"><ele>391.0</ele><time>2026-04-10T10:30:01.751Z</time></trkpt><trkpt lat="46.016622" lon="10.9630929"><ele>391.0</ele><time>2026-04-10T10:30:02.751Z</time></trkpt><trkpt lat="46.0167133" lon="10.9631623"><ele>391.0</ele><time>2026-04-10T10:30:03.751Z</time></trkpt><trkpt lat="46.0168017" lon="10.9632357"><ele>391.0</ele><time>2026-04-10T10:30:04.752Z</time></trkpt><trkpt lat="46.0168896" lon="10.9632779"><ele>391.0</ele><time>2026-04-10T10:30:05.751Z</time></trkpt><trkpt lat="46.0169811" lon="10.9632737"><ele>387.6</ele><time>2026-04-10T10:30:06.751Z</time></trkpt><trkpt lat="46.01707" lon="10.9632602"><ele>384.20000000000005</ele><time>2026-04-10T10:30:07.751Z</time></trkpt><trkpt lat="46.0171599" lon="10.9632571"><ele>380.79999999999995</ele><time>2026-04-10T10:30:08.752Z</time></trkpt><trkpt lat="46.0172551" lon="10.9632712"><ele>377.4</ele><time>2026-04-10T10:30:09.751Z</time></trkpt><trkpt lat="46.0173522" lon="10.963316"><ele>374.0</ele><time>2026-04-10T10:30:10.751Z</time></trkpt><trkpt lat="46.0174468" lon="10.9633594"><ele>372.6</ele><time>2026-04-10T10:30:11.751Z</time></trkpt><trkpt lat="46.0175609" lon="10.9633709"><ele>371.2</ele><time>2026-04-10T10:30:12.752Z</time></trkpt><trkpt lat="46.0176717" lon="10.9633584"><ele>369.8</ele><time>2026-04-10T10:30:13.751Z</time></trkpt><trkpt lat="46.0177813" lon="10.9633499"><ele>368.40000000000003</ele><time>2026-04-10T10:30:14.751Z</time></trkpt><trkpt lat="46.0178829" lon="10.9633289"><ele>367.0</ele><time>2026-04-10T10:30:15.751Z</time></trkpt><trkpt lat="46.0179676" lon="10.9633008"><ele>367.0</ele><time>2026-04-10T10:30:16.751Z</time></trkpt><trkpt lat="46.0180445" lon="10.9632519"><ele>367.0</ele><time>2026-04-10T10:30:17.751Z</time></trkpt><trkpt lat="46.0181345" lon="10.9632232"><ele>367.0</ele><time>2026-04-10T10:30:18.751Z</time></trkpt><trkpt lat="46.0181989" lon="10.9631655"><ele>367.0</ele><time>2026-04-10T10:30:19.751Z</time></trkpt><trkpt lat="46.0182896" lon="10.9630362"><ele>367.0</ele><time>2026-04-10T10:30:21.751Z</time></trkpt><trkpt lat="46.0183979" lon="10.9629581"><ele>368.5</ele><time>2026-04-10T10:30:23.751Z</time></trkpt><trkpt lat="46.0184654" lon="10.9629441"><ele>370.0</ele><time>2026-04-10T10:30:24.751Z</time></trkpt><trkpt lat="46.0185323" lon="10.9629478"><ele>371.5</ele><time>2026-04-10T10:30:25.751Z</time></trkpt><trkpt lat="46.0186047" lon="10.9629577"><ele>373.0</ele><time>2026-04-10T10:30:26.751Z</time></trkpt><trkpt lat="46.0186861" lon="10.9629782"><ele>374.5</ele><time>2026-04-10T10:30:27.751Z</time></trkpt><trkpt lat="46.0187767" lon="10.9629926"><ele>376.0</ele><time>2026-04-10T10:30:28.751Z</time></trkpt><trkpt lat="46.0188684" lon="10.963001"><ele>376.0</ele><time>2026-04-10T10:30:29.751Z</time></trkpt><trkpt lat="46.0189676" lon="10.9629983"><ele>376.0</ele><time>2026-04-10T10:30:30.751Z</time></trkpt><trkpt lat="46.0190664" lon="10.9629982"><ele>376.0</ele><time>2026-04-10T10:30:31.752Z</time></trkpt><trkpt lat="46.0191641" lon="10.9630113"><ele>376.0</ele><time>2026-04-10T10:30:32.752Z</time></trkpt><trkpt lat="46.0192584" lon="10.9630423"><ele>376.0</ele><time>2026-04-10T10:30:33.752Z</time></trkpt><trkpt lat="46.0193589" lon="10.9630842"><ele>377.5</ele><time>2026-04-10T10:30:34.752Z</time></trkpt><trkpt lat="46.0194676" lon="10.9631162"><ele>379.0</ele><time>2026-04-10T10:30:35.752Z</time></trkpt><trkpt lat="46.0195551" lon="10.9631492"><ele>380.5</ele><time>2026-04-10T10:30:36.752Z</time></trkpt><trkpt lat="46.0196201" lon="10.9632019"><ele>382.0</ele><time>2026-04-10T10:30:37.752Z</time></trkpt><trkpt lat="46.019685" lon="10.9632685"><ele>383.50000000000006</ele><time>2026-04-10T10:30:38.752Z</time></trkpt><trkpt lat="46.0197563" lon="10.9633403"><ele>385.0</ele><time>2026-04-10T10:30:39.752Z</time></trkpt><trkpt lat="46.0198511" lon="10.9634145"><ele>387.33333333333337</ele><time>2026-04-10T10:30:40.752Z</time></trkpt><trkpt lat="46.0199508" lon="10.963491"><ele>389.6666666666667</ele><time>2026-04-10T10:30:41.752Z</time></trkpt><trkpt lat="46.020038" lon="10.9635538"><ele>392.0</ele><time>2026-04-10T10:30:42.752Z</time></trkpt><trkpt lat="46.0201093" lon="10.9636133"><ele>394.33333333333337</ele><time>2026-04-10T10:30:43.752Z</time></trkpt><trkpt lat="46.020173" lon="10.963678"><ele>396.6666666666667</ele><time>2026-04-10T10:30:44.752Z</time></trkpt><trkpt lat="46.0202188" lon="10.963745"><ele>399.0</ele><time>2026-04-10T10:30:45.752Z</time></trkpt><trkpt lat="46.0202999" lon="10.9638735"><ele>399.0</ele><time>2026-04-10T10:30:47.753Z</time></trkpt><trkpt lat="46.0203575" lon="10.9639184"><ele>399.0</ele><time>2026-04-10T10:30:48.753Z</time></trkpt><trkpt lat="46.0204265" lon="10.9639491"><ele>399.0</ele><time>2026-04-10T10:30:49.752Z</time></trkpt><trkpt lat="46.0205025" lon="10.9639805"><ele>399.0</ele><time>2026-04-10T10:30:50.752Z</time></trkpt><trkpt lat="46.0205767" lon="10.9640112"><ele>399.0</ele><time>2026-04-10T10:30:51.752Z</time></trkpt><trkpt lat="46.0206506" lon="10.9640468"><ele>399.0</ele><time>2026-04-10T10:30:52.752Z</time></trkpt><trkpt lat="46.0207074" lon="10.964124"><ele>398.0</ele><time>2026-04-10T10:30:53.752Z</time></trkpt><trkpt lat="46.0207333" lon="10.9642228"><ele>397.0</ele><time>2026-04-10T10:30:54.752Z</time></trkpt><trkpt lat="46.0207518" lon="10.9643488"><ele>396.0</ele><time>2026-04-10T10:30:55.753Z</time></trkpt><trkpt lat="46.0207784" lon="10.9644884"><ele>395.0</ele><time>2026-04-10T10:30:56.752Z</time></trkpt><trkpt lat="46.020804" lon="10.9646399"><ele>394.0</ele><time>2026-04-10T10:30:57.752Z</time></trkpt><trkpt lat="46.0208274" lon="10.9647979"><ele>394.0</ele><time>2026-04-10T10:30:58.753Z</time></trkpt><trkpt lat="46.0208539" lon="10.9649648"><ele>394.0</ele><time>2026-04-10T10:30:59.752Z</time></trkpt><trkpt lat="46.0208909" lon="10.9651394"><ele>394.0</ele><time>2026-04-10T10:31:00.752Z</time></trkpt><trkpt lat="46.0209283" lon="10.9653197"><ele>394.0</ele><time>2026-04-10T10:31:01.752Z</time></trkpt><trkpt lat="46.0209578" lon="10.9654922"><ele>397.25</ele><time>2026-04-10T10:31:02.752Z</time></trkpt><trkpt lat="46.0209909" lon="10.965661"><ele>400.5</ele><time>2026-04-10T10:31:03.752Z</time></trkpt><trkpt lat="46.0210343" lon="10.9658173"><ele>403.75</ele><time>2026-04-10T10:31:04.753Z</time></trkpt><trkpt lat="46.0210926" lon="10.9659686"><ele>407.0</ele><time>2026-04-10T10:31:05.752Z</time></trkpt><trkpt lat="46.0211583" lon="10.9661051"><ele>411.0</ele><time>2026-04-10T10:31:06.752Z</time></trkpt><trkpt lat="46.0212233" lon="10.9662499"><ele>415.0</ele><time>2026-04-10T10:31:07.752Z</time></trkpt><trkpt lat="46.0212875" lon="10.9664008"><ele>419.0</ele><time>2026-04-10T10:31:08.752Z</time></trkpt><trkpt lat="46.021354" lon="10.9665518"><ele>423.0</ele><time>2026-04-10T10:31:09.752Z</time></trkpt><trkpt lat="46.0214225" lon="10.9666996"><ele>424.4</ele><time>2026-04-10T10:31:10.752Z</time></trkpt><trkpt lat="46.0214891" lon="10.9668367"><ele>425.79999999999995</ele><time>2026-04-10T10:31:11.753Z</time></trkpt><trkpt lat="46.0215437" lon="10.9669569"><ele>427.2</ele><time>2026-04-10T10:31:12.753Z</time></trkpt><trkpt lat="46.0215866" lon="10.9670642"><ele>428.6</ele><time>2026-04-10T10:31:13.753Z</time></trkpt><trkpt lat="46.0216219" lon="10.9671733"><ele>430.0</ele><time>2026-04-10T10:31:14.753Z</time></trkpt><trkpt lat="46.0216429" lon="10.9672895"><ele>429.33333333333337</ele><time>2026-04-10T10:31:15.753Z</time></trkpt><trkpt lat="46.0216584" lon="10.9674054"><ele>428.6666666666667</ele><time>2026-04-10T10:31:16.753Z</time></trkpt><trkpt lat="46.0216776" lon="10.9675232"><ele>428.0</ele><time>2026-04-10T10:31:17.753Z</time></trkpt><trkpt lat="46.0216993" lon="10.9676431"><ele>427.33333333333337</ele><time>2026-04-10T10:31:18.753Z</time></trkpt><trkpt lat="46.0217248" lon="10.9677532"><ele>426.6666666666667</ele><time>2026-04-10T10:31:19.753Z</time></trkpt><trkpt lat="46.0217506" lon="10.9678448"><ele>426.0</ele><time>2026-04-10T10:31:20.753Z</time></trkpt><trkpt lat="46.0217402" lon="10.9679982"><ele>429.0</ele><time>2026-04-10T10:31:22.753Z</time></trkpt><trkpt lat="46.0216373" lon="10.9680824"><ele>432.0</ele><time>2026-04-10T10:31:24.753Z</time></trkpt><trkpt lat="46.0215624" lon="10.9680865"><ele>435.0</ele><time>2026-04-10T10:31:25.753Z</time></trkpt><trkpt lat="46.0214839" lon="10.9680667"><ele>438.0</ele><time>2026-04-10T10:31:26.753Z</time></trkpt><trkpt lat="46.0214109" lon="10.968026"><ele>441.0</ele><time>2026-04-10T10:31:27.753Z</time></trkpt><trkpt lat="46.0213302" lon="10.9679574"><ele>444.0</ele><time>2026-04-10T10:31:28.753Z</time></trkpt><trkpt lat="46.0212551" lon="10.967868"><ele>444.0</ele><time>2026-04-10T10:31:29.753Z</time></trkpt><trkpt lat="46.0211865" lon="10.9677676"><ele>444.0</ele><time>2026-04-10T10:31:30.753Z</time></trkpt><trkpt lat="46.0211265" lon="10.9676373"><ele>444.0</ele><time>2026-04-10T10:31:31.754Z</time></trkpt><trkpt lat="46.0210801" lon="10.967502"><ele>444.0</ele><time>2026-04-10T10:31:32.753Z</time></trkpt><trkpt lat="46.0210404" lon="10.9673693"><ele>444.0</ele><time>2026-04-10T10:31:33.753Z</time></trkpt><trkpt lat="46.0210062" lon="10.9672538"><ele>444.0</ele><time>2026-04-10T10:31:34.753Z</time></trkpt><trkpt lat="46.0209299" lon="10.9671641"><ele>444.0</ele><time>2026-04-10T10:31:36.753Z</time></trkpt><trkpt lat="46.0208758" lon="10.9672122"><ele>444.0</ele><time>2026-04-10T10:31:37.754Z</time></trkpt><trkpt lat="46.0208488" lon="10.9672985"><ele>444.0</ele><time>2026-04-10T10:31:38.753Z</time></trkpt><trkpt lat="46.0208451" lon="10.9674123"><ele>444.0</ele><time>2026-04-10T10:31:39.754Z</time></trkpt><trkpt lat="46.0208488" lon="10.9675454"><ele>444.0</ele><time>2026-04-10T10:31:40.753Z</time></trkpt><trkpt lat="46.0208708" lon="10.9676708"><ele>444.0</ele><time>2026-04-10T10:31:41.753Z</time></trkpt><trkpt lat="46.0209041" lon="10.9677901"><ele>444.0</ele><time>2026-04-10T10:31:42.753Z</time></trkpt><trkpt lat="46.0209533" lon="10.9678875"><ele>444.0</ele><time>2026-04-10T10:31:43.753Z</time></trkpt><trkpt lat="46.020999" lon="10.9679602"><ele>444.0</ele><time>2026-04-10T10:31:44.753Z</time></trkpt><trkpt lat="46.0209941" lon="10.9680756"><ele>444.0</ele><time>2026-04-10T10:31:46.753Z</time></trkpt><trkpt lat="46.0209205" lon="10.96807"><ele>444.0</ele><time>2026-04-10T10:31:48.753Z</time></trkpt><trkpt lat="46.020832" lon="10.9679466"><ele>445.0</ele><time>2026-04-10T10:31:50.754Z</time></trkpt><trkpt lat="46.0207788" lon="10.9678509"><ele>446.0</ele><time>2026-04-10T10:31:51.753Z</time></trkpt><trkpt lat="46.0207267" lon="10.9677361"><ele>447.0</ele><time>2026-04-10T10:31:52.754Z</time></trkpt><trkpt lat="46.020675" lon="10.9676086"><ele>448.0</ele><time>2026-04-10T10:31:53.754Z</time></trkpt><trkpt lat="46.0206297" lon="10.9674698"><ele>449.0</ele><time>2026-04-10T10:31:54.754Z</time></trkpt><trkpt lat="46.0205737" lon="10.9673341"><ele>449.0</ele><time>2026-04-10T10:31:55.754Z</time></trkpt><trkpt lat="46.0205093" lon="10.9671945"><ele>449.0</ele><time>2026-04-10T10:31:56.754Z</time></trkpt><trkpt lat="46.0204527" lon="10.9670538"><ele>449.0</ele><time>2026-04-10T10:31:57.754Z</time></trkpt><trkpt lat="46.0203838" lon="10.9669136"><ele>449.0</ele><time>2026-04-10T10:31:58.755Z</time></trkpt><trkpt lat="46.0203127" lon="10.9667777"><ele>448.4</ele><time>2026-04-10T10:31:59.754Z</time></trkpt><trkpt lat="46.0202552" lon="10.9666219"><ele>447.79999999999995</ele><time>2026-04-10T10:32:00.755Z</time></trkpt><trkpt lat="46.0202186" lon="10.9664681"><ele>447.20000000000005</ele><time>2026-04-10T10:32:01.754Z</time></trkpt><trkpt lat="46.0201999" lon="10.9663349"><ele>446.6</ele><time>2026-04-10T10:32:02.754Z</time></trkpt><trkpt lat="46.020186" lon="10.9662385"><ele>446.0</ele><time>2026-04-10T10:32:03.754Z</time></trkpt><trkpt lat="46.0201013" lon="10.9661848"><ele>446.0</ele><time>2026-04-10T10:32:05.754Z</time></trkpt><trkpt lat="46.0200564" lon="10.9663395"><ele>446.0</ele><time>2026-04-10T10:32:07.754Z</time></trkpt><trkpt lat="46.0200594" lon="10.9664434"><ele>446.0</ele><time>2026-04-10T10:32:08.754Z</time></trkpt><trkpt lat="46.0200716" lon="10.9665675"><ele>446.0</ele><time>2026-04-10T10:32:09.754Z</time></trkpt><trkpt lat="46.0200883" lon="10.9667063"><ele>446.0</ele><time>2026-04-10T10:32:10.754Z</time></trkpt><trkpt lat="46.0201075" lon="10.966845"><ele>446.6</ele><time>2026-04-10T10:32:11.754Z</time></trkpt><trkpt lat="46.02013" lon="10.9669939"><ele>447.20000000000005</ele><time>2026-04-10T10:32:12.754Z</time></trkpt><trkpt lat="46.0201502" lon="10.967145"><ele>447.79999999999995</ele><time>2026-04-10T10:32:13.754Z</time></trkpt><trkpt lat="46.0201608" lon="10.9672992"><ele>448.4</ele><time>2026-04-10T10:32:14.754Z</time></trkpt><trkpt lat="46.0201533" lon="10.9674549"><ele>449.0</ele><time>2026-04-10T10:32:15.754Z</time></trkpt><trkpt lat="46.0201476" lon="10.9676064"><ele>450.75</ele><time>2026-04-10T10:32:16.754Z</time></trkpt><trkpt lat="46.0201599" lon="10.9677642"><ele>452.5</ele><time>2026-04-10T10:32:17.754Z</time></trkpt><trkpt lat="46.0201859" lon="10.9679274"><ele>454.25</ele><time>2026-04-10T10:32:18.754Z</time></trkpt><trkpt lat="46.0202223" lon="10.9680814"><ele>456.0</ele><time>2026-04-10T10:32:19.754Z</time></trkpt><trkpt lat="46.0202605" lon="10.9682381"><ele>458.8</ele><time>2026-04-10T10:32:20.754Z</time></trkpt><trkpt lat="46.0203048" lon="10.9683806"><ele>461.6</ele><time>2026-04-10T10:32:21.754Z</time></trkpt><trkpt lat="46.0203636" lon="10.9685012"><ele>464.4</ele><time>2026-04-10T10:32:22.754Z</time></trkpt><trkpt lat="46.0204316" lon="10.9686102"><ele>467.2</ele><time>2026-04-10T10:32:23.754Z</time></trkpt><trkpt lat="46.0205081" lon="10.9687068"><ele>470.0</ele><time>2026-04-10T10:32:24.754Z</time></trkpt><trkpt lat="46.0205898" lon="10.9687906"><ele>470.0</ele><time>2026-04-10T10:32:25.754Z</time></trkpt><trkpt lat="46.0206769" lon="10.9688624"><ele>470.0</ele><time>2026-04-10T10:32:26.754Z</time></trkpt><trkpt lat="46.0207742" lon="10.9689198"><ele>470.0</ele><time>2026-04-10T10:32:27.754Z</time></trkpt><trkpt lat="46.0208695" lon="10.9689862"><ele>470.0</ele><time>2026-04-10T10:32:28.754Z</time></trkpt><trkpt lat="46.0209628" lon="10.9690701"><ele>470.0</ele><time>2026-04-10T10:32:29.754Z</time></trkpt><trkpt lat="46.0210365" lon="10.9691833"><ele>472.4</ele><time>2026-04-10T10:32:30.754Z</time></trkpt><trkpt lat="46.0210934" lon="10.9693202"><ele>474.8</ele><time>2026-04-10T10:32:31.755Z</time></trkpt><trkpt lat="46.0211507" lon="10.9694575"><ele>477.20000000000005</ele><time>2026-04-10T10:32:32.754Z</time></trkpt><trkpt lat="46.0212088" lon="10.9695674"><ele>479.6</ele><time>2026-04-10T10:32:33.755Z</time></trkpt><trkpt lat="46.0212824" lon="10.9696485"><ele>482.0</ele><time>2026-04-10T10:32:34.756Z</time></trkpt><trkpt lat="46.0213707" lon="10.9697033"><ele>482.0</ele><time>2026-04-10T10:32:35.755Z</time></trkpt><trkpt lat="46.0214657" lon="10.9697432"><ele>482.00000000000006</ele><time>2026-04-10T10:32:36.755Z</time></trkpt><trkpt lat="46.0215618" lon="10.9697893"><ele>482.00000000000006</ele><time>2026-04-10T10:32:37.755Z</time></trkpt><trkpt lat="46.0216611" lon="10.9698563"><ele>482.0</ele><time>2026-04-10T10:32:38.756Z</time></trkpt><trkpt lat="46.0217483" lon="10.9699362"><ele>482.0</ele><time>2026-04-10T10:32:39.755Z</time></trkpt><trkpt lat="46.021827" lon="10.9700322"><ele>484.5</ele><time>2026-04-10T10:32:40.755Z</time></trkpt><trkpt lat="46.0218995" lon="10.970152"><ele>487.0</ele><time>2026-04-10T10:32:41.755Z</time></trkpt><trkpt lat="46.0219709" lon="10.970279"><ele>489.5</ele><time>2026-04-10T10:32:42.755Z</time></trkpt><trkpt lat="46.0220714" lon="10.970404"><ele>492.0</ele><time>2026-04-10T10:32:43.755Z</time></trkpt><trkpt lat="46.0221898" lon="10.9705075"><ele>492.0</ele><time>2026-04-10T10:32:44.755Z</time></trkpt><trkpt lat="46.0223108" lon="10.9706022"><ele>492.0</ele><time>2026-04-10T10:32:45.755Z</time></trkpt><trkpt lat="46.0224357" lon="10.9706952"><ele>492.0</ele><time>2026-04-10T10:32:46.755Z</time></trkpt><trkpt lat="46.0225616" lon="10.9707859"><ele>492.0</ele><time>2026-04-10T10:32:47.755Z</time></trkpt><trkpt lat="46.0226897" lon="10.9708874"><ele>494.25</ele><time>2026-04-10T10:32:48.755Z</time></trkpt><trkpt lat="46.0228151" lon="10.9709919"><ele>496.5</ele><time>2026-04-10T10:32:49.756Z</time></trkpt><trkpt lat="46.0229408" lon="10.9710951"><ele>498.75</ele><time>2026-04-10T10:32:50.755Z</time></trkpt><trkpt lat="46.0230681" lon="10.9711811"><ele>501.0</ele><time>2026-04-10T10:32:51.755Z</time></trkpt><trkpt lat="46.0231969" lon="10.9712613"><ele>499.25</ele><time>2026-04-10T10:32:52.756Z</time></trkpt><trkpt lat="46.0233248" lon="10.9713543"><ele>497.5</ele><time>2026-04-10T10:32:53.755Z</time></trkpt><trkpt lat="46.023447" lon="10.9714664"><ele>495.75</ele><time>2026-04-10T10:32:54.755Z</time></trkpt><trkpt lat="46.023556" lon="10.9715849"><ele>494.0</ele><time>2026-04-10T10:32:55.755Z</time></trkpt><trkpt lat="46.0236625" lon="10.9716952"><ele>498.75</ele><time>2026-04-10T10:32:56.755Z</time></trkpt><trkpt lat="46.0237742" lon="10.9717996"><ele>503.5</ele><time>2026-04-10T10:32:57.755Z</time></trkpt><trkpt lat="46.0238932" lon="10.9718871"><ele>508.25</ele><time>2026-04-10T10:32:58.755Z</time></trkpt><trkpt lat="46.0240133" lon="10.971956"><ele>513.0</ele><time>2026-04-10T10:32:59.755Z</time></trkpt><trkpt lat="46.0241291" lon="10.9720143"><ele>511.2</ele><time>2026-04-10T10:33:00.755Z</time></trkpt><trkpt lat="46.0242214" lon="10.9720642"><ele>509.4</ele><time>2026-04-10T10:33:01.755Z</time></trkpt><trkpt lat="46.0242997" lon="10.9721319"><ele>507.59999999999997</ele><time>2026-04-10T10:33:02.755Z</time></trkpt><trkpt lat="46.024364" lon="10.9722184"><ele>505.79999999999995</ele><time>2026-04-10T10:33:03.755Z</time></trkpt><trkpt lat="46.0244346" lon="10.9723069"><ele>504.0</ele><time>2026-04-10T10:33:04.755Z</time></trkpt><trkpt lat="46.0245094" lon="10.9723774"><ele>504.0</ele><time>2026-04-10T10:33:05.755Z</time></trkpt><trkpt lat="46.0245806" lon="10.9724363"><ele>504.0</ele><time>2026-04-10T10:33:06.755Z</time></trkpt><trkpt lat="46.0246458" lon="10.9724924"><ele>504.0</ele><time>2026-04-10T10:33:07.755Z</time></trkpt><trkpt lat="46.0247045" lon="10.9725557"><ele>504.0</ele><time>2026-04-10T10:33:08.755Z</time></trkpt><trkpt lat="46.0247599" lon="10.9726068"><ele>504.0</ele><time>2026-04-10T10:33:09.755Z</time></trkpt><trkpt lat="46.0248144" lon="10.9726536"><ele>504.0</ele><time>2026-04-10T10:33:10.755Z</time></trkpt><trkpt lat="46.0248693" lon="10.9726998"><ele>504.0</ele><time>2026-04-10T10:33:11.755Z</time></trkpt><trkpt lat="46.0249636" lon="10.9727687"><ele>503.8333333333333</ele><time>2026-04-10T10:33:13.757Z</time></trkpt><trkpt lat="46.0250112" lon="10.9728436"><ele>503.66666666666663</ele><time>2026-04-10T10:33:15.756Z</time></trkpt><trkpt lat="46.0249818" lon="10.9729344"><ele>503.5</ele><time>2026-04-10T10:33:17.756Z</time></trkpt><trkpt lat="46.0249019" lon="10.9730052"><ele>503.3333333333333</ele><time>2026-04-10T10:33:19.756Z</time></trkpt><trkpt lat="46.0248028" lon="10.9730563"><ele>503.16666666666663</ele><time>2026-04-10T10:33:21.756Z</time></trkpt><trkpt lat="46.0247631" lon="10.9731609"><ele>503.0</ele><time>2026-04-10T10:33:23.756Z</time></trkpt><trkpt lat="46.0248253" lon="10.9732786"><ele>500.79999999999995</ele><time>2026-04-10T10:33:25.756Z</time></trkpt><trkpt lat="46.0249111" lon="10.9733917"><ele>498.59999999999997</ele><time>2026-04-10T10:33:27.756Z</time></trkpt><trkpt lat="46.0250225" lon="10.9735124"><ele>496.40000000000003</ele><time>2026-04-10T10:33:29.756Z</time></trkpt><trkpt lat="46.0250787" lon="10.9735886"><ele>494.20000000000005</ele><time>2026-04-10T10:33:30.756Z</time></trkpt><trkpt lat="46.0251391" lon="10.9736566"><ele>492.0</ele><time>2026-04-10T10:33:31.757Z</time></trkpt><trkpt lat="46.0252032" lon="10.9737108"><ele>491.3333333333333</ele><time>2026-04-10T10:33:32.756Z</time></trkpt><trkpt lat="46.0252777" lon="10.9737541"><ele>490.66666666666663</ele><time>2026-04-10T10:33:33.756Z</time></trkpt><trkpt lat="46.0253566" lon="10.9737906"><ele>490.0</ele><time>2026-04-10T10:33:34.756Z</time></trkpt><trkpt lat="46.02544" lon="10.9738169"><ele>489.3333333333333</ele><time>2026-04-10T10:33:35.757Z</time></trkpt><trkpt lat="46.0255243" lon="10.9738395"><ele>488.66666666666663</ele><time>2026-04-10T10:33:36.756Z</time></trkpt><trkpt lat="46.0256008" lon="10.9738564"><ele>488.0</ele><time>2026-04-10T10:33:37.756Z</time></trkpt><trkpt lat="46.0256763" lon="10.9738732"><ele>487.99999999999994</ele><time>2026-04-10T10:33:38.756Z</time></trkpt><trkpt lat="46.0257487" lon="10.9739056"><ele>488.0</ele><time>2026-04-10T10:33:39.756Z</time></trkpt><trkpt lat="46.0258113" lon="10.9739574"><ele>487.99999999999994</ele><time>2026-04-10T10:33:40.756Z</time></trkpt><trkpt lat="46.0258623" lon="10.9740326"><ele>487.99999999999994</ele><time>2026-04-10T10:33:41.756Z</time></trkpt><trkpt lat="46.0258993" lon="10.9741147"><ele>488.0</ele><time>2026-04-10T10:33:42.757Z</time></trkpt><trkpt lat="46.0259276" lon="10.9742069"><ele>487.99999999999994</ele><time>2026-04-10T10:33:43.756Z</time></trkpt><trkpt lat="46.0259383" lon="10.9743233"><ele>487.99999999999994</ele><time>2026-04-10T10:33:44.756Z</time></trkpt><trkpt lat="46.0259384" lon="10.9744546"><ele>487.59999999999997</ele><time>2026-04-10T10:33:45.756Z</time></trkpt><trkpt lat="46.0259315" lon="10.9746003"><ele>487.19999999999993</ele><time>2026-04-10T10:33:46.756Z</time></trkpt><trkpt lat="46.0259175" lon="10.9747612"><ele>486.8</ele><time>2026-04-10T10:33:47.756Z</time></trkpt><trkpt lat="46.0259102" lon="10.9749293"><ele>486.4</ele><time>2026-04-10T10:33:48.756Z</time></trkpt><trkpt lat="46.025904" lon="10.9750846"><ele>486.0</ele><time>2026-04-10T10:33:49.756Z</time></trkpt><trkpt lat="46.0258929" lon="10.9752312"><ele>486.0</ele><time>2026-04-10T10:33:50.756Z</time></trkpt><trkpt lat="46.0258767" lon="10.975377"><ele>486.0</ele><time>2026-04-10T10:33:51.756Z</time></trkpt><trkpt lat="46.0258504" lon="10.9755245"><ele>486.0</ele><time>2026-04-10T10:33:52.756Z</time></trkpt><trkpt lat="46.0258191" lon="10.9756752"><ele>486.0</ele><time>2026-04-10T10:33:53.757Z</time></trkpt><trkpt lat="46.0257915" lon="10.9758158"><ele>486.0</ele><time>2026-04-10T10:33:54.757Z</time></trkpt><trkpt lat="46.0257653" lon="10.9759355"><ele>486.4</ele><time>2026-04-10T10:33:55.757Z</time></trkpt><trkpt lat="46.0257445" lon="10.9760626"><ele>486.8</ele><time>2026-04-10T10:33:56.757Z</time></trkpt><trkpt lat="46.0257259" lon="10.9762042"><ele>487.19999999999993</ele><time>2026-04-10T10:33:57.757Z</time></trkpt><trkpt lat="46.0257031" lon="10.9763492"><ele>487.59999999999997</ele><time>2026-04-10T10:33:58.757Z</time></trkpt><trkpt lat="46.0256858" lon="10.9764967"><ele>488.0</ele><time>2026-04-10T10:33:59.757Z</time></trkpt><trkpt lat="46.0256662" lon="10.9766301"><ele>485.3333333333333</ele><time>2026-04-10T10:34:00.757Z</time></trkpt><trkpt lat="46.0256428" lon="10.9767493"><ele>482.66666666666663</ele><time>2026-04-10T10:34:01.757Z</time></trkpt><trkpt lat="46.0256166" lon="10.9768607"><ele>480.0</ele><time>2026-04-10T10:34:02.757Z</time></trkpt><trkpt lat="46.0255859" lon="10.976963"><ele>477.33333333333337</ele><time>2026-04-10T10:34:03.757Z</time></trkpt><trkpt lat="46.0255507" lon="10.9770542"><ele>474.6666666666667</ele><time>2026-04-10T10:34:04.757Z</time></trkpt><trkpt lat="46.0255045" lon="10.9771272"><ele>472.0</ele><time>2026-04-10T10:34:05.757Z</time></trkpt><trkpt lat="46.0254477" lon="10.9771803"><ele>472.00000000000006</ele><time>2026-04-10T10:34:06.757Z</time></trkpt><trkpt lat="46.025385" lon="10.9772178"><ele>472.0</ele><time>2026-04-10T10:34:07.757Z</time></trkpt><trkpt lat="46.0253202" lon="10.9772457"><ele>472.0</ele><time>2026-04-10T10:34:08.757Z</time></trkpt><trkpt lat="46.0252558" lon="10.9772587"><ele>472.0</ele><time>2026-04-10T10:34:09.757Z</time></trkpt><trkpt lat="46.0251762" lon="10.9773309"><ele>472.00000000000006</ele><time>2026-04-10T10:34:11.757Z</time></trkpt><trkpt lat="46.0252238" lon="10.9774524"><ele>472.0</ele><time>2026-04-10T10:34:13.757Z</time></trkpt><trkpt lat="46.0252762" lon="10.9775075"><ele>468.33333333333337</ele><time>2026-04-10T10:34:14.757Z</time></trkpt><trkpt lat="46.0253312" lon="10.9775678"><ele>464.6666666666667</ele><time>2026-04-10T10:34:15.758Z</time></trkpt><trkpt lat="46.0253884" lon="10.9776419"><ele>461.0</ele><time>2026-04-10T10:34:16.757Z</time></trkpt><trkpt lat="46.0254488" lon="10.9777087"><ele>457.33333333333337</ele><time>2026-04-10T10:34:17.757Z</time></trkpt><trkpt lat="46.0255219" lon="10.9777631"><ele>453.6666666666667</ele><time>2026-04-10T10:34:18.757Z</time></trkpt><trkpt lat="46.0256081" lon="10.9778047"><ele>450.0</ele><time>2026-04-10T10:34:19.758Z</time></trkpt><trkpt lat="46.0257014" lon="10.977827"><ele>450.0</ele><time>2026-04-10T10:34:20.757Z</time></trkpt><trkpt lat="46.025793" lon="10.9778248"><ele>450.0</ele><time>2026-04-10T10:34:21.757Z</time></trkpt><trkpt lat="46.0258787" lon="10.9778318"><ele>450.0</ele><time>2026-04-10T10:34:22.757Z</time></trkpt><trkpt lat="46.0259514" lon="10.977848"><ele>450.0</ele><time>2026-04-10T10:34:23.757Z</time></trkpt><trkpt lat="46.026015" lon="10.9778785"><ele>450.0</ele><time>2026-04-10T10:34:24.757Z</time></trkpt><trkpt lat="46.0260852" lon="10.9779633"><ele>450.0</ele><time>2026-04-10T10:34:26.757Z</time></trkpt><trkpt lat="46.0260326" lon="10.9780592"><ele>450.0</ele><time>2026-04-10T10:34:28.757Z</time></trkpt><trkpt lat="46.0259106" lon="10.9780924"><ele>450.0</ele><time>2026-04-10T10:34:30.758Z</time></trkpt><trkpt lat="46.0258428" lon="10.9781092"><ele>450.0</ele><time>2026-04-10T10:34:31.757Z</time></trkpt><trkpt lat="46.0257773" lon="10.9781295"><ele>450.0</ele><time>2026-04-10T10:34:32.757Z</time></trkpt><trkpt lat="46.0256978" lon="10.9781344"><ele>450.0</ele><time>2026-04-10T10:34:33.757Z</time></trkpt><trkpt lat="46.0256126" lon="10.978119"><ele>450.0</ele><time>2026-04-10T10:34:34.758Z</time></trkpt><trkpt lat="46.0255304" lon="10.9781079"><ele>450.0</ele><time>2026-04-10T10:34:35.758Z</time></trkpt><trkpt lat="46.0254579" lon="10.9780996"><ele>450.0</ele><time>2026-04-10T10:34:36.758Z</time></trkpt><trkpt lat="46.0253902" lon="10.9780718"><ele>450.0</ele><time>2026-04-10T10:34:37.758Z</time></trkpt><trkpt lat="46.0253276" lon="10.9780331"><ele>450.0</ele><time>2026-04-10T10:34:38.758Z</time></trkpt><trkpt lat="46.0252656" lon="10.978016"><ele>450.0</ele><time>2026-04-10T10:34:39.758Z</time></trkpt><trkpt lat="46.0251694" lon="10.9781116"><ele>450.0</ele><time>2026-04-10T10:34:41.758Z</time></trkpt><trkpt lat="46.025144" lon="10.9782223"><ele>449.0</ele><time>2026-04-10T10:34:42.758Z</time></trkpt><trkpt lat="46.0251424" lon="10.978354"><ele>448.0</ele><time>2026-04-10T10:34:43.758Z</time></trkpt><trkpt lat="46.025138" lon="10.9785056"><ele>447.0</ele><time>2026-04-10T10:34:44.758Z</time></trkpt><trkpt lat="46.025121" lon="10.9786666"><ele>446.0</ele><time>2026-04-10T10:34:45.758Z</time></trkpt><trkpt lat="46.0250982" lon="10.9788391"><ele>445.0</ele><time>2026-04-10T10:34:46.758Z</time></trkpt><trkpt lat="46.0250731" lon="10.9790182"><ele>444.5</ele><time>2026-04-10T10:34:47.758Z</time></trkpt><trkpt lat="46.0250437" lon="10.9791988"><ele>444.0</ele><time>2026-04-10T10:34:48.758Z</time></trkpt><trkpt lat="46.0250151" lon="10.9793849"><ele>443.5</ele><time>2026-04-10T10:34:49.759Z</time></trkpt><trkpt lat="46.0249899" lon="10.979556"><ele>443.0</ele><time>2026-04-10T10:34:50.758Z</time></trkpt><trkpt lat="46.024969" lon="10.9797096"><ele>443.0</ele><time>2026-04-10T10:34:51.758Z</time></trkpt><trkpt lat="46.0249333" lon="10.9798352"><ele>442.99999999999994</ele><time>2026-04-10T10:34:52.758Z</time></trkpt><trkpt lat="46.0248859" lon="10.979944"><ele>442.99999999999994</ele><time>2026-04-10T10:34:53.758Z</time></trkpt><trkpt lat="46.0248277" lon="10.9800353"><ele>443.0</ele><time>2026-04-10T10:34:54.758Z</time></trkpt><trkpt lat="46.0247696" lon="10.9801041"><ele>443.0</ele><time>2026-04-10T10:34:55.758Z</time></trkpt><trkpt lat="46.0246936" lon="10.9802225"><ele>442.8333333333333</ele><time>2026-04-10T10:34:57.758Z</time></trkpt><trkpt lat="46.0246404" lon="10.9803311"><ele>442.66666666666663</ele><time>2026-04-10T10:35:06.759Z</time></trkpt><trkpt lat="46.0245749" lon="10.9803898"><ele>442.5</ele><time>2026-04-10T10:35:07.758Z</time></trkpt><trkpt lat="46.024508" lon="10.9804455"><ele>442.33333333333337</ele><time>2026-04-10T10:35:08.758Z</time></trkpt><trkpt lat="46.0244424" lon="10.9805187"><ele>442.1666666666667</ele><time>2026-04-10T10:35:09.758Z</time></trkpt><trkpt lat="46.024374" lon="10.9805972"><ele>442.0</ele><time>2026-04-10T10:35:10.759Z</time></trkpt><trkpt lat="46.0243" lon="10.9806718"><ele>442.00000000000006</ele><time>2026-04-10T10:35:11.758Z</time></trkpt><trkpt lat="46.0242196" lon="10.9807451"><ele>442.0</ele><time>2026-04-10T10:35:12.758Z</time></trkpt><trkpt lat="46.0241382" lon="10.9808032"><ele>442.0</ele><time>2026-04-10T10:35:13.758Z</time></trkpt><trkpt lat="46.0240649" lon="10.9808468"><ele>442.0</ele><time>2026-04-10T10:35:14.758Z</time></trkpt><trkpt lat="46.0240015" lon="10.9808874"><ele>442.00000000000006</ele><time>2026-04-10T10:35:15.759Z</time></trkpt><trkpt lat="46.0239174" lon="10.9809816"><ele>442.0</ele><time>2026-04-10T10:35:17.759Z</time></trkpt><trkpt lat="46.0239131" lon="10.9811054"><ele>442.0</ele><time>2026-04-10T10:35:19.759Z</time></trkpt><trkpt lat="46.0239758" lon="10.9812281"><ele>442.00000000000006</ele><time>2026-04-10T10:35:21.759Z</time></trkpt><trkpt lat="46.0239964" lon="10.9814009"><ele>442.00000000000006</ele><time>2026-04-10T10:35:23.759Z</time></trkpt><trkpt lat="46.0240136" lon="10.9814902"><ele>442.0</ele><time>2026-04-10T10:35:24.759Z</time></trkpt><trkpt lat="46.0241141" lon="10.9815923"><ele>442.0</ele><time>2026-04-10T10:35:26.759Z</time></trkpt><trkpt lat="46.0241835" lon="10.9815954"><ele>442.0</ele><time>2026-04-10T10:35:27.759Z</time></trkpt><trkpt lat="46.0242585" lon="10.9815664"><ele>442.00000000000006</ele><time>2026-04-10T10:35:28.76Z</time></trkpt><trkpt lat="46.0243418" lon="10.9814942"><ele>442.00000000000006</ele><time>2026-04-10T10:35:29.759Z</time></trkpt><trkpt lat="46.0244449" lon="10.9814187"><ele>442.0</ele><time>2026-04-10T10:35:30.759Z</time></trkpt><trkpt lat="46.0245477" lon="10.981377"><ele>442.0</ele><time>2026-04-10T10:35:31.759Z</time></trkpt><trkpt lat="46.0246375" lon="10.9813453"><ele>442.00000000000006</ele><time>2026-04-10T10:35:32.759Z</time></trkpt><trkpt lat="46.0247208" lon="10.9813107"><ele>442.0</ele><time>2026-04-10T10:35:33.759Z</time></trkpt><trkpt lat="46.0247918" lon="10.9812794"><ele>442.0</ele><time>2026-04-10T10:35:34.759Z</time></trkpt><trkpt lat="46.0248567" lon="10.9812633"><ele>442.0</ele><time>2026-04-10T10:35:35.759Z</time></trkpt><trkpt lat="46.0249674" lon="10.9812605"><ele>442.00000000000006</ele><time>2026-04-10T10:35:37.759Z</time></trkpt><trkpt lat="46.0250452" lon="10.9812661"><ele>442.0</ele><time>2026-04-10T10:35:39.759Z</time></trkpt><trkpt lat="46.0251296" lon="10.9812966"><ele>442.1666666666667</ele><time>2026-04-10T10:35:42.759Z</time></trkpt><trkpt lat="46.0251952" lon="10.9812315"><ele>442.33333333333337</ele><time>2026-04-10T10:35:46.759Z</time></trkpt><trkpt lat="46.0252344" lon="10.9811277"><ele>442.5</ele><time>2026-04-10T10:35:48.759Z</time></trkpt><trkpt lat="46.0253304" lon="10.9810625"><ele>442.66666666666663</ele><time>2026-04-10T10:35:50.759Z</time></trkpt><trkpt lat="46.0254049" lon="10.9810448"><ele>442.8333333333333</ele><time>2026-04-10T10:35:51.759Z</time></trkpt><trkpt lat="46.0254898" lon="10.9810188"><ele>443.0</ele><time>2026-04-10T10:35:52.759Z</time></trkpt><trkpt lat="46.025583" lon="10.9809928"><ele>443.0</ele><time>2026-04-10T10:35:53.759Z</time></trkpt><trkpt lat="46.0256809" lon="10.9809616"><ele>442.99999999999994</ele><time>2026-04-10T10:35:54.759Z</time></trkpt><trkpt lat="46.0257846" lon="10.9809371"><ele>442.99999999999994</ele><time>2026-04-10T10:35:55.76Z</time></trkpt><trkpt lat="46.0258978" lon="10.9809214"><ele>443.0</ele><time>2026-04-10T10:35:56.76Z</time></trkpt><trkpt lat="46.0260167" lon="10.9809049"><ele>443.0</ele><time>2026-04-10T10:35:57.76Z</time></trkpt><trkpt lat="46.0261465" lon="10.9808933"><ele>443.5</ele><time>2026-04-10T10:35:58.761Z</time></trkpt><trkpt lat="46.0262847" lon="10.9808853"><ele>444.0</ele><time>2026-04-10T10:35:59.76Z</time></trkpt><trkpt lat="46.0264238" lon="10.9808753"><ele>444.5</ele><time>2026-04-10T10:36:00.76Z</time></trkpt><trkpt lat="46.0265652" lon="10.9808592"><ele>445.0</ele><time>2026-04-10T10:36:01.76Z</time></trkpt><trkpt lat="46.0267111" lon="10.9808562"><ele>446.6666666666667</ele><time>2026-04-10T10:36:02.76Z</time></trkpt><trkpt lat="46.026861" lon="10.9808562"><ele>448.33333333333337</ele><time>2026-04-10T10:36:03.76Z</time></trkpt><trkpt lat="46.0270166" lon="10.9808467"><ele>450.0</ele><time>2026-04-10T10:36:04.76Z</time></trkpt><trkpt lat="46.0271752" lon="10.9808314"><ele>446.33333333333337</ele><time>2026-04-10T10:36:05.76Z</time></trkpt><trkpt lat="46.0273421" lon="10.9808247"><ele>442.6666666666667</ele><time>2026-04-10T10:36:06.76Z</time></trkpt><trkpt lat="46.0275129" lon="10.9808184"><ele>439.0</ele><time>2026-04-10T10:36:07.76Z</time></trkpt><trkpt lat="46.0276869" lon="10.9808098"><ele>438.33333333333337</ele><time>2026-04-10T10:36:08.761Z</time></trkpt><trkpt lat="46.0278611" lon="10.980798"><ele>437.66666666666663</ele><time>2026-04-10T10:36:09.76Z</time></trkpt><trkpt lat="46.0280404" lon="10.9807911"><ele>437.0</ele><time>2026-04-10T10:36:10.761Z</time></trkpt><trkpt lat="46.028213" lon="10.9807874"><ele>436.3333333333333</ele><time>2026-04-10T10:36:11.76Z</time></trkpt><trkpt lat="46.0283727" lon="10.9807842"><ele>435.66666666666663</ele><time>2026-04-10T10:36:12.76Z</time></trkpt><trkpt lat="46.0285272" lon="10.9807853"><ele>435.0</ele><time>2026-04-10T10:36:13.76Z</time></trkpt><trkpt lat="46.0286749" lon="10.9807759"><ele>435.0</ele><time>2026-04-10T10:36:14.76Z</time></trkpt><trkpt lat="46.0288067" lon="10.9807628"><ele>435.0</ele><time>2026-04-10T10:36:15.76Z</time></trkpt><trkpt lat="46.0289301" lon="10.9807536"><ele>435.0</ele><time>2026-04-10T10:36:16.76Z</time></trkpt><trkpt lat="46.0290508" lon="10.9807499"><ele>435.0</ele><time>2026-04-10T10:36:17.76Z</time></trkpt><trkpt lat="46.0291687" lon="10.9807478"><ele>434.75</ele><time>2026-04-10T10:36:18.76Z</time></trkpt><trkpt lat="46.0292912" lon="10.9807441"><ele>434.5</ele><time>2026-04-10T10:36:19.76Z</time></trkpt><trkpt lat="46.029415" lon="10.9807412"><ele>434.25</ele><time>2026-04-10T10:36:20.76Z</time></trkpt><trkpt lat="46.0295415" lon="10.9807441"><ele>434.0</ele><time>2026-04-10T10:36:21.76Z</time></trkpt><trkpt lat="46.0296749" lon="10.9807424"><ele>434.0</ele><time>2026-04-10T10:36:22.76Z</time></trkpt><trkpt lat="46.0298112" lon="10.9807435"><ele>434.0</ele><time>2026-04-10T10:36:23.76Z</time></trkpt><trkpt lat="46.0299484" lon="10.9807578"><ele>434.0</ele><time>2026-04-10T10:36:24.76Z</time></trkpt><trkpt lat="46.0300921" lon="10.9807805"><ele>434.0</ele><time>2026-04-10T10:36:25.76Z</time></trkpt><trkpt lat="46.0302385" lon="10.980802"><ele>434.0</ele><time>2026-04-10T10:36:26.76Z</time></trkpt><trkpt lat="46.0303864" lon="10.9808205"><ele>434.0</ele><time>2026-04-10T10:36:27.76Z</time></trkpt><trkpt lat="46.0305402" lon="10.9808473"><ele>434.0</ele><time>2026-04-10T10:36:28.76Z</time></trkpt><trkpt lat="46.030692" lon="10.9808688"><ele>433.66666666666663</ele><time>2026-04-10T10:36:29.76Z</time></trkpt><trkpt lat="46.0308475" lon="10.980888"><ele>433.33333333333337</ele><time>2026-04-10T10:36:30.76Z</time></trkpt><trkpt lat="46.0310028" lon="10.9809064"><ele>433.0</ele><time>2026-04-10T10:36:31.76Z</time></trkpt><trkpt lat="46.0311576" lon="10.9809338"><ele>433.0</ele><time>2026-04-10T10:36:32.761Z</time></trkpt><trkpt lat="46.0313115" lon="10.9809578"><ele>433.0</ele><time>2026-04-10T10:36:33.76Z</time></trkpt><trkpt lat="46.0314674" lon="10.9809801"><ele>433.0</ele><time>2026-04-10T10:36:34.76Z</time></trkpt><trkpt lat="46.0316223" lon="10.9810052"><ele>432.6666666666667</ele><time>2026-04-10T10:36:35.76Z</time></trkpt><trkpt lat="46.0317767" lon="10.9810332"><ele>432.33333333333337</ele><time>2026-04-10T10:36:36.761Z</time></trkpt><trkpt lat="46.0319274" lon="10.9810557"><ele>432.0</ele><time>2026-04-10T10:36:37.761Z</time></trkpt><trkpt lat="46.0320792" lon="10.9810797"><ele>432.0</ele><time>2026-04-10T10:36:38.761Z</time></trkpt><trkpt lat="46.0322318" lon="10.9811087"><ele>432.0</ele><time>2026-04-10T10:36:39.761Z</time></trkpt><trkpt lat="46.0323842" lon="10.9811352"><ele>432.0</ele><time>2026-04-10T10:36:40.761Z</time></trkpt><trkpt lat="46.0325347" lon="10.9811498"><ele>431.75</ele><time>2026-04-10T10:36:41.762Z</time></trkpt><trkpt lat="46.0326875" lon="10.9811743"><ele>431.5</ele><time>2026-04-10T10:36:42.761Z</time></trkpt><trkpt lat="46.032839" lon="10.9812049"><ele>431.25</ele><time>2026-04-10T10:36:43.761Z</time></trkpt><trkpt lat="46.0329804" lon="10.9812261"><ele>431.0</ele><time>2026-04-10T10:36:44.761Z</time></trkpt><trkpt lat="46.0331114" lon="10.9812431"><ele>431.0</ele><time>2026-04-10T10:36:45.761Z</time></trkpt><trkpt lat="46.0332307" lon="10.981263"><ele>431.0</ele><time>2026-04-10T10:36:46.761Z</time></trkpt><trkpt lat="46.0333361" lon="10.9812803"><ele>431.0</ele><time>2026-04-10T10:36:47.761Z</time></trkpt><trkpt lat="46.0334243" lon="10.9812925"><ele>431.0</ele><time>2026-04-10T10:36:48.761Z</time></trkpt><trkpt lat="46.0334923" lon="10.9813069"><ele>431.0</ele><time>2026-04-10T10:36:49.761Z</time></trkpt><trkpt lat="46.0335797" lon="10.9813178"><ele>430.6</ele><time>2026-04-10T10:36:51.761Z</time></trkpt><trkpt lat="46.0336809" lon="10.9813324"><ele>430.20000000000005</ele><time>2026-04-10T10:37:05.761Z</time></trkpt><trkpt lat="46.0338007" lon="10.9813634"><ele>429.79999999999995</ele><time>2026-04-10T10:37:07.761Z</time></trkpt><trkpt lat="46.0338705" lon="10.9813808"><ele>429.4</ele><time>2026-04-10T10:37:08.761Z</time></trkpt><trkpt lat="46.0339554" lon="10.9813934"><ele>429.0</ele><time>2026-04-10T10:37:09.761Z</time></trkpt><trkpt lat="46.034044" lon="10.9814022"><ele>429.0</ele><time>2026-04-10T10:37:10.761Z</time></trkpt><trkpt lat="46.0341334" lon="10.9814124"><ele>429.0</ele><time>2026-04-10T10:37:11.761Z</time></trkpt><trkpt lat="46.0342306" lon="10.9814287"><ele>429.0</ele><time>2026-04-10T10:37:12.761Z</time></trkpt><trkpt lat="46.0343315" lon="10.9814454"><ele>429.0</ele><time>2026-04-10T10:37:13.761Z</time></trkpt><trkpt lat="46.0344362" lon="10.981459"><ele>429.0</ele><time>2026-04-10T10:37:14.761Z</time></trkpt><trkpt lat="46.0345464" lon="10.9814767"><ele>429.0</ele><time>2026-04-10T10:37:15.761Z</time></trkpt><trkpt lat="46.0346616" lon="10.9814934"><ele>429.0</ele><time>2026-04-10T10:37:16.763Z</time></trkpt><trkpt lat="46.0347803" lon="10.9815096"><ele>429.0</ele><time>2026-04-10T10:37:17.762Z</time></trkpt><trkpt lat="46.0349003" lon="10.9815176"><ele>429.0</ele><time>2026-04-10T10:37:18.762Z</time></trkpt><trkpt lat="46.0350228" lon="10.981516"><ele>429.0</ele><time>2026-04-10T10:37:19.762Z</time></trkpt><trkpt lat="46.0351533" lon="10.9815019"><ele>429.0</ele><time>2026-04-10T10:37:20.762Z</time></trkpt><trkpt lat="46.0352844" lon="10.9814732"><ele>429.0</ele><time>2026-04-10T10:37:21.762Z</time></trkpt><trkpt lat="46.0354169" lon="10.9814333"><ele>429.0</ele><time>2026-04-10T10:37:22.762Z</time></trkpt><trkpt lat="46.0355511" lon="10.9813885"><ele>429.0</ele><time>2026-04-10T10:37:23.762Z</time></trkpt><trkpt lat="46.0356834" lon="10.9813413"><ele>429.0</ele><time>2026-04-10T10:37:24.762Z</time></trkpt><trkpt lat="46.0358059" lon="10.9812945"><ele>429.0</ele><time>2026-04-10T10:37:25.762Z</time></trkpt><trkpt lat="46.0359226" lon="10.9812483"><ele>429.0</ele><time>2026-04-10T10:37:26.762Z</time></trkpt><trkpt lat="46.036034" lon="10.981192"><ele>428.5</ele><time>2026-04-10T10:37:27.762Z</time></trkpt><trkpt lat="46.0361443" lon="10.9811382"><ele>428.0</ele><time>2026-04-10T10:37:28.762Z</time></trkpt><trkpt lat="46.0362599" lon="10.9810902"><ele>427.5</ele><time>2026-04-10T10:37:29.762Z</time></trkpt><trkpt lat="46.0363818" lon="10.9810521"><ele>427.0</ele><time>2026-04-10T10:37:30.762Z</time></trkpt><trkpt lat="46.0365072" lon="10.9810207"><ele>427.0</ele><time>2026-04-10T10:37:31.762Z</time></trkpt><trkpt lat="46.0366292" lon="10.9809905"><ele>427.0</ele><time>2026-04-10T10:37:32.762Z</time></trkpt><trkpt lat="46.0367558" lon="10.9809615"><ele>427.0</ele><time>2026-04-10T10:37:33.762Z</time></trkpt><trkpt lat="46.0368843" lon="10.9809217"><ele>427.0</ele><time>2026-04-10T10:37:34.762Z</time></trkpt><trkpt lat="46.0370152" lon="10.980876"><ele>426.5</ele><time>2026-04-10T10:37:35.763Z</time></trkpt><trkpt lat="46.0371506" lon="10.9808397"><ele>426.0</ele><time>2026-04-10T10:37:36.762Z</time></trkpt><trkpt lat="46.0372914" lon="10.9808137"><ele>425.5</ele><time>2026-04-10T10:37:37.762Z</time></trkpt><trkpt lat="46.0374326" lon="10.9808002"><ele>425.0</ele><time>2026-04-10T10:37:38.762Z</time></trkpt><trkpt lat="46.0375769" lon="10.9808023"><ele>424.25</ele><time>2026-04-10T10:37:39.762Z</time></trkpt><trkpt lat="46.0377214" lon="10.9808212"><ele>423.5</ele><time>2026-04-10T10:37:40.763Z</time></trkpt><trkpt lat="46.0378634" lon="10.9808524"><ele>422.75</ele><time>2026-04-10T10:37:41.763Z</time></trkpt><trkpt lat="46.0380032" lon="10.9808912"><ele>422.0</ele><time>2026-04-10T10:37:42.763Z</time></trkpt><trkpt lat="46.0381431" lon="10.9809305"><ele>422.0</ele><time>2026-04-10T10:37:43.763Z</time></trkpt><trkpt lat="46.0382767" lon="10.9809625"><ele>422.0</ele><time>2026-04-10T10:37:44.762Z</time></trkpt><trkpt lat="46.0383971" lon="10.9810009"><ele>422.0</ele><time>2026-04-10T10:37:45.762Z</time></trkpt><trkpt lat="46.0385111" lon="10.9810418"><ele>422.0</ele><time>2026-04-10T10:37:46.762Z</time></trkpt><trkpt lat="46.0386181" lon="10.9810764"><ele>422.6</ele><time>2026-04-10T10:37:47.762Z</time></trkpt><trkpt lat="46.0387211" lon="10.981114"><ele>423.20000000000005</ele><time>2026-04-10T10:37:48.762Z</time></trkpt><trkpt lat="46.0388216" lon="10.9811543"><ele>423.8</ele><time>2026-04-10T10:37:49.762Z</time></trkpt><trkpt lat="46.0389068" lon="10.9811797"><ele>424.4</ele><time>2026-04-10T10:37:50.762Z</time></trkpt><trkpt lat="46.0390102" lon="10.981193"><ele>425.0</ele><time>2026-04-10T10:37:52.762Z</time></trkpt><trkpt lat="46.0389753" lon="10.9810764"><ele>425.0</ele><time>2026-04-10T10:37:56.762Z</time></trkpt><trkpt lat="46.0388709" lon="10.9809879"><ele>425.0</ele><time>2026-04-10T10:37:58.763Z</time></trkpt><trkpt lat="46.0387718" lon="10.9808783"><ele>425.0</ele><time>2026-04-10T10:38:00.763Z</time></trkpt><trkpt lat="46.0387141" lon="10.980758"><ele>425.0</ele><time>2026-04-10T10:38:02.763Z</time></trkpt><trkpt lat="46.0387167" lon="10.9805889"><ele>422.66666666666663</ele><time>2026-04-10T10:38:04.763Z</time></trkpt><trkpt lat="46.0387252" lon="10.9804807"><ele>420.3333333333333</ele><time>2026-04-10T10:38:05.763Z</time></trkpt><trkpt lat="46.0387369" lon="10.9803781"><ele>418.0</ele><time>2026-04-10T10:38:06.763Z</time></trkpt><trkpt lat="46.038752" lon="10.9802798"><ele>415.66666666666663</ele><time>2026-04-10T10:38:07.763Z</time></trkpt><trkpt lat="46.0387752" lon="10.9801932"><ele>413.3333333333333</ele><time>2026-04-10T10:38:08.764Z</time></trkpt><trkpt lat="46.0388191" lon="10.9800486"><ele>411.0</ele><time>2026-04-10T10:38:10.763Z</time></trkpt><trkpt lat="46.0388455" lon="10.9799609"><ele>410.5</ele><time>2026-04-10T10:38:11.763Z</time></trkpt><trkpt lat="46.0388812" lon="10.9798648"><ele>410.0</ele><time>2026-04-10T10:38:12.764Z</time></trkpt><trkpt lat="46.0389212" lon="10.9797599"><ele>409.5</ele><time>2026-04-10T10:38:13.763Z</time></trkpt><trkpt lat="46.0389649" lon="10.9796602"><ele>409.0</ele><time>2026-04-10T10:38:14.763Z</time></trkpt><trkpt lat="46.0390104" lon="10.9795571"><ele>408.5</ele><time>2026-04-10T10:38:15.763Z</time></trkpt><trkpt lat="46.0390582" lon="10.9794396"><ele>408.0</ele><time>2026-04-10T10:38:16.763Z</time></trkpt><trkpt lat="46.0391086" lon="10.9793232"><ele>407.59999999999997</ele><time>2026-04-10T10:38:17.763Z</time></trkpt><trkpt lat="46.0391556" lon="10.9792078"><ele>407.2</ele><time>2026-04-10T10:38:18.763Z</time></trkpt><trkpt lat="46.0391998" lon="10.9790903"><ele>406.8</ele><time>2026-04-10T10:38:19.764Z</time></trkpt><trkpt lat="46.0392521" lon="10.9789755"><ele>406.4</ele><time>2026-04-10T10:38:20.763Z</time></trkpt><trkpt lat="46.0393116" lon="10.978863"><ele>406.0</ele><time>2026-04-10T10:38:21.763Z</time></trkpt><trkpt lat="46.0393792" lon="10.9787527"><ele>406.00000000000006</ele><time>2026-04-10T10:38:22.763Z</time></trkpt><trkpt lat="46.0394539" lon="10.97865"><ele>406.0</ele><time>2026-04-10T10:38:23.764Z</time></trkpt><trkpt lat="46.0395274" lon="10.978562"><ele>406.0</ele><time>2026-04-10T10:38:24.763Z</time></trkpt><trkpt lat="46.0395904" lon="10.978483"><ele>406.0</ele><time>2026-04-10T10:38:25.763Z</time></trkpt><trkpt lat="46.0396522" lon="10.9784254"><ele>406.00000000000006</ele><time>2026-04-10T10:38:26.763Z</time></trkpt><trkpt lat="46.0397198" lon="10.9783917"><ele>406.0</ele><time>2026-04-10T10:38:27.763Z</time></trkpt><trkpt lat="46.0397855" lon="10.9783862"><ele>406.00000000000006</ele><time>2026-04-10T10:38:28.763Z</time></trkpt><trkpt lat="46.0398614" lon="10.9784081"><ele>406.0</ele><time>2026-04-10T10:38:29.763Z</time></trkpt><trkpt lat="46.0399362" lon="10.9784414"><ele>406.0</ele><time>2026-04-10T10:38:30.763Z</time></trkpt><trkpt lat="46.0400179" lon="10.9784783"><ele>406.0</ele><time>2026-04-10T10:38:31.763Z</time></trkpt><trkpt lat="46.0400997" lon="10.9785052"><ele>406.00000000000006</ele><time>2026-04-10T10:38:32.763Z</time></trkpt><trkpt lat="46.0401814" lon="10.9785377"><ele>406.0</ele><time>2026-04-10T10:38:33.764Z</time></trkpt><trkpt lat="46.0402566" lon="10.9785638"><ele>406.33333333333337</ele><time>2026-04-10T10:38:34.763Z</time></trkpt><trkpt lat="46.040334" lon="10.9785749"><ele>406.6666666666667</ele><time>2026-04-10T10:38:35.764Z</time></trkpt><trkpt lat="46.040416" lon="10.9785687"><ele>407.0</ele><time>2026-04-10T10:38:36.763Z</time></trkpt><trkpt lat="46.0404987" lon="10.9785438"><ele>407.33333333333337</ele><time>2026-04-10T10:38:37.764Z</time></trkpt><trkpt lat="46.0405826" lon="10.9785094"><ele>407.6666666666667</ele><time>2026-04-10T10:38:38.764Z</time></trkpt><trkpt lat="46.0406782" lon="10.9784707"><ele>408.0</ele><time>2026-04-10T10:38:39.764Z</time></trkpt><trkpt lat="46.0407813" lon="10.9784481"><ele>408.4</ele><time>2026-04-10T10:38:40.764Z</time></trkpt><trkpt lat="46.0408902" lon="10.9784374"><ele>408.79999999999995</ele><time>2026-04-10T10:38:41.764Z</time></trkpt><trkpt lat="46.0410002" lon="10.97842"><ele>409.2</ele><time>2026-04-10T10:38:42.764Z</time></trkpt><trkpt lat="46.0411032" lon="10.9783773"><ele>409.6</ele><time>2026-04-10T10:38:43.764Z</time></trkpt><trkpt lat="46.0411993" lon="10.9783259"><ele>410.0</ele><time>2026-04-10T10:38:44.765Z</time></trkpt><trkpt lat="46.0412815" lon="10.9782839"><ele>410.14285714285717</ele><time>2026-04-10T10:38:45.764Z</time></trkpt><trkpt lat="46.0413606" lon="10.9782657"><ele>410.2857142857143</ele><time>2026-04-10T10:38:46.764Z</time></trkpt><trkpt lat="46.0414376" lon="10.9782665"><ele>410.42857142857144</ele><time>2026-04-10T10:38:47.764Z</time></trkpt><trkpt lat="46.0415071" lon="10.9782702"><ele>410.57142857142856</ele><time>2026-04-10T10:38:48.764Z</time></trkpt><trkpt lat="46.0415758" lon="10.9782697"><ele>410.71428571428567</ele><time>2026-04-10T10:38:49.764Z</time></trkpt><trkpt lat="46.0416442" lon="10.9782693"><ele>410.85714285714283</ele><time>2026-04-10T10:38:50.764Z</time></trkpt><trkpt lat="46.041713" lon="10.9782678"><ele>411.0</ele><time>2026-04-10T10:38:51.764Z</time></trkpt><trkpt lat="46.0417855" lon="10.9782766"><ele>410.6666666666667</ele><time>2026-04-10T10:38:52.764Z</time></trkpt><trkpt lat="46.0418541" lon="10.9782769"><ele>410.33333333333337</ele><time>2026-04-10T10:38:53.764Z</time></trkpt><trkpt lat="46.0419219" lon="10.978276"><ele>410.0</ele><time>2026-04-10T10:38:54.764Z</time></trkpt><trkpt lat="46.041996" lon="10.9782803"><ele>409.6666666666667</ele><time>2026-04-10T10:38:55.764Z</time></trkpt><trkpt lat="46.0420779" lon="10.9782802"><ele>409.33333333333337</ele><time>2026-04-10T10:38:56.764Z</time></trkpt><trkpt lat="46.04216" lon="10.9782862"><ele>409.0</ele><time>2026-04-10T10:38:57.764Z</time></trkpt><trkpt lat="46.0422457" lon="10.978294"><ele>409.00000000000006</ele><time>2026-04-10T10:38:58.764Z</time></trkpt><trkpt lat="46.0423309" lon="10.9782971"><ele>409.0</ele><time>2026-04-10T10:38:59.764Z</time></trkpt><trkpt lat="46.0424195" lon="10.9783023"><ele>409.0</ele><time>2026-04-10T10:39:00.764Z</time></trkpt><trkpt lat="46.0425046" lon="10.9783017"><ele>409.0</ele><time>2026-04-10T10:39:01.764Z</time></trkpt><trkpt lat="46.0425887" lon="10.9782973"><ele>409.00000000000006</ele><time>2026-04-10T10:39:02.764Z</time></trkpt><trkpt lat="46.0426612" lon="10.9782955"><ele>409.0</ele><time>2026-04-10T10:39:03.764Z</time></trkpt><trkpt lat="46.0427327" lon="10.9782861"><ele>408.00000000000006</ele><time>2026-04-10T10:39:04.764Z</time></trkpt><trkpt lat="46.0427988" lon="10.978257"><ele>407.0</ele><time>2026-04-10T10:39:05.764Z</time></trkpt><trkpt lat="46.0428652" lon="10.9782084"><ele>406.0</ele><time>2026-04-10T10:39:06.764Z</time></trkpt><trkpt lat="46.042937" lon="10.9781631"><ele>405.0</ele><time>2026-04-10T10:39:07.764Z</time></trkpt><trkpt lat="46.0430088" lon="10.9781226"><ele>404.00000000000006</ele><time>2026-04-10T10:39:08.764Z</time></trkpt><trkpt lat="46.0430829" lon="10.978102"><ele>403.0</ele><time>2026-04-10T10:39:09.765Z</time></trkpt><trkpt lat="46.0431673" lon="10.9780995"><ele>403.0</ele><time>2026-04-10T10:39:10.765Z</time></trkpt><trkpt lat="46.04326" lon="10.9781088"><ele>403.0</ele><time>2026-04-10T10:39:11.764Z</time></trkpt><trkpt lat="46.0433549" lon="10.9781263"><ele>403.0</ele><time>2026-04-10T10:39:12.764Z</time></trkpt><trkpt lat="46.0434505" lon="10.9781546"><ele>403.0</ele><time>2026-04-10T10:39:13.764Z</time></trkpt><trkpt lat="46.0435451" lon="10.978188"><ele>403.0</ele><time>2026-04-10T10:39:14.764Z</time></trkpt><trkpt lat="46.0436375" lon="10.9782278"><ele>402.4</ele><time>2026-04-10T10:39:15.764Z</time></trkpt><trkpt lat="46.0437288" lon="10.9782749"><ele>401.79999999999995</ele><time>2026-04-10T10:39:16.764Z</time></trkpt><trkpt lat="46.0438266" lon="10.9783222"><ele>401.2</ele><time>2026-04-10T10:39:17.764Z</time></trkpt><trkpt lat="46.0439301" lon="10.9783484"><ele>400.6</ele><time>2026-04-10T10:39:18.765Z</time></trkpt><trkpt lat="46.0440406" lon="10.9783615"><ele>400.0</ele><time>2026-04-10T10:39:19.765Z</time></trkpt><trkpt lat="46.0441591" lon="10.9783754"><ele>398.75</ele><time>2026-04-10T10:39:20.765Z</time></trkpt><trkpt lat="46.0442812" lon="10.9783917"><ele>397.5</ele><time>2026-04-10T10:39:21.765Z</time></trkpt><trkpt lat="46.0444055" lon="10.9784053"><ele>396.25</ele><time>2026-04-10T10:39:22.765Z</time></trkpt><trkpt lat="46.0445347" lon="10.9784085"><ele>395.0</ele><time>2026-04-10T10:39:23.765Z</time></trkpt><trkpt lat="46.0446689" lon="10.9784148"><ele>395.0</ele><time>2026-04-10T10:39:24.765Z</time></trkpt><trkpt lat="46.0447999" lon="10.9784162"><ele>395.0</ele><time>2026-04-10T10:39:25.765Z</time></trkpt><trkpt lat="46.0449165" lon="10.9784219"><ele>395.0</ele><time>2026-04-10T10:39:26.765Z</time></trkpt><trkpt lat="46.0450284" lon="10.9784363"><ele>395.0</ele><time>2026-04-10T10:39:27.766Z</time></trkpt><trkpt lat="46.0451319" lon="10.9784589"><ele>392.8</ele><time>2026-04-10T10:39:28.765Z</time></trkpt><trkpt lat="46.0452254" lon="10.9784895"><ele>390.6</ele><time>2026-04-10T10:39:29.765Z</time></trkpt><trkpt lat="46.0453185" lon="10.9785218"><ele>388.4</ele><time>2026-04-10T10:39:30.765Z</time></trkpt><trkpt lat="46.0454076" lon="10.9785507"><ele>386.2</ele><time>2026-04-10T10:39:31.765Z</time></trkpt><trkpt lat="46.0454952" lon="10.9785807"><ele>384.0</ele><time>2026-04-10T10:39:32.765Z</time></trkpt><trkpt lat="46.0455849" lon="10.9786133"><ele>384.0</ele><time>2026-04-10T10:39:33.766Z</time></trkpt><trkpt lat="46.0456692" lon="10.9786458"><ele>384.0</ele><time>2026-04-10T10:39:34.765Z</time></trkpt><trkpt lat="46.0457313" lon="10.9786666"><ele>384.0</ele><time>2026-04-10T10:39:35.765Z</time></trkpt><trkpt lat="46.0457994" lon="10.9786607"><ele>384.0</ele><time>2026-04-10T10:39:38.765Z</time></trkpt><trkpt lat="46.0458345" lon="10.9785655"><ele>384.0</ele><time>2026-04-10T10:39:40.765Z</time></trkpt><trkpt lat="46.0458356" lon="10.9784335"><ele>384.0</ele><time>2026-04-10T10:39:42.765Z</time></trkpt><trkpt lat="46.0458615" lon="10.9782757"><ele>383.8333333333333</ele><time>2026-04-10T10:39:44.765Z</time></trkpt><trkpt lat="46.0459002" lon="10.9781301"><ele>383.6666666666667</ele><time>2026-04-10T10:39:46.765Z</time></trkpt><trkpt lat="46.0459359" lon="10.9780461"><ele>383.5</ele><time>2026-04-10T10:39:47.765Z</time></trkpt><trkpt lat="46.045977" lon="10.9779659"><ele>383.33333333333337</ele><time>2026-04-10T10:39:48.766Z</time></trkpt><trkpt lat="46.04603" lon="10.9778875"><ele>383.1666666666667</ele><time>2026-04-10T10:39:49.765Z</time></trkpt><trkpt lat="46.0460836" lon="10.9778104"><ele>383.0</ele><time>2026-04-10T10:39:50.765Z</time></trkpt><trkpt lat="46.0461486" lon="10.9777625"><ele>383.0</ele><time>2026-04-10T10:39:51.766Z</time></trkpt><trkpt lat="46.0462191" lon="10.9777523"><ele>383.0</ele><time>2026-04-10T10:39:52.765Z</time></trkpt><trkpt lat="46.0463273" lon="10.9778537"><ele>383.0</ele><time>2026-04-10T10:39:54.765Z</time></trkpt><trkpt lat="46.0463972" lon="10.977932"><ele>383.0</ele><time>2026-04-10T10:39:56.765Z</time></trkpt><trkpt lat="46.046441" lon="10.9778256"><ele>383.0</ele><time>2026-04-10T10:39:58.765Z</time></trkpt><trkpt lat="46.046388" lon="10.9776819"><ele>383.0</ele><time>2026-04-10T10:40:00.766Z</time></trkpt><trkpt lat="46.0463406" lon="10.97761"><ele>383.0</ele><time>2026-04-10T10:40:01.767Z</time></trkpt><trkpt lat="46.0463185" lon="10.9775223"><ele>383.0</ele><time>2026-04-10T10:40:02.766Z</time></trkpt><trkpt lat="46.0463289" lon="10.9774248"><ele>383.0</ele><time>2026-04-10T10:40:03.766Z</time></trkpt><trkpt lat="46.0463711" lon="10.977344"><ele>383.0</ele><time>2026-04-10T10:40:04.766Z</time></trkpt><trkpt lat="46.046439" lon="10.977283"><ele>383.0</ele><time>2026-04-10T10:40:05.766Z</time></trkpt><trkpt lat="46.0465193" lon="10.977244"><ele>383.0</ele><time>2026-04-10T10:40:06.766Z</time></trkpt><trkpt lat="46.0466021" lon="10.9772187"><ele>385.7142857142857</ele><time>2026-04-10T10:40:07.766Z</time></trkpt><trkpt lat="46.0466758" lon="10.977192"><ele>388.42857142857144</ele><time>2026-04-10T10:40:08.766Z</time></trkpt><trkpt lat="46.0467476" lon="10.9771516"><ele>391.1428571428571</ele><time>2026-04-10T10:40:09.766Z</time></trkpt><trkpt lat="46.0468179" lon="10.9771211"><ele>393.8571428571429</ele><time>2026-04-10T10:40:10.767Z</time></trkpt><trkpt lat="46.0468883" lon="10.9770913"><ele>396.5714285714286</ele><time>2026-04-10T10:40:11.766Z</time></trkpt><trkpt lat="46.0469483" lon="10.9770524"><ele>399.2857142857143</ele><time>2026-04-10T10:40:12.766Z</time></trkpt><trkpt lat="46.046999" lon="10.9769947"><ele>402.0</ele><time>2026-04-10T10:40:13.766Z</time></trkpt><trkpt lat="46.0470754" lon="10.9768621"><ele>402.0</ele><time>2026-04-10T10:40:15.766Z</time></trkpt><trkpt lat="46.0471031" lon="10.9766888"><ele>402.0</ele><time>2026-04-10T10:40:17.767Z</time></trkpt><trkpt lat="46.0471039" lon="10.9765886"><ele>402.0</ele><time>2026-04-10T10:40:18.766Z</time></trkpt><trkpt lat="46.0471003" lon="10.9764879"><ele>402.0</ele><time>2026-04-10T10:40:19.766Z</time></trkpt><trkpt lat="46.0470929" lon="10.9763911"><ele>402.0</ele><time>2026-04-10T10:40:20.766Z</time></trkpt><trkpt lat="46.047098" lon="10.9762944"><ele>402.0</ele><time>2026-04-10T10:40:21.767Z</time></trkpt><trkpt lat="46.0471199" lon="10.9762046"><ele>402.3333333333333</ele><time>2026-04-10T10:40:22.766Z</time></trkpt><trkpt lat="46.0471493" lon="10.9761156"><ele>402.66666666666663</ele><time>2026-04-10T10:40:23.766Z</time></trkpt><trkpt lat="46.0471744" lon="10.9760243"><ele>403.0</ele><time>2026-04-10T10:40:24.767Z</time></trkpt><trkpt lat="46.047193" lon="10.9759294"><ele>403.3333333333333</ele><time>2026-04-10T10:40:25.766Z</time></trkpt><trkpt lat="46.0471821" lon="10.9757801"><ele>403.66666666666663</ele><time>2026-04-10T10:40:27.766Z</time></trkpt><trkpt lat="46.0471528" lon="10.9756905"><ele>404.0</ele><time>2026-04-10T10:40:29.767Z</time></trkpt><trkpt lat="46.0471583" lon="10.9757967"><ele>404.0</ele><time>2026-04-10T10:40:34.767Z</time></trkpt><trkpt lat="46.0471681" lon="10.9759584"><ele>404.0</ele><time>2026-04-10T10:40:36.766Z</time></trkpt><trkpt lat="46.0471312" lon="10.9761211"><ele>404.0</ele><time>2026-04-10T10:40:38.766Z</time></trkpt><trkpt lat="46.047102" lon="10.9762225"><ele>404.0</ele><time>2026-04-10T10:40:39.766Z</time></trkpt><trkpt lat="46.0470833" lon="10.9763375"><ele>404.0</ele><time>2026-04-10T10:40:40.767Z</time></trkpt><trkpt lat="46.047087" lon="10.9764414"><ele>403.99999999999994</ele><time>2026-04-10T10:40:41.768Z</time></trkpt><trkpt lat="46.0470957" lon="10.9765434"><ele>404.0</ele><time>2026-04-10T10:40:42.767Z</time></trkpt><trkpt lat="46.0470953" lon="10.9766349"><ele>404.0</ele><time>2026-04-10T10:40:43.768Z</time></trkpt><trkpt lat="46.0470988" lon="10.9767547"><ele>404.0</ele><time>2026-04-10T10:40:45.767Z</time></trkpt><trkpt lat="46.0471714" lon="10.976796"><ele>403.99999999999994</ele><time>2026-04-10T10:40:47.767Z</time></trkpt><trkpt lat="46.0472819" lon="10.9767711"><ele>404.0</ele><time>2026-04-10T10:40:49.767Z</time></trkpt><trkpt lat="46.0473848" lon="10.9767678"><ele>403.6</ele><time>2026-04-10T10:40:51.767Z</time></trkpt><trkpt lat="46.0474402" lon="10.9768567"><ele>403.2</ele><time>2026-04-10T10:40:53.767Z</time></trkpt><trkpt lat="46.0474819" lon="10.9769564"><ele>402.8</ele><time>2026-04-10T10:40:55.767Z</time></trkpt><trkpt lat="46.0475855" lon="10.9769841"><ele>402.40000000000003</ele><time>2026-04-10T10:40:57.767Z</time></trkpt><trkpt lat="46.0476862" lon="10.9769865"><ele>402.0</ele><time>2026-04-10T10:40:59.767Z</time></trkpt><trkpt lat="46.0477749" lon="10.976972"><ele>402.0</ele><time>2026-04-10T10:41:01.767Z</time></trkpt><trkpt lat="46.0478697" lon="10.9769194"><ele>402.0</ele><time>2026-04-10T10:41:03.767Z</time></trkpt><trkpt lat="46.0479622" lon="10.9768397"><ele>402.0</ele><time>2026-04-10T10:41:05.767Z</time></trkpt><trkpt lat="46.0480166" lon="10.9767219"><ele>402.0</ele><time>2026-04-10T10:41:07.767Z</time></trkpt><trkpt lat="46.0480717" lon="10.9766172"><ele>402.0</ele><time>2026-04-10T10:41:09.767Z</time></trkpt><trkpt lat="46.0481278" lon="10.9765152"><ele>400.20000000000005</ele><time>2026-04-10T10:41:11.767Z</time></trkpt><trkpt lat="46.0481382" lon="10.976383"><ele>398.4</ele><time>2026-04-10T10:41:13.767Z</time></trkpt><trkpt lat="46.0481601" lon="10.9762826"><ele>396.6</ele><time>2026-04-10T10:41:15.768Z</time></trkpt><trkpt lat="46.0482507" lon="10.9762888"><ele>394.79999999999995</ele><time>2026-04-10T10:41:17.767Z</time></trkpt><trkpt lat="46.0483596" lon="10.9763807"><ele>393.0</ele><time>2026-04-10T10:41:19.767Z</time></trkpt><trkpt lat="46.0484227" lon="10.9764489"><ele>391.1666666666667</ele><time>2026-04-10T10:41:20.767Z</time></trkpt><trkpt lat="46.0484937" lon="10.9765151"><ele>389.3333333333333</ele><time>2026-04-10T10:41:21.768Z</time></trkpt><trkpt lat="46.0485676" lon="10.9765827"><ele>387.5</ele><time>2026-04-10T10:41:22.769Z</time></trkpt><trkpt lat="46.0486383" lon="10.9766376"><ele>385.66666666666663</ele><time>2026-04-10T10:41:23.768Z</time></trkpt><trkpt lat="46.0486981" lon="10.9766676"><ele>383.8333333333333</ele><time>2026-04-10T10:41:24.768Z</time></trkpt><trkpt lat="46.0488151" lon="10.9766694"><ele>382.0</ele><time>2026-04-10T10:41:26.768Z</time></trkpt><trkpt lat="46.0488925" lon="10.9766729"><ele>382.0</ele><time>2026-04-10T10:41:27.768Z</time></trkpt><trkpt lat="46.0489637" lon="10.976686"><ele>382.0</ele><time>2026-04-10T10:41:28.768Z</time></trkpt><trkpt lat="46.0490587" lon="10.9767847"><ele>382.0</ele><time>2026-04-10T10:41:30.768Z</time></trkpt><trkpt lat="46.0491038" lon="10.9768519"><ele>382.0</ele><time>2026-04-10T10:41:31.768Z</time></trkpt><trkpt lat="46.0491413" lon="10.9769334"><ele>382.0</ele><time>2026-04-10T10:41:32.768Z</time></trkpt><trkpt lat="46.0491841" lon="10.9770203"><ele>382.0</ele><time>2026-04-10T10:41:33.768Z</time></trkpt><trkpt lat="46.0492285" lon="10.9770979"><ele>380.8571428571429</ele><time>2026-04-10T10:41:34.768Z</time></trkpt><trkpt lat="46.0492788" lon="10.9771657"><ele>379.71428571428567</ele><time>2026-04-10T10:41:35.768Z</time></trkpt><trkpt lat="46.0493382" lon="10.9772345"><ele>378.57142857142856</ele><time>2026-04-10T10:41:36.768Z</time></trkpt><trkpt lat="46.0493982" lon="10.9772953"><ele>377.42857142857144</ele><time>2026-04-10T10:41:37.768Z</time></trkpt><trkpt lat="46.049459" lon="10.9773442"><ele>376.28571428571433</ele><time>2026-04-10T10:41:38.768Z</time></trkpt><trkpt lat="46.049522" lon="10.9773918"><ele>375.1428571428571</ele><time>2026-04-10T10:41:39.768Z</time></trkpt><trkpt lat="46.049584" lon="10.9774575"><ele>374.0</ele><time>2026-04-10T10:41:40.768Z</time></trkpt><trkpt lat="46.0496405" lon="10.9775361"><ele>373.83333333333337</ele><time>2026-04-10T10:41:41.768Z</time></trkpt><trkpt lat="46.0496886" lon="10.9776182"><ele>373.6666666666667</ele><time>2026-04-10T10:41:42.769Z</time></trkpt><trkpt lat="46.0497336" lon="10.9777093"><ele>373.5</ele><time>2026-04-10T10:41:43.768Z</time></trkpt><trkpt lat="46.0497754" lon="10.9778059"><ele>373.3333333333333</ele><time>2026-04-10T10:41:44.768Z</time></trkpt><trkpt lat="46.0498125" lon="10.9779064"><ele>373.16666666666663</ele><time>2026-04-10T10:41:45.768Z</time></trkpt><trkpt lat="46.0498485" lon="10.9780181"><ele>373.0</ele><time>2026-04-10T10:41:46.768Z</time></trkpt><trkpt lat="46.049889" lon="10.9781263"><ele>373.0</ele><time>2026-04-10T10:41:47.768Z</time></trkpt><trkpt lat="46.0499372" lon="10.9782362"><ele>373.0</ele><time>2026-04-10T10:41:48.768Z</time></trkpt><trkpt lat="46.049983" lon="10.9783475"><ele>373.0</ele><time>2026-04-10T10:41:49.768Z</time></trkpt><trkpt lat="46.050029" lon="10.9784581"><ele>373.0</ele><time>2026-04-10T10:41:50.768Z</time></trkpt><trkpt lat="46.0500722" lon="10.9785656"><ele>373.0</ele><time>2026-04-10T10:41:51.768Z</time></trkpt><trkpt lat="46.05011" lon="10.9786785"><ele>373.0</ele><time>2026-04-10T10:41:52.769Z</time></trkpt><trkpt lat="46.050143" lon="10.9787884"><ele>371.8333333333333</ele><time>2026-04-10T10:41:53.768Z</time></trkpt><trkpt lat="46.050159" lon="10.9789003"><ele>370.66666666666663</ele><time>2026-04-10T10:41:54.768Z</time></trkpt><trkpt lat="46.0501706" lon="10.979017"><ele>369.5</ele><time>2026-04-10T10:41:55.768Z</time></trkpt><trkpt lat="46.0501875" lon="10.9791277"><ele>368.3333333333333</ele><time>2026-04-10T10:41:56.768Z</time></trkpt><trkpt lat="46.050215" lon="10.9792294"><ele>367.1666666666667</ele><time>2026-04-10T10:41:57.768Z</time></trkpt><trkpt lat="46.0502502" lon="10.979331"><ele>366.0</ele><time>2026-04-10T10:41:58.768Z</time></trkpt><trkpt lat="46.0502974" lon="10.9794286"><ele>363.8333333333333</ele><time>2026-04-10T10:41:59.768Z</time></trkpt><trkpt lat="46.0503479" lon="10.9795252"><ele>361.6666666666667</ele><time>2026-04-10T10:42:00.768Z</time></trkpt><trkpt lat="46.0503987" lon="10.9796192"><ele>359.5</ele><time>2026-04-10T10:42:01.768Z</time></trkpt><trkpt lat="46.0504437" lon="10.9797042"><ele>357.33333333333337</ele><time>2026-04-10T10:42:02.769Z</time></trkpt><trkpt lat="46.0504823" lon="10.9797881"><ele>355.1666666666667</ele><time>2026-04-10T10:42:03.769Z</time></trkpt><trkpt lat="46.0505542" lon="10.9799301"><ele>353.0</ele><time>2026-04-10T10:42:05.77Z</time></trkpt><trkpt lat="46.0506391" lon="10.9800071"><ele>353.0</ele><time>2026-04-10T10:42:07.769Z</time></trkpt><trkpt lat="46.050736" lon="10.9799834"><ele>353.0</ele><time>2026-04-10T10:42:09.769Z</time></trkpt><trkpt lat="46.0507989" lon="10.9799532"><ele>353.0</ele><time>2026-04-10T10:42:10.769Z</time></trkpt><trkpt lat="46.0508703" lon="10.9799365"><ele>353.0</ele><time>2026-04-10T10:42:11.769Z</time></trkpt><trkpt lat="46.0509749" lon="10.9799141"><ele>353.0</ele><time>2026-04-10T10:42:13.769Z</time></trkpt><trkpt lat="46.0510266" lon="10.9798255"><ele>353.0</ele><time>2026-04-10T10:42:15.769Z</time></trkpt><trkpt lat="46.0510414" lon="10.9796754"><ele>352.7142857142857</ele><time>2026-04-10T10:42:17.769Z</time></trkpt><trkpt lat="46.0510543" lon="10.9795795"><ele>352.42857142857144</ele><time>2026-04-10T10:42:18.769Z</time></trkpt><trkpt lat="46.0510614" lon="10.9794815"><ele>352.14285714285717</ele><time>2026-04-10T10:42:19.769Z</time></trkpt><trkpt lat="46.0510664" lon="10.9793831"><ele>351.8571428571429</ele><time>2026-04-10T10:42:20.769Z</time></trkpt><trkpt lat="46.0510619" lon="10.9792902"><ele>351.57142857142856</ele><time>2026-04-10T10:42:21.769Z</time></trkpt><trkpt lat="46.0510483" lon="10.9791952"><ele>351.28571428571433</ele><time>2026-04-10T10:42:22.769Z</time></trkpt><trkpt lat="46.0510592" lon="10.9790344"><ele>351.0</ele><time>2026-04-10T10:42:24.769Z</time></trkpt><trkpt lat="46.0511163" lon="10.978873"><ele>352.42857142857144</ele><time>2026-04-10T10:42:26.77Z</time></trkpt><trkpt lat="46.0511574" lon="10.9787903"><ele>353.8571428571429</ele><time>2026-04-10T10:42:27.769Z</time></trkpt><trkpt lat="46.0511945" lon="10.9787013"><ele>355.28571428571433</ele><time>2026-04-10T10:42:28.769Z</time></trkpt><trkpt lat="46.0512222" lon="10.9786156"><ele>356.7142857142857</ele><time>2026-04-10T10:42:29.769Z</time></trkpt><trkpt lat="46.051228" lon="10.9785212"><ele>358.1428571428571</ele><time>2026-04-10T10:42:30.769Z</time></trkpt><trkpt lat="46.0512096" lon="10.9784327"><ele>359.5714285714286</ele><time>2026-04-10T10:42:31.769Z</time></trkpt><trkpt lat="46.0511763" lon="10.9783439"><ele>361.0</ele><time>2026-04-10T10:42:32.769Z</time></trkpt><trkpt lat="46.0511435" lon="10.9782607"><ele>361.0</ele><time>2026-04-10T10:42:33.769Z</time></trkpt><trkpt lat="46.0511128" lon="10.9781799"><ele>361.0</ele><time>2026-04-10T10:42:34.769Z</time></trkpt><trkpt lat="46.0510534" lon="10.9780145"><ele>361.0</ele><time>2026-04-10T10:42:36.769Z</time></trkpt><trkpt lat="46.0510301" lon="10.9779203"><ele>361.0</ele><time>2026-04-10T10:42:37.77Z</time></trkpt><trkpt lat="46.0510008" lon="10.9778219"><ele>361.0</ele><time>2026-04-10T10:42:38.769Z</time></trkpt><trkpt lat="46.0509668" lon="10.9777187"><ele>361.0</ele><time>2026-04-10T10:42:39.769Z</time></trkpt><trkpt lat="46.0509229" lon="10.9776181"><ele>361.0</ele><time>2026-04-10T10:42:40.769Z</time></trkpt><trkpt lat="46.0508721" lon="10.9775228"><ele>361.0</ele><time>2026-04-10T10:42:41.769Z</time></trkpt><trkpt lat="46.0508125" lon="10.9774343"><ele>361.0</ele><time>2026-04-10T10:42:42.769Z</time></trkpt><trkpt lat="46.0507496" lon="10.97735"><ele>361.0</ele><time>2026-04-10T10:42:43.77Z</time></trkpt><trkpt lat="46.050681" lon="10.9772659"><ele>361.0</ele><time>2026-04-10T10:42:44.77Z</time></trkpt><trkpt lat="46.050608" lon="10.9771675"><ele>361.0</ele><time>2026-04-10T10:42:45.77Z</time></trkpt><trkpt lat="46.0505309" lon="10.9770624"><ele>360.4</ele><time>2026-04-10T10:42:46.77Z</time></trkpt><trkpt lat="46.0504516" lon="10.976945"><ele>359.8</ele><time>2026-04-10T10:42:47.77Z</time></trkpt><trkpt lat="46.0503792" lon="10.9768166"><ele>359.2</ele><time>2026-04-10T10:42:48.771Z</time></trkpt><trkpt lat="46.0503169" lon="10.9766958"><ele>358.59999999999997</ele><time>2026-04-10T10:42:49.77Z</time></trkpt><trkpt lat="46.0502689" lon="10.976585"><ele>358.0</ele><time>2026-04-10T10:42:50.77Z</time></trkpt><trkpt lat="46.0502101" lon="10.9764902"><ele>358.00000000000006</ele><time>2026-04-10T10:42:51.77Z</time></trkpt><trkpt lat="46.0501517" lon="10.9763993"><ele>358.0</ele><time>2026-04-10T10:42:52.77Z</time></trkpt><trkpt lat="46.050113" lon="10.976311"><ele>358.0</ele><time>2026-04-10T10:42:53.77Z</time></trkpt><trkpt lat="46.0500901" lon="10.9762261"><ele>358.0</ele><time>2026-04-10T10:42:54.771Z</time></trkpt><trkpt lat="46.0500784" lon="10.9761359"><ele>358.0</ele><time>2026-04-10T10:42:55.77Z</time></trkpt><trkpt lat="46.0500791" lon="10.9760403"><ele>358.00000000000006</ele><time>2026-04-10T10:42:56.77Z</time></trkpt><trkpt lat="46.050085" lon="10.9759413"><ele>358.0</ele><time>2026-04-10T10:42:57.77Z</time></trkpt><trkpt lat="46.0500887" lon="10.9758403"><ele>354.66666666666663</ele><time>2026-04-10T10:42:58.771Z</time></trkpt><trkpt lat="46.0500909" lon="10.9757429"><ele>351.3333333333333</ele><time>2026-04-10T10:42:59.77Z</time></trkpt><trkpt lat="46.0500943" lon="10.975644"><ele>348.0</ele><time>2026-04-10T10:43:00.77Z</time></trkpt><trkpt lat="46.050096" lon="10.9755497"><ele>344.6666666666667</ele><time>2026-04-10T10:43:01.77Z</time></trkpt><trkpt lat="46.0500705" lon="10.9753769"><ele>341.33333333333337</ele><time>2026-04-10T10:43:03.771Z</time></trkpt><trkpt lat="46.0500391" lon="10.9752782"><ele>338.0</ele><time>2026-04-10T10:43:04.771Z</time></trkpt><trkpt lat="46.05" lon="10.9751692"><ele>340.2857142857143</ele><time>2026-04-10T10:43:05.77Z</time></trkpt><trkpt lat="46.0499542" lon="10.9750592"><ele>342.57142857142856</ele><time>2026-04-10T10:43:06.77Z</time></trkpt><trkpt lat="46.0499157" lon="10.9749629"><ele>344.8571428571429</ele><time>2026-04-10T10:43:07.77Z</time></trkpt><trkpt lat="46.0498806" lon="10.9748737"><ele>347.1428571428571</ele><time>2026-04-10T10:43:08.77Z</time></trkpt><trkpt lat="46.0498591" lon="10.974779"><ele>349.4285714285714</ele><time>2026-04-10T10:43:09.77Z</time></trkpt><trkpt lat="46.0498632" lon="10.9746866"><ele>351.7142857142857</ele><time>2026-04-10T10:43:10.77Z</time></trkpt><trkpt lat="46.0498774" lon="10.9745978"><ele>354.0</ele><time>2026-04-10T10:43:11.771Z</time></trkpt><trkpt lat="46.0498989" lon="10.974511"><ele>354.0</ele><time>2026-04-10T10:43:12.77Z</time></trkpt><trkpt lat="46.0499301" lon="10.974362"><ele>354.0</ele><time>2026-04-10T10:43:14.77Z</time></trkpt><trkpt lat="46.050004" lon="10.9743257"><ele>354.0</ele><time>2026-04-10T10:43:17.771Z</time></trkpt><trkpt lat="46.050078" lon="10.9744239"><ele>354.0</ele><time>2026-04-10T10:43:19.77Z</time></trkpt><trkpt lat="46.050129" lon="10.9744911"><ele>354.0</ele><time>2026-04-10T10:43:20.771Z</time></trkpt><trkpt lat="46.0501885" lon="10.9745485"><ele>354.0</ele><time>2026-04-10T10:43:21.77Z</time></trkpt><trkpt lat="46.0502571" lon="10.9746197"><ele>350.79999999999995</ele><time>2026-04-10T10:43:22.77Z</time></trkpt><trkpt lat="46.0503283" lon="10.9747043"><ele>347.59999999999997</ele><time>2026-04-10T10:43:23.77Z</time></trkpt><trkpt lat="46.050408" lon="10.9747979"><ele>344.4</ele><time>2026-04-10T10:43:24.771Z</time></trkpt><trkpt lat="46.0504947" lon="10.9748997"><ele>341.2</ele><time>2026-04-10T10:43:25.771Z</time></trkpt><trkpt lat="46.0505793" lon="10.9750166"><ele>338.0</ele><time>2026-04-10T10:43:26.771Z</time></trkpt><trkpt lat="46.0506626" lon="10.9751455"><ele>338.0</ele><time>2026-04-10T10:43:27.771Z</time></trkpt><trkpt lat="46.0507525" lon="10.9752785"><ele>338.0</ele><time>2026-04-10T10:43:28.771Z</time></trkpt><trkpt lat="46.0508475" lon="10.9754197"><ele>338.0</ele><time>2026-04-10T10:43:29.771Z</time></trkpt><trkpt lat="46.0509488" lon="10.9755542"><ele>338.0</ele><time>2026-04-10T10:43:30.771Z</time></trkpt><trkpt lat="46.0510518" lon="10.9756711"><ele>336.5</ele><time>2026-04-10T10:43:31.771Z</time></trkpt><trkpt lat="46.0511486" lon="10.9757813"><ele>335.0</ele><time>2026-04-10T10:43:32.771Z</time></trkpt><trkpt lat="46.0512404" lon="10.9758809"><ele>333.5</ele><time>2026-04-10T10:43:33.771Z</time></trkpt><trkpt lat="46.0513379" lon="10.9759631"><ele>332.0</ele><time>2026-04-10T10:43:34.771Z</time></trkpt><trkpt lat="46.0514384" lon="10.9760149"><ele>332.0</ele><time>2026-04-10T10:43:35.771Z</time></trkpt><trkpt lat="46.0515424" lon="10.9760445"><ele>332.0</ele><time>2026-04-10T10:43:36.771Z</time></trkpt><trkpt lat="46.0516463" lon="10.9760573"><ele>332.0</ele><time>2026-04-10T10:43:37.771Z</time></trkpt><trkpt lat="46.0517523" lon="10.9760753"><ele>332.0</ele><time>2026-04-10T10:43:38.771Z</time></trkpt><trkpt lat="46.0518582" lon="10.9761104"><ele>332.0</ele><time>2026-04-10T10:43:39.771Z</time></trkpt><trkpt lat="46.0519584" lon="10.9761531"><ele>330.0</ele><time>2026-04-10T10:43:40.771Z</time></trkpt><trkpt lat="46.0520533" lon="10.9762004"><ele>328.0</ele><time>2026-04-10T10:43:41.771Z</time></trkpt><trkpt lat="46.0521411" lon="10.9762649"><ele>326.0</ele><time>2026-04-10T10:43:42.771Z</time></trkpt><trkpt lat="46.0522193" lon="10.9763476"><ele>324.0</ele><time>2026-04-10T10:43:43.771Z</time></trkpt><trkpt lat="46.0522894" lon="10.9764422"><ele>322.0</ele><time>2026-04-10T10:43:44.771Z</time></trkpt><trkpt lat="46.0523568" lon="10.9765373"><ele>322.0</ele><time>2026-04-10T10:43:45.771Z</time></trkpt><trkpt lat="46.0524305" lon="10.9766269"><ele>322.0</ele><time>2026-04-10T10:43:46.772Z</time></trkpt><trkpt lat="46.0525131" lon="10.9767089"><ele>322.0</ele><time>2026-04-10T10:43:47.771Z</time></trkpt><trkpt lat="46.0526028" lon="10.9767912"><ele>322.0</ele><time>2026-04-10T10:43:48.771Z</time></trkpt><trkpt lat="46.0526968" lon="10.9768672"><ele>322.0</ele><time>2026-04-10T10:43:49.771Z</time></trkpt><trkpt lat="46.0528016" lon="10.9769329"><ele>322.20000000000005</ele><time>2026-04-10T10:43:50.771Z</time></trkpt><trkpt lat="46.052911" lon="10.9770011"><ele>322.4</ele><time>2026-04-10T10:43:51.771Z</time></trkpt><trkpt lat="46.0530148" lon="10.9770733"><ele>322.6</ele><time>2026-04-10T10:43:52.771Z</time></trkpt><trkpt lat="46.0530992" lon="10.9771566"><ele>322.79999999999995</ele><time>2026-04-10T10:43:53.771Z</time></trkpt><trkpt lat="46.0531646" lon="10.9772474"><ele>323.0</ele><time>2026-04-10T10:43:54.771Z</time></trkpt><trkpt lat="46.0532246" lon="10.9773349"><ele>323.0</ele><time>2026-04-10T10:43:55.771Z</time></trkpt><trkpt lat="46.0532812" lon="10.9773985"><ele>323.0</ele><time>2026-04-10T10:43:56.771Z</time></trkpt><trkpt lat="46.0533993" lon="10.9774116"><ele>323.0</ele><time>2026-04-10T10:43:58.771Z</time></trkpt><trkpt lat="46.0535" lon="10.9773164"><ele>323.0</ele><time>2026-04-10T10:44:00.771Z</time></trkpt><trkpt lat="46.0536168" lon="10.9773095"><ele>323.0</ele><time>2026-04-10T10:44:02.771Z</time></trkpt><trkpt lat="46.0536792" lon="10.9773535"><ele>322.0</ele><time>2026-04-10T10:44:03.771Z</time></trkpt><trkpt lat="46.0537289" lon="10.9774318"><ele>321.0</ele><time>2026-04-10T10:44:04.772Z</time></trkpt><trkpt lat="46.0537785" lon="10.9775505"><ele>320.0</ele><time>2026-04-10T10:44:05.772Z</time></trkpt><trkpt lat="46.053827" lon="10.9776634"><ele>319.0</ele><time>2026-04-10T10:44:06.772Z</time></trkpt><trkpt lat="46.0538685" lon="10.9777674"><ele>318.0</ele><time>2026-04-10T10:44:07.772Z</time></trkpt><trkpt lat="46.0539017" lon="10.9778679"><ele>317.0</ele><time>2026-04-10T10:44:08.772Z</time></trkpt><trkpt lat="46.0539282" lon="10.977963"><ele>317.0</ele><time>2026-04-10T10:44:09.772Z</time></trkpt><trkpt lat="46.0539435" lon="10.978055"><ele>317.0</ele><time>2026-04-10T10:44:10.773Z</time></trkpt><trkpt lat="46.053902" lon="10.9782047"><ele>317.0</ele><time>2026-04-10T10:44:12.772Z</time></trkpt><trkpt lat="46.0538121" lon="10.9782964"><ele>317.0</ele><time>2026-04-10T10:44:14.772Z</time></trkpt><trkpt lat="46.0537819" lon="10.9783971"><ele>317.0</ele><time>2026-04-10T10:44:16.772Z</time></trkpt><trkpt lat="46.0538744" lon="10.9784186"><ele>317.0</ele><time>2026-04-10T10:44:18.773Z</time></trkpt><trkpt lat="46.0539903" lon="10.9783345"><ele>317.0</ele><time>2026-04-10T10:44:20.772Z</time></trkpt><trkpt lat="46.0540579" lon="10.9782914"><ele>317.0</ele><time>2026-04-10T10:44:21.772Z</time></trkpt><trkpt lat="46.0541572" lon="10.9783205"><ele>317.0</ele><time>2026-04-10T10:44:23.772Z</time></trkpt><trkpt lat="46.0542197" lon="10.9784683"><ele>317.0</ele><time>2026-04-10T10:44:25.773Z</time></trkpt><trkpt lat="46.0542537" lon="10.9785632"><ele>314.14285714285717</ele><time>2026-04-10T10:44:26.772Z</time></trkpt><trkpt lat="46.0542968" lon="10.9786634"><ele>311.2857142857143</ele><time>2026-04-10T10:44:27.772Z</time></trkpt><trkpt lat="46.0543462" lon="10.9787526"><ele>308.42857142857144</ele><time>2026-04-10T10:44:28.772Z</time></trkpt><trkpt lat="46.0543971" lon="10.9788288"><ele>305.57142857142856</ele><time>2026-04-10T10:44:29.772Z</time></trkpt><trkpt lat="46.0544461" lon="10.9789094"><ele>302.7142857142857</ele><time>2026-04-10T10:44:30.772Z</time></trkpt><trkpt lat="46.0544811" lon="10.9789978"><ele>299.8571428571429</ele><time>2026-04-10T10:44:31.772Z</time></trkpt><trkpt lat="46.0545109" lon="10.9790817"><ele>297.0</ele><time>2026-04-10T10:44:32.772Z</time></trkpt><trkpt lat="46.0545359" lon="10.9791955"><ele>296.6666666666667</ele><time>2026-04-10T10:44:33.772Z</time></trkpt><trkpt lat="46.0545675" lon="10.9793157"><ele>296.3333333333333</ele><time>2026-04-10T10:44:34.772Z</time></trkpt><trkpt lat="46.0545957" lon="10.9794359"><ele>296.0</ele><time>2026-04-10T10:44:35.772Z</time></trkpt><trkpt lat="46.0546179" lon="10.9795387"><ele>295.66666666666663</ele><time>2026-04-10T10:44:36.772Z</time></trkpt><trkpt lat="46.0546538" lon="10.9796273"><ele>295.3333333333333</ele><time>2026-04-10T10:44:37.772Z</time></trkpt><trkpt lat="46.0547092" lon="10.9796862"><ele>295.0</ele><time>2026-04-10T10:44:38.772Z</time></trkpt><trkpt lat="46.0547792" lon="10.9797135"><ele>295.00000000000006</ele><time>2026-04-10T10:44:39.772Z</time></trkpt><trkpt lat="46.0548581" lon="10.9797184"><ele>295.0</ele><time>2026-04-10T10:44:40.772Z</time></trkpt><trkpt lat="46.0549365" lon="10.9797329"><ele>295.0</ele><time>2026-04-10T10:44:41.773Z</time></trkpt><trkpt lat="46.0550138" lon="10.9797492"><ele>295.0</ele><time>2026-04-10T10:44:42.772Z</time></trkpt><trkpt lat="46.0550856" lon="10.9797642"><ele>295.0</ele><time>2026-04-10T10:44:43.772Z</time></trkpt><trkpt lat="46.0551603" lon="10.9797723"><ele>295.00000000000006</ele><time>2026-04-10T10:44:44.773Z</time></trkpt><trkpt lat="46.0552242" lon="10.9797865"><ele>295.0</ele><time>2026-04-10T10:44:45.772Z</time></trkpt><trkpt lat="46.0553265" lon="10.9798068"><ele>291.6</ele><time>2026-04-10T10:44:47.773Z</time></trkpt><trkpt lat="46.0554154" lon="10.97987"><ele>288.2</ele><time>2026-04-10T10:44:49.773Z</time></trkpt><trkpt lat="46.0553796" lon="10.9800089"><ele>284.8</ele><time>2026-04-10T10:44:51.774Z</time></trkpt><trkpt lat="46.0552717" lon="10.9800523"><ele>281.4</ele><time>2026-04-10T10:44:53.774Z</time></trkpt><trkpt lat="46.055173" lon="10.980037"><ele>278.0</ele><time>2026-04-10T10:44:55.773Z</time></trkpt><trkpt lat="46.0551612" lon="10.9801544"><ele>276.1666666666667</ele><time>2026-04-10T10:44:57.773Z</time></trkpt><trkpt lat="46.0552629" lon="10.9801789"><ele>274.33333333333337</ele><time>2026-04-10T10:44:59.773Z</time></trkpt><trkpt lat="46.0553847" lon="10.9801839"><ele>272.5</ele><time>2026-04-10T10:45:01.773Z</time></trkpt><trkpt lat="46.0554504" lon="10.9801997"><ele>270.6666666666667</ele><time>2026-04-10T10:45:02.773Z</time></trkpt><trkpt lat="46.0555153" lon="10.9802274"><ele>268.8333333333333</ele><time>2026-04-10T10:45:03.773Z</time></trkpt><trkpt lat="46.0555847" lon="10.9802378"><ele>267.0</ele><time>2026-04-10T10:45:04.773Z</time></trkpt><trkpt lat="46.0556564" lon="10.9802379"><ele>267.0</ele><time>2026-04-10T10:45:05.774Z</time></trkpt><trkpt lat="46.05573" lon="10.9802414"><ele>267.0</ele><time>2026-04-10T10:45:06.774Z</time></trkpt><trkpt lat="46.0558108" lon="10.9802486"><ele>267.0</ele><time>2026-04-10T10:45:07.773Z</time></trkpt><trkpt lat="46.0558923" lon="10.9802317"><ele>267.0</ele><time>2026-04-10T10:45:08.773Z</time></trkpt><trkpt lat="46.0559717" lon="10.9802314"><ele>267.0</ele><time>2026-04-10T10:45:09.773Z</time></trkpt><trkpt lat="46.0560564" lon="10.9802261"><ele>267.0</ele><time>2026-04-10T10:45:10.773Z</time></trkpt><trkpt lat="46.0561354" lon="10.9802105"><ele>265.8333333333333</ele><time>2026-04-10T10:45:11.774Z</time></trkpt><trkpt lat="46.0562209" lon="10.9801962"><ele>264.6666666666667</ele><time>2026-04-10T10:45:12.773Z</time></trkpt><trkpt lat="46.0562985" lon="10.9801958"><ele>263.5</ele><time>2026-04-10T10:45:13.773Z</time></trkpt><trkpt lat="46.0563689" lon="10.9802128"><ele>262.33333333333337</ele><time>2026-04-10T10:45:14.773Z</time></trkpt><trkpt lat="46.0564267" lon="10.9802542"><ele>261.1666666666667</ele><time>2026-04-10T10:45:15.773Z</time></trkpt><trkpt lat="46.0565252" lon="10.9803496"><ele>260.0</ele><time>2026-04-10T10:45:17.773Z</time></trkpt><trkpt lat="46.0565942" lon="10.9803709"><ele>259.1666666666667</ele><time>2026-04-10T10:45:18.774Z</time></trkpt><trkpt lat="46.0566619" lon="10.9803926"><ele>258.33333333333337</ele><time>2026-04-10T10:45:19.773Z</time></trkpt><trkpt lat="46.0567385" lon="10.9803894"><ele>257.5</ele><time>2026-04-10T10:45:20.773Z</time></trkpt><trkpt lat="46.0568292" lon="10.9803759"><ele>256.6666666666667</ele><time>2026-04-10T10:45:21.773Z</time></trkpt><trkpt lat="46.0569253" lon="10.9803628"><ele>255.83333333333334</ele><time>2026-04-10T10:45:22.773Z</time></trkpt><trkpt lat="46.0570318" lon="10.9803509"><ele>255.0</ele><time>2026-04-10T10:45:23.773Z</time></trkpt><trkpt lat="46.0571522" lon="10.9803335"><ele>255.0</ele><time>2026-04-10T10:45:24.773Z</time></trkpt><trkpt lat="46.0572729" lon="10.9803201"><ele>255.0</ele><time>2026-04-10T10:45:25.774Z</time></trkpt><trkpt lat="46.0573826" lon="10.9803077"><ele>255.0</ele><time>2026-04-10T10:45:26.773Z</time></trkpt><trkpt lat="46.0574819" lon="10.9802955"><ele>255.0</ele><time>2026-04-10T10:45:27.773Z</time></trkpt><trkpt lat="46.0575748" lon="10.9802874"><ele>255.0</ele><time>2026-04-10T10:45:28.774Z</time></trkpt><trkpt lat="46.0576648" lon="10.9802983"><ele>254.14285714285717</ele><time>2026-04-10T10:45:29.774Z</time></trkpt><trkpt lat="46.0577465" lon="10.9803314"><ele>253.2857142857143</ele><time>2026-04-10T10:45:30.774Z</time></trkpt><trkpt lat="46.0578195" lon="10.9803832"><ele>252.42857142857144</ele><time>2026-04-10T10:45:31.774Z</time></trkpt><trkpt lat="46.0578824" lon="10.9804424"><ele>251.57142857142856</ele><time>2026-04-10T10:45:32.774Z</time></trkpt><trkpt lat="46.0579298" lon="10.980509"><ele>250.7142857142857</ele><time>2026-04-10T10:45:33.774Z</time></trkpt><trkpt lat="46.0579654" lon="10.9805905"><ele>249.85714285714283</ele><time>2026-04-10T10:45:34.774Z</time></trkpt><trkpt lat="46.0580077" lon="10.9806739"><ele>249.0</ele><time>2026-04-10T10:45:35.774Z</time></trkpt><trkpt lat="46.0580489" lon="10.9807566"><ele>249.0</ele><time>2026-04-10T10:45:36.774Z</time></trkpt><trkpt lat="46.0580911" lon="10.9808443"><ele>249.0</ele><time>2026-04-10T10:45:37.774Z</time></trkpt><trkpt lat="46.0581271" lon="10.9809396"><ele>249.0</ele><time>2026-04-10T10:45:38.774Z</time></trkpt><trkpt lat="46.0581584" lon="10.981039"><ele>249.0</ele><time>2026-04-10T10:45:39.774Z</time></trkpt><trkpt lat="46.0581862" lon="10.9811432"><ele>249.0</ele><time>2026-04-10T10:45:40.774Z</time></trkpt><trkpt lat="46.0582161" lon="10.981247"><ele>249.0</ele><time>2026-04-10T10:45:41.774Z</time></trkpt><trkpt lat="46.0582481" lon="10.9813546"><ele>249.5</ele><time>2026-04-10T10:45:42.774Z</time></trkpt><trkpt lat="46.0582761" lon="10.9814657"><ele>250.0</ele><time>2026-04-10T10:45:43.774Z</time></trkpt><trkpt lat="46.058299" lon="10.9815732"><ele>250.5</ele><time>2026-04-10T10:45:44.774Z</time></trkpt><trkpt lat="46.0583206" lon="10.9816616"><ele>251.0</ele><time>2026-04-10T10:45:45.774Z</time></trkpt><trkpt lat="46.0583716" lon="10.981812"><ele>251.5</ele><time>2026-04-10T10:45:47.774Z</time></trkpt><trkpt lat="46.0584483" lon="10.9819093"><ele>252.0</ele><time>2026-04-10T10:45:49.774Z</time></trkpt><trkpt lat="46.0585223" lon="10.98197"><ele>253.33333333333334</ele><time>2026-04-10T10:45:52.774Z</time></trkpt><trkpt lat="46.058526" lon="10.9820886"><ele>254.66666666666669</ele><time>2026-04-10T10:45:54.774Z</time></trkpt><trkpt lat="46.0585172" lon="10.9821836"><ele>256.0</ele><time>2026-04-10T10:45:55.774Z</time></trkpt><trkpt lat="46.0585342" lon="10.9823732"><ele>257.33333333333337</ele><time>2026-04-10T10:45:57.774Z</time></trkpt><trkpt lat="46.0585576" lon="10.9824924"><ele>258.6666666666667</ele><time>2026-04-10T10:45:58.774Z</time></trkpt><trkpt lat="46.0585913" lon="10.9825974"><ele>260.0</ele><time>2026-04-10T10:45:59.774Z</time></trkpt><trkpt lat="46.0586341" lon="10.9826834"><ele>263.6</ele><time>2026-04-10T10:46:00.774Z</time></trkpt><trkpt lat="46.0586708" lon="10.9827575"><ele>267.2</ele><time>2026-04-10T10:46:01.774Z</time></trkpt><trkpt lat="46.0587378" lon="10.9828524"><ele>270.8</ele><time>2026-04-10T10:46:03.774Z</time></trkpt><trkpt lat="46.0588256" lon="10.9828282"><ele>274.4</ele><time>2026-04-10T10:46:05.774Z</time></trkpt><trkpt lat="46.0588797" lon="10.9826817"><ele>278.0</ele><time>2026-04-10T10:46:07.774Z</time></trkpt><trkpt lat="46.0589076" lon="10.9825553"><ele>274.4</ele><time>2026-04-10T10:46:08.774Z</time></trkpt><trkpt lat="46.058932" lon="10.9824249"><ele>270.8</ele><time>2026-04-10T10:46:09.775Z</time></trkpt><trkpt lat="46.0589582" lon="10.9822913"><ele>267.2</ele><time>2026-04-10T10:46:10.775Z</time></trkpt><trkpt lat="46.0589872" lon="10.9821485"><ele>263.6</ele><time>2026-04-10T10:46:11.775Z</time></trkpt><trkpt lat="46.0590045" lon="10.981968"><ele>260.0</ele><time>2026-04-10T10:46:12.775Z</time></trkpt><trkpt lat="46.0589649" lon="10.9817954"><ele>258.0</ele><time>2026-04-10T10:46:13.775Z</time></trkpt><trkpt lat="46.0589093" lon="10.9816137"><ele>256.0</ele><time>2026-04-10T10:46:14.775Z</time></trkpt><trkpt lat="46.0588589" lon="10.9814401"><ele>254.0</ele><time>2026-04-10T10:46:15.775Z</time></trkpt><trkpt lat="46.0588122" lon="10.9812929"><ele>252.0</ele><time>2026-04-10T10:46:16.775Z</time></trkpt><trkpt lat="46.0587762" lon="10.9811516"><ele>252.0</ele><time>2026-04-10T10:46:17.775Z</time></trkpt><trkpt lat="46.0587488" lon="10.981017"><ele>252.0</ele><time>2026-04-10T10:46:18.776Z</time></trkpt><trkpt lat="46.05873" lon="10.9808827"><ele>252.0</ele><time>2026-04-10T10:46:19.775Z</time></trkpt><trkpt lat="46.0587181" lon="10.9807482"><ele>252.0</ele><time>2026-04-10T10:46:20.775Z</time></trkpt><trkpt lat="46.0587151" lon="10.9806067"><ele>252.0</ele><time>2026-04-10T10:46:21.775Z</time></trkpt><trkpt lat="46.0587176" lon="10.9804618"><ele>251.6</ele><time>2026-04-10T10:46:22.775Z</time></trkpt><trkpt lat="46.0587275" lon="10.9803234"><ele>251.2</ele><time>2026-04-10T10:46:23.775Z</time></trkpt><trkpt lat="46.0587378" lon="10.9801922"><ele>250.8</ele><time>2026-04-10T10:46:24.775Z</time></trkpt><trkpt lat="46.0587495" lon="10.9800638"><ele>250.4</ele><time>2026-04-10T10:46:25.775Z</time></trkpt><trkpt lat="46.0587613" lon="10.9799295"><ele>250.0</ele><time>2026-04-10T10:46:26.775Z</time></trkpt><trkpt lat="46.0587719" lon="10.9797966"><ele>249.6</ele><time>2026-04-10T10:46:27.775Z</time></trkpt><trkpt lat="46.0587844" lon="10.9796674"><ele>249.2</ele><time>2026-04-10T10:46:28.775Z</time></trkpt><trkpt lat="46.0587984" lon="10.9795398"><ele>248.8</ele><time>2026-04-10T10:46:29.775Z</time></trkpt><trkpt lat="46.0588152" lon="10.9794105"><ele>248.4</ele><time>2026-04-10T10:46:30.775Z</time></trkpt><trkpt lat="46.0588312" lon="10.979282"><ele>248.0</ele><time>2026-04-10T10:46:31.775Z</time></trkpt><trkpt lat="46.0588507" lon="10.9791494"><ele>248.0</ele><time>2026-04-10T10:46:32.775Z</time></trkpt><trkpt lat="46.0588748" lon="10.9790164"><ele>248.0</ele><time>2026-04-10T10:46:33.775Z</time></trkpt><trkpt lat="46.0588893" lon="10.9788715"><ele>248.0</ele><time>2026-04-10T10:46:34.775Z</time></trkpt><trkpt lat="46.058902" lon="10.9787385"><ele>248.0</ele><time>2026-04-10T10:46:35.775Z</time></trkpt><trkpt lat="46.0589185" lon="10.9786056"><ele>248.0</ele><time>2026-04-10T10:46:36.775Z</time></trkpt><trkpt lat="46.058938" lon="10.9784684"><ele>248.8</ele><time>2026-04-10T10:46:37.775Z</time></trkpt><trkpt lat="46.0589394" lon="10.9783376"><ele>249.60000000000002</ele><time>2026-04-10T10:46:38.775Z</time></trkpt><trkpt lat="46.0589534" lon="10.9782103"><ele>250.39999999999998</ele><time>2026-04-10T10:46:39.775Z</time></trkpt><trkpt lat="46.0589709" lon="10.9780799"><ele>251.2</ele><time>2026-04-10T10:46:40.775Z</time></trkpt><trkpt lat="46.0589875" lon="10.9779475"><ele>252.0</ele><time>2026-04-10T10:46:41.775Z</time></trkpt><trkpt lat="46.0589994" lon="10.977815"><ele>252.0</ele><time>2026-04-10T10:46:42.776Z</time></trkpt><trkpt lat="46.0590144" lon="10.9776866"><ele>252.0</ele><time>2026-04-10T10:46:43.775Z</time></trkpt><trkpt lat="46.0590234" lon="10.9775687"><ele>252.0</ele><time>2026-04-10T10:46:44.775Z</time></trkpt><trkpt lat="46.0590168" lon="10.9774564"><ele>252.0</ele><time>2026-04-10T10:46:45.775Z</time></trkpt><trkpt lat="46.0590113" lon="10.9773458"><ele>252.0</ele><time>2026-04-10T10:46:46.775Z</time></trkpt><trkpt lat="46.0590039" lon="10.9772331"><ele>252.0</ele><time>2026-04-10T10:46:47.776Z</time></trkpt><trkpt lat="46.0589935" lon="10.9771121"><ele>251.0</ele><time>2026-04-10T10:46:48.775Z</time></trkpt><trkpt lat="46.0589656" lon="10.9769895"><ele>250.0</ele><time>2026-04-10T10:46:49.775Z</time></trkpt><trkpt lat="46.0589134" lon="10.9768659"><ele>249.0</ele><time>2026-04-10T10:46:50.775Z</time></trkpt><trkpt lat="46.0588395" lon="10.9767736"><ele>248.0</ele><time>2026-04-10T10:46:51.775Z</time></trkpt><trkpt lat="46.0587619" lon="10.9766904"><ele>247.0</ele><time>2026-04-10T10:46:52.776Z</time></trkpt><trkpt lat="46.0586902" lon="10.976606"><ele>246.8</ele><time>2026-04-10T10:46:53.776Z</time></trkpt><trkpt lat="46.0586121" lon="10.9765109"><ele>246.6</ele><time>2026-04-10T10:46:54.776Z</time></trkpt><trkpt lat="46.0585371" lon="10.9764055"><ele>246.40000000000003</ele><time>2026-04-10T10:46:55.776Z</time></trkpt><trkpt lat="46.0584623" lon="10.9762962"><ele>246.20000000000002</ele><time>2026-04-10T10:46:56.776Z</time></trkpt><trkpt lat="46.0583835" lon="10.9761781"><ele>246.0</ele><time>2026-04-10T10:46:57.776Z</time></trkpt><trkpt lat="46.0583022" lon="10.9760617"><ele>246.25</ele><time>2026-04-10T10:46:58.776Z</time></trkpt><trkpt lat="46.0582278" lon="10.975933"><ele>246.5</ele><time>2026-04-10T10:46:59.776Z</time></trkpt><trkpt lat="46.0581558" lon="10.975801"><ele>246.75</ele><time>2026-04-10T10:47:00.776Z</time></trkpt><trkpt lat="46.0580926" lon="10.9756615"><ele>247.0</ele><time>2026-04-10T10:47:01.776Z</time></trkpt><trkpt lat="46.0580334" lon="10.975517"><ele>247.0</ele><time>2026-04-10T10:47:02.776Z</time></trkpt><trkpt lat="46.0579857" lon="10.9753692"><ele>247.0</ele><time>2026-04-10T10:47:03.776Z</time></trkpt><trkpt lat="46.0579414" lon="10.9751988"><ele>247.0</ele><time>2026-04-10T10:47:04.776Z</time></trkpt><trkpt lat="46.0579021" lon="10.9750239"><ele>247.0</ele><time>2026-04-10T10:47:05.776Z</time></trkpt><trkpt lat="46.0578773" lon="10.974864"><ele>246.25</ele><time>2026-04-10T10:47:06.776Z</time></trkpt><trkpt lat="46.0578541" lon="10.9747018"><ele>245.5</ele><time>2026-04-10T10:47:07.776Z</time></trkpt><trkpt lat="46.0578299" lon="10.9745334"><ele>244.75</ele><time>2026-04-10T10:47:08.777Z</time></trkpt><trkpt lat="46.0578116" lon="10.9743652"><ele>244.0</ele><time>2026-04-10T10:47:09.776Z</time></trkpt><trkpt lat="46.0577945" lon="10.9741932"><ele>244.75</ele><time>2026-04-10T10:47:10.776Z</time></trkpt><trkpt lat="46.0577689" lon="10.974019"><ele>245.5</ele><time>2026-04-10T10:47:11.776Z</time></trkpt><trkpt lat="46.0577491" lon="10.973844"><ele>246.25</ele><time>2026-04-10T10:47:12.776Z</time></trkpt><trkpt lat="46.0577316" lon="10.9736663"><ele>247.0</ele><time>2026-04-10T10:47:13.776Z</time></trkpt><trkpt lat="46.0577028" lon="10.9734865"><ele>246.75</ele><time>2026-04-10T10:47:14.776Z</time></trkpt><trkpt lat="46.0576774" lon="10.9732935"><ele>246.5</ele><time>2026-04-10T10:47:15.776Z</time></trkpt><trkpt lat="46.0576581" lon="10.9731164"><ele>246.25</ele><time>2026-04-10T10:47:16.777Z</time></trkpt><trkpt lat="46.0576293" lon="10.9729437"><ele>246.0</ele><time>2026-04-10T10:47:17.776Z</time></trkpt><trkpt lat="46.0576101" lon="10.9727826"><ele>246.0</ele><time>2026-04-10T10:47:18.777Z</time></trkpt><trkpt lat="46.0576095" lon="10.9726284"><ele>246.0</ele><time>2026-04-10T10:47:19.776Z</time></trkpt><trkpt lat="46.0576246" lon="10.9724694"><ele>246.0</ele><time>2026-04-10T10:47:20.776Z</time></trkpt><trkpt lat="46.0576762" lon="10.9723182"><ele>246.0</ele><time>2026-04-10T10:47:21.776Z</time></trkpt><trkpt lat="46.0577674" lon="10.9722069"><ele>246.0</ele><time>2026-04-10T10:47:22.776Z</time></trkpt><trkpt lat="46.057876" lon="10.9721311"><ele>246.0</ele><time>2026-04-10T10:47:23.776Z</time></trkpt><trkpt lat="46.0579907" lon="10.9720974"><ele>246.0</ele><time>2026-04-10T10:47:24.776Z</time></trkpt><trkpt lat="46.058099" lon="10.9720713"><ele>246.0</ele><time>2026-04-10T10:47:25.776Z</time></trkpt><trkpt lat="46.0582033" lon="10.9720365"><ele>247.0</ele><time>2026-04-10T10:47:26.776Z</time></trkpt><trkpt lat="46.0583026" lon="10.9719837"><ele>248.00000000000003</ele><time>2026-04-10T10:47:27.777Z</time></trkpt><trkpt lat="46.0583843" lon="10.9718922"><ele>249.00000000000003</ele><time>2026-04-10T10:47:28.776Z</time></trkpt><trkpt lat="46.0584451" lon="10.9717564"><ele>250.0</ele><time>2026-04-10T10:47:29.777Z</time></trkpt><trkpt lat="46.0584887" lon="10.9715862"><ele>251.0</ele><time>2026-04-10T10:47:30.776Z</time></trkpt><trkpt lat="46.0585037" lon="10.971407"><ele>251.0</ele><time>2026-04-10T10:47:31.776Z</time></trkpt><trkpt lat="46.0584832" lon="10.9712251"><ele>251.0</ele><time>2026-04-10T10:47:32.777Z</time></trkpt><trkpt lat="46.0584325" lon="10.9710291"><ele>251.0</ele><time>2026-04-10T10:47:33.777Z</time></trkpt><trkpt lat="46.0583459" lon="10.9708329"><ele>251.0</ele><time>2026-04-10T10:47:34.777Z</time></trkpt><trkpt lat="46.0582462" lon="10.9706554"><ele>249.0</ele><time>2026-04-10T10:47:35.777Z</time></trkpt><trkpt lat="46.0581498" lon="10.970502"><ele>247.0</ele><time>2026-04-10T10:47:36.777Z</time></trkpt><trkpt lat="46.0580587" lon="10.9703586"><ele>245.0</ele><time>2026-04-10T10:47:37.777Z</time></trkpt><trkpt lat="46.0579701" lon="10.9702204"><ele>243.0</ele><time>2026-04-10T10:47:38.777Z</time></trkpt><trkpt lat="46.0578756" lon="10.9700812"><ele>244.0</ele><time>2026-04-10T10:47:39.777Z</time></trkpt><trkpt lat="46.0577805" lon="10.9699423"><ele>245.0</ele><time>2026-04-10T10:47:40.777Z</time></trkpt><trkpt lat="46.057692" lon="10.9698036"><ele>246.0</ele><time>2026-04-10T10:47:41.778Z</time></trkpt><trkpt lat="46.0575994" lon="10.9696656"><ele>247.0</ele><time>2026-04-10T10:47:42.777Z</time></trkpt><trkpt lat="46.0575048" lon="10.9695279"><ele>246.0</ele><time>2026-04-10T10:47:43.777Z</time></trkpt><trkpt lat="46.0574153" lon="10.9693818"><ele>245.0</ele><time>2026-04-10T10:47:44.778Z</time></trkpt><trkpt lat="46.0573283" lon="10.9692366"><ele>244.0</ele><time>2026-04-10T10:47:45.777Z</time></trkpt><trkpt lat="46.0572501" lon="10.9690895"><ele>243.0</ele><time>2026-04-10T10:47:46.777Z</time></trkpt><trkpt lat="46.057175" lon="10.96894"><ele>243.0</ele><time>2026-04-10T10:47:47.777Z</time></trkpt><trkpt lat="46.0571043" lon="10.9687869"><ele>243.0</ele><time>2026-04-10T10:47:48.777Z</time></trkpt><trkpt lat="46.0570306" lon="10.9686374"><ele>243.0</ele><time>2026-04-10T10:47:49.777Z</time></trkpt><trkpt lat="46.0569573" lon="10.9684922"><ele>243.0</ele><time>2026-04-10T10:47:50.777Z</time></trkpt><trkpt lat="46.0568867" lon="10.9683466"><ele>243.25</ele><time>2026-04-10T10:47:51.778Z</time></trkpt><trkpt lat="46.056821" lon="10.9681981"><ele>243.5</ele><time>2026-04-10T10:47:52.778Z</time></trkpt><trkpt lat="46.0567524" lon="10.9680505"><ele>243.75</ele><time>2026-04-10T10:47:53.778Z</time></trkpt><trkpt lat="46.0566847" lon="10.9679029"><ele>244.0</ele><time>2026-04-10T10:47:54.777Z</time></trkpt><trkpt lat="46.0566178" lon="10.9677601"><ele>244.0</ele><time>2026-04-10T10:47:55.777Z</time></trkpt><trkpt lat="46.0565524" lon="10.9676227"><ele>243.99999999999997</ele><time>2026-04-10T10:47:56.777Z</time></trkpt><trkpt lat="46.0564874" lon="10.9674816"><ele>243.99999999999997</ele><time>2026-04-10T10:47:57.778Z</time></trkpt><trkpt lat="46.056427" lon="10.967347"><ele>244.0</ele><time>2026-04-10T10:47:58.777Z</time></trkpt><trkpt lat="46.0563737" lon="10.9672196"><ele>244.0</ele><time>2026-04-10T10:47:59.777Z</time></trkpt><trkpt lat="46.0563334" lon="10.9670943"><ele>244.39999999999998</ele><time>2026-04-10T10:48:00.777Z</time></trkpt><trkpt lat="46.0563078" lon="10.966964"><ele>244.79999999999998</ele><time>2026-04-10T10:48:01.778Z</time></trkpt><trkpt lat="46.0562902" lon="10.9668332"><ele>245.20000000000002</ele><time>2026-04-10T10:48:02.777Z</time></trkpt><trkpt lat="46.0562954" lon="10.9666959"><ele>245.60000000000002</ele><time>2026-04-10T10:48:03.777Z</time></trkpt><trkpt lat="46.0563019" lon="10.9665584"><ele>246.0</ele><time>2026-04-10T10:48:04.777Z</time></trkpt><trkpt lat="46.0563122" lon="10.9664133"><ele>246.0</ele><time>2026-04-10T10:48:05.777Z</time></trkpt><trkpt lat="46.0563214" lon="10.9662608"><ele>246.0</ele><time>2026-04-10T10:48:06.777Z</time></trkpt><trkpt lat="46.0563291" lon="10.9660989"><ele>246.0</ele><time>2026-04-10T10:48:07.777Z</time></trkpt><trkpt lat="46.0563383" lon="10.9659292"><ele>246.0</ele><time>2026-04-10T10:48:08.777Z</time></trkpt><trkpt lat="46.0563503" lon="10.9657459"><ele>246.25</ele><time>2026-04-10T10:48:09.777Z</time></trkpt><trkpt lat="46.056363" lon="10.9655594"><ele>246.5</ele><time>2026-04-10T10:48:10.777Z</time></trkpt><trkpt lat="46.0563723" lon="10.9653652"><ele>246.75</ele><time>2026-04-10T10:48:11.777Z</time></trkpt><trkpt lat="46.0563821" lon="10.965166"><ele>247.0</ele><time>2026-04-10T10:48:12.777Z</time></trkpt><trkpt lat="46.0563936" lon="10.964966"><ele>247.5</ele><time>2026-04-10T10:48:13.777Z</time></trkpt><trkpt lat="46.0564011" lon="10.9647716"><ele>248.0</ele><time>2026-04-10T10:48:14.777Z</time></trkpt><trkpt lat="46.0563824" lon="10.9645793"><ele>248.5</ele><time>2026-04-10T10:48:15.779Z</time></trkpt><trkpt lat="46.0563362" lon="10.9643892"><ele>249.0</ele><time>2026-04-10T10:48:16.778Z</time></trkpt><trkpt lat="46.0562486" lon="10.9642046"><ele>249.66666666666669</ele><time>2026-04-10T10:48:17.778Z</time></trkpt><trkpt lat="46.0561502" lon="10.9640256"><ele>250.33333333333334</ele><time>2026-04-10T10:48:18.779Z</time></trkpt><trkpt lat="46.0560433" lon="10.963843"><ele>251.0</ele><time>2026-04-10T10:48:19.778Z</time></trkpt><trkpt lat="46.0559432" lon="10.9636598"><ele>251.0</ele><time>2026-04-10T10:48:20.779Z</time></trkpt><trkpt lat="46.0558431" lon="10.9634745"><ele>251.0</ele><time>2026-04-10T10:48:21.778Z</time></trkpt><trkpt lat="46.0557354" lon="10.9632806"><ele>251.0</ele><time>2026-04-10T10:48:22.778Z</time></trkpt><trkpt lat="46.0556257" lon="10.9630897"><ele>249.66666666666669</ele><time>2026-04-10T10:48:23.778Z</time></trkpt><trkpt lat="46.0555238" lon="10.9628926"><ele>248.33333333333331</ele><time>2026-04-10T10:48:24.778Z</time></trkpt><trkpt lat="46.0554252" lon="10.962695"><ele>247.0</ele><time>2026-04-10T10:48:25.778Z</time></trkpt><trkpt lat="46.0553337" lon="10.9625025"><ele>247.0</ele><time>2026-04-10T10:48:26.778Z</time></trkpt><trkpt lat="46.0552519" lon="10.9622831"><ele>247.0</ele><time>2026-04-10T10:48:27.778Z</time></trkpt><trkpt lat="46.0551745" lon="10.9620585"><ele>247.0</ele><time>2026-04-10T10:48:28.778Z</time></trkpt><trkpt lat="46.055097" lon="10.9618375"><ele>245.66666666666666</ele><time>2026-04-10T10:48:29.778Z</time></trkpt><trkpt lat="46.055016" lon="10.9616201"><ele>244.33333333333331</ele><time>2026-04-10T10:48:30.778Z</time></trkpt><trkpt lat="46.0549392" lon="10.9614076"><ele>243.0</ele><time>2026-04-10T10:48:31.778Z</time></trkpt><trkpt lat="46.0548601" lon="10.9611966"><ele>243.0</ele><time>2026-04-10T10:48:32.778Z</time></trkpt><trkpt lat="46.0547776" lon="10.9609827"><ele>243.0</ele><time>2026-04-10T10:48:33.778Z</time></trkpt><trkpt lat="46.0546892" lon="10.960772"><ele>243.0</ele><time>2026-04-10T10:48:34.779Z</time></trkpt><trkpt lat="46.0546101" lon="10.9605596"><ele>243.66666666666669</ele><time>2026-04-10T10:48:35.778Z</time></trkpt><trkpt lat="46.054531" lon="10.9603405"><ele>244.33333333333334</ele><time>2026-04-10T10:48:36.778Z</time></trkpt><trkpt lat="46.0544436" lon="10.9601325"><ele>245.0</ele><time>2026-04-10T10:48:37.778Z</time></trkpt><trkpt lat="46.0543516" lon="10.9599363"><ele>244.33333333333334</ele><time>2026-04-10T10:48:38.778Z</time></trkpt><trkpt lat="46.0542554" lon="10.9597437"><ele>243.66666666666669</ele><time>2026-04-10T10:48:39.778Z</time></trkpt><trkpt lat="46.0541552" lon="10.959565"><ele>243.0</ele><time>2026-04-10T10:48:40.778Z</time></trkpt><trkpt lat="46.0540514" lon="10.9593884"><ele>243.0</ele><time>2026-04-10T10:48:41.778Z</time></trkpt><trkpt lat="46.0539362" lon="10.9592318"><ele>243.0</ele><time>2026-04-10T10:48:42.778Z</time></trkpt><trkpt lat="46.0538048" lon="10.9591181"><ele>243.0</ele><time>2026-04-10T10:48:43.778Z</time></trkpt><trkpt lat="46.0536598" lon="10.9590406"><ele>244.66666666666669</ele><time>2026-04-10T10:48:44.778Z</time></trkpt><trkpt lat="46.0535038" lon="10.958987"><ele>246.33333333333334</ele><time>2026-04-10T10:48:45.778Z</time></trkpt><trkpt lat="46.0533502" lon="10.9589353"><ele>248.0</ele><time>2026-04-10T10:48:46.778Z</time></trkpt><trkpt lat="46.0531947" lon="10.9588823"><ele>248.0</ele><time>2026-04-10T10:48:47.778Z</time></trkpt><trkpt lat="46.0530343" lon="10.9588309"><ele>248.0</ele><time>2026-04-10T10:48:48.778Z</time></trkpt><trkpt lat="46.0528721" lon="10.9587789"><ele>248.0</ele><time>2026-04-10T10:48:49.779Z</time></trkpt><trkpt lat="46.0527103" lon="10.9587289"><ele>248.0</ele><time>2026-04-10T10:48:50.778Z</time></trkpt><trkpt lat="46.0525499" lon="10.9586728"><ele>248.0</ele><time>2026-04-10T10:48:51.778Z</time></trkpt><trkpt lat="46.0523922" lon="10.9586176"><ele>248.0</ele><time>2026-04-10T10:48:52.778Z</time></trkpt><trkpt lat="46.0522452" lon="10.958574"><ele>247.5</ele><time>2026-04-10T10:48:53.778Z</time></trkpt><trkpt lat="46.0521059" lon="10.9585272"><ele>247.0</ele><time>2026-04-10T10:48:54.778Z</time></trkpt><trkpt lat="46.0519784" lon="10.9584844"><ele>246.5</ele><time>2026-04-10T10:48:55.779Z</time></trkpt><trkpt lat="46.0518552" lon="10.9584487"><ele>246.0</ele><time>2026-04-10T10:48:56.778Z</time></trkpt><trkpt lat="46.0517375" lon="10.9584085"><ele>246.25</ele><time>2026-04-10T10:48:57.779Z</time></trkpt><trkpt lat="46.0516214" lon="10.9583513"><ele>246.5</ele><time>2026-04-10T10:48:58.779Z</time></trkpt><trkpt lat="46.0515128" lon="10.9582803"><ele>246.75</ele><time>2026-04-10T10:48:59.78Z</time></trkpt><trkpt lat="46.0514097" lon="10.9581968"><ele>247.0</ele><time>2026-04-10T10:49:00.779Z</time></trkpt><trkpt lat="46.0513028" lon="10.9581036"><ele>247.0</ele><time>2026-04-10T10:49:01.779Z</time></trkpt><trkpt lat="46.0511938" lon="10.9579964"><ele>247.0</ele><time>2026-04-10T10:49:02.779Z</time></trkpt><trkpt lat="46.0510876" lon="10.9578835"><ele>247.0</ele><time>2026-04-10T10:49:03.779Z</time></trkpt><trkpt lat="46.0509798" lon="10.9577768"><ele>247.0</ele><time>2026-04-10T10:49:04.779Z</time></trkpt><trkpt lat="46.0508679" lon="10.9576722"><ele>246.75</ele><time>2026-04-10T10:49:05.779Z</time></trkpt><trkpt lat="46.0507585" lon="10.957561"><ele>246.5</ele><time>2026-04-10T10:49:06.779Z</time></trkpt><trkpt lat="46.0506455" lon="10.9574578"><ele>246.25</ele><time>2026-04-10T10:49:07.779Z</time></trkpt><trkpt lat="46.0505332" lon="10.957349"><ele>246.0</ele><time>2026-04-10T10:49:08.779Z</time></trkpt><trkpt lat="46.0504212" lon="10.9572306"><ele>246.0</ele><time>2026-04-10T10:49:09.779Z</time></trkpt><trkpt lat="46.0503052" lon="10.9571164"><ele>246.0</ele><time>2026-04-10T10:49:10.779Z</time></trkpt><trkpt lat="46.0501868" lon="10.9570044"><ele>246.0</ele><time>2026-04-10T10:49:11.779Z</time></trkpt><trkpt lat="46.0500713" lon="10.9568834"><ele>246.0</ele><time>2026-04-10T10:49:12.78Z</time></trkpt><trkpt lat="46.0499563" lon="10.9567543"><ele>245.75</ele><time>2026-04-10T10:49:13.779Z</time></trkpt><trkpt lat="46.0498348" lon="10.95663"><ele>245.5</ele><time>2026-04-10T10:49:14.779Z</time></trkpt><trkpt lat="46.0497114" lon="10.9565035"><ele>245.25</ele><time>2026-04-10T10:49:15.779Z</time></trkpt><trkpt lat="46.0496017" lon="10.9563712"><ele>245.0</ele><time>2026-04-10T10:49:16.779Z</time></trkpt><trkpt lat="46.0495019" lon="10.9562384"><ele>245.0</ele><time>2026-04-10T10:49:17.779Z</time></trkpt><trkpt lat="46.0494058" lon="10.9561161"><ele>245.0</ele><time>2026-04-10T10:49:18.779Z</time></trkpt><trkpt lat="46.0493199" lon="10.9559923"><ele>245.0</ele><time>2026-04-10T10:49:19.779Z</time></trkpt><trkpt lat="46.0492414" lon="10.9558726"><ele>245.0</ele><time>2026-04-10T10:49:20.779Z</time></trkpt><trkpt lat="46.0491644" lon="10.9557545"><ele>245.5</ele><time>2026-04-10T10:49:21.779Z</time></trkpt><trkpt lat="46.0490839" lon="10.9556313"><ele>246.0</ele><time>2026-04-10T10:49:22.779Z</time></trkpt><trkpt lat="46.049005" lon="10.9555009"><ele>246.5</ele><time>2026-04-10T10:49:23.78Z</time></trkpt><trkpt lat="46.0489274" lon="10.9553873"><ele>247.0</ele><time>2026-04-10T10:49:24.78Z</time></trkpt><trkpt lat="46.0488482" lon="10.9552694"><ele>247.0</ele><time>2026-04-10T10:49:25.779Z</time></trkpt><trkpt lat="46.0487716" lon="10.9551513"><ele>247.0</ele><time>2026-04-10T10:49:26.779Z</time></trkpt><trkpt lat="46.0486967" lon="10.9550368"><ele>247.0</ele><time>2026-04-10T10:49:27.779Z</time></trkpt><trkpt lat="46.0486215" lon="10.95492"><ele>247.0</ele><time>2026-04-10T10:49:28.779Z</time></trkpt><trkpt lat="46.0485477" lon="10.9548083"><ele>247.0</ele><time>2026-04-10T10:49:29.78Z</time></trkpt><trkpt lat="46.0484792" lon="10.9547103"><ele>246.99999999999997</ele><time>2026-04-10T10:49:30.779Z</time></trkpt><trkpt lat="46.0484157" lon="10.9546164"><ele>247.0</ele><time>2026-04-10T10:49:31.779Z</time></trkpt><trkpt lat="46.0483536" lon="10.95452"><ele>247.0</ele><time>2026-04-10T10:49:32.779Z</time></trkpt><trkpt lat="46.0482916" lon="10.9544244"><ele>247.0</ele><time>2026-04-10T10:49:33.78Z</time></trkpt><trkpt lat="46.0482314" lon="10.9543351"><ele>246.99999999999997</ele><time>2026-04-10T10:49:34.779Z</time></trkpt><trkpt lat="46.0481694" lon="10.9542428"><ele>247.0</ele><time>2026-04-10T10:49:35.779Z</time></trkpt><trkpt lat="46.0481065" lon="10.9541404"><ele>247.0</ele><time>2026-04-10T10:49:36.779Z</time></trkpt><trkpt lat="46.0480453" lon="10.9540378"><ele>247.0</ele><time>2026-04-10T10:49:37.779Z</time></trkpt><trkpt lat="46.0479763" lon="10.9539355"><ele>247.0</ele><time>2026-04-10T10:49:38.78Z</time></trkpt><trkpt lat="46.0479082" lon="10.9538118"><ele>247.0</ele><time>2026-04-10T10:49:39.78Z</time></trkpt><trkpt lat="46.0478297" lon="10.9536839"><ele>247.0</ele><time>2026-04-10T10:49:40.78Z</time></trkpt><trkpt lat="46.0477451" lon="10.9535625"><ele>247.0</ele><time>2026-04-10T10:49:41.78Z</time></trkpt><trkpt lat="46.0476731" lon="10.9534493"><ele>247.0</ele><time>2026-04-10T10:49:42.781Z</time></trkpt><trkpt lat="46.0476053" lon="10.9533335"><ele>247.0</ele><time>2026-04-10T10:49:43.78Z</time></trkpt><trkpt lat="46.0475364" lon="10.9532234"><ele>247.0</ele><time>2026-04-10T10:49:44.78Z</time></trkpt><trkpt lat="46.0474759" lon="10.9531048"><ele>247.0</ele><time>2026-04-10T10:49:45.78Z</time></trkpt><trkpt lat="46.0474268" lon="10.953002"><ele>247.25</ele><time>2026-04-10T10:49:46.78Z</time></trkpt><trkpt lat="46.04737" lon="10.9528687"><ele>247.5</ele><time>2026-04-10T10:49:48.78Z</time></trkpt><trkpt lat="46.047325" lon="10.9527501"><ele>247.75</ele><time>2026-04-10T10:49:50.78Z</time></trkpt><trkpt lat="46.0472701" lon="10.9525895"><ele>248.0</ele><time>2026-04-10T10:49:52.78Z</time></trkpt><trkpt lat="46.0472318" lon="10.9524171"><ele>248.16666666666669</ele><time>2026-04-10T10:49:54.781Z</time></trkpt><trkpt lat="46.0472147" lon="10.9523158"><ele>248.33333333333334</ele><time>2026-04-10T10:49:55.781Z</time></trkpt><trkpt lat="46.0471945" lon="10.9522082"><ele>248.5</ele><time>2026-04-10T10:49:56.781Z</time></trkpt><trkpt lat="46.0471685" lon="10.9520992"><ele>248.66666666666669</ele><time>2026-04-10T10:49:57.78Z</time></trkpt><trkpt lat="46.0471427" lon="10.9519883"><ele>248.83333333333334</ele><time>2026-04-10T10:49:58.78Z</time></trkpt><trkpt lat="46.0471176" lon="10.9518747"><ele>249.0</ele><time>2026-04-10T10:49:59.78Z</time></trkpt><trkpt lat="46.0470965" lon="10.9517588"><ele>248.83333333333334</ele><time>2026-04-10T10:50:00.78Z</time></trkpt><trkpt lat="46.0470798" lon="10.9516477"><ele>248.66666666666669</ele><time>2026-04-10T10:50:01.781Z</time></trkpt><trkpt lat="46.0470603" lon="10.9515452"><ele>248.5</ele><time>2026-04-10T10:50:02.78Z</time></trkpt><trkpt lat="46.0470205" lon="10.951416"><ele>248.33333333333334</ele><time>2026-04-10T10:50:04.78Z</time></trkpt><trkpt lat="46.0469518" lon="10.9514053"><ele>248.16666666666669</ele><time>2026-04-10T10:50:06.78Z</time></trkpt><trkpt lat="46.046924" lon="10.9515052"><ele>248.0</ele><time>2026-04-10T10:50:08.78Z</time></trkpt><trkpt lat="46.0469469" lon="10.9516637"><ele>248.16666666666669</ele><time>2026-04-10T10:50:10.78Z</time></trkpt><trkpt lat="46.0470134" lon="10.9517669"><ele>248.33333333333334</ele><time>2026-04-10T10:50:12.78Z</time></trkpt><trkpt lat="46.04708" lon="10.951894"><ele>248.5</ele><time>2026-04-10T10:50:14.78Z</time></trkpt><trkpt lat="46.0470971" lon="10.9519871"><ele>248.66666666666669</ele><time>2026-04-10T10:50:15.78Z</time></trkpt><trkpt lat="46.0470973" lon="10.9520848"><ele>248.83333333333334</ele><time>2026-04-10T10:50:16.78Z</time></trkpt><trkpt lat="46.0470845" lon="10.952175"><ele>249.0</ele><time>2026-04-10T10:50:17.78Z</time></trkpt><trkpt lat="46.0471108" lon="10.9523517"><ele>249.0</ele><time>2026-04-10T10:50:19.781Z</time></trkpt><trkpt lat="46.0471572" lon="10.9524562"><ele>248.99999999999997</ele><time>2026-04-10T10:50:20.781Z</time></trkpt><trkpt lat="46.0472087" lon="10.9525704"><ele>248.99999999999997</ele><time>2026-04-10T10:50:21.781Z</time></trkpt><trkpt lat="46.0472658" lon="10.9526959"><ele>249.0</ele><time>2026-04-10T10:50:22.781Z</time></trkpt><trkpt lat="46.0473271" lon="10.9528252"><ele>249.0</ele><time>2026-04-10T10:50:23.781Z</time></trkpt><trkpt lat="46.0473902" lon="10.9529702"><ele>248.75</ele><time>2026-04-10T10:50:24.781Z</time></trkpt><trkpt lat="46.0474592" lon="10.953123"><ele>248.5</ele><time>2026-04-10T10:50:25.782Z</time></trkpt><trkpt lat="46.0475452" lon="10.9532715"><ele>248.25</ele><time>2026-04-10T10:50:26.781Z</time></trkpt><trkpt lat="46.0476327" lon="10.9534244"><ele>248.0</ele><time>2026-04-10T10:50:27.781Z</time></trkpt><trkpt lat="46.047725" lon="10.9535686"><ele>247.75</ele><time>2026-04-10T10:50:28.781Z</time></trkpt><trkpt lat="46.0478119" lon="10.9537149"><ele>247.5</ele><time>2026-04-10T10:50:29.781Z</time></trkpt><trkpt lat="46.0478935" lon="10.9538466"><ele>247.25</ele><time>2026-04-10T10:50:30.781Z</time></trkpt><trkpt lat="46.04797" lon="10.9539682"><ele>247.0</ele><time>2026-04-10T10:50:31.781Z</time></trkpt><trkpt lat="46.0480422" lon="10.9540783"><ele>246.99999999999997</ele><time>2026-04-10T10:50:32.781Z</time></trkpt><trkpt lat="46.0481131" lon="10.9541807"><ele>247.0</ele><time>2026-04-10T10:50:33.781Z</time></trkpt><trkpt lat="46.0481771" lon="10.9542812"><ele>247.0</ele><time>2026-04-10T10:50:34.781Z</time></trkpt><trkpt lat="46.0482342" lon="10.9543698"><ele>247.0</ele><time>2026-04-10T10:50:35.781Z</time></trkpt><trkpt lat="46.0482877" lon="10.9544519"><ele>246.99999999999997</ele><time>2026-04-10T10:50:36.782Z</time></trkpt><trkpt lat="46.0483376" lon="10.95453"><ele>247.0</ele><time>2026-04-10T10:50:37.781Z</time></trkpt><trkpt lat="46.0483882" lon="10.9545972"><ele>247.33333333333331</ele><time>2026-04-10T10:50:38.782Z</time></trkpt><trkpt lat="46.0484901" lon="10.9546609"><ele>247.66666666666666</ele><time>2026-04-10T10:50:40.782Z</time></trkpt><trkpt lat="46.0485714" lon="10.9546379"><ele>248.0</ele><time>2026-04-10T10:50:42.781Z</time></trkpt><trkpt lat="46.0486366" lon="10.95459"><ele>248.33333333333331</ele><time>2026-04-10T10:50:45.781Z</time></trkpt><trkpt lat="46.048629" lon="10.9544929"><ele>248.66666666666666</ele><time>2026-04-10T10:50:49.781Z</time></trkpt><trkpt lat="46.0486415" lon="10.954591"><ele>249.0</ele><time>2026-04-10T10:51:51.782Z</time></trkpt><trkpt lat="46.0486789" lon="10.9546766"><ele>249.0</ele><time>2026-04-10T10:51:55.782Z</time></trkpt><trkpt lat="46.0487287" lon="10.9547434"><ele>248.99999999999997</ele><time>2026-04-10T10:52:01.782Z</time></trkpt><trkpt lat="46.0487772" lon="10.9548156"><ele>249.0</ele><time>2026-04-10T10:52:07.783Z</time></trkpt><trkpt lat="46.0488412" lon="10.9548445"><ele>249.0</ele><time>2026-04-10T10:52:18.783Z</time></trkpt><trkpt lat="46.0487921" lon="10.9547475"><ele>248.99999999999997</ele><time>2026-04-10T10:52:28.783Z</time></trkpt><trkpt lat="46.0487291" lon="10.9546811"><ele>249.0</ele><time>2026-04-10T10:52:36.783Z</time></trkpt><trkpt lat="46.0486698" lon="10.9546211"><ele>249.0</ele><time>2026-04-10T10:52:42.783Z</time></trkpt><trkpt lat="46.0486781" lon="10.9545263"><ele>249.0</ele><time>2026-04-10T10:53:18.846Z</time></trkpt><trkpt lat="46.0486178" lon="10.9544988"><ele>249.0</ele><time>2026-04-10T10:53:22.899Z</time></trkpt></trkseg></trk></gpx>